<?xml version="1.0" encoding="UTF-8" standalone="no" ?>
<gpx xmlns="http://www.topografix.com/GPX/1/1" xmlns:xsi="http://www.w3.org/2001/XMLSchema-instance" xsi:schemaLocation="http://www.topografix.com/GPX/1/1 http://www.topografix.com/GPX/1/1/gpx.xsd" version="1.1" creator="VisuGPX - https://www.visugpx.com">
  <metadata>
    <name>Tours nord</name>
  </metadata>
  <trk>
    <name><![CDATA[Tours Cyclisme]]></name>
    <trkseg>
      <trkpt lat="47.37315" lon="0.69124">
        <ele>50.200000762939</ele>
        <time>2021-07-17T05:09:45.000Z</time>
      </trkpt>
      <trkpt lat="47.37299" lon="0.69047">
        <ele>50</ele>
        <time>2021-07-17T05:09:59.000Z</time>
      </trkpt>
      <trkpt lat="47.37287" lon="0.6898">
        <ele>50.400001525879</ele>
        <time>2021-07-17T05:10:09.000Z</time>
      </trkpt>
      <trkpt lat="47.37284" lon="0.68915">
        <ele>51</ele>
        <time>2021-07-17T05:10:19.000Z</time>
      </trkpt>
      <trkpt lat="47.37288" lon="0.68892">
        <ele>51</ele>
        <time>2021-07-17T05:10:22.000Z</time>
      </trkpt>
      <trkpt lat="47.37287" lon="0.68878">
        <ele>51</ele>
        <time>2021-07-17T05:10:24.000Z</time>
      </trkpt>
      <trkpt lat="47.37284" lon="0.68866">
        <ele>50.799999237061</ele>
        <time>2021-07-17T05:10:26.000Z</time>
      </trkpt>
      <trkpt lat="47.3728" lon="0.68855">
        <ele>50.799999237061</ele>
        <time>2021-07-17T05:10:28.000Z</time>
      </trkpt>
      <trkpt lat="47.37273" lon="0.68847">
        <ele>51</ele>
        <time>2021-07-17T05:10:30.000Z</time>
      </trkpt>
      <trkpt lat="47.37265" lon="0.6884">
        <ele>51.200000762939</ele>
        <time>2021-07-17T05:10:32.000Z</time>
      </trkpt>
      <trkpt lat="47.37257" lon="0.68832">
        <ele>51.400001525879</ele>
        <time>2021-07-17T05:10:34.000Z</time>
      </trkpt>
      <trkpt lat="47.37249" lon="0.68825">
        <ele>51.599998474121</ele>
        <time>2021-07-17T05:10:36.000Z</time>
      </trkpt>
      <trkpt lat="47.3724" lon="0.68821">
        <ele>51.599998474121</ele>
        <time>2021-07-17T05:10:38.000Z</time>
      </trkpt>
      <trkpt lat="47.37187" lon="0.68809">
        <ele>52.200000762939</ele>
        <time>2021-07-17T05:10:49.000Z</time>
      </trkpt>
      <trkpt lat="47.37142" lon="0.68796">
        <ele>52.400001525879</ele>
        <time>2021-07-17T05:10:59.000Z</time>
      </trkpt>
      <trkpt lat="47.37087" lon="0.68783">
        <ele>52.599998474121</ele>
        <time>2021-07-17T05:11:11.000Z</time>
      </trkpt>
      <trkpt lat="47.37034" lon="0.68767">
        <ele>51.400001525879</ele>
        <time>2021-07-17T05:11:22.000Z</time>
      </trkpt>
      <trkpt lat="47.37029" lon="0.68766">
        <ele>51.200000762939</ele>
        <time>2021-07-17T05:11:23.000Z</time>
      </trkpt>
      <trkpt lat="47.37006" lon="0.68758">
        <ele>51</ele>
        <time>2021-07-17T05:11:28.000Z</time>
      </trkpt>
      <trkpt lat="47.36998" lon="0.6875">
        <ele>51</ele>
        <time>2021-07-17T05:11:30.000Z</time>
      </trkpt>
      <trkpt lat="47.37" lon="0.68734">
        <ele>49.599998474121</ele>
        <time>2021-07-17T05:11:32.000Z</time>
      </trkpt>
      <trkpt lat="47.37006" lon="0.68716">
        <ele>48</ele>
        <time>2021-07-17T05:11:34.000Z</time>
      </trkpt>
      <trkpt lat="47.37008" lon="0.68705">
        <ele>47.799999237061</ele>
        <time>2021-07-17T05:11:35.000Z</time>
      </trkpt>
      <trkpt lat="47.37013" lon="0.68625">
        <ele>48.400001525879</ele>
        <time>2021-07-17T05:11:44.000Z</time>
      </trkpt>
      <trkpt lat="47.37013" lon="0.68543">
        <ele>48.200000762939</ele>
        <time>2021-07-17T05:11:55.000Z</time>
      </trkpt>
      <trkpt lat="47.37006" lon="0.68463">
        <ele>48.200000762939</ele>
        <time>2021-07-17T05:12:06.000Z</time>
      </trkpt>
      <trkpt lat="47.37003" lon="0.68405">
        <ele>48.400001525879</ele>
        <time>2021-07-17T05:12:14.000Z</time>
      </trkpt>
      <trkpt lat="47.36994" lon="0.68321">
        <ele>47.799999237061</ele>
        <time>2021-07-17T05:12:25.000Z</time>
      </trkpt>
      <trkpt lat="47.36991" lon="0.68267">
        <ele>48</ele>
        <time>2021-07-17T05:12:32.000Z</time>
      </trkpt>
      <trkpt lat="47.36984" lon="0.68239">
        <ele>48.200000762939</ele>
        <time>2021-07-17T05:12:36.000Z</time>
      </trkpt>
      <trkpt lat="47.36985" lon="0.68224">
        <ele>48</ele>
        <time>2021-07-17T05:12:38.000Z</time>
      </trkpt>
      <trkpt lat="47.36988" lon="0.68211">
        <ele>47.799999237061</ele>
        <time>2021-07-17T05:12:40.000Z</time>
      </trkpt>
      <trkpt lat="47.37005" lon="0.68132">
        <ele>47.400001525879</ele>
        <time>2021-07-17T05:12:51.000Z</time>
      </trkpt>
      <trkpt lat="47.37024" lon="0.68055">
        <ele>47.200000762939</ele>
        <time>2021-07-17T05:13:02.000Z</time>
      </trkpt>
      <trkpt lat="47.3705" lon="0.67981">
        <ele>47.799999237061</ele>
        <time>2021-07-17T05:13:14.000Z</time>
      </trkpt>
      <trkpt lat="47.37084" lon="0.67911">
        <ele>48.400001525879</ele>
        <time>2021-07-17T05:13:27.000Z</time>
      </trkpt>
      <trkpt lat="47.37125" lon="0.67849">
        <ele>48.400001525879</ele>
        <time>2021-07-17T05:13:39.000Z</time>
      </trkpt>
      <trkpt lat="47.3716" lon="0.67785">
        <ele>48.400001525879</ele>
        <time>2021-07-17T05:13:52.000Z</time>
      </trkpt>
      <trkpt lat="47.37162" lon="0.67781">
        <ele>48.400001525879</ele>
        <time>2021-07-17T05:13:53.000Z</time>
      </trkpt>
      <trkpt lat="47.37176" lon="0.67767">
        <ele>48.400001525879</ele>
        <time>2021-07-17T05:13:58.000Z</time>
      </trkpt>
      <trkpt lat="47.37193" lon="0.67682">
        <ele>47.400001525879</ele>
        <time>2021-07-17T05:14:08.000Z</time>
      </trkpt>
      <trkpt lat="47.37194" lon="0.67673">
        <ele>46</ele>
        <time>2021-07-17T05:14:09.000Z</time>
      </trkpt>
      <trkpt lat="47.37196" lon="0.67654">
        <ele>45</ele>
        <time>2021-07-17T05:14:11.000Z</time>
      </trkpt>
      <trkpt lat="47.37216" lon="0.6758">
        <ele>44.400001525879</ele>
        <time>2021-07-17T05:14:20.000Z</time>
      </trkpt>
      <trkpt lat="47.37242" lon="0.67509">
        <ele>44.799999237061</ele>
        <time>2021-07-17T05:14:30.000Z</time>
      </trkpt>
      <trkpt lat="47.37269" lon="0.67437">
        <ele>44.599998474121</ele>
        <time>2021-07-17T05:14:40.000Z</time>
      </trkpt>
      <trkpt lat="47.37274" lon="0.67409">
        <ele>45</ele>
        <time>2021-07-17T05:14:44.000Z</time>
      </trkpt>
      <trkpt lat="47.37277" lon="0.67329">
        <ele>45.200000762939</ele>
        <time>2021-07-17T05:14:55.000Z</time>
      </trkpt>
      <trkpt lat="47.37275" lon="0.67246">
        <ele>44.599998474121</ele>
        <time>2021-07-17T05:15:06.000Z</time>
      </trkpt>
      <trkpt lat="47.37276" lon="0.6716">
        <ele>44.599998474121</ele>
        <time>2021-07-17T05:15:18.000Z</time>
      </trkpt>
      <trkpt lat="47.3728" lon="0.67079">
        <ele>44.400001525879</ele>
        <time>2021-07-17T05:15:29.000Z</time>
      </trkpt>
      <trkpt lat="47.3728" lon="0.67056">
        <ele>44.200000762939</ele>
        <time>2021-07-17T05:15:32.000Z</time>
      </trkpt>
      <trkpt lat="47.37286" lon="0.66971">
        <ele>44</ele>
        <time>2021-07-17T05:15:43.000Z</time>
      </trkpt>
      <trkpt lat="47.37291" lon="0.66931">
        <ele>43.799999237061</ele>
        <time>2021-07-17T05:15:48.000Z</time>
      </trkpt>
      <trkpt lat="47.37299" lon="0.6685">
        <ele>44</ele>
        <time>2021-07-17T05:15:59.000Z</time>
      </trkpt>
      <trkpt lat="47.37305" lon="0.66811">
        <ele>43.400001525879</ele>
        <time>2021-07-17T05:16:05.000Z</time>
      </trkpt>
      <trkpt lat="47.37317" lon="0.66732">
        <ele>43.400001525879</ele>
        <time>2021-07-17T05:16:16.000Z</time>
      </trkpt>
      <trkpt lat="47.3732" lon="0.66718">
        <ele>43.400001525879</ele>
        <time>2021-07-17T05:16:18.000Z</time>
      </trkpt>
      <trkpt lat="47.3734" lon="0.66644">
        <ele>43.400001525879</ele>
        <time>2021-07-17T05:16:29.000Z</time>
      </trkpt>
      <trkpt lat="47.37369" lon="0.66568">
        <ele>43.400001525879</ele>
        <time>2021-07-17T05:16:40.000Z</time>
      </trkpt>
      <trkpt lat="47.37389" lon="0.66489">
        <ele>43.400001525879</ele>
        <time>2021-07-17T05:16:51.000Z</time>
      </trkpt>
      <trkpt lat="47.3741" lon="0.66408">
        <ele>43.400001525879</ele>
        <time>2021-07-17T05:17:02.000Z</time>
      </trkpt>
      <trkpt lat="47.37433" lon="0.66333">
        <ele>43.400001525879</ele>
        <time>2021-07-17T05:17:12.000Z</time>
      </trkpt>
      <trkpt lat="47.37445" lon="0.66298">
        <ele>43.599998474121</ele>
        <time>2021-07-17T05:17:17.000Z</time>
      </trkpt>
      <trkpt lat="47.37445" lon="0.66282">
        <ele>43.599998474121</ele>
        <time>2021-07-17T05:17:19.000Z</time>
      </trkpt>
      <trkpt lat="47.37447" lon="0.66199">
        <ele>43.400001525879</ele>
        <time>2021-07-17T05:17:29.000Z</time>
      </trkpt>
      <trkpt lat="47.37445" lon="0.66114">
        <ele>43.200000762939</ele>
        <time>2021-07-17T05:17:39.000Z</time>
      </trkpt>
      <trkpt lat="47.37432" lon="0.66034">
        <ele>42.799999237061</ele>
        <time>2021-07-17T05:17:49.000Z</time>
      </trkpt>
      <trkpt lat="47.37408" lon="0.65962">
        <ele>43.200000762939</ele>
        <time>2021-07-17T05:17:59.000Z</time>
      </trkpt>
      <trkpt lat="47.37383" lon="0.65888">
        <ele>43.200000762939</ele>
        <time>2021-07-17T05:18:09.000Z</time>
      </trkpt>
      <trkpt lat="47.37381" lon="0.65881">
        <ele>43.200000762939</ele>
        <time>2021-07-17T05:18:10.000Z</time>
      </trkpt>
      <trkpt lat="47.37376" lon="0.65857">
        <ele>42.799999237061</ele>
        <time>2021-07-17T05:18:13.000Z</time>
      </trkpt>
      <trkpt lat="47.37365" lon="0.65802">
        <ele>42.799999237061</ele>
        <time>2021-07-17T05:18:20.000Z</time>
      </trkpt>
      <trkpt lat="47.37353" lon="0.65722">
        <ele>42.599998474121</ele>
        <time>2021-07-17T05:18:30.000Z</time>
      </trkpt>
      <trkpt lat="47.37342" lon="0.65643">
        <ele>42.400001525879</ele>
        <time>2021-07-17T05:18:40.000Z</time>
      </trkpt>
      <trkpt lat="47.37335" lon="0.65562">
        <ele>42.200000762939</ele>
        <time>2021-07-17T05:18:50.000Z</time>
      </trkpt>
      <trkpt lat="47.37334" lon="0.65513">
        <ele>41.799999237061</ele>
        <time>2021-07-17T05:18:56.000Z</time>
      </trkpt>
      <trkpt lat="47.37341" lon="0.65431">
        <ele>41.200000762939</ele>
        <time>2021-07-17T05:19:06.000Z</time>
      </trkpt>
      <trkpt lat="47.37344" lon="0.65351">
        <ele>41.200000762939</ele>
        <time>2021-07-17T05:19:16.000Z</time>
      </trkpt>
      <trkpt lat="47.37345" lon="0.65334">
        <ele>41.200000762939</ele>
        <time>2021-07-17T05:19:18.000Z</time>
      </trkpt>
      <trkpt lat="47.37352" lon="0.65323">
        <ele>41.200000762939</ele>
        <time>2021-07-17T05:19:20.000Z</time>
      </trkpt>
      <trkpt lat="47.37383" lon="0.6531">
        <ele>40.799999237061</ele>
        <time>2021-07-17T05:19:26.000Z</time>
      </trkpt>
      <trkpt lat="47.37393" lon="0.65299">
        <ele>39.200000762939</ele>
        <time>2021-07-17T05:19:28.000Z</time>
      </trkpt>
      <trkpt lat="47.374" lon="0.65272">
        <ele>39.400001525879</ele>
        <time>2021-07-17T05:19:31.000Z</time>
      </trkpt>
      <trkpt lat="47.374" lon="0.65255">
        <ele>39.599998474121</ele>
        <time>2021-07-17T05:19:33.000Z</time>
      </trkpt>
      <trkpt lat="47.37405" lon="0.65207">
        <ele>40.400001525879</ele>
        <time>2021-07-17T05:19:39.000Z</time>
      </trkpt>
      <trkpt lat="47.37416" lon="0.65137">
        <ele>41.400001525879</ele>
        <time>2021-07-17T05:19:48.000Z</time>
      </trkpt>
      <trkpt lat="47.37427" lon="0.65058">
        <ele>41.799999237061</ele>
        <time>2021-07-17T05:19:58.000Z</time>
      </trkpt>
      <trkpt lat="47.37432" lon="0.64976">
        <ele>41.599998474121</ele>
        <time>2021-07-17T05:20:08.000Z</time>
      </trkpt>
      <trkpt lat="47.37431" lon="0.64959">
        <ele>41.599998474121</ele>
        <time>2021-07-17T05:20:10.000Z</time>
      </trkpt>
      <trkpt lat="47.37427" lon="0.64944">
        <ele>41.599998474121</ele>
        <time>2021-07-17T05:20:12.000Z</time>
      </trkpt>
      <trkpt lat="47.37393" lon="0.64873">
        <ele>41.400001525879</ele>
        <time>2021-07-17T05:20:22.000Z</time>
      </trkpt>
      <trkpt lat="47.37353" lon="0.64812">
        <ele>41.200000762939</ele>
        <time>2021-07-17T05:20:32.000Z</time>
      </trkpt>
      <trkpt lat="47.3731" lon="0.64755">
        <ele>40.400001525879</ele>
        <time>2021-07-17T05:20:42.000Z</time>
      </trkpt>
      <trkpt lat="47.37273" lon="0.6469">
        <ele>40.799999237061</ele>
        <time>2021-07-17T05:20:52.000Z</time>
      </trkpt>
      <trkpt lat="47.3724" lon="0.6462">
        <ele>41.200000762939</ele>
        <time>2021-07-17T05:21:02.000Z</time>
      </trkpt>
      <trkpt lat="47.37237" lon="0.64605">
        <ele>41.200000762939</ele>
        <time>2021-07-17T05:21:04.000Z</time>
      </trkpt>
      <trkpt lat="47.37232" lon="0.64523">
        <ele>41.400001525879</ele>
        <time>2021-07-17T05:21:14.000Z</time>
      </trkpt>
      <trkpt lat="47.37229" lon="0.6444">
        <ele>41.200000762939</ele>
        <time>2021-07-17T05:21:24.000Z</time>
      </trkpt>
      <trkpt lat="47.37226" lon="0.64357">
        <ele>41.200000762939</ele>
        <time>2021-07-17T05:21:34.000Z</time>
      </trkpt>
      <trkpt lat="47.37223" lon="0.64272">
        <ele>41.200000762939</ele>
        <time>2021-07-17T05:21:44.000Z</time>
      </trkpt>
      <trkpt lat="47.37224" lon="0.6419">
        <ele>41</ele>
        <time>2021-07-17T05:21:54.000Z</time>
      </trkpt>
      <trkpt lat="47.37224" lon="0.64126">
        <ele>40.599998474121</ele>
        <time>2021-07-17T05:22:02.000Z</time>
      </trkpt>
      <trkpt lat="47.37212" lon="0.64042">
        <ele>40.400001525879</ele>
        <time>2021-07-17T05:22:13.000Z</time>
      </trkpt>
      <trkpt lat="47.37205" lon="0.63956">
        <ele>40.400001525879</ele>
        <time>2021-07-17T05:22:23.000Z</time>
      </trkpt>
      <trkpt lat="47.37202" lon="0.63932">
        <ele>40.599998474121</ele>
        <time>2021-07-17T05:22:26.000Z</time>
      </trkpt>
      <trkpt lat="47.37193" lon="0.63913">
        <ele>40.599998474121</ele>
        <time>2021-07-17T05:22:29.000Z</time>
      </trkpt>
      <trkpt lat="47.37168" lon="0.63841">
        <ele>40.599998474121</ele>
        <time>2021-07-17T05:22:39.000Z</time>
      </trkpt>
      <trkpt lat="47.37142" lon="0.63767">
        <ele>40.599998474121</ele>
        <time>2021-07-17T05:22:49.000Z</time>
      </trkpt>
      <trkpt lat="47.37137" lon="0.63734">
        <ele>40.599998474121</ele>
        <time>2021-07-17T05:22:53.000Z</time>
      </trkpt>
      <trkpt lat="47.37129" lon="0.63652">
        <ele>40.799999237061</ele>
        <time>2021-07-17T05:23:03.000Z</time>
      </trkpt>
      <trkpt lat="47.37121" lon="0.63571">
        <ele>41</ele>
        <time>2021-07-17T05:23:13.000Z</time>
      </trkpt>
      <trkpt lat="47.37113" lon="0.63488">
        <ele>40.599998474121</ele>
        <time>2021-07-17T05:23:23.000Z</time>
      </trkpt>
      <trkpt lat="47.37105" lon="0.63406">
        <ele>40.599998474121</ele>
        <time>2021-07-17T05:23:33.000Z</time>
      </trkpt>
      <trkpt lat="47.37096" lon="0.63325">
        <ele>40.599998474121</ele>
        <time>2021-07-17T05:23:43.000Z</time>
      </trkpt>
      <trkpt lat="47.37089" lon="0.63242">
        <ele>40.200000762939</ele>
        <time>2021-07-17T05:23:53.000Z</time>
      </trkpt>
      <trkpt lat="47.37079" lon="0.63159">
        <ele>40</ele>
        <time>2021-07-17T05:24:03.000Z</time>
      </trkpt>
      <trkpt lat="47.37069" lon="0.63079">
        <ele>40</ele>
        <time>2021-07-17T05:24:13.000Z</time>
      </trkpt>
      <trkpt lat="47.37058" lon="0.62999">
        <ele>40.200000762939</ele>
        <time>2021-07-17T05:24:23.000Z</time>
      </trkpt>
      <trkpt lat="47.37048" lon="0.6292">
        <ele>40</ele>
        <time>2021-07-17T05:24:33.000Z</time>
      </trkpt>
      <trkpt lat="47.37041" lon="0.62839">
        <ele>40</ele>
        <time>2021-07-17T05:24:43.000Z</time>
      </trkpt>
      <trkpt lat="47.37041" lon="0.62757">
        <ele>40.200000762939</ele>
        <time>2021-07-17T05:24:53.000Z</time>
      </trkpt>
      <trkpt lat="47.3704" lon="0.62677">
        <ele>40</ele>
        <time>2021-07-17T05:25:03.000Z</time>
      </trkpt>
      <trkpt lat="47.37039" lon="0.62597">
        <ele>40.200000762939</ele>
        <time>2021-07-17T05:25:13.000Z</time>
      </trkpt>
      <trkpt lat="47.37037" lon="0.62517">
        <ele>40</ele>
        <time>2021-07-17T05:25:23.000Z</time>
      </trkpt>
      <trkpt lat="47.37027" lon="0.62436">
        <ele>39.599998474121</ele>
        <time>2021-07-17T05:25:33.000Z</time>
      </trkpt>
      <trkpt lat="47.37014" lon="0.62358">
        <ele>39.599998474121</ele>
        <time>2021-07-17T05:25:43.000Z</time>
      </trkpt>
      <trkpt lat="47.37001" lon="0.6228">
        <ele>39.599998474121</ele>
        <time>2021-07-17T05:25:53.000Z</time>
      </trkpt>
      <trkpt lat="47.36988" lon="0.62203">
        <ele>39.599998474121</ele>
        <time>2021-07-17T05:26:03.000Z</time>
      </trkpt>
      <trkpt lat="47.36974" lon="0.62118">
        <ele>39.599998474121</ele>
        <time>2021-07-17T05:26:14.000Z</time>
      </trkpt>
      <trkpt lat="47.36961" lon="0.62041">
        <ele>39.400001525879</ele>
        <time>2021-07-17T05:26:24.000Z</time>
      </trkpt>
      <trkpt lat="47.36955" lon="0.62001">
        <ele>39.400001525879</ele>
        <time>2021-07-17T05:26:29.000Z</time>
      </trkpt>
      <trkpt lat="47.36941" lon="0.61922">
        <ele>39.200000762939</ele>
        <time>2021-07-17T05:26:39.000Z</time>
      </trkpt>
      <trkpt lat="47.36927" lon="0.61843">
        <ele>39.200000762939</ele>
        <time>2021-07-17T05:26:49.000Z</time>
      </trkpt>
      <trkpt lat="47.36914" lon="0.61764">
        <ele>39.200000762939</ele>
        <time>2021-07-17T05:26:59.000Z</time>
      </trkpt>
      <trkpt lat="47.36898" lon="0.61682">
        <ele>39.400001525879</ele>
        <time>2021-07-17T05:27:09.000Z</time>
      </trkpt>
      <trkpt lat="47.36881" lon="0.616">
        <ele>39</ele>
        <time>2021-07-17T05:27:19.000Z</time>
      </trkpt>
      <trkpt lat="47.3686" lon="0.6152">
        <ele>38.799999237061</ele>
        <time>2021-07-17T05:27:29.000Z</time>
      </trkpt>
      <trkpt lat="47.36824" lon="0.61453">
        <ele>38.799999237061</ele>
        <time>2021-07-17T05:27:39.000Z</time>
      </trkpt>
      <trkpt lat="47.36785" lon="0.61393">
        <ele>39</ele>
        <time>2021-07-17T05:27:49.000Z</time>
      </trkpt>
      <trkpt lat="47.36745" lon="0.61332">
        <ele>38.799999237061</ele>
        <time>2021-07-17T05:27:59.000Z</time>
      </trkpt>
      <trkpt lat="47.36698" lon="0.61283">
        <ele>38.599998474121</ele>
        <time>2021-07-17T05:28:09.000Z</time>
      </trkpt>
      <trkpt lat="47.3665" lon="0.61239">
        <ele>38.599998474121</ele>
        <time>2021-07-17T05:28:19.000Z</time>
      </trkpt>
      <trkpt lat="47.36605" lon="0.61196">
        <ele>38.799999237061</ele>
        <time>2021-07-17T05:28:29.000Z</time>
      </trkpt>
      <trkpt lat="47.36596" lon="0.61185">
        <ele>38.400001525879</ele>
        <time>2021-07-17T05:28:31.000Z</time>
      </trkpt>
      <trkpt lat="47.36566" lon="0.61134">
        <ele>38</ele>
        <time>2021-07-17T05:28:39.000Z</time>
      </trkpt>
      <trkpt lat="47.36536" lon="0.6106">
        <ele>38.400001525879</ele>
        <time>2021-07-17T05:28:50.000Z</time>
      </trkpt>
      <trkpt lat="47.36494" lon="0.60999">
        <ele>38.200000762939</ele>
        <time>2021-07-17T05:29:00.000Z</time>
      </trkpt>
      <trkpt lat="47.36459" lon="0.60936">
        <ele>38.200000762939</ele>
        <time>2021-07-17T05:29:10.000Z</time>
      </trkpt>
      <trkpt lat="47.36427" lon="0.60868">
        <ele>38.400001525879</ele>
        <time>2021-07-17T05:29:21.000Z</time>
      </trkpt>
      <trkpt lat="47.36404" lon="0.60795">
        <ele>38.200000762939</ele>
        <time>2021-07-17T05:29:31.000Z</time>
      </trkpt>
      <trkpt lat="47.36382" lon="0.60722">
        <ele>38</ele>
        <time>2021-07-17T05:29:40.000Z</time>
      </trkpt>
      <trkpt lat="47.3636" lon="0.60641">
        <ele>39.200000762939</ele>
        <time>2021-07-17T05:29:50.000Z</time>
      </trkpt>
      <trkpt lat="47.36353" lon="0.60619">
        <ele>39.599998474121</ele>
        <time>2021-07-17T05:29:53.000Z</time>
      </trkpt>
      <trkpt lat="47.36335" lon="0.60552">
        <ele>38.599998474121</ele>
        <time>2021-07-17T05:30:02.000Z</time>
      </trkpt>
      <trkpt lat="47.36318" lon="0.60517">
        <ele>38</ele>
        <time>2021-07-17T05:30:07.000Z</time>
      </trkpt>
      <trkpt lat="47.36309" lon="0.60507">
        <ele>38.400001525879</ele>
        <time>2021-07-17T05:30:09.000Z</time>
      </trkpt>
      <trkpt lat="47.36282" lon="0.6048">
        <ele>38.200000762939</ele>
        <time>2021-07-17T05:30:15.000Z</time>
      </trkpt>
      <trkpt lat="47.36282" lon="0.60465">
        <ele>38.200000762939</ele>
        <time>2021-07-17T05:30:17.000Z</time>
      </trkpt>
      <trkpt lat="47.36291" lon="0.60384">
        <ele>38.599998474121</ele>
        <time>2021-07-17T05:30:27.000Z</time>
      </trkpt>
      <trkpt lat="47.36291" lon="0.60301">
        <ele>38.799999237061</ele>
        <time>2021-07-17T05:30:37.000Z</time>
      </trkpt>
      <trkpt lat="47.36291" lon="0.60215">
        <ele>38.599998474121</ele>
        <time>2021-07-17T05:30:49.000Z</time>
      </trkpt>
      <trkpt lat="47.36293" lon="0.60154">
        <ele>38.799999237061</ele>
        <time>2021-07-17T05:30:58.000Z</time>
      </trkpt>
      <trkpt lat="47.36288" lon="0.60112">
        <ele>39</ele>
        <time>2021-07-17T05:31:04.000Z</time>
      </trkpt>
      <trkpt lat="47.36273" lon="0.60028">
        <ele>39</ele>
        <time>2021-07-17T05:31:14.000Z</time>
      </trkpt>
      <trkpt lat="47.36275" lon="0.5996">
        <ele>38.400001525879</ele>
        <time>2021-07-17T05:31:21.000Z</time>
      </trkpt>
      <trkpt lat="47.36285" lon="0.5988">
        <ele>38.599998474121</ele>
        <time>2021-07-17T05:31:30.000Z</time>
      </trkpt>
      <trkpt lat="47.363" lon="0.59795">
        <ele>39</ele>
        <time>2021-07-17T05:31:41.000Z</time>
      </trkpt>
      <trkpt lat="47.36308" lon="0.59715">
        <ele>38.799999237061</ele>
        <time>2021-07-17T05:31:51.000Z</time>
      </trkpt>
      <trkpt lat="47.36313" lon="0.59634">
        <ele>38.599998474121</ele>
        <time>2021-07-17T05:32:01.000Z</time>
      </trkpt>
      <trkpt lat="47.3633" lon="0.59557">
        <ele>39</ele>
        <time>2021-07-17T05:32:11.000Z</time>
      </trkpt>
      <trkpt lat="47.36353" lon="0.59481">
        <ele>39</ele>
        <time>2021-07-17T05:32:21.000Z</time>
      </trkpt>
      <trkpt lat="47.36376" lon="0.59405">
        <ele>39</ele>
        <time>2021-07-17T05:32:31.000Z</time>
      </trkpt>
      <trkpt lat="47.36395" lon="0.59327">
        <ele>39.200000762939</ele>
        <time>2021-07-17T05:32:41.000Z</time>
      </trkpt>
      <trkpt lat="47.36409" lon="0.59248">
        <ele>39.400001525879</ele>
        <time>2021-07-17T05:32:51.000Z</time>
      </trkpt>
      <trkpt lat="47.36412" lon="0.59234">
        <ele>39.599998474121</ele>
        <time>2021-07-17T05:32:53.000Z</time>
      </trkpt>
      <trkpt lat="47.36423" lon="0.59152">
        <ele>39.200000762939</ele>
        <time>2021-07-17T05:33:03.000Z</time>
      </trkpt>
      <trkpt lat="47.36433" lon="0.59071">
        <ele>39.200000762939</ele>
        <time>2021-07-17T05:33:13.000Z</time>
      </trkpt>
      <trkpt lat="47.36437" lon="0.59035">
        <ele>38.599998474121</ele>
        <time>2021-07-17T05:33:17.000Z</time>
      </trkpt>
      <trkpt lat="47.36438" lon="0.58976">
        <ele>39.200000762939</ele>
        <time>2021-07-17T05:33:24.000Z</time>
      </trkpt>
      <trkpt lat="47.36445" lon="0.58894">
        <ele>38.799999237061</ele>
        <time>2021-07-17T05:33:33.000Z</time>
      </trkpt>
      <trkpt lat="47.36438" lon="0.58813">
        <ele>38.799999237061</ele>
        <time>2021-07-17T05:33:42.000Z</time>
      </trkpt>
      <trkpt lat="47.36421" lon="0.5873">
        <ele>39</ele>
        <time>2021-07-17T05:33:52.000Z</time>
      </trkpt>
      <trkpt lat="47.36405" lon="0.58645">
        <ele>39</ele>
        <time>2021-07-17T05:34:02.000Z</time>
      </trkpt>
      <trkpt lat="47.3638" lon="0.58566">
        <ele>38.799999237061</ele>
        <time>2021-07-17T05:34:12.000Z</time>
      </trkpt>
      <trkpt lat="47.36354" lon="0.58489">
        <ele>39.200000762939</ele>
        <time>2021-07-17T05:34:22.000Z</time>
      </trkpt>
      <trkpt lat="47.36329" lon="0.58413">
        <ele>39.200000762939</ele>
        <time>2021-07-17T05:34:32.000Z</time>
      </trkpt>
      <trkpt lat="47.36301" lon="0.58337">
        <ele>39.200000762939</ele>
        <time>2021-07-17T05:34:42.000Z</time>
      </trkpt>
      <trkpt lat="47.36277" lon="0.5826">
        <ele>39</ele>
        <time>2021-07-17T05:34:52.000Z</time>
      </trkpt>
      <trkpt lat="47.36248" lon="0.58183">
        <ele>38.400001525879</ele>
        <time>2021-07-17T05:35:02.000Z</time>
      </trkpt>
      <trkpt lat="47.36222" lon="0.58112">
        <ele>38.400001525879</ele>
        <time>2021-07-17T05:35:11.000Z</time>
      </trkpt>
      <trkpt lat="47.36199" lon="0.5804">
        <ele>39</ele>
        <time>2021-07-17T05:35:20.000Z</time>
      </trkpt>
      <trkpt lat="47.36168" lon="0.57967">
        <ele>38.799999237061</ele>
        <time>2021-07-17T05:35:30.000Z</time>
      </trkpt>
      <trkpt lat="47.36141" lon="0.5789">
        <ele>39</ele>
        <time>2021-07-17T05:35:40.000Z</time>
      </trkpt>
      <trkpt lat="47.36129" lon="0.57854">
        <ele>39.200000762939</ele>
        <time>2021-07-17T05:35:45.000Z</time>
      </trkpt>
      <trkpt lat="47.36119" lon="0.57835">
        <ele>38.799999237061</ele>
        <time>2021-07-17T05:35:48.000Z</time>
      </trkpt>
      <trkpt lat="47.361" lon="0.57753">
        <ele>38.599998474121</ele>
        <time>2021-07-17T05:35:58.000Z</time>
      </trkpt>
      <trkpt lat="47.36092" lon="0.57689">
        <ele>39.599998474121</ele>
        <time>2021-07-17T05:36:06.000Z</time>
      </trkpt>
      <trkpt lat="47.36074" lon="0.57609">
        <ele>39.200000762939</ele>
        <time>2021-07-17T05:36:16.000Z</time>
      </trkpt>
      <trkpt lat="47.36059" lon="0.57529">
        <ele>39.599998474121</ele>
        <time>2021-07-17T05:36:26.000Z</time>
      </trkpt>
      <trkpt lat="47.36049" lon="0.57444">
        <ele>39</ele>
        <time>2021-07-17T05:36:36.000Z</time>
      </trkpt>
      <trkpt lat="47.36049" lon="0.57359">
        <ele>39.200000762939</ele>
        <time>2021-07-17T05:36:46.000Z</time>
      </trkpt>
      <trkpt lat="47.36051" lon="0.57273">
        <ele>39.599998474121</ele>
        <time>2021-07-17T05:36:56.000Z</time>
      </trkpt>
      <trkpt lat="47.36052" lon="0.57187">
        <ele>39.599998474121</ele>
        <time>2021-07-17T05:37:06.000Z</time>
      </trkpt>
      <trkpt lat="47.36063" lon="0.57105">
        <ele>39.799999237061</ele>
        <time>2021-07-17T05:37:16.000Z</time>
      </trkpt>
      <trkpt lat="47.36076" lon="0.57021">
        <ele>40.200000762939</ele>
        <time>2021-07-17T05:37:26.000Z</time>
      </trkpt>
      <trkpt lat="47.36078" lon="0.57013">
        <ele>40.799999237061</ele>
        <time>2021-07-17T05:37:27.000Z</time>
      </trkpt>
      <trkpt lat="47.36093" lon="0.56984">
        <ele>41.400001525879</ele>
        <time>2021-07-17T05:37:32.000Z</time>
      </trkpt>
      <trkpt lat="47.36117" lon="0.56948">
        <ele>39.799999237061</ele>
        <time>2021-07-17T05:37:38.000Z</time>
      </trkpt>
      <trkpt lat="47.36153" lon="0.56879">
        <ele>40</ele>
        <time>2021-07-17T05:37:48.000Z</time>
      </trkpt>
      <trkpt lat="47.36186" lon="0.56817">
        <ele>39.599998474121</ele>
        <time>2021-07-17T05:37:57.000Z</time>
      </trkpt>
      <trkpt lat="47.36224" lon="0.56749">
        <ele>39.799999237061</ele>
        <time>2021-07-17T05:38:07.000Z</time>
      </trkpt>
      <trkpt lat="47.36255" lon="0.56677">
        <ele>39.799999237061</ele>
        <time>2021-07-17T05:38:17.000Z</time>
      </trkpt>
      <trkpt lat="47.36288" lon="0.56607">
        <ele>39.799999237061</ele>
        <time>2021-07-17T05:38:27.000Z</time>
      </trkpt>
      <trkpt lat="47.36321" lon="0.56543">
        <ele>40.200000762939</ele>
        <time>2021-07-17T05:38:37.000Z</time>
      </trkpt>
      <trkpt lat="47.36347" lon="0.56469">
        <ele>39.599998474121</ele>
        <time>2021-07-17T05:38:47.000Z</time>
      </trkpt>
      <trkpt lat="47.3635" lon="0.56385">
        <ele>39.400001525879</ele>
        <time>2021-07-17T05:38:56.000Z</time>
      </trkpt>
      <trkpt lat="47.36336" lon="0.56301">
        <ele>40</ele>
        <time>2021-07-17T05:39:06.000Z</time>
      </trkpt>
      <trkpt lat="47.36313" lon="0.56224">
        <ele>40.799999237061</ele>
        <time>2021-07-17T05:39:16.000Z</time>
      </trkpt>
      <trkpt lat="47.36311" lon="0.56218">
        <ele>41</ele>
        <time>2021-07-17T05:39:17.000Z</time>
      </trkpt>
      <trkpt lat="47.36284" lon="0.56155">
        <ele>40</ele>
        <time>2021-07-17T05:39:26.000Z</time>
      </trkpt>
      <trkpt lat="47.36272" lon="0.56134">
        <ele>40</ele>
        <time>2021-07-17T05:39:29.000Z</time>
      </trkpt>
      <trkpt lat="47.36254" lon="0.56111">
        <ele>40.200000762939</ele>
        <time>2021-07-17T05:39:33.000Z</time>
      </trkpt>
      <trkpt lat="47.36217" lon="0.56042">
        <ele>40</ele>
        <time>2021-07-17T05:39:43.000Z</time>
      </trkpt>
      <trkpt lat="47.36184" lon="0.55969">
        <ele>40</ele>
        <time>2021-07-17T05:39:53.000Z</time>
      </trkpt>
      <trkpt lat="47.36173" lon="0.55937">
        <ele>40</ele>
        <time>2021-07-17T05:39:57.000Z</time>
      </trkpt>
      <trkpt lat="47.36164" lon="0.55905">
        <ele>40.200000762939</ele>
        <time>2021-07-17T05:40:01.000Z</time>
      </trkpt>
      <trkpt lat="47.36134" lon="0.55837">
        <ele>40.400001525879</ele>
        <time>2021-07-17T05:40:10.000Z</time>
      </trkpt>
      <trkpt lat="47.36109" lon="0.55795">
        <ele>39.200000762939</ele>
        <time>2021-07-17T05:40:16.000Z</time>
      </trkpt>
      <trkpt lat="47.36083" lon="0.55766">
        <ele>39</ele>
        <time>2021-07-17T05:40:21.000Z</time>
      </trkpt>
      <trkpt lat="47.36069" lon="0.55736">
        <ele>38.799999237061</ele>
        <time>2021-07-17T05:40:25.000Z</time>
      </trkpt>
      <trkpt lat="47.36047" lon="0.55661">
        <ele>38.599998474121</ele>
        <time>2021-07-17T05:40:34.000Z</time>
      </trkpt>
      <trkpt lat="47.36029" lon="0.55578">
        <ele>39.200000762939</ele>
        <time>2021-07-17T05:40:44.000Z</time>
      </trkpt>
      <trkpt lat="47.3601" lon="0.55501">
        <ele>38.799999237061</ele>
        <time>2021-07-17T05:40:53.000Z</time>
      </trkpt>
      <trkpt lat="47.35973" lon="0.55432">
        <ele>39</ele>
        <time>2021-07-17T05:41:03.000Z</time>
      </trkpt>
      <trkpt lat="47.3597" lon="0.55425">
        <ele>39</ele>
        <time>2021-07-17T05:41:04.000Z</time>
      </trkpt>
      <trkpt lat="47.35966" lon="0.55409">
        <ele>39.200000762939</ele>
        <time>2021-07-17T05:41:06.000Z</time>
      </trkpt>
      <trkpt lat="47.35964" lon="0.55384">
        <ele>39.200000762939</ele>
        <time>2021-07-17T05:41:09.000Z</time>
      </trkpt>
      <trkpt lat="47.35965" lon="0.55324">
        <ele>38.799999237061</ele>
        <time>2021-07-17T05:41:16.000Z</time>
      </trkpt>
      <trkpt lat="47.35963" lon="0.55308">
        <ele>38.799999237061</ele>
        <time>2021-07-17T05:41:18.000Z</time>
      </trkpt>
      <trkpt lat="47.35955" lon="0.55281">
        <ele>40</ele>
        <time>2021-07-17T05:41:22.000Z</time>
      </trkpt>
      <trkpt lat="47.35953" lon="0.55275">
        <ele>40.200000762939</ele>
        <time>2021-07-17T05:41:23.000Z</time>
      </trkpt>
      <trkpt lat="47.35949" lon="0.55263">
        <ele>40</ele>
        <time>2021-07-17T05:41:25.000Z</time>
      </trkpt>
      <trkpt lat="47.35952" lon="0.55251">
        <ele>40</ele>
        <time>2021-07-17T05:41:28.000Z</time>
      </trkpt>
      <trkpt lat="47.35962" lon="0.55248">
        <ele>40.200000762939</ele>
        <time>2021-07-17T05:41:30.000Z</time>
      </trkpt>
      <trkpt lat="47.35999" lon="0.55234">
        <ele>40.400001525879</ele>
        <time>2021-07-17T05:41:37.000Z</time>
      </trkpt>
      <trkpt lat="47.36008" lon="0.55226">
        <ele>40.599998474121</ele>
        <time>2021-07-17T05:41:39.000Z</time>
      </trkpt>
      <trkpt lat="47.36009" lon="0.55211">
        <ele>40.799999237061</ele>
        <time>2021-07-17T05:41:41.000Z</time>
      </trkpt>
      <trkpt lat="47.36007" lon="0.55195">
        <ele>40.799999237061</ele>
        <time>2021-07-17T05:41:43.000Z</time>
      </trkpt>
      <trkpt lat="47.36006" lon="0.55186">
        <ele>41</ele>
        <time>2021-07-17T05:41:44.000Z</time>
      </trkpt>
      <trkpt lat="47.36004" lon="0.55161">
        <ele>39.599998474121</ele>
        <time>2021-07-17T05:41:47.000Z</time>
      </trkpt>
      <trkpt lat="47.35998" lon="0.55073">
        <ele>39</ele>
        <time>2021-07-17T05:41:57.000Z</time>
      </trkpt>
      <trkpt lat="47.3598" lon="0.5499">
        <ele>38.799999237061</ele>
        <time>2021-07-17T05:42:07.000Z</time>
      </trkpt>
      <trkpt lat="47.35962" lon="0.5491">
        <ele>39.200000762939</ele>
        <time>2021-07-17T05:42:17.000Z</time>
      </trkpt>
      <trkpt lat="47.3594" lon="0.54829">
        <ele>39.200000762939</ele>
        <time>2021-07-17T05:42:27.000Z</time>
      </trkpt>
      <trkpt lat="47.35902" lon="0.54763">
        <ele>38.799999237061</ele>
        <time>2021-07-17T05:42:37.000Z</time>
      </trkpt>
      <trkpt lat="47.35894" lon="0.54751">
        <ele>38.599998474121</ele>
        <time>2021-07-17T05:42:39.000Z</time>
      </trkpt>
      <trkpt lat="47.35849" lon="0.54697">
        <ele>37.799999237061</ele>
        <time>2021-07-17T05:42:48.000Z</time>
      </trkpt>
      <trkpt lat="47.35828" lon="0.54677">
        <ele>37.400001525879</ele>
        <time>2021-07-17T05:42:52.000Z</time>
      </trkpt>
      <trkpt lat="47.35778" lon="0.54646">
        <ele>37.599998474121</ele>
        <time>2021-07-17T05:43:01.000Z</time>
      </trkpt>
      <trkpt lat="47.3572" lon="0.54627">
        <ele>37.200000762939</ele>
        <time>2021-07-17T05:43:11.000Z</time>
      </trkpt>
      <trkpt lat="47.35662" lon="0.54626">
        <ele>37.599998474121</ele>
        <time>2021-07-17T05:43:21.000Z</time>
      </trkpt>
      <trkpt lat="47.3565" lon="0.5463">
        <ele>37.599998474121</ele>
        <time>2021-07-17T05:43:23.000Z</time>
      </trkpt>
      <trkpt lat="47.35599" lon="0.54666">
        <ele>37.599998474121</ele>
        <time>2021-07-17T05:43:32.000Z</time>
      </trkpt>
      <trkpt lat="47.35557" lon="0.5472">
        <ele>38.200000762939</ele>
        <time>2021-07-17T05:43:42.000Z</time>
      </trkpt>
      <trkpt lat="47.35509" lon="0.54764">
        <ele>38.400001525879</ele>
        <time>2021-07-17T05:43:52.000Z</time>
      </trkpt>
      <trkpt lat="47.3546" lon="0.5481">
        <ele>37.799999237061</ele>
        <time>2021-07-17T05:44:02.000Z</time>
      </trkpt>
      <trkpt lat="47.35411" lon="0.5486">
        <ele>37.799999237061</ele>
        <time>2021-07-17T05:44:12.000Z</time>
      </trkpt>
      <trkpt lat="47.35362" lon="0.54908">
        <ele>37.599998474121</ele>
        <time>2021-07-17T05:44:22.000Z</time>
      </trkpt>
      <trkpt lat="47.35308" lon="0.54941">
        <ele>38</ele>
        <time>2021-07-17T05:44:32.000Z</time>
      </trkpt>
      <trkpt lat="47.35256" lon="0.54964">
        <ele>37.599998474121</ele>
        <time>2021-07-17T05:44:41.000Z</time>
      </trkpt>
      <trkpt lat="47.35197" lon="0.54974">
        <ele>37.799999237061</ele>
        <time>2021-07-17T05:44:51.000Z</time>
      </trkpt>
      <trkpt lat="47.35138" lon="0.54977">
        <ele>37.400001525879</ele>
        <time>2021-07-17T05:45:01.000Z</time>
      </trkpt>
      <trkpt lat="47.35103" lon="0.54977">
        <ele>37.599998474121</ele>
        <time>2021-07-17T05:45:07.000Z</time>
      </trkpt>
      <trkpt lat="47.35052" lon="0.54946">
        <ele>37.200000762939</ele>
        <time>2021-07-17T05:45:17.000Z</time>
      </trkpt>
      <trkpt lat="47.35003" lon="0.54914">
        <ele>36.799999237061</ele>
        <time>2021-07-17T05:45:27.000Z</time>
      </trkpt>
      <trkpt lat="47.3495" lon="0.5488">
        <ele>36.799999237061</ele>
        <time>2021-07-17T05:45:37.000Z</time>
      </trkpt>
      <trkpt lat="47.34929" lon="0.54873">
        <ele>38.599998474121</ele>
        <time>2021-07-17T05:45:41.000Z</time>
      </trkpt>
      <trkpt lat="47.34919" lon="0.54869">
        <ele>38.400001525879</ele>
        <time>2021-07-17T05:45:43.000Z</time>
      </trkpt>
      <trkpt lat="47.34911" lon="0.54845">
        <ele>38.400001525879</ele>
        <time>2021-07-17T05:45:47.000Z</time>
      </trkpt>
      <trkpt lat="47.34898" lon="0.54822">
        <ele>37.200000762939</ele>
        <time>2021-07-17T05:45:51.000Z</time>
      </trkpt>
      <trkpt lat="47.34873" lon="0.54768">
        <ele>36.799999237061</ele>
        <time>2021-07-17T05:45:59.000Z</time>
      </trkpt>
      <trkpt lat="47.34863" lon="0.54754">
        <ele>38</ele>
        <time>2021-07-17T05:46:02.000Z</time>
      </trkpt>
      <trkpt lat="47.34859" lon="0.54741">
        <ele>38.400001525879</ele>
        <time>2021-07-17T05:46:04.000Z</time>
      </trkpt>
      <trkpt lat="47.34857" lon="0.54727">
        <ele>38.200000762939</ele>
        <time>2021-07-17T05:46:06.000Z</time>
      </trkpt>
      <trkpt lat="47.34855" lon="0.54694">
        <ele>37</ele>
        <time>2021-07-17T05:46:10.000Z</time>
      </trkpt>
      <trkpt lat="47.34847" lon="0.54634">
        <ele>37.400001525879</ele>
        <time>2021-07-17T05:46:17.000Z</time>
      </trkpt>
      <trkpt lat="47.34827" lon="0.5456">
        <ele>37.599998474121</ele>
        <time>2021-07-17T05:46:27.000Z</time>
      </trkpt>
      <trkpt lat="47.3482" lon="0.54547">
        <ele>38.200000762939</ele>
        <time>2021-07-17T05:46:29.000Z</time>
      </trkpt>
      <trkpt lat="47.34814" lon="0.54537">
        <ele>39.200000762939</ele>
        <time>2021-07-17T05:46:31.000Z</time>
      </trkpt>
      <trkpt lat="47.34807" lon="0.54531">
        <ele>40.400001525879</ele>
        <time>2021-07-17T05:46:33.000Z</time>
      </trkpt>
      <trkpt lat="47.348" lon="0.5451">
        <ele>41.400001525879</ele>
        <time>2021-07-17T05:46:41.000Z</time>
      </trkpt>
      <trkpt lat="47.34804" lon="0.54495">
        <ele>40</ele>
        <time>2021-07-17T05:46:45.000Z</time>
      </trkpt>
      <trkpt lat="47.34806" lon="0.54461">
        <ele>38.400001525879</ele>
        <time>2021-07-17T05:46:48.000Z</time>
      </trkpt>
      <trkpt lat="47.34806" lon="0.5445">
        <ele>36.799999237061</ele>
        <time>2021-07-17T05:46:49.000Z</time>
      </trkpt>
      <trkpt lat="47.34801" lon="0.54406">
        <ele>35.799999237061</ele>
        <time>2021-07-17T05:46:53.000Z</time>
      </trkpt>
      <trkpt lat="47.34798" lon="0.54377">
        <ele>34.799999237061</ele>
        <time>2021-07-17T05:46:56.000Z</time>
      </trkpt>
      <trkpt lat="47.34792" lon="0.54293">
        <ele>35.200000762939</ele>
        <time>2021-07-17T05:47:06.000Z</time>
      </trkpt>
      <trkpt lat="47.34779" lon="0.5421">
        <ele>35</ele>
        <time>2021-07-17T05:47:16.000Z</time>
      </trkpt>
      <trkpt lat="47.34774" lon="0.54201">
        <ele>35</ele>
        <time>2021-07-17T05:47:17.000Z</time>
      </trkpt>
      <trkpt lat="47.34757" lon="0.54121">
        <ele>35.599998474121</ele>
        <time>2021-07-17T05:47:27.000Z</time>
      </trkpt>
      <trkpt lat="47.34757" lon="0.54096">
        <ele>35.799999237061</ele>
        <time>2021-07-17T05:47:30.000Z</time>
      </trkpt>
      <trkpt lat="47.34761" lon="0.54014">
        <ele>35.599998474121</ele>
        <time>2021-07-17T05:47:40.000Z</time>
      </trkpt>
      <trkpt lat="47.34761" lon="0.5393">
        <ele>35.400001525879</ele>
        <time>2021-07-17T05:47:50.000Z</time>
      </trkpt>
      <trkpt lat="47.34756" lon="0.53844">
        <ele>35.599998474121</ele>
        <time>2021-07-17T05:48:00.000Z</time>
      </trkpt>
      <trkpt lat="47.34737" lon="0.53765">
        <ele>35.400001525879</ele>
        <time>2021-07-17T05:48:09.000Z</time>
      </trkpt>
      <trkpt lat="47.34721" lon="0.53681">
        <ele>36.799999237061</ele>
        <time>2021-07-17T05:48:19.000Z</time>
      </trkpt>
      <trkpt lat="47.34719" lon="0.53673">
        <ele>37.200000762939</ele>
        <time>2021-07-17T05:48:20.000Z</time>
      </trkpt>
      <trkpt lat="47.34714" lon="0.53654">
        <ele>38.200000762939</ele>
        <time>2021-07-17T05:48:23.000Z</time>
      </trkpt>
      <trkpt lat="47.34703" lon="0.5357">
        <ele>38.200000762939</ele>
        <time>2021-07-17T05:48:34.000Z</time>
      </trkpt>
      <trkpt lat="47.34697" lon="0.53482">
        <ele>37.200000762939</ele>
        <time>2021-07-17T05:48:44.000Z</time>
      </trkpt>
      <trkpt lat="47.34696" lon="0.53397">
        <ele>36.400001525879</ele>
        <time>2021-07-17T05:48:53.000Z</time>
      </trkpt>
      <trkpt lat="47.347" lon="0.53316">
        <ele>36.200000762939</ele>
        <time>2021-07-17T05:49:02.000Z</time>
      </trkpt>
      <trkpt lat="47.34713" lon="0.5324">
        <ele>36.200000762939</ele>
        <time>2021-07-17T05:49:11.000Z</time>
      </trkpt>
      <trkpt lat="47.34703" lon="0.53156">
        <ele>36.400001525879</ele>
        <time>2021-07-17T05:49:21.000Z</time>
      </trkpt>
      <trkpt lat="47.34701" lon="0.53109">
        <ele>36.200000762939</ele>
        <time>2021-07-17T05:49:27.000Z</time>
      </trkpt>
      <trkpt lat="47.34704" lon="0.53052">
        <ele>36.200000762939</ele>
        <time>2021-07-17T05:49:34.000Z</time>
      </trkpt>
      <trkpt lat="47.34689" lon="0.52974">
        <ele>36.599998474121</ele>
        <time>2021-07-17T05:49:43.000Z</time>
      </trkpt>
      <trkpt lat="47.34691" lon="0.52956">
        <ele>36.400001525879</ele>
        <time>2021-07-17T05:49:45.000Z</time>
      </trkpt>
      <trkpt lat="47.34708" lon="0.52896">
        <ele>35.799999237061</ele>
        <time>2021-07-17T05:49:52.000Z</time>
      </trkpt>
      <trkpt lat="47.34712" lon="0.52842">
        <ele>36</ele>
        <time>2021-07-17T05:49:58.000Z</time>
      </trkpt>
      <trkpt lat="47.3471" lon="0.52825">
        <ele>35.599998474121</ele>
        <time>2021-07-17T05:50:00.000Z</time>
      </trkpt>
      <trkpt lat="47.34694" lon="0.52748">
        <ele>35.599998474121</ele>
        <time>2021-07-17T05:50:09.000Z</time>
      </trkpt>
      <trkpt lat="47.34687" lon="0.52722">
        <ele>35</ele>
        <time>2021-07-17T05:50:12.000Z</time>
      </trkpt>
      <trkpt lat="47.34665" lon="0.52644">
        <ele>35.200000762939</ele>
        <time>2021-07-17T05:50:21.000Z</time>
      </trkpt>
      <trkpt lat="47.34643" lon="0.52582">
        <ele>34.200000762939</ele>
        <time>2021-07-17T05:50:28.000Z</time>
      </trkpt>
      <trkpt lat="47.34623" lon="0.52555">
        <ele>34.200000762939</ele>
        <time>2021-07-17T05:50:32.000Z</time>
      </trkpt>
      <trkpt lat="47.34601" lon="0.52504">
        <ele>36.200000762939</ele>
        <time>2021-07-17T05:50:40.000Z</time>
      </trkpt>
      <trkpt lat="47.34598" lon="0.52479">
        <ele>35.200000762939</ele>
        <time>2021-07-17T05:50:44.000Z</time>
      </trkpt>
      <trkpt lat="47.34599" lon="0.5245">
        <ele>34.400001525879</ele>
        <time>2021-07-17T05:50:47.000Z</time>
      </trkpt>
      <trkpt lat="47.34588" lon="0.52432">
        <ele>34.400001525879</ele>
        <time>2021-07-17T05:50:49.000Z</time>
      </trkpt>
      <trkpt lat="47.34575" lon="0.52418">
        <ele>34.400001525879</ele>
        <time>2021-07-17T05:50:51.000Z</time>
      </trkpt>
      <trkpt lat="47.34528" lon="0.52372">
        <ele>35.400001525879</ele>
        <time>2021-07-17T05:50:59.000Z</time>
      </trkpt>
      <trkpt lat="47.34517" lon="0.52357">
        <ele>35.599998474121</ele>
        <time>2021-07-17T05:51:02.000Z</time>
      </trkpt>
      <trkpt lat="47.34484" lon="0.52292">
        <ele>35.599998474121</ele>
        <time>2021-07-17T05:51:13.000Z</time>
      </trkpt>
      <trkpt lat="47.34482" lon="0.52279">
        <ele>35.599998474121</ele>
        <time>2021-07-17T05:51:15.000Z</time>
      </trkpt>
      <trkpt lat="47.34478" lon="0.52252">
        <ele>35.599998474121</ele>
        <time>2021-07-17T05:51:19.000Z</time>
      </trkpt>
      <trkpt lat="47.34473" lon="0.52238">
        <ele>36.200000762939</ele>
        <time>2021-07-17T05:51:21.000Z</time>
      </trkpt>
      <trkpt lat="47.34432" lon="0.52175">
        <ele>36.400001525879</ele>
        <time>2021-07-17T05:51:29.000Z</time>
      </trkpt>
      <trkpt lat="47.34403" lon="0.52108">
        <ele>36.200000762939</ele>
        <time>2021-07-17T05:51:37.000Z</time>
      </trkpt>
      <trkpt lat="47.34395" lon="0.52076">
        <ele>37.400001525879</ele>
        <time>2021-07-17T05:51:41.000Z</time>
      </trkpt>
      <trkpt lat="47.34387" lon="0.52056">
        <ele>38.799999237061</ele>
        <time>2021-07-17T05:51:44.000Z</time>
      </trkpt>
      <trkpt lat="47.34381" lon="0.52042">
        <ele>39.799999237061</ele>
        <time>2021-07-17T05:51:47.000Z</time>
      </trkpt>
      <trkpt lat="47.34379" lon="0.52025">
        <ele>40</ele>
        <time>2021-07-17T05:51:50.000Z</time>
      </trkpt>
      <trkpt lat="47.34391" lon="0.51946">
        <ele>39.599998474121</ele>
        <time>2021-07-17T05:52:01.000Z</time>
      </trkpt>
      <trkpt lat="47.34398" lon="0.51893">
        <ele>39.599998474121</ele>
        <time>2021-07-17T05:52:08.000Z</time>
      </trkpt>
      <trkpt lat="47.34396" lon="0.51811">
        <ele>39.200000762939</ele>
        <time>2021-07-17T05:52:18.000Z</time>
      </trkpt>
      <trkpt lat="47.34394" lon="0.51728">
        <ele>39</ele>
        <time>2021-07-17T05:52:28.000Z</time>
      </trkpt>
      <trkpt lat="47.34378" lon="0.51707">
        <ele>39.400001525879</ele>
        <time>2021-07-17T05:52:30.000Z</time>
      </trkpt>
      <trkpt lat="47.34363" lon="0.51616">
        <ele>40</ele>
        <time>2021-07-17T05:52:40.000Z</time>
      </trkpt>
      <trkpt lat="47.34373" lon="0.51532">
        <ele>39.799999237061</ele>
        <time>2021-07-17T05:52:50.000Z</time>
      </trkpt>
      <trkpt lat="47.34388" lon="0.51451">
        <ele>40</ele>
        <time>2021-07-17T05:53:00.000Z</time>
      </trkpt>
      <trkpt lat="47.344" lon="0.51366">
        <ele>39.799999237061</ele>
        <time>2021-07-17T05:53:10.000Z</time>
      </trkpt>
      <trkpt lat="47.3441" lon="0.51281">
        <ele>39.400001525879</ele>
        <time>2021-07-17T05:53:20.000Z</time>
      </trkpt>
      <trkpt lat="47.34419" lon="0.51195">
        <ele>39.400001525879</ele>
        <time>2021-07-17T05:53:30.000Z</time>
      </trkpt>
      <trkpt lat="47.34418" lon="0.5111">
        <ele>40</ele>
        <time>2021-07-17T05:53:40.000Z</time>
      </trkpt>
      <trkpt lat="47.34422" lon="0.51024">
        <ele>39.799999237061</ele>
        <time>2021-07-17T05:53:50.000Z</time>
      </trkpt>
      <trkpt lat="47.34431" lon="0.50945">
        <ele>39.799999237061</ele>
        <time>2021-07-17T05:53:59.000Z</time>
      </trkpt>
      <trkpt lat="47.34431" lon="0.50861">
        <ele>39.400001525879</ele>
        <time>2021-07-17T05:54:08.000Z</time>
      </trkpt>
      <trkpt lat="47.34445" lon="0.50776">
        <ele>39.400001525879</ele>
        <time>2021-07-17T05:54:18.000Z</time>
      </trkpt>
      <trkpt lat="47.34456" lon="0.50736">
        <ele>39.599998474121</ele>
        <time>2021-07-17T05:54:23.000Z</time>
      </trkpt>
      <trkpt lat="47.34456" lon="0.50656">
        <ele>39.599998474121</ele>
        <time>2021-07-17T05:54:32.000Z</time>
      </trkpt>
      <trkpt lat="47.34451" lon="0.50576">
        <ele>39.400001525879</ele>
        <time>2021-07-17T05:54:41.000Z</time>
      </trkpt>
      <trkpt lat="47.34444" lon="0.50496">
        <ele>39.400001525879</ele>
        <time>2021-07-17T05:54:50.000Z</time>
      </trkpt>
      <trkpt lat="47.34427" lon="0.50419">
        <ele>39.200000762939</ele>
        <time>2021-07-17T05:54:59.000Z</time>
      </trkpt>
      <trkpt lat="47.34407" lon="0.50346">
        <ele>39.200000762939</ele>
        <time>2021-07-17T05:55:08.000Z</time>
      </trkpt>
      <trkpt lat="47.34384" lon="0.50264">
        <ele>39.200000762939</ele>
        <time>2021-07-17T05:55:18.000Z</time>
      </trkpt>
      <trkpt lat="47.34361" lon="0.5019">
        <ele>39.200000762939</ele>
        <time>2021-07-17T05:55:27.000Z</time>
      </trkpt>
      <trkpt lat="47.34338" lon="0.5011">
        <ele>39.400001525879</ele>
        <time>2021-07-17T05:55:37.000Z</time>
      </trkpt>
      <trkpt lat="47.34317" lon="0.50028">
        <ele>39.599998474121</ele>
        <time>2021-07-17T05:55:47.000Z</time>
      </trkpt>
      <trkpt lat="47.34296" lon="0.49953">
        <ele>39.400001525879</ele>
        <time>2021-07-17T05:55:56.000Z</time>
      </trkpt>
      <trkpt lat="47.34265" lon="0.49885">
        <ele>39.599998474121</ele>
        <time>2021-07-17T05:56:05.000Z</time>
      </trkpt>
      <trkpt lat="47.34231" lon="0.49821">
        <ele>39.400001525879</ele>
        <time>2021-07-17T05:56:14.000Z</time>
      </trkpt>
      <trkpt lat="47.34196" lon="0.49759">
        <ele>39.200000762939</ele>
        <time>2021-07-17T05:56:23.000Z</time>
      </trkpt>
      <trkpt lat="47.3416" lon="0.49697">
        <ele>39.599998474121</ele>
        <time>2021-07-17T05:56:32.000Z</time>
      </trkpt>
      <trkpt lat="47.34125" lon="0.49626">
        <ele>39.599998474121</ele>
        <time>2021-07-17T05:56:42.000Z</time>
      </trkpt>
      <trkpt lat="47.34102" lon="0.49553">
        <ele>39.400001525879</ele>
        <time>2021-07-17T05:56:51.000Z</time>
      </trkpt>
      <trkpt lat="47.34078" lon="0.49473">
        <ele>39.200000762939</ele>
        <time>2021-07-17T05:57:01.000Z</time>
      </trkpt>
      <trkpt lat="47.34047" lon="0.49398">
        <ele>39.400001525879</ele>
        <time>2021-07-17T05:57:11.000Z</time>
      </trkpt>
      <trkpt lat="47.34021" lon="0.49328">
        <ele>39</ele>
        <time>2021-07-17T05:57:20.000Z</time>
      </trkpt>
      <trkpt lat="47.33991" lon="0.49252">
        <ele>39.200000762939</ele>
        <time>2021-07-17T05:57:30.000Z</time>
      </trkpt>
      <trkpt lat="47.33954" lon="0.49187">
        <ele>39.200000762939</ele>
        <time>2021-07-17T05:57:40.000Z</time>
      </trkpt>
      <trkpt lat="47.3391" lon="0.4913">
        <ele>39.200000762939</ele>
        <time>2021-07-17T05:57:50.000Z</time>
      </trkpt>
      <trkpt lat="47.33897" lon="0.49112">
        <ele>38.799999237061</ele>
        <time>2021-07-17T05:57:53.000Z</time>
      </trkpt>
      <trkpt lat="47.33856" lon="0.49049">
        <ele>39.599998474121</ele>
        <time>2021-07-17T05:58:03.000Z</time>
      </trkpt>
      <trkpt lat="47.33852" lon="0.49043">
        <ele>40.400001525879</ele>
        <time>2021-07-17T05:58:04.000Z</time>
      </trkpt>
      <trkpt lat="47.33822" lon="0.49011">
        <ele>40.599998474121</ele>
        <time>2021-07-17T05:58:12.000Z</time>
      </trkpt>
      <trkpt lat="47.3382" lon="0.49">
        <ele>40.200000762939</ele>
        <time>2021-07-17T05:58:14.000Z</time>
      </trkpt>
      <trkpt lat="47.33817" lon="0.48921">
        <ele>39.200000762939</ele>
        <time>2021-07-17T05:58:23.000Z</time>
      </trkpt>
      <trkpt lat="47.33791" lon="0.48848">
        <ele>39.200000762939</ele>
        <time>2021-07-17T05:58:32.000Z</time>
      </trkpt>
      <trkpt lat="47.3375" lon="0.48799">
        <ele>40.200000762939</ele>
        <time>2021-07-17T05:58:42.000Z</time>
      </trkpt>
      <trkpt lat="47.33748" lon="0.48794">
        <ele>40.400001525879</ele>
        <time>2021-07-17T05:58:43.000Z</time>
      </trkpt>
      <trkpt lat="47.33748" lon="0.48783">
        <ele>40.599998474121</ele>
        <time>2021-07-17T05:58:45.000Z</time>
      </trkpt>
      <trkpt lat="47.33754" lon="0.48768">
        <ele>40.799999237061</ele>
        <time>2021-07-17T05:58:48.000Z</time>
      </trkpt>
      <trkpt lat="47.33759" lon="0.48758">
        <ele>40.799999237061</ele>
        <time>2021-07-17T05:58:50.000Z</time>
      </trkpt>
      <trkpt lat="47.33786" lon="0.48685">
        <ele>39.799999237061</ele>
        <time>2021-07-17T05:58:59.000Z</time>
      </trkpt>
      <trkpt lat="47.33811" lon="0.48608">
        <ele>39.599998474121</ele>
        <time>2021-07-17T05:59:09.000Z</time>
      </trkpt>
      <trkpt lat="47.3383" lon="0.48527">
        <ele>39.400001525879</ele>
        <time>2021-07-17T05:59:19.000Z</time>
      </trkpt>
      <trkpt lat="47.33861" lon="0.48467">
        <ele>38.400001525879</ele>
        <time>2021-07-17T05:59:28.000Z</time>
      </trkpt>
      <trkpt lat="47.33888" lon="0.48437">
        <ele>39.799999237061</ele>
        <time>2021-07-17T05:59:35.000Z</time>
      </trkpt>
      <trkpt lat="47.33925" lon="0.48387">
        <ele>40.799999237061</ele>
        <time>2021-07-17T05:59:45.000Z</time>
      </trkpt>
      <trkpt lat="47.33957" lon="0.48349">
        <ele>39.799999237061</ele>
        <time>2021-07-17T05:59:52.000Z</time>
      </trkpt>
      <trkpt lat="47.33999" lon="0.483">
        <ele>39.599998474121</ele>
        <time>2021-07-17T06:00:01.000Z</time>
      </trkpt>
      <trkpt lat="47.34044" lon="0.48244">
        <ele>39.599998474121</ele>
        <time>2021-07-17T06:00:11.000Z</time>
      </trkpt>
      <trkpt lat="47.34083" lon="0.48188">
        <ele>39.599998474121</ele>
        <time>2021-07-17T06:00:20.000Z</time>
      </trkpt>
      <trkpt lat="47.34116" lon="0.48124">
        <ele>39.200000762939</ele>
        <time>2021-07-17T06:00:29.000Z</time>
      </trkpt>
      <trkpt lat="47.34159" lon="0.48066">
        <ele>39.400001525879</ele>
        <time>2021-07-17T06:00:39.000Z</time>
      </trkpt>
      <trkpt lat="47.34168" lon="0.48054">
        <ele>39.400001525879</ele>
        <time>2021-07-17T06:00:41.000Z</time>
      </trkpt>
      <trkpt lat="47.34174" lon="0.4804">
        <ele>39.400001525879</ele>
        <time>2021-07-17T06:00:43.000Z</time>
      </trkpt>
      <trkpt lat="47.34189" lon="0.47962">
        <ele>39.400001525879</ele>
        <time>2021-07-17T06:00:52.000Z</time>
      </trkpt>
      <trkpt lat="47.34191" lon="0.47883">
        <ele>39</ele>
        <time>2021-07-17T06:01:01.000Z</time>
      </trkpt>
      <trkpt lat="47.34186" lon="0.47866">
        <ele>39</ele>
        <time>2021-07-17T06:01:03.000Z</time>
      </trkpt>
      <trkpt lat="47.34178" lon="0.47853">
        <ele>39.400001525879</ele>
        <time>2021-07-17T06:01:05.000Z</time>
      </trkpt>
      <trkpt lat="47.34139" lon="0.47796">
        <ele>39.200000762939</ele>
        <time>2021-07-17T06:01:14.000Z</time>
      </trkpt>
      <trkpt lat="47.34098" lon="0.47741">
        <ele>39.200000762939</ele>
        <time>2021-07-17T06:01:23.000Z</time>
      </trkpt>
      <trkpt lat="47.34056" lon="0.47687">
        <ele>39.400001525879</ele>
        <time>2021-07-17T06:01:32.000Z</time>
      </trkpt>
      <trkpt lat="47.34016" lon="0.47626">
        <ele>39.200000762939</ele>
        <time>2021-07-17T06:01:41.000Z</time>
      </trkpt>
      <trkpt lat="47.34005" lon="0.47615">
        <ele>39.200000762939</ele>
        <time>2021-07-17T06:01:43.000Z</time>
      </trkpt>
      <trkpt lat="47.33993" lon="0.47608">
        <ele>39.200000762939</ele>
        <time>2021-07-17T06:01:45.000Z</time>
      </trkpt>
      <trkpt lat="47.33936" lon="0.47602">
        <ele>39.200000762939</ele>
        <time>2021-07-17T06:01:54.000Z</time>
      </trkpt>
      <trkpt lat="47.33899" lon="0.47599">
        <ele>39.200000762939</ele>
        <time>2021-07-17T06:02:00.000Z</time>
      </trkpt>
      <trkpt lat="47.33849" lon="0.47561">
        <ele>39</ele>
        <time>2021-07-17T06:02:09.000Z</time>
      </trkpt>
      <trkpt lat="47.33839" lon="0.47549">
        <ele>39.400001525879</ele>
        <time>2021-07-17T06:02:11.000Z</time>
      </trkpt>
      <trkpt lat="47.33811" lon="0.47479">
        <ele>39.400001525879</ele>
        <time>2021-07-17T06:02:20.000Z</time>
      </trkpt>
      <trkpt lat="47.33769" lon="0.47426">
        <ele>39.799999237061</ele>
        <time>2021-07-17T06:02:29.000Z</time>
      </trkpt>
      <trkpt lat="47.33725" lon="0.47373">
        <ele>39.799999237061</ele>
        <time>2021-07-17T06:02:38.000Z</time>
      </trkpt>
      <trkpt lat="47.33679" lon="0.47325">
        <ele>39.599998474121</ele>
        <time>2021-07-17T06:02:47.000Z</time>
      </trkpt>
      <trkpt lat="47.33634" lon="0.47274">
        <ele>39.400001525879</ele>
        <time>2021-07-17T06:02:56.000Z</time>
      </trkpt>
      <trkpt lat="47.33592" lon="0.4722">
        <ele>39.599998474121</ele>
        <time>2021-07-17T06:03:05.000Z</time>
      </trkpt>
      <trkpt lat="47.33554" lon="0.47156">
        <ele>39.599998474121</ele>
        <time>2021-07-17T06:03:14.000Z</time>
      </trkpt>
      <trkpt lat="47.33512" lon="0.47101">
        <ele>39.400001525879</ele>
        <time>2021-07-17T06:03:23.000Z</time>
      </trkpt>
      <trkpt lat="47.33466" lon="0.47049">
        <ele>39.400001525879</ele>
        <time>2021-07-17T06:03:32.000Z</time>
      </trkpt>
      <trkpt lat="47.33424" lon="0.46993">
        <ele>39.599998474121</ele>
        <time>2021-07-17T06:03:41.000Z</time>
      </trkpt>
      <trkpt lat="47.33379" lon="0.4694">
        <ele>39.400001525879</ele>
        <time>2021-07-17T06:03:50.000Z</time>
      </trkpt>
      <trkpt lat="47.33333" lon="0.4689">
        <ele>39.799999237061</ele>
        <time>2021-07-17T06:03:59.000Z</time>
      </trkpt>
      <trkpt lat="47.3329" lon="0.46832">
        <ele>39.799999237061</ele>
        <time>2021-07-17T06:04:08.000Z</time>
      </trkpt>
      <trkpt lat="47.33247" lon="0.46773">
        <ele>39.400001525879</ele>
        <time>2021-07-17T06:04:17.000Z</time>
      </trkpt>
      <trkpt lat="47.33237" lon="0.4676">
        <ele>39</ele>
        <time>2021-07-17T06:04:19.000Z</time>
      </trkpt>
      <trkpt lat="47.3322" lon="0.46735">
        <ele>39.400001525879</ele>
        <time>2021-07-17T06:04:23.000Z</time>
      </trkpt>
      <trkpt lat="47.33185" lon="0.46673">
        <ele>39</ele>
        <time>2021-07-17T06:04:32.000Z</time>
      </trkpt>
      <trkpt lat="47.33173" lon="0.46652">
        <ele>39</ele>
        <time>2021-07-17T06:04:35.000Z</time>
      </trkpt>
      <trkpt lat="47.33158" lon="0.46611">
        <ele>38.599998474121</ele>
        <time>2021-07-17T06:04:40.000Z</time>
      </trkpt>
      <trkpt lat="47.33151" lon="0.46584">
        <ele>38.200000762939</ele>
        <time>2021-07-17T06:04:43.000Z</time>
      </trkpt>
      <trkpt lat="47.33143" lon="0.46569">
        <ele>38.400001525879</ele>
        <time>2021-07-17T06:04:45.000Z</time>
      </trkpt>
      <trkpt lat="47.33101" lon="0.46515">
        <ele>38.400001525879</ele>
        <time>2021-07-17T06:04:54.000Z</time>
      </trkpt>
      <trkpt lat="47.33059" lon="0.46477">
        <ele>37.599998474121</ele>
        <time>2021-07-17T06:05:02.000Z</time>
      </trkpt>
      <trkpt lat="47.33042" lon="0.46461">
        <ele>36.400001525879</ele>
        <time>2021-07-17T06:05:05.000Z</time>
      </trkpt>
      <trkpt lat="47.33012" lon="0.46421">
        <ele>35.200000762939</ele>
        <time>2021-07-17T06:05:11.000Z</time>
      </trkpt>
      <trkpt lat="47.32987" lon="0.46371">
        <ele>36.200000762939</ele>
        <time>2021-07-17T06:05:18.000Z</time>
      </trkpt>
      <trkpt lat="47.32974" lon="0.46343">
        <ele>37.400001525879</ele>
        <time>2021-07-17T06:05:22.000Z</time>
      </trkpt>
      <trkpt lat="47.32963" lon="0.46316">
        <ele>38.599998474121</ele>
        <time>2021-07-17T06:05:26.000Z</time>
      </trkpt>
      <trkpt lat="47.32957" lon="0.46303">
        <ele>38.799999237061</ele>
        <time>2021-07-17T06:05:28.000Z</time>
      </trkpt>
      <trkpt lat="47.32919" lon="0.4624">
        <ele>38</ele>
        <time>2021-07-17T06:05:38.000Z</time>
      </trkpt>
      <trkpt lat="47.32881" lon="0.46183">
        <ele>38.799999237061</ele>
        <time>2021-07-17T06:05:47.000Z</time>
      </trkpt>
      <trkpt lat="47.32839" lon="0.4612">
        <ele>38.400001525879</ele>
        <time>2021-07-17T06:05:57.000Z</time>
      </trkpt>
      <trkpt lat="47.32799" lon="0.46065">
        <ele>38.400001525879</ele>
        <time>2021-07-17T06:06:06.000Z</time>
      </trkpt>
      <trkpt lat="47.32748" lon="0.46022">
        <ele>38.400001525879</ele>
        <time>2021-07-17T06:06:16.000Z</time>
      </trkpt>
      <trkpt lat="47.32706" lon="0.46014">
        <ele>38.799999237061</ele>
        <time>2021-07-17T06:06:23.000Z</time>
      </trkpt>
      <trkpt lat="47.32695" lon="0.46006">
        <ele>38.799999237061</ele>
        <time>2021-07-17T06:06:25.000Z</time>
      </trkpt>
      <trkpt lat="47.32657" lon="0.45946">
        <ele>38.599998474121</ele>
        <time>2021-07-17T06:06:34.000Z</time>
      </trkpt>
      <trkpt lat="47.32619" lon="0.45884">
        <ele>38.599998474121</ele>
        <time>2021-07-17T06:06:43.000Z</time>
      </trkpt>
      <trkpt lat="47.32582" lon="0.45823">
        <ele>38.400001525879</ele>
        <time>2021-07-17T06:06:52.000Z</time>
      </trkpt>
      <trkpt lat="47.32545" lon="0.45761">
        <ele>38.599998474121</ele>
        <time>2021-07-17T06:07:01.000Z</time>
      </trkpt>
      <trkpt lat="47.32511" lon="0.45694">
        <ele>38.400001525879</ele>
        <time>2021-07-17T06:07:10.000Z</time>
      </trkpt>
      <trkpt lat="47.32489" lon="0.45617">
        <ele>38.400001525879</ele>
        <time>2021-07-17T06:07:19.000Z</time>
      </trkpt>
      <trkpt lat="47.3247" lon="0.45539">
        <ele>38.400001525879</ele>
        <time>2021-07-17T06:07:28.000Z</time>
      </trkpt>
      <trkpt lat="47.3245" lon="0.4546">
        <ele>38.400001525879</ele>
        <time>2021-07-17T06:07:37.000Z</time>
      </trkpt>
      <trkpt lat="47.32431" lon="0.45382">
        <ele>38.200000762939</ele>
        <time>2021-07-17T06:07:46.000Z</time>
      </trkpt>
      <trkpt lat="47.32412" lon="0.45305">
        <ele>38.200000762939</ele>
        <time>2021-07-17T06:07:55.000Z</time>
      </trkpt>
      <trkpt lat="47.32392" lon="0.45228">
        <ele>38.200000762939</ele>
        <time>2021-07-17T06:08:04.000Z</time>
      </trkpt>
      <trkpt lat="47.32371" lon="0.45149">
        <ele>38.200000762939</ele>
        <time>2021-07-17T06:08:13.000Z</time>
      </trkpt>
      <trkpt lat="47.3235" lon="0.45069">
        <ele>38.400001525879</ele>
        <time>2021-07-17T06:08:22.000Z</time>
      </trkpt>
      <trkpt lat="47.32337" lon="0.45015">
        <ele>38.799999237061</ele>
        <time>2021-07-17T06:08:28.000Z</time>
      </trkpt>
      <trkpt lat="47.3233" lon="0.44988">
        <ele>37.400001525879</ele>
        <time>2021-07-17T06:08:31.000Z</time>
      </trkpt>
      <trkpt lat="47.32309" lon="0.44906">
        <ele>37.599998474121</ele>
        <time>2021-07-17T06:08:40.000Z</time>
      </trkpt>
      <trkpt lat="47.32287" lon="0.44824">
        <ele>38</ele>
        <time>2021-07-17T06:08:49.000Z</time>
      </trkpt>
      <trkpt lat="47.32265" lon="0.44741">
        <ele>38</ele>
        <time>2021-07-17T06:08:58.000Z</time>
      </trkpt>
      <trkpt lat="47.32245" lon="0.44667">
        <ele>37.599998474121</ele>
        <time>2021-07-17T06:09:06.000Z</time>
      </trkpt>
      <trkpt lat="47.32236" lon="0.44641">
        <ele>39.599998474121</ele>
        <time>2021-07-17T06:09:09.000Z</time>
      </trkpt>
      <trkpt lat="47.32233" lon="0.44632">
        <ele>38.400001525879</ele>
        <time>2021-07-17T06:09:10.000Z</time>
      </trkpt>
      <trkpt lat="47.32218" lon="0.44547">
        <ele>38</ele>
        <time>2021-07-17T06:09:19.000Z</time>
      </trkpt>
      <trkpt lat="47.32214" lon="0.44461">
        <ele>37.799999237061</ele>
        <time>2021-07-17T06:09:28.000Z</time>
      </trkpt>
      <trkpt lat="47.32203" lon="0.44378">
        <ele>38</ele>
        <time>2021-07-17T06:09:37.000Z</time>
      </trkpt>
      <trkpt lat="47.32188" lon="0.44296">
        <ele>37.799999237061</ele>
        <time>2021-07-17T06:09:46.000Z</time>
      </trkpt>
      <trkpt lat="47.32167" lon="0.44216">
        <ele>38</ele>
        <time>2021-07-17T06:09:55.000Z</time>
      </trkpt>
      <trkpt lat="47.32143" lon="0.44137">
        <ele>38.200000762939</ele>
        <time>2021-07-17T06:10:04.000Z</time>
      </trkpt>
      <trkpt lat="47.32117" lon="0.44061">
        <ele>38.200000762939</ele>
        <time>2021-07-17T06:10:13.000Z</time>
      </trkpt>
      <trkpt lat="47.32095" lon="0.43985">
        <ele>37.200000762939</ele>
        <time>2021-07-17T06:10:22.000Z</time>
      </trkpt>
      <trkpt lat="47.32086" lon="0.43897">
        <ele>37.400001525879</ele>
        <time>2021-07-17T06:10:31.000Z</time>
      </trkpt>
      <trkpt lat="47.3208" lon="0.43812">
        <ele>37.400001525879</ele>
        <time>2021-07-17T06:10:40.000Z</time>
      </trkpt>
      <trkpt lat="47.32062" lon="0.43729">
        <ele>37.200000762939</ele>
        <time>2021-07-17T06:10:49.000Z</time>
      </trkpt>
      <trkpt lat="47.32043" lon="0.43657">
        <ele>37.400001525879</ele>
        <time>2021-07-17T06:10:57.000Z</time>
      </trkpt>
      <trkpt lat="47.32043" lon="0.43637">
        <ele>37.200000762939</ele>
        <time>2021-07-17T06:10:59.000Z</time>
      </trkpt>
      <trkpt lat="47.32058" lon="0.43553">
        <ele>37.200000762939</ele>
        <time>2021-07-17T06:11:08.000Z</time>
      </trkpt>
      <trkpt lat="47.3206" lon="0.43471">
        <ele>37.400001525879</ele>
        <time>2021-07-17T06:11:17.000Z</time>
      </trkpt>
      <trkpt lat="47.32057" lon="0.43444">
        <ele>37.400001525879</ele>
        <time>2021-07-17T06:11:20.000Z</time>
      </trkpt>
      <trkpt lat="47.32034" lon="0.43365">
        <ele>37.599998474121</ele>
        <time>2021-07-17T06:11:29.000Z</time>
      </trkpt>
      <trkpt lat="47.32012" lon="0.43285">
        <ele>37.200000762939</ele>
        <time>2021-07-17T06:11:38.000Z</time>
      </trkpt>
      <trkpt lat="47.32006" lon="0.43269">
        <ele>37.400001525879</ele>
        <time>2021-07-17T06:11:40.000Z</time>
      </trkpt>
      <trkpt lat="47.31977" lon="0.43195">
        <ele>37.400001525879</ele>
        <time>2021-07-17T06:11:49.000Z</time>
      </trkpt>
      <trkpt lat="47.31953" lon="0.43116">
        <ele>37.400001525879</ele>
        <time>2021-07-17T06:11:58.000Z</time>
      </trkpt>
      <trkpt lat="47.31944" lon="0.43091">
        <ele>38.599998474121</ele>
        <time>2021-07-17T06:12:01.000Z</time>
      </trkpt>
      <trkpt lat="47.31937" lon="0.43075">
        <ele>37.599998474121</ele>
        <time>2021-07-17T06:12:03.000Z</time>
      </trkpt>
      <trkpt lat="47.31915" lon="0.42999">
        <ele>37.799999237061</ele>
        <time>2021-07-17T06:12:12.000Z</time>
      </trkpt>
      <trkpt lat="47.31901" lon="0.4292">
        <ele>37.599998474121</ele>
        <time>2021-07-17T06:12:21.000Z</time>
      </trkpt>
      <trkpt lat="47.31892" lon="0.42839">
        <ele>37.599998474121</ele>
        <time>2021-07-17T06:12:30.000Z</time>
      </trkpt>
      <trkpt lat="47.31891" lon="0.42812">
        <ele>37.599998474121</ele>
        <time>2021-07-17T06:12:33.000Z</time>
      </trkpt>
      <trkpt lat="47.31895" lon="0.42747">
        <ele>37.200000762939</ele>
        <time>2021-07-17T06:12:40.000Z</time>
      </trkpt>
      <trkpt lat="47.31893" lon="0.42729">
        <ele>36.799999237061</ele>
        <time>2021-07-17T06:12:42.000Z</time>
      </trkpt>
      <trkpt lat="47.31871" lon="0.42655">
        <ele>37.400001525879</ele>
        <time>2021-07-17T06:12:51.000Z</time>
      </trkpt>
      <trkpt lat="47.31869" lon="0.42646">
        <ele>37.599998474121</ele>
        <time>2021-07-17T06:12:52.000Z</time>
      </trkpt>
      <trkpt lat="47.31864" lon="0.42564">
        <ele>37.799999237061</ele>
        <time>2021-07-17T06:13:01.000Z</time>
      </trkpt>
      <trkpt lat="47.31862" lon="0.42537">
        <ele>37.799999237061</ele>
        <time>2021-07-17T06:13:04.000Z</time>
      </trkpt>
      <trkpt lat="47.31858" lon="0.4252">
        <ele>37.599998474121</ele>
        <time>2021-07-17T06:13:06.000Z</time>
      </trkpt>
      <trkpt lat="47.31834" lon="0.42446">
        <ele>37.200000762939</ele>
        <time>2021-07-17T06:13:15.000Z</time>
      </trkpt>
      <trkpt lat="47.31816" lon="0.42388">
        <ele>37.400001525879</ele>
        <time>2021-07-17T06:13:22.000Z</time>
      </trkpt>
      <trkpt lat="47.31812" lon="0.42308">
        <ele>38</ele>
        <time>2021-07-17T06:13:31.000Z</time>
      </trkpt>
      <trkpt lat="47.31819" lon="0.42227">
        <ele>38</ele>
        <time>2021-07-17T06:13:40.000Z</time>
      </trkpt>
      <trkpt lat="47.31825" lon="0.42143">
        <ele>37.799999237061</ele>
        <time>2021-07-17T06:13:49.000Z</time>
      </trkpt>
      <trkpt lat="47.31829" lon="0.42059">
        <ele>37.599998474121</ele>
        <time>2021-07-17T06:13:58.000Z</time>
      </trkpt>
      <trkpt lat="47.31827" lon="0.41975">
        <ele>37.200000762939</ele>
        <time>2021-07-17T06:14:07.000Z</time>
      </trkpt>
      <trkpt lat="47.31813" lon="0.41894">
        <ele>38.400001525879</ele>
        <time>2021-07-17T06:14:16.000Z</time>
      </trkpt>
      <trkpt lat="47.31811" lon="0.41887">
        <ele>38.799999237061</ele>
        <time>2021-07-17T06:14:17.000Z</time>
      </trkpt>
      <trkpt lat="47.31809" lon="0.41879">
        <ele>38.799999237061</ele>
        <time>2021-07-17T06:14:18.000Z</time>
      </trkpt>
      <trkpt lat="47.31805" lon="0.41862">
        <ele>39</ele>
        <time>2021-07-17T06:14:20.000Z</time>
      </trkpt>
      <trkpt lat="47.31782" lon="0.41787">
        <ele>38.799999237061</ele>
        <time>2021-07-17T06:14:29.000Z</time>
      </trkpt>
      <trkpt lat="47.31777" lon="0.4177">
        <ele>37.599998474121</ele>
        <time>2021-07-17T06:14:31.000Z</time>
      </trkpt>
      <trkpt lat="47.31751" lon="0.41691">
        <ele>37.400001525879</ele>
        <time>2021-07-17T06:14:40.000Z</time>
      </trkpt>
      <trkpt lat="47.31723" lon="0.41613">
        <ele>36.799999237061</ele>
        <time>2021-07-17T06:14:49.000Z</time>
      </trkpt>
      <trkpt lat="47.31693" lon="0.41537">
        <ele>37.200000762939</ele>
        <time>2021-07-17T06:14:58.000Z</time>
      </trkpt>
      <trkpt lat="47.31669" lon="0.41459">
        <ele>37.599998474121</ele>
        <time>2021-07-17T06:15:07.000Z</time>
      </trkpt>
      <trkpt lat="47.31641" lon="0.41382">
        <ele>37.599998474121</ele>
        <time>2021-07-17T06:15:16.000Z</time>
      </trkpt>
      <trkpt lat="47.31613" lon="0.41307">
        <ele>37.799999237061</ele>
        <time>2021-07-17T06:15:25.000Z</time>
      </trkpt>
      <trkpt lat="47.316" lon="0.41274">
        <ele>38.599998474121</ele>
        <time>2021-07-17T06:15:29.000Z</time>
      </trkpt>
      <trkpt lat="47.31577" lon="0.41199">
        <ele>39</ele>
        <time>2021-07-17T06:15:38.000Z</time>
      </trkpt>
      <trkpt lat="47.31556" lon="0.41118">
        <ele>38.599998474121</ele>
        <time>2021-07-17T06:15:47.000Z</time>
      </trkpt>
      <trkpt lat="47.3154" lon="0.41035">
        <ele>38.599998474121</ele>
        <time>2021-07-17T06:15:56.000Z</time>
      </trkpt>
      <trkpt lat="47.3153" lon="0.4095">
        <ele>38.200000762939</ele>
        <time>2021-07-17T06:16:06.000Z</time>
      </trkpt>
      <trkpt lat="47.3152" lon="0.4089">
        <ele>37.400001525879</ele>
        <time>2021-07-17T06:16:15.000Z</time>
      </trkpt>
      <trkpt lat="47.31522" lon="0.40887">
        <ele>37.400001525879</ele>
        <time>2021-07-17T06:16:53.000Z</time>
      </trkpt>
      <trkpt lat="47.31501" lon="0.40832">
        <ele>37.200000762939</ele>
        <time>2021-07-17T06:17:05.000Z</time>
      </trkpt>
      <trkpt lat="47.31503" lon="0.40819">
        <ele>37.400001525879</ele>
        <time>2021-07-17T06:17:07.000Z</time>
      </trkpt>
      <trkpt lat="47.3152" lon="0.40798">
        <ele>36.799999237061</ele>
        <time>2021-07-17T06:17:11.000Z</time>
      </trkpt>
      <trkpt lat="47.3157" lon="0.40757">
        <ele>36.799999237061</ele>
        <time>2021-07-17T06:17:21.000Z</time>
      </trkpt>
      <trkpt lat="47.31619" lon="0.40717">
        <ele>37.599998474121</ele>
        <time>2021-07-17T06:17:31.000Z</time>
      </trkpt>
      <trkpt lat="47.31624" lon="0.40713">
        <ele>37.599998474121</ele>
        <time>2021-07-17T06:17:32.000Z</time>
      </trkpt>
      <trkpt lat="47.31676" lon="0.40671">
        <ele>37</ele>
        <time>2021-07-17T06:17:42.000Z</time>
      </trkpt>
      <trkpt lat="47.31729" lon="0.40632">
        <ele>37.400001525879</ele>
        <time>2021-07-17T06:17:52.000Z</time>
      </trkpt>
      <trkpt lat="47.31764" lon="0.40602">
        <ele>38.599998474121</ele>
        <time>2021-07-17T06:17:59.000Z</time>
      </trkpt>
      <trkpt lat="47.31781" lon="0.40586">
        <ele>39.599998474121</ele>
        <time>2021-07-17T06:18:03.000Z</time>
      </trkpt>
      <trkpt lat="47.31822" lon="0.40545">
        <ele>40.599998474121</ele>
        <time>2021-07-17T06:18:13.000Z</time>
      </trkpt>
      <trkpt lat="47.31872" lon="0.40501">
        <ele>40.799999237061</ele>
        <time>2021-07-17T06:18:24.000Z</time>
      </trkpt>
      <trkpt lat="47.31923" lon="0.40459">
        <ele>41.200000762939</ele>
        <time>2021-07-17T06:18:35.000Z</time>
      </trkpt>
      <trkpt lat="47.31972" lon="0.4042">
        <ele>41</ele>
        <time>2021-07-17T06:18:45.000Z</time>
      </trkpt>
      <trkpt lat="47.32019" lon="0.40379">
        <ele>41</ele>
        <time>2021-07-17T06:18:55.000Z</time>
      </trkpt>
      <trkpt lat="47.32068" lon="0.40341">
        <ele>41</ele>
        <time>2021-07-17T06:19:05.000Z</time>
      </trkpt>
      <trkpt lat="47.32093" lon="0.40325">
        <ele>40.200000762939</ele>
        <time>2021-07-17T06:19:10.000Z</time>
      </trkpt>
      <trkpt lat="47.32104" lon="0.40325">
        <ele>40.200000762939</ele>
        <time>2021-07-17T06:19:12.000Z</time>
      </trkpt>
      <trkpt lat="47.32114" lon="0.40334">
        <ele>41.200000762939</ele>
        <time>2021-07-17T06:19:14.000Z</time>
      </trkpt>
      <trkpt lat="47.3212" lon="0.40349">
        <ele>41.400001525879</ele>
        <time>2021-07-17T06:19:16.000Z</time>
      </trkpt>
      <trkpt lat="47.32137" lon="0.40429">
        <ele>41.400001525879</ele>
        <time>2021-07-17T06:19:25.000Z</time>
      </trkpt>
      <trkpt lat="47.3215" lon="0.40513">
        <ele>40.799999237061</ele>
        <time>2021-07-17T06:19:34.000Z</time>
      </trkpt>
      <trkpt lat="47.32167" lon="0.40571">
        <ele>39.200000762939</ele>
        <time>2021-07-17T06:19:41.000Z</time>
      </trkpt>
      <trkpt lat="47.32173" lon="0.40588">
        <ele>37</ele>
        <time>2021-07-17T06:19:43.000Z</time>
      </trkpt>
      <trkpt lat="47.32181" lon="0.40604">
        <ele>35.799999237061</ele>
        <time>2021-07-17T06:19:45.000Z</time>
      </trkpt>
      <trkpt lat="47.32189" lon="0.40619">
        <ele>36</ele>
        <time>2021-07-17T06:19:47.000Z</time>
      </trkpt>
      <trkpt lat="47.322" lon="0.40628">
        <ele>36.200000762939</ele>
        <time>2021-07-17T06:19:49.000Z</time>
      </trkpt>
      <trkpt lat="47.32219" lon="0.4064">
        <ele>36.599998474121</ele>
        <time>2021-07-17T06:19:52.000Z</time>
      </trkpt>
      <trkpt lat="47.32226" lon="0.40642">
        <ele>37</ele>
        <time>2021-07-17T06:19:53.000Z</time>
      </trkpt>
      <trkpt lat="47.32234" lon="0.40642">
        <ele>36.400001525879</ele>
        <time>2021-07-17T06:19:54.000Z</time>
      </trkpt>
      <trkpt lat="47.32269" lon="0.40625">
        <ele>36</ele>
        <time>2021-07-17T06:19:59.000Z</time>
      </trkpt>
      <trkpt lat="47.32275" lon="0.40621">
        <ele>36</ele>
        <time>2021-07-17T06:20:00.000Z</time>
      </trkpt>
      <trkpt lat="47.32286" lon="0.40621">
        <ele>36.400001525879</ele>
        <time>2021-07-17T06:20:02.000Z</time>
      </trkpt>
      <trkpt lat="47.32293" lon="0.40635">
        <ele>37</ele>
        <time>2021-07-17T06:20:04.000Z</time>
      </trkpt>
      <trkpt lat="47.32299" lon="0.40658">
        <ele>37</ele>
        <time>2021-07-17T06:20:07.000Z</time>
      </trkpt>
      <trkpt lat="47.3233" lon="0.40726">
        <ele>37.200000762939</ele>
        <time>2021-07-17T06:20:17.000Z</time>
      </trkpt>
      <trkpt lat="47.32332" lon="0.40733">
        <ele>37</ele>
        <time>2021-07-17T06:20:18.000Z</time>
      </trkpt>
      <trkpt lat="47.32361" lon="0.40806">
        <ele>36.799999237061</ele>
        <time>2021-07-17T06:20:28.000Z</time>
      </trkpt>
      <trkpt lat="47.32379" lon="0.40844">
        <ele>36</ele>
        <time>2021-07-17T06:20:34.000Z</time>
      </trkpt>
      <trkpt lat="47.32384" lon="0.40844">
        <ele>35.400001525879</ele>
        <time>2021-07-17T06:20:37.000Z</time>
      </trkpt>
      <trkpt lat="47.32423" lon="0.40799">
        <ele>35.599998474121</ele>
        <time>2021-07-17T06:20:46.000Z</time>
      </trkpt>
      <trkpt lat="47.32452" lon="0.40771">
        <ele>35.200000762939</ele>
        <time>2021-07-17T06:20:53.000Z</time>
      </trkpt>
      <trkpt lat="47.3245" lon="0.4076">
        <ele>35</ele>
        <time>2021-07-17T06:20:56.000Z</time>
      </trkpt>
      <trkpt lat="47.32445" lon="0.40752">
        <ele>34.799999237061</ele>
        <time>2021-07-17T06:21:31.000Z</time>
      </trkpt>
      <trkpt lat="47.32454" lon="0.40768">
        <ele>33.799999237061</ele>
        <time>2021-07-17T06:21:36.000Z</time>
      </trkpt>
      <trkpt lat="47.32465" lon="0.40777">
        <ele>34.200000762939</ele>
        <time>2021-07-17T06:21:39.000Z</time>
      </trkpt>
      <trkpt lat="47.32474" lon="0.40782">
        <ele>34</ele>
        <time>2021-07-17T06:21:41.000Z</time>
      </trkpt>
      <trkpt lat="47.32482" lon="0.4079">
        <ele>34.200000762939</ele>
        <time>2021-07-17T06:21:43.000Z</time>
      </trkpt>
      <trkpt lat="47.32495" lon="0.40806">
        <ele>34.799999237061</ele>
        <time>2021-07-17T06:21:47.000Z</time>
      </trkpt>
      <trkpt lat="47.32529" lon="0.40824">
        <ele>34.200000762939</ele>
        <time>2021-07-17T06:21:57.000Z</time>
      </trkpt>
      <trkpt lat="47.32577" lon="0.4087">
        <ele>36</ele>
        <time>2021-07-17T06:22:10.000Z</time>
      </trkpt>
      <trkpt lat="47.32593" lon="0.40884">
        <ele>36.799999237061</ele>
        <time>2021-07-17T06:22:14.000Z</time>
      </trkpt>
      <trkpt lat="47.32605" lon="0.40884">
        <ele>37</ele>
        <time>2021-07-17T06:22:16.000Z</time>
      </trkpt>
      <trkpt lat="47.3261" lon="0.40882">
        <ele>37</ele>
        <time>2021-07-17T06:22:17.000Z</time>
      </trkpt>
      <trkpt lat="47.32657" lon="0.40864">
        <ele>38.200000762939</ele>
        <time>2021-07-17T06:22:27.000Z</time>
      </trkpt>
      <trkpt lat="47.32669" lon="0.40859">
        <ele>39.400001525879</ele>
        <time>2021-07-17T06:22:30.000Z</time>
      </trkpt>
      <trkpt lat="47.32709" lon="0.40838">
        <ele>40.599998474121</ele>
        <time>2021-07-17T06:22:49.000Z</time>
      </trkpt>
      <trkpt lat="47.32732" lon="0.40827">
        <ele>41.599998474121</ele>
        <time>2021-07-17T06:22:57.000Z</time>
      </trkpt>
      <trkpt lat="47.32747" lon="0.40828">
        <ele>42.799999237061</ele>
        <time>2021-07-17T06:23:02.000Z</time>
      </trkpt>
      <trkpt lat="47.32784" lon="0.40858">
        <ele>44</ele>
        <time>2021-07-17T06:23:13.000Z</time>
      </trkpt>
      <trkpt lat="47.32805" lon="0.40891">
        <ele>45</ele>
        <time>2021-07-17T06:23:20.000Z</time>
      </trkpt>
      <trkpt lat="47.32814" lon="0.4091">
        <ele>46</ele>
        <time>2021-07-17T06:23:24.000Z</time>
      </trkpt>
      <trkpt lat="47.32828" lon="0.40947">
        <ele>47</ele>
        <time>2021-07-17T06:23:31.000Z</time>
      </trkpt>
      <trkpt lat="47.32849" lon="0.40995">
        <ele>48.200000762939</ele>
        <time>2021-07-17T06:23:40.000Z</time>
      </trkpt>
      <trkpt lat="47.32861" lon="0.41023">
        <ele>49.200000762939</ele>
        <time>2021-07-17T06:23:45.000Z</time>
      </trkpt>
      <trkpt lat="47.32888" lon="0.41064">
        <ele>50.400001525879</ele>
        <time>2021-07-17T06:23:55.000Z</time>
      </trkpt>
      <trkpt lat="47.32903" lon="0.41081">
        <ele>51.400001525879</ele>
        <time>2021-07-17T06:24:01.000Z</time>
      </trkpt>
      <trkpt lat="47.32917" lon="0.41092">
        <ele>52.599998474121</ele>
        <time>2021-07-17T06:24:06.000Z</time>
      </trkpt>
      <trkpt lat="47.32939" lon="0.41108">
        <ele>53.599998474121</ele>
        <time>2021-07-17T06:24:13.000Z</time>
      </trkpt>
      <trkpt lat="47.3297" lon="0.41125">
        <ele>54.799999237061</ele>
        <time>2021-07-17T06:24:21.000Z</time>
      </trkpt>
      <trkpt lat="47.32988" lon="0.41136">
        <ele>55.799999237061</ele>
        <time>2021-07-17T06:24:26.000Z</time>
      </trkpt>
      <trkpt lat="47.33006" lon="0.41143">
        <ele>56.799999237061</ele>
        <time>2021-07-17T06:24:32.000Z</time>
      </trkpt>
      <trkpt lat="47.33041" lon="0.41144">
        <ele>58</ele>
        <time>2021-07-17T06:24:39.000Z</time>
      </trkpt>
      <trkpt lat="47.33086" lon="0.41141">
        <ele>59</ele>
        <time>2021-07-17T06:24:49.000Z</time>
      </trkpt>
      <trkpt lat="47.33116" lon="0.41134">
        <ele>60.200000762939</ele>
        <time>2021-07-17T06:24:57.000Z</time>
      </trkpt>
      <trkpt lat="47.33158" lon="0.41137">
        <ele>61.400001525879</ele>
        <time>2021-07-17T06:25:07.000Z</time>
      </trkpt>
      <trkpt lat="47.33198" lon="0.41139">
        <ele>62.400001525879</ele>
        <time>2021-07-17T06:25:17.000Z</time>
      </trkpt>
      <trkpt lat="47.33241" lon="0.41113">
        <ele>63.599998474121</ele>
        <time>2021-07-17T06:25:29.000Z</time>
      </trkpt>
      <trkpt lat="47.3326" lon="0.4109">
        <ele>64.199996948242</ele>
        <time>2021-07-17T06:25:35.000Z</time>
      </trkpt>
      <trkpt lat="47.33266" lon="0.41081">
        <ele>64.599998474121</ele>
        <time>2021-07-17T06:25:37.000Z</time>
      </trkpt>
      <trkpt lat="47.33275" lon="0.41069">
        <ele>64.599998474121</ele>
        <time>2021-07-17T06:25:40.000Z</time>
      </trkpt>
      <trkpt lat="47.33299" lon="0.41042">
        <ele>65.599998474121</ele>
        <time>2021-07-17T06:25:47.000Z</time>
      </trkpt>
      <trkpt lat="47.33332" lon="0.4101">
        <ele>66.599998474121</ele>
        <time>2021-07-17T06:25:56.000Z</time>
      </trkpt>
      <trkpt lat="47.3334" lon="0.41006">
        <ele>67</ele>
        <time>2021-07-17T06:25:58.000Z</time>
      </trkpt>
      <trkpt lat="47.33353" lon="0.41001">
        <ele>67.400001525879</ele>
        <time>2021-07-17T06:26:01.000Z</time>
      </trkpt>
      <trkpt lat="47.33367" lon="0.40996">
        <ele>67.800003051758</ele>
        <time>2021-07-17T06:26:04.000Z</time>
      </trkpt>
      <trkpt lat="47.33371" lon="0.40995">
        <ele>67.800003051758</ele>
        <time>2021-07-17T06:26:05.000Z</time>
      </trkpt>
      <trkpt lat="47.33412" lon="0.40991">
        <ele>69</ele>
        <time>2021-07-17T06:26:14.000Z</time>
      </trkpt>
      <trkpt lat="47.33467" lon="0.40981">
        <ele>69.800003051758</ele>
        <time>2021-07-17T06:26:26.000Z</time>
      </trkpt>
      <trkpt lat="47.33475" lon="0.4098">
        <ele>70</ele>
        <time>2021-07-17T06:26:28.000Z</time>
      </trkpt>
      <trkpt lat="47.33525" lon="0.40978">
        <ele>71</ele>
        <time>2021-07-17T06:26:40.000Z</time>
      </trkpt>
      <trkpt lat="47.33547" lon="0.40978">
        <ele>72</ele>
        <time>2021-07-17T06:26:46.000Z</time>
      </trkpt>
      <trkpt lat="47.33586" lon="0.40973">
        <ele>73.199996948242</ele>
        <time>2021-07-17T06:26:55.000Z</time>
      </trkpt>
      <trkpt lat="47.33618" lon="0.40961">
        <ele>74.199996948242</ele>
        <time>2021-07-17T06:27:02.000Z</time>
      </trkpt>
      <trkpt lat="47.33639" lon="0.40939">
        <ele>75.199996948242</ele>
        <time>2021-07-17T06:27:08.000Z</time>
      </trkpt>
      <trkpt lat="47.33672" lon="0.40891">
        <ele>76.400001525879</ele>
        <time>2021-07-17T06:27:19.000Z</time>
      </trkpt>
      <trkpt lat="47.33686" lon="0.40865">
        <ele>77.400001525879</ele>
        <time>2021-07-17T06:27:24.000Z</time>
      </trkpt>
      <trkpt lat="47.33713" lon="0.4082">
        <ele>78.599998474121</ele>
        <time>2021-07-17T06:27:33.000Z</time>
      </trkpt>
      <trkpt lat="47.33764" lon="0.40785">
        <ele>79.599998474121</ele>
        <time>2021-07-17T06:27:45.000Z</time>
      </trkpt>
      <trkpt lat="47.33803" lon="0.40769">
        <ele>80.599998474121</ele>
        <time>2021-07-17T06:27:54.000Z</time>
      </trkpt>
      <trkpt lat="47.33851" lon="0.4075">
        <ele>81.800003051758</ele>
        <time>2021-07-17T06:28:05.000Z</time>
      </trkpt>
      <trkpt lat="47.33876" lon="0.40739">
        <ele>82.800003051758</ele>
        <time>2021-07-17T06:28:11.000Z</time>
      </trkpt>
      <trkpt lat="47.33914" lon="0.40723">
        <ele>83.800003051758</ele>
        <time>2021-07-17T06:28:20.000Z</time>
      </trkpt>
      <trkpt lat="47.33945" lon="0.40713">
        <ele>85</ele>
        <time>2021-07-17T06:28:27.000Z</time>
      </trkpt>
      <trkpt lat="47.34001" lon="0.40692">
        <ele>85.800003051758</ele>
        <time>2021-07-17T06:28:39.000Z</time>
      </trkpt>
      <trkpt lat="47.34016" lon="0.40689">
        <ele>86</ele>
        <time>2021-07-17T06:28:42.000Z</time>
      </trkpt>
      <trkpt lat="47.34057" lon="0.40686">
        <ele>87.199996948242</ele>
        <time>2021-07-17T06:28:51.000Z</time>
      </trkpt>
      <trkpt lat="47.34111" lon="0.40685">
        <ele>88</ele>
        <time>2021-07-17T06:29:03.000Z</time>
      </trkpt>
      <trkpt lat="47.34158" lon="0.40672">
        <ele>88.199996948242</ele>
        <time>2021-07-17T06:29:12.000Z</time>
      </trkpt>
      <trkpt lat="47.34211" lon="0.4065">
        <ele>88.599998474121</ele>
        <time>2021-07-17T06:29:23.000Z</time>
      </trkpt>
      <trkpt lat="47.34262" lon="0.40624">
        <ele>89.400001525879</ele>
        <time>2021-07-17T06:29:35.000Z</time>
      </trkpt>
      <trkpt lat="47.34316" lon="0.40614">
        <ele>90</ele>
        <time>2021-07-17T06:29:47.000Z</time>
      </trkpt>
      <trkpt lat="47.3437" lon="0.40592">
        <ele>89.400001525879</ele>
        <time>2021-07-17T06:29:57.000Z</time>
      </trkpt>
      <trkpt lat="47.34417" lon="0.40545">
        <ele>89.599998474121</ele>
        <time>2021-07-17T06:30:07.000Z</time>
      </trkpt>
      <trkpt lat="47.34426" lon="0.40537">
        <ele>90.400001525879</ele>
        <time>2021-07-17T06:30:09.000Z</time>
      </trkpt>
      <trkpt lat="47.34456" lon="0.40515">
        <ele>91.400001525879</ele>
        <time>2021-07-17T06:30:15.000Z</time>
      </trkpt>
      <trkpt lat="47.34479" lon="0.40511">
        <ele>92.400001525879</ele>
        <time>2021-07-17T06:30:19.000Z</time>
      </trkpt>
      <trkpt lat="47.34505" lon="0.40512">
        <ele>93.400001525879</ele>
        <time>2021-07-17T06:30:24.000Z</time>
      </trkpt>
      <trkpt lat="47.34563" lon="0.40515">
        <ele>93.199996948242</ele>
        <time>2021-07-17T06:30:37.000Z</time>
      </trkpt>
      <trkpt lat="47.34622" lon="0.40515">
        <ele>93.800003051758</ele>
        <time>2021-07-17T06:30:49.000Z</time>
      </trkpt>
      <trkpt lat="47.34677" lon="0.40509">
        <ele>92.800003051758</ele>
        <time>2021-07-17T06:30:59.000Z</time>
      </trkpt>
      <trkpt lat="47.347" lon="0.40507">
        <ele>92.199996948242</ele>
        <time>2021-07-17T06:31:03.000Z</time>
      </trkpt>
      <trkpt lat="47.34752" lon="0.40503">
        <ele>91</ele>
        <time>2021-07-17T06:31:12.000Z</time>
      </trkpt>
      <trkpt lat="47.34786" lon="0.40507">
        <ele>89.800003051758</ele>
        <time>2021-07-17T06:31:17.000Z</time>
      </trkpt>
      <trkpt lat="47.34814" lon="0.4051">
        <ele>88.800003051758</ele>
        <time>2021-07-17T06:31:21.000Z</time>
      </trkpt>
      <trkpt lat="47.34839" lon="0.40512">
        <ele>87.599998474121</ele>
        <time>2021-07-17T06:31:25.000Z</time>
      </trkpt>
      <trkpt lat="47.34868" lon="0.4051">
        <ele>86.599998474121</ele>
        <time>2021-07-17T06:31:29.000Z</time>
      </trkpt>
      <trkpt lat="47.34888" lon="0.40507">
        <ele>85.199996948242</ele>
        <time>2021-07-17T06:31:32.000Z</time>
      </trkpt>
      <trkpt lat="47.34946" lon="0.40497">
        <ele>84.199996948242</ele>
        <time>2021-07-17T06:31:39.000Z</time>
      </trkpt>
      <trkpt lat="47.34983" lon="0.40492">
        <ele>83.800003051758</ele>
        <time>2021-07-17T06:31:44.000Z</time>
      </trkpt>
      <trkpt lat="47.35011" lon="0.40501">
        <ele>85.400001525879</ele>
        <time>2021-07-17T06:31:48.000Z</time>
      </trkpt>
      <trkpt lat="47.35024" lon="0.40509">
        <ele>87</ele>
        <time>2021-07-17T06:31:50.000Z</time>
      </trkpt>
      <trkpt lat="47.35077" lon="0.40546">
        <ele>87.800003051758</ele>
        <time>2021-07-17T06:32:00.000Z</time>
      </trkpt>
      <trkpt lat="47.35087" lon="0.40553">
        <ele>88</ele>
        <time>2021-07-17T06:32:02.000Z</time>
      </trkpt>
      <trkpt lat="47.35137" lon="0.40584">
        <ele>88</ele>
        <time>2021-07-17T06:32:11.000Z</time>
      </trkpt>
      <trkpt lat="47.35165" lon="0.40603">
        <ele>87.800003051758</ele>
        <time>2021-07-17T06:32:16.000Z</time>
      </trkpt>
      <trkpt lat="47.35213" lon="0.40653">
        <ele>88.800003051758</ele>
        <time>2021-07-17T06:32:26.000Z</time>
      </trkpt>
      <trkpt lat="47.35222" lon="0.40662">
        <ele>89</ele>
        <time>2021-07-17T06:32:28.000Z</time>
      </trkpt>
      <trkpt lat="47.35245" lon="0.40693">
        <ele>90</ele>
        <time>2021-07-17T06:32:34.000Z</time>
      </trkpt>
      <trkpt lat="47.35282" lon="0.40755">
        <ele>90.599998474121</ele>
        <time>2021-07-17T06:32:45.000Z</time>
      </trkpt>
      <trkpt lat="47.35328" lon="0.40803">
        <ele>90.599998474121</ele>
        <time>2021-07-17T06:32:54.000Z</time>
      </trkpt>
      <trkpt lat="47.35373" lon="0.40858">
        <ele>90</ele>
        <time>2021-07-17T06:33:04.000Z</time>
      </trkpt>
      <trkpt lat="47.35414" lon="0.40914">
        <ele>89.599998474121</ele>
        <time>2021-07-17T06:33:13.000Z</time>
      </trkpt>
      <trkpt lat="47.35429" lon="0.40935">
        <ele>89</ele>
        <time>2021-07-17T06:33:16.000Z</time>
      </trkpt>
      <trkpt lat="47.35438" lon="0.40949">
        <ele>86.199996948242</ele>
        <time>2021-07-17T06:33:18.000Z</time>
      </trkpt>
      <trkpt lat="47.35478" lon="0.41003">
        <ele>85.599998474121</ele>
        <time>2021-07-17T06:33:27.000Z</time>
      </trkpt>
      <trkpt lat="47.35515" lon="0.41035">
        <ele>87.400001525879</ele>
        <time>2021-07-17T06:33:35.000Z</time>
      </trkpt>
      <trkpt lat="47.35564" lon="0.41076">
        <ele>87.599998474121</ele>
        <time>2021-07-17T06:33:45.000Z</time>
      </trkpt>
      <trkpt lat="47.35614" lon="0.41116">
        <ele>87.199996948242</ele>
        <time>2021-07-17T06:33:55.000Z</time>
      </trkpt>
      <trkpt lat="47.35665" lon="0.41162">
        <ele>86.199996948242</ele>
        <time>2021-07-17T06:34:05.000Z</time>
      </trkpt>
      <trkpt lat="47.35686" lon="0.41181">
        <ele>85.199996948242</ele>
        <time>2021-07-17T06:34:09.000Z</time>
      </trkpt>
      <trkpt lat="47.35712" lon="0.41205">
        <ele>84</ele>
        <time>2021-07-17T06:34:14.000Z</time>
      </trkpt>
      <trkpt lat="47.3574" lon="0.41228">
        <ele>82.800003051758</ele>
        <time>2021-07-17T06:34:19.000Z</time>
      </trkpt>
      <trkpt lat="47.35751" lon="0.41239">
        <ele>81.800003051758</ele>
        <time>2021-07-17T06:34:21.000Z</time>
      </trkpt>
      <trkpt lat="47.3577" lon="0.41256">
        <ele>80.199996948242</ele>
        <time>2021-07-17T06:34:24.000Z</time>
      </trkpt>
      <trkpt lat="47.35782" lon="0.4127">
        <ele>79.199996948242</ele>
        <time>2021-07-17T06:34:26.000Z</time>
      </trkpt>
      <trkpt lat="47.35795" lon="0.41285">
        <ele>78</ele>
        <time>2021-07-17T06:34:28.000Z</time>
      </trkpt>
      <trkpt lat="47.35801" lon="0.41294">
        <ele>77</ele>
        <time>2021-07-17T06:34:29.000Z</time>
      </trkpt>
      <trkpt lat="47.35808" lon="0.41302">
        <ele>76</ele>
        <time>2021-07-17T06:34:30.000Z</time>
      </trkpt>
      <trkpt lat="47.35813" lon="0.41312">
        <ele>74.800003051758</ele>
        <time>2021-07-17T06:34:31.000Z</time>
      </trkpt>
      <trkpt lat="47.35825" lon="0.41331">
        <ele>73</ele>
        <time>2021-07-17T06:34:33.000Z</time>
      </trkpt>
      <trkpt lat="47.35838" lon="0.41353">
        <ele>71.800003051758</ele>
        <time>2021-07-17T06:34:35.000Z</time>
      </trkpt>
      <trkpt lat="47.35845" lon="0.41364">
        <ele>73</ele>
        <time>2021-07-17T06:34:36.000Z</time>
      </trkpt>
      <trkpt lat="47.35852" lon="0.41375">
        <ele>75.599998474121</ele>
        <time>2021-07-17T06:34:37.000Z</time>
      </trkpt>
      <trkpt lat="47.35871" lon="0.41411">
        <ele>75.800003051758</ele>
        <time>2021-07-17T06:34:40.000Z</time>
      </trkpt>
      <trkpt lat="47.35882" lon="0.41431">
        <ele>76</ele>
        <time>2021-07-17T06:34:42.000Z</time>
      </trkpt>
      <trkpt lat="47.35895" lon="0.41436">
        <ele>76.800003051758</ele>
        <time>2021-07-17T06:34:44.000Z</time>
      </trkpt>
      <trkpt lat="47.35913" lon="0.41435">
        <ele>78</ele>
        <time>2021-07-17T06:34:47.000Z</time>
      </trkpt>
      <trkpt lat="47.35937" lon="0.41445">
        <ele>79.400001525879</ele>
        <time>2021-07-17T06:34:53.000Z</time>
      </trkpt>
      <trkpt lat="47.35952" lon="0.41443">
        <ele>80.400001525879</ele>
        <time>2021-07-17T06:34:58.000Z</time>
      </trkpt>
      <trkpt lat="47.35962" lon="0.41423">
        <ele>81.400001525879</ele>
        <time>2021-07-17T06:35:02.000Z</time>
      </trkpt>
      <trkpt lat="47.35969" lon="0.41404">
        <ele>82.599998474121</ele>
        <time>2021-07-17T06:35:06.000Z</time>
      </trkpt>
      <trkpt lat="47.35974" lon="0.41393">
        <ele>83.800003051758</ele>
        <time>2021-07-17T06:35:09.000Z</time>
      </trkpt>
      <trkpt lat="47.35981" lon="0.41387">
        <ele>84.800003051758</ele>
        <time>2021-07-17T06:35:12.000Z</time>
      </trkpt>
      <trkpt lat="47.35991" lon="0.41387">
        <ele>86</ele>
        <time>2021-07-17T06:35:16.000Z</time>
      </trkpt>
      <trkpt lat="47.35997" lon="0.41388">
        <ele>87</ele>
        <time>2021-07-17T06:35:19.000Z</time>
      </trkpt>
      <trkpt lat="47.36011" lon="0.41391">
        <ele>88.199996948242</ele>
        <time>2021-07-17T06:35:24.000Z</time>
      </trkpt>
      <trkpt lat="47.3603" lon="0.41395">
        <ele>89.400001525879</ele>
        <time>2021-07-17T06:35:29.000Z</time>
      </trkpt>
      <trkpt lat="47.36055" lon="0.41395">
        <ele>90.599998474121</ele>
        <time>2021-07-17T06:35:35.000Z</time>
      </trkpt>
      <trkpt lat="47.36087" lon="0.41396">
        <ele>92.800003051758</ele>
        <time>2021-07-17T06:35:43.000Z</time>
      </trkpt>
      <trkpt lat="47.36095" lon="0.41395">
        <ele>93.800003051758</ele>
        <time>2021-07-17T06:35:45.000Z</time>
      </trkpt>
      <trkpt lat="47.36149" lon="0.41399">
        <ele>93.199996948242</ele>
        <time>2021-07-17T06:35:58.000Z</time>
      </trkpt>
      <trkpt lat="47.36207" lon="0.41405">
        <ele>92.800003051758</ele>
        <time>2021-07-17T06:36:09.000Z</time>
      </trkpt>
      <trkpt lat="47.36219" lon="0.41408">
        <ele>92.599998474121</ele>
        <time>2021-07-17T06:36:11.000Z</time>
      </trkpt>
      <trkpt lat="47.36277" lon="0.41418">
        <ele>91.599998474121</ele>
        <time>2021-07-17T06:36:20.000Z</time>
      </trkpt>
      <trkpt lat="47.36329" lon="0.41448">
        <ele>91.400001525879</ele>
        <time>2021-07-17T06:36:29.000Z</time>
      </trkpt>
      <trkpt lat="47.36379" lon="0.41489">
        <ele>91.599998474121</ele>
        <time>2021-07-17T06:36:39.000Z</time>
      </trkpt>
      <trkpt lat="47.36429" lon="0.41529">
        <ele>92.800003051758</ele>
        <time>2021-07-17T06:36:50.000Z</time>
      </trkpt>
      <trkpt lat="47.36469" lon="0.41563">
        <ele>91.400001525879</ele>
        <time>2021-07-17T06:36:59.000Z</time>
      </trkpt>
      <trkpt lat="47.36514" lon="0.41618">
        <ele>91.400001525879</ele>
        <time>2021-07-17T06:37:10.000Z</time>
      </trkpt>
      <trkpt lat="47.36559" lon="0.41666">
        <ele>92</ele>
        <time>2021-07-17T06:37:22.000Z</time>
      </trkpt>
      <trkpt lat="47.3658" lon="0.41682">
        <ele>92.199996948242</ele>
        <time>2021-07-17T06:37:27.000Z</time>
      </trkpt>
      <trkpt lat="47.3663" lon="0.41724">
        <ele>92.599998474121</ele>
        <time>2021-07-17T06:37:38.000Z</time>
      </trkpt>
      <trkpt lat="47.36676" lon="0.41755">
        <ele>91.400001525879</ele>
        <time>2021-07-17T06:37:46.000Z</time>
      </trkpt>
      <trkpt lat="47.367" lon="0.41769">
        <ele>90.400001525879</ele>
        <time>2021-07-17T06:37:50.000Z</time>
      </trkpt>
      <trkpt lat="47.36719" lon="0.41777">
        <ele>89</ele>
        <time>2021-07-17T06:37:53.000Z</time>
      </trkpt>
      <trkpt lat="47.36739" lon="0.41785">
        <ele>88</ele>
        <time>2021-07-17T06:37:56.000Z</time>
      </trkpt>
      <trkpt lat="47.36753" lon="0.41789">
        <ele>87</ele>
        <time>2021-07-17T06:37:58.000Z</time>
      </trkpt>
      <trkpt lat="47.36768" lon="0.41791">
        <ele>85.599998474121</ele>
        <time>2021-07-17T06:38:00.000Z</time>
      </trkpt>
      <trkpt lat="47.36784" lon="0.41794">
        <ele>84</ele>
        <time>2021-07-17T06:38:02.000Z</time>
      </trkpt>
      <trkpt lat="47.36842" lon="0.41819">
        <ele>84.400001525879</ele>
        <time>2021-07-17T06:38:10.000Z</time>
      </trkpt>
      <trkpt lat="47.36854" lon="0.41825">
        <ele>85.400001525879</ele>
        <time>2021-07-17T06:38:12.000Z</time>
      </trkpt>
      <trkpt lat="47.36865" lon="0.41831">
        <ele>86.599998474121</ele>
        <time>2021-07-17T06:38:14.000Z</time>
      </trkpt>
      <trkpt lat="47.36884" lon="0.41842">
        <ele>87.800003051758</ele>
        <time>2021-07-17T06:38:18.000Z</time>
      </trkpt>
      <trkpt lat="47.3689" lon="0.41844">
        <ele>88.199996948242</ele>
        <time>2021-07-17T06:38:19.000Z</time>
      </trkpt>
      <trkpt lat="47.36903" lon="0.4185">
        <ele>89</ele>
        <time>2021-07-17T06:38:22.000Z</time>
      </trkpt>
      <trkpt lat="47.36935" lon="0.41861">
        <ele>90</ele>
        <time>2021-07-17T06:38:29.000Z</time>
      </trkpt>
      <trkpt lat="47.36992" lon="0.41882">
        <ele>90.599998474121</ele>
        <time>2021-07-17T06:38:40.000Z</time>
      </trkpt>
      <trkpt lat="47.36998" lon="0.41884">
        <ele>91.400001525879</ele>
        <time>2021-07-17T06:38:41.000Z</time>
      </trkpt>
      <trkpt lat="47.3701" lon="0.4189">
        <ele>92.800003051758</ele>
        <time>2021-07-17T06:38:43.000Z</time>
      </trkpt>
      <trkpt lat="47.37064" lon="0.41915">
        <ele>93</ele>
        <time>2021-07-17T06:38:52.000Z</time>
      </trkpt>
      <trkpt lat="47.37098" lon="0.41934">
        <ele>92.800003051758</ele>
        <time>2021-07-17T06:38:58.000Z</time>
      </trkpt>
      <trkpt lat="47.37112" lon="0.41938">
        <ele>92.800003051758</ele>
        <time>2021-07-17T06:39:00.000Z</time>
      </trkpt>
      <trkpt lat="47.37128" lon="0.41939">
        <ele>93.400001525879</ele>
        <time>2021-07-17T06:39:02.000Z</time>
      </trkpt>
      <trkpt lat="47.37175" lon="0.41928">
        <ele>92.599998474121</ele>
        <time>2021-07-17T06:39:08.000Z</time>
      </trkpt>
      <trkpt lat="47.37196" lon="0.4193">
        <ele>92.400001525879</ele>
        <time>2021-07-17T06:39:11.000Z</time>
      </trkpt>
      <trkpt lat="47.37253" lon="0.41943">
        <ele>92.800003051758</ele>
        <time>2021-07-17T06:39:19.000Z</time>
      </trkpt>
      <trkpt lat="47.37305" lon="0.41964">
        <ele>93.599998474121</ele>
        <time>2021-07-17T06:39:29.000Z</time>
      </trkpt>
      <trkpt lat="47.37361" lon="0.41991">
        <ele>93.400001525879</ele>
        <time>2021-07-17T06:39:39.000Z</time>
      </trkpt>
      <trkpt lat="47.37399" lon="0.42025">
        <ele>90.599998474121</ele>
        <time>2021-07-17T06:39:46.000Z</time>
      </trkpt>
      <trkpt lat="47.3741" lon="0.42034">
        <ele>89.199996948242</ele>
        <time>2021-07-17T06:39:48.000Z</time>
      </trkpt>
      <trkpt lat="47.37432" lon="0.42052">
        <ele>88.199996948242</ele>
        <time>2021-07-17T06:39:52.000Z</time>
      </trkpt>
      <trkpt lat="47.37456" lon="0.42071">
        <ele>87</ele>
        <time>2021-07-17T06:39:56.000Z</time>
      </trkpt>
      <trkpt lat="47.3748" lon="0.42091">
        <ele>86</ele>
        <time>2021-07-17T06:40:00.000Z</time>
      </trkpt>
      <trkpt lat="47.37503" lon="0.42115">
        <ele>85</ele>
        <time>2021-07-17T06:40:04.000Z</time>
      </trkpt>
      <trkpt lat="47.37539" lon="0.42158">
        <ele>83.800003051758</ele>
        <time>2021-07-17T06:40:10.000Z</time>
      </trkpt>
      <trkpt lat="47.37585" lon="0.42215">
        <ele>83.800003051758</ele>
        <time>2021-07-17T06:40:18.000Z</time>
      </trkpt>
      <trkpt lat="47.37622" lon="0.42251">
        <ele>84.800003051758</ele>
        <time>2021-07-17T06:40:25.000Z</time>
      </trkpt>
      <trkpt lat="47.37668" lon="0.42297">
        <ele>84.800003051758</ele>
        <time>2021-07-17T06:40:34.000Z</time>
      </trkpt>
      <trkpt lat="47.37689" lon="0.42317">
        <ele>84.199996948242</ele>
        <time>2021-07-17T06:40:38.000Z</time>
      </trkpt>
      <trkpt lat="47.37745" lon="0.4235">
        <ele>84.800003051758</ele>
        <time>2021-07-17T06:40:48.000Z</time>
      </trkpt>
      <trkpt lat="47.37768" lon="0.42364">
        <ele>84.400001525879</ele>
        <time>2021-07-17T06:40:52.000Z</time>
      </trkpt>
      <trkpt lat="47.37823" lon="0.42389">
        <ele>83.400001525879</ele>
        <time>2021-07-17T06:41:01.000Z</time>
      </trkpt>
      <trkpt lat="47.37876" lon="0.42418">
        <ele>82.400001525879</ele>
        <time>2021-07-17T06:41:09.000Z</time>
      </trkpt>
      <trkpt lat="47.37923" lon="0.42446">
        <ele>81.199996948242</ele>
        <time>2021-07-17T06:41:16.000Z</time>
      </trkpt>
      <trkpt lat="47.37957" lon="0.42466">
        <ele>83</ele>
        <time>2021-07-17T06:41:21.000Z</time>
      </trkpt>
      <trkpt lat="47.37976" lon="0.42476">
        <ele>84.199996948242</ele>
        <time>2021-07-17T06:41:24.000Z</time>
      </trkpt>
      <trkpt lat="47.38006" lon="0.42494">
        <ele>83</ele>
        <time>2021-07-17T06:41:29.000Z</time>
      </trkpt>
      <trkpt lat="47.38018" lon="0.42503">
        <ele>81.800003051758</ele>
        <time>2021-07-17T06:41:32.000Z</time>
      </trkpt>
      <trkpt lat="47.38024" lon="0.42513">
        <ele>81.400001525879</ele>
        <time>2021-07-17T06:41:37.000Z</time>
      </trkpt>
      <trkpt lat="47.38034" lon="0.42509">
        <ele>81</ele>
        <time>2021-07-17T06:41:40.000Z</time>
      </trkpt>
      <trkpt lat="47.38056" lon="0.42491">
        <ele>80.400001525879</ele>
        <time>2021-07-17T06:41:45.000Z</time>
      </trkpt>
      <trkpt lat="47.3808" lon="0.42473">
        <ele>82.199996948242</ele>
        <time>2021-07-17T06:41:50.000Z</time>
      </trkpt>
      <trkpt lat="47.38095" lon="0.42461">
        <ele>83.199996948242</ele>
        <time>2021-07-17T06:41:53.000Z</time>
      </trkpt>
      <trkpt lat="47.38106" lon="0.42453">
        <ele>81.599998474121</ele>
        <time>2021-07-17T06:41:55.000Z</time>
      </trkpt>
      <trkpt lat="47.38117" lon="0.42445">
        <ele>83.400001525879</ele>
        <time>2021-07-17T06:41:57.000Z</time>
      </trkpt>
      <trkpt lat="47.38133" lon="0.42432">
        <ele>82.199996948242</ele>
        <time>2021-07-17T06:42:00.000Z</time>
      </trkpt>
      <trkpt lat="47.38182" lon="0.42394">
        <ele>83.199996948242</ele>
        <time>2021-07-17T06:42:10.000Z</time>
      </trkpt>
      <trkpt lat="47.3823" lon="0.42358">
        <ele>84.400001525879</ele>
        <time>2021-07-17T06:42:20.000Z</time>
      </trkpt>
      <trkpt lat="47.38278" lon="0.4232">
        <ele>84</ele>
        <time>2021-07-17T06:42:30.000Z</time>
      </trkpt>
      <trkpt lat="47.38298" lon="0.42304">
        <ele>86.199996948242</ele>
        <time>2021-07-17T06:42:34.000Z</time>
      </trkpt>
      <trkpt lat="47.38317" lon="0.4229">
        <ele>85.400001525879</ele>
        <time>2021-07-17T06:42:38.000Z</time>
      </trkpt>
      <trkpt lat="47.38326" lon="0.42291">
        <ele>85</ele>
        <time>2021-07-17T06:42:40.000Z</time>
      </trkpt>
      <trkpt lat="47.38331" lon="0.42304">
        <ele>85</ele>
        <time>2021-07-17T06:42:42.000Z</time>
      </trkpt>
      <trkpt lat="47.38336" lon="0.42338">
        <ele>83.599998474121</ele>
        <time>2021-07-17T06:42:46.000Z</time>
      </trkpt>
      <trkpt lat="47.38338" lon="0.42364">
        <ele>82.400001525879</ele>
        <time>2021-07-17T06:42:49.000Z</time>
      </trkpt>
      <trkpt lat="47.38338" lon="0.42374">
        <ele>82.199996948242</ele>
        <time>2021-07-17T06:42:50.000Z</time>
      </trkpt>
      <trkpt lat="47.38327" lon="0.42446">
        <ele>82.800003051758</ele>
        <time>2021-07-17T06:42:58.000Z</time>
      </trkpt>
      <trkpt lat="47.38326" lon="0.42465">
        <ele>82.400001525879</ele>
        <time>2021-07-17T06:43:00.000Z</time>
      </trkpt>
      <trkpt lat="47.38324" lon="0.42548">
        <ele>82</ele>
        <time>2021-07-17T06:43:09.000Z</time>
      </trkpt>
      <trkpt lat="47.38323" lon="0.42601">
        <ele>83.599998474121</ele>
        <time>2021-07-17T06:43:15.000Z</time>
      </trkpt>
      <trkpt lat="47.38324" lon="0.42618">
        <ele>84.199996948242</ele>
        <time>2021-07-17T06:43:17.000Z</time>
      </trkpt>
      <trkpt lat="47.38329" lon="0.42706">
        <ele>82.800003051758</ele>
        <time>2021-07-17T06:43:26.000Z</time>
      </trkpt>
      <trkpt lat="47.38329" lon="0.42717">
        <ele>82.599998474121</ele>
        <time>2021-07-17T06:43:27.000Z</time>
      </trkpt>
      <trkpt lat="47.38331" lon="0.42779">
        <ele>81.599998474121</ele>
        <time>2021-07-17T06:43:33.000Z</time>
      </trkpt>
      <trkpt lat="47.38337" lon="0.42798">
        <ele>81.400001525879</ele>
        <time>2021-07-17T06:43:35.000Z</time>
      </trkpt>
      <trkpt lat="47.38347" lon="0.42815">
        <ele>80</ele>
        <time>2021-07-17T06:43:37.000Z</time>
      </trkpt>
      <trkpt lat="47.38368" lon="0.42843">
        <ele>79</ele>
        <time>2021-07-17T06:43:41.000Z</time>
      </trkpt>
      <trkpt lat="47.38374" lon="0.42849">
        <ele>79</ele>
        <time>2021-07-17T06:43:42.000Z</time>
      </trkpt>
      <trkpt lat="47.38386" lon="0.42858">
        <ele>78.400001525879</ele>
        <time>2021-07-17T06:43:44.000Z</time>
      </trkpt>
      <trkpt lat="47.38392" lon="0.4286">
        <ele>77.199996948242</ele>
        <time>2021-07-17T06:43:45.000Z</time>
      </trkpt>
      <trkpt lat="47.38407" lon="0.42866">
        <ele>78.599998474121</ele>
        <time>2021-07-17T06:43:48.000Z</time>
      </trkpt>
      <trkpt lat="47.38416" lon="0.42869">
        <ele>79.599998474121</ele>
        <time>2021-07-17T06:43:50.000Z</time>
      </trkpt>
      <trkpt lat="47.38431" lon="0.42871">
        <ele>80.599998474121</ele>
        <time>2021-07-17T06:43:53.000Z</time>
      </trkpt>
      <trkpt lat="47.3845" lon="0.42873">
        <ele>81.800003051758</ele>
        <time>2021-07-17T06:43:57.000Z</time>
      </trkpt>
      <trkpt lat="47.38466" lon="0.42873">
        <ele>83.199996948242</ele>
        <time>2021-07-17T06:44:00.000Z</time>
      </trkpt>
      <trkpt lat="47.38484" lon="0.42872">
        <ele>84.400001525879</ele>
        <time>2021-07-17T06:44:04.000Z</time>
      </trkpt>
      <trkpt lat="47.38515" lon="0.42855">
        <ele>85.599998474121</ele>
        <time>2021-07-17T06:44:11.000Z</time>
      </trkpt>
      <trkpt lat="47.38569" lon="0.42826">
        <ele>85.599998474121</ele>
        <time>2021-07-17T06:44:23.000Z</time>
      </trkpt>
      <trkpt lat="47.38623" lon="0.42821">
        <ele>85.400001525879</ele>
        <time>2021-07-17T06:44:33.000Z</time>
      </trkpt>
      <trkpt lat="47.38629" lon="0.42822">
        <ele>87.199996948242</ele>
        <time>2021-07-17T06:44:34.000Z</time>
      </trkpt>
      <trkpt lat="47.38634" lon="0.42823">
        <ele>88.400001525879</ele>
        <time>2021-07-17T06:44:35.000Z</time>
      </trkpt>
      <trkpt lat="47.38692" lon="0.42839">
        <ele>88.199996948242</ele>
        <time>2021-07-17T06:44:46.000Z</time>
      </trkpt>
      <trkpt lat="47.38746" lon="0.42855">
        <ele>88.400001525879</ele>
        <time>2021-07-17T06:44:56.000Z</time>
      </trkpt>
      <trkpt lat="47.38792" lon="0.42878">
        <ele>89.400001525879</ele>
        <time>2021-07-17T06:45:05.000Z</time>
      </trkpt>
      <trkpt lat="47.38844" lon="0.42908">
        <ele>89.599998474121</ele>
        <time>2021-07-17T06:45:16.000Z</time>
      </trkpt>
      <trkpt lat="47.38868" lon="0.42922">
        <ele>87.400001525879</ele>
        <time>2021-07-17T06:45:21.000Z</time>
      </trkpt>
      <trkpt lat="47.38873" lon="0.42925">
        <ele>86.400001525879</ele>
        <time>2021-07-17T06:45:22.000Z</time>
      </trkpt>
      <trkpt lat="47.38894" lon="0.42936">
        <ele>88.599998474121</ele>
        <time>2021-07-17T06:45:26.000Z</time>
      </trkpt>
      <trkpt lat="47.38947" lon="0.42966">
        <ele>86.800003051758</ele>
        <time>2021-07-17T06:45:36.000Z</time>
      </trkpt>
      <trkpt lat="47.38984" lon="0.42975">
        <ele>88.199996948242</ele>
        <time>2021-07-17T06:45:42.000Z</time>
      </trkpt>
      <trkpt lat="47.39009" lon="0.42977">
        <ele>86.800003051758</ele>
        <time>2021-07-17T06:45:46.000Z</time>
      </trkpt>
      <trkpt lat="47.39015" lon="0.42977">
        <ele>85.599998474121</ele>
        <time>2021-07-17T06:45:47.000Z</time>
      </trkpt>
      <trkpt lat="47.39027" lon="0.42976">
        <ele>86.800003051758</ele>
        <time>2021-07-17T06:45:49.000Z</time>
      </trkpt>
      <trkpt lat="47.39084" lon="0.42974">
        <ele>86.800003051758</ele>
        <time>2021-07-17T06:45:58.000Z</time>
      </trkpt>
      <trkpt lat="47.39114" lon="0.42976">
        <ele>85.599998474121</ele>
        <time>2021-07-17T06:46:02.000Z</time>
      </trkpt>
      <trkpt lat="47.39154" lon="0.42984">
        <ele>84.400001525879</ele>
        <time>2021-07-17T06:46:07.000Z</time>
      </trkpt>
      <trkpt lat="47.39169" lon="0.42989">
        <ele>82.199996948242</ele>
        <time>2021-07-17T06:46:09.000Z</time>
      </trkpt>
      <trkpt lat="47.39176" lon="0.42991">
        <ele>80</ele>
        <time>2021-07-17T06:46:10.000Z</time>
      </trkpt>
      <trkpt lat="47.3919" lon="0.42999">
        <ele>78.400001525879</ele>
        <time>2021-07-17T06:46:12.000Z</time>
      </trkpt>
      <trkpt lat="47.39235" lon="0.43035">
        <ele>79.599998474121</ele>
        <time>2021-07-17T06:46:20.000Z</time>
      </trkpt>
      <trkpt lat="47.3924" lon="0.43039">
        <ele>81.599998474121</ele>
        <time>2021-07-17T06:46:21.000Z</time>
      </trkpt>
      <trkpt lat="47.3925" lon="0.43048">
        <ele>83</ele>
        <time>2021-07-17T06:46:23.000Z</time>
      </trkpt>
      <trkpt lat="47.39299" lon="0.43087">
        <ele>83.599998474121</ele>
        <time>2021-07-17T06:46:34.000Z</time>
      </trkpt>
      <trkpt lat="47.39307" lon="0.43092">
        <ele>84</ele>
        <time>2021-07-17T06:46:36.000Z</time>
      </trkpt>
      <trkpt lat="47.39328" lon="0.43111">
        <ele>85</ele>
        <time>2021-07-17T06:46:42.000Z</time>
      </trkpt>
      <trkpt lat="47.39349" lon="0.43127">
        <ele>86.199996948242</ele>
        <time>2021-07-17T06:46:48.000Z</time>
      </trkpt>
      <trkpt lat="47.39374" lon="0.43144">
        <ele>87.199996948242</ele>
        <time>2021-07-17T06:46:55.000Z</time>
      </trkpt>
      <trkpt lat="47.39399" lon="0.43162">
        <ele>88.199996948242</ele>
        <time>2021-07-17T06:47:02.000Z</time>
      </trkpt>
      <trkpt lat="47.39429" lon="0.43183">
        <ele>89.400001525879</ele>
        <time>2021-07-17T06:47:10.000Z</time>
      </trkpt>
      <trkpt lat="47.39482" lon="0.43194">
        <ele>89.800003051758</ele>
        <time>2021-07-17T06:47:22.000Z</time>
      </trkpt>
      <trkpt lat="47.39513" lon="0.43186">
        <ele>90.400001525879</ele>
        <time>2021-07-17T06:47:29.000Z</time>
      </trkpt>
      <trkpt lat="47.3956" lon="0.43175">
        <ele>91.599998474121</ele>
        <time>2021-07-17T06:47:40.000Z</time>
      </trkpt>
      <trkpt lat="47.39614" lon="0.43163">
        <ele>91.800003051758</ele>
        <time>2021-07-17T06:47:52.000Z</time>
      </trkpt>
      <trkpt lat="47.39668" lon="0.43151">
        <ele>92.199996948242</ele>
        <time>2021-07-17T06:48:03.000Z</time>
      </trkpt>
      <trkpt lat="47.39723" lon="0.43143">
        <ele>91</ele>
        <time>2021-07-17T06:48:13.000Z</time>
      </trkpt>
      <trkpt lat="47.39729" lon="0.43142">
        <ele>90.400001525879</ele>
        <time>2021-07-17T06:48:14.000Z</time>
      </trkpt>
      <trkpt lat="47.39755" lon="0.43141">
        <ele>89.199996948242</ele>
        <time>2021-07-17T06:48:18.000Z</time>
      </trkpt>
      <trkpt lat="47.39802" lon="0.43136">
        <ele>88</ele>
        <time>2021-07-17T06:48:24.000Z</time>
      </trkpt>
      <trkpt lat="47.39819" lon="0.43135">
        <ele>86.800003051758</ele>
        <time>2021-07-17T06:48:26.000Z</time>
      </trkpt>
      <trkpt lat="47.39837" lon="0.43134">
        <ele>85.400001525879</ele>
        <time>2021-07-17T06:48:28.000Z</time>
      </trkpt>
      <trkpt lat="47.39856" lon="0.43134">
        <ele>83.599998474121</ele>
        <time>2021-07-17T06:48:30.000Z</time>
      </trkpt>
      <trkpt lat="47.39875" lon="0.43133">
        <ele>82.599998474121</ele>
        <time>2021-07-17T06:48:32.000Z</time>
      </trkpt>
      <trkpt lat="47.39896" lon="0.43132">
        <ele>81.400001525879</ele>
        <time>2021-07-17T06:48:34.000Z</time>
      </trkpt>
      <trkpt lat="47.39916" lon="0.43131">
        <ele>79.800003051758</ele>
        <time>2021-07-17T06:48:36.000Z</time>
      </trkpt>
      <trkpt lat="47.39938" lon="0.43129">
        <ele>78.199996948242</ele>
        <time>2021-07-17T06:48:38.000Z</time>
      </trkpt>
      <trkpt lat="47.39977" lon="0.43127">
        <ele>77.199996948242</ele>
        <time>2021-07-17T06:48:42.000Z</time>
      </trkpt>
      <trkpt lat="47.4001" lon="0.43127">
        <ele>78.199996948242</ele>
        <time>2021-07-17T06:48:47.000Z</time>
      </trkpt>
      <trkpt lat="47.40057" lon="0.43129">
        <ele>79.199996948242</ele>
        <time>2021-07-17T06:48:58.000Z</time>
      </trkpt>
      <trkpt lat="47.40078" lon="0.43132">
        <ele>80.400001525879</ele>
        <time>2021-07-17T06:49:03.000Z</time>
      </trkpt>
      <trkpt lat="47.40094" lon="0.43134">
        <ele>81.599998474121</ele>
        <time>2021-07-17T06:49:07.000Z</time>
      </trkpt>
      <trkpt lat="47.40106" lon="0.43135">
        <ele>82.800003051758</ele>
        <time>2021-07-17T06:49:10.000Z</time>
      </trkpt>
      <trkpt lat="47.40122" lon="0.43137">
        <ele>83.800003051758</ele>
        <time>2021-07-17T06:49:14.000Z</time>
      </trkpt>
      <trkpt lat="47.40144" lon="0.43139">
        <ele>85</ele>
        <time>2021-07-17T06:49:19.000Z</time>
      </trkpt>
      <trkpt lat="47.402" lon="0.43139">
        <ele>85</ele>
        <time>2021-07-17T06:49:30.000Z</time>
      </trkpt>
      <trkpt lat="47.40256" lon="0.43134">
        <ele>84.199996948242</ele>
        <time>2021-07-17T06:49:40.000Z</time>
      </trkpt>
      <trkpt lat="47.40268" lon="0.43133">
        <ele>83.599998474121</ele>
        <time>2021-07-17T06:49:42.000Z</time>
      </trkpt>
      <trkpt lat="47.40314" lon="0.43128">
        <ele>82.599998474121</ele>
        <time>2021-07-17T06:49:49.000Z</time>
      </trkpt>
      <trkpt lat="47.4035" lon="0.43124">
        <ele>81.400001525879</ele>
        <time>2021-07-17T06:49:54.000Z</time>
      </trkpt>
      <trkpt lat="47.40405" lon="0.43119">
        <ele>82.400001525879</ele>
        <time>2021-07-17T06:50:04.000Z</time>
      </trkpt>
      <trkpt lat="47.40429" lon="0.43121">
        <ele>83.800003051758</ele>
        <time>2021-07-17T06:50:10.000Z</time>
      </trkpt>
      <trkpt lat="47.40443" lon="0.4313">
        <ele>84.800003051758</ele>
        <time>2021-07-17T06:50:14.000Z</time>
      </trkpt>
      <trkpt lat="47.40451" lon="0.43144">
        <ele>85.199996948242</ele>
        <time>2021-07-17T06:50:17.000Z</time>
      </trkpt>
      <trkpt lat="47.40466" lon="0.43194">
        <ele>83.800003051758</ele>
        <time>2021-07-17T06:50:24.000Z</time>
      </trkpt>
      <trkpt lat="47.40479" lon="0.43242">
        <ele>82.599998474121</ele>
        <time>2021-07-17T06:50:29.000Z</time>
      </trkpt>
      <trkpt lat="47.40487" lon="0.43276">
        <ele>81.400001525879</ele>
        <time>2021-07-17T06:50:32.000Z</time>
      </trkpt>
      <trkpt lat="47.40495" lon="0.43313">
        <ele>80</ele>
        <time>2021-07-17T06:50:35.000Z</time>
      </trkpt>
      <trkpt lat="47.405" lon="0.43338">
        <ele>78.800003051758</ele>
        <time>2021-07-17T06:50:37.000Z</time>
      </trkpt>
      <trkpt lat="47.40511" lon="0.43388">
        <ele>77.599998474121</ele>
        <time>2021-07-17T06:50:41.000Z</time>
      </trkpt>
      <trkpt lat="47.4052" lon="0.43443">
        <ele>78.800003051758</ele>
        <time>2021-07-17T06:50:47.000Z</time>
      </trkpt>
      <trkpt lat="47.40523" lon="0.43464">
        <ele>79.400001525879</ele>
        <time>2021-07-17T06:50:50.000Z</time>
      </trkpt>
      <trkpt lat="47.40523" lon="0.43476">
        <ele>79.800003051758</ele>
        <time>2021-07-17T06:50:52.000Z</time>
      </trkpt>
      <trkpt lat="47.40521" lon="0.43495">
        <ele>81</ele>
        <time>2021-07-17T06:50:56.000Z</time>
      </trkpt>
      <trkpt lat="47.4052" lon="0.43513">
        <ele>82</ele>
        <time>2021-07-17T06:51:00.000Z</time>
      </trkpt>
      <trkpt lat="47.40518" lon="0.4353">
        <ele>83</ele>
        <time>2021-07-17T06:51:04.000Z</time>
      </trkpt>
      <trkpt lat="47.40517" lon="0.43551">
        <ele>84.199996948242</ele>
        <time>2021-07-17T06:51:09.000Z</time>
      </trkpt>
      <trkpt lat="47.40519" lon="0.43569">
        <ele>85.400001525879</ele>
        <time>2021-07-17T06:51:13.000Z</time>
      </trkpt>
      <trkpt lat="47.40529" lon="0.4359">
        <ele>86.400001525879</ele>
        <time>2021-07-17T06:51:18.000Z</time>
      </trkpt>
      <trkpt lat="47.40543" lon="0.43607">
        <ele>87.800003051758</ele>
        <time>2021-07-17T06:51:24.000Z</time>
      </trkpt>
      <trkpt lat="47.40562" lon="0.4363">
        <ele>88.800003051758</ele>
        <time>2021-07-17T06:51:31.000Z</time>
      </trkpt>
      <trkpt lat="47.40607" lon="0.43673">
        <ele>89.800003051758</ele>
        <time>2021-07-17T06:51:48.000Z</time>
      </trkpt>
      <trkpt lat="47.40609" lon="0.43675">
        <ele>90</ele>
        <time>2021-07-17T06:51:49.000Z</time>
      </trkpt>
      <trkpt lat="47.40624" lon="0.43686">
        <ele>91.199996948242</ele>
        <time>2021-07-17T06:51:55.000Z</time>
      </trkpt>
      <trkpt lat="47.40641" lon="0.43699">
        <ele>92.199996948242</ele>
        <time>2021-07-17T06:52:02.000Z</time>
      </trkpt>
      <trkpt lat="47.40675" lon="0.43726">
        <ele>93.199996948242</ele>
        <time>2021-07-17T06:52:15.000Z</time>
      </trkpt>
      <trkpt lat="47.40701" lon="0.43746">
        <ele>94.400001525879</ele>
        <time>2021-07-17T06:52:24.000Z</time>
      </trkpt>
      <trkpt lat="47.40747" lon="0.43788">
        <ele>95.400001525879</ele>
        <time>2021-07-17T06:52:39.000Z</time>
      </trkpt>
      <trkpt lat="47.40794" lon="0.43827">
        <ele>95.400001525879</ele>
        <time>2021-07-17T06:52:53.000Z</time>
      </trkpt>
      <trkpt lat="47.40804" lon="0.43837">
        <ele>95.599998474121</ele>
        <time>2021-07-17T06:52:56.000Z</time>
      </trkpt>
      <trkpt lat="47.40856" lon="0.4387">
        <ele>96.400001525879</ele>
        <time>2021-07-17T06:53:10.000Z</time>
      </trkpt>
      <trkpt lat="47.4091" lon="0.43881">
        <ele>96.400001525879</ele>
        <time>2021-07-17T06:53:22.000Z</time>
      </trkpt>
      <trkpt lat="47.40916" lon="0.43884">
        <ele>97.199996948242</ele>
        <time>2021-07-17T06:53:23.000Z</time>
      </trkpt>
      <trkpt lat="47.40928" lon="0.43887">
        <ele>98</ele>
        <time>2021-07-17T06:53:25.000Z</time>
      </trkpt>
      <trkpt lat="47.40987" lon="0.43876">
        <ele>98.199996948242</ele>
        <time>2021-07-17T06:53:36.000Z</time>
      </trkpt>
      <trkpt lat="47.40992" lon="0.43874">
        <ele>98.199996948242</ele>
        <time>2021-07-17T06:53:37.000Z</time>
      </trkpt>
      <trkpt lat="47.41047" lon="0.43871">
        <ele>98</ele>
        <time>2021-07-17T06:53:47.000Z</time>
      </trkpt>
      <trkpt lat="47.41106" lon="0.43872">
        <ele>97.599998474121</ele>
        <time>2021-07-17T06:53:58.000Z</time>
      </trkpt>
      <trkpt lat="47.41123" lon="0.4387">
        <ele>97</ele>
        <time>2021-07-17T06:54:01.000Z</time>
      </trkpt>
      <trkpt lat="47.4118" lon="0.43866">
        <ele>96.199996948242</ele>
        <time>2021-07-17T06:54:10.000Z</time>
      </trkpt>
      <trkpt lat="47.41207" lon="0.43864">
        <ele>95.199996948242</ele>
        <time>2021-07-17T06:54:14.000Z</time>
      </trkpt>
      <trkpt lat="47.4126" lon="0.43847">
        <ele>94.599998474121</ele>
        <time>2021-07-17T06:54:23.000Z</time>
      </trkpt>
      <trkpt lat="47.41279" lon="0.43844">
        <ele>94.199996948242</ele>
        <time>2021-07-17T06:54:26.000Z</time>
      </trkpt>
      <trkpt lat="47.41317" lon="0.43838">
        <ele>93.199996948242</ele>
        <time>2021-07-17T06:54:32.000Z</time>
      </trkpt>
      <trkpt lat="47.41349" lon="0.43832">
        <ele>91.800003051758</ele>
        <time>2021-07-17T06:54:37.000Z</time>
      </trkpt>
      <trkpt lat="47.41388" lon="0.43826">
        <ele>90.800003051758</ele>
        <time>2021-07-17T06:54:42.000Z</time>
      </trkpt>
      <trkpt lat="47.41396" lon="0.43824">
        <ele>89.599998474121</ele>
        <time>2021-07-17T06:54:43.000Z</time>
      </trkpt>
      <trkpt lat="47.41451" lon="0.43811">
        <ele>89</ele>
        <time>2021-07-17T06:54:49.000Z</time>
      </trkpt>
      <trkpt lat="47.41507" lon="0.4379">
        <ele>89</ele>
        <time>2021-07-17T06:54:56.000Z</time>
      </trkpt>
      <trkpt lat="47.41514" lon="0.43787">
        <ele>87.800003051758</ele>
        <time>2021-07-17T06:54:57.000Z</time>
      </trkpt>
      <trkpt lat="47.41535" lon="0.43778">
        <ele>89</ele>
        <time>2021-07-17T06:55:00.000Z</time>
      </trkpt>
      <trkpt lat="47.4158" lon="0.43765">
        <ele>90</ele>
        <time>2021-07-17T06:55:08.000Z</time>
      </trkpt>
      <trkpt lat="47.41604" lon="0.4376">
        <ele>91.199996948242</ele>
        <time>2021-07-17T06:55:13.000Z</time>
      </trkpt>
      <trkpt lat="47.41635" lon="0.4375">
        <ele>92.199996948242</ele>
        <time>2021-07-17T06:55:19.000Z</time>
      </trkpt>
      <trkpt lat="47.41662" lon="0.43739">
        <ele>93.400001525879</ele>
        <time>2021-07-17T06:55:24.000Z</time>
      </trkpt>
      <trkpt lat="47.41712" lon="0.43709">
        <ele>94.400001525879</ele>
        <time>2021-07-17T06:55:34.000Z</time>
      </trkpt>
      <trkpt lat="47.41764" lon="0.43677">
        <ele>94.800003051758</ele>
        <time>2021-07-17T06:55:44.000Z</time>
      </trkpt>
      <trkpt lat="47.41818" lon="0.43643">
        <ele>93.800003051758</ele>
        <time>2021-07-17T06:55:54.000Z</time>
      </trkpt>
      <trkpt lat="47.4184" lon="0.43629">
        <ele>94.599998474121</ele>
        <time>2021-07-17T06:55:59.000Z</time>
      </trkpt>
      <trkpt lat="47.41847" lon="0.43622">
        <ele>93.599998474121</ele>
        <time>2021-07-17T06:56:01.000Z</time>
      </trkpt>
      <trkpt lat="47.41857" lon="0.43617">
        <ele>93.199996948242</ele>
        <time>2021-07-17T06:56:03.000Z</time>
      </trkpt>
      <trkpt lat="47.4191" lon="0.43589">
        <ele>94</ele>
        <time>2021-07-17T06:56:13.000Z</time>
      </trkpt>
      <trkpt lat="47.41946" lon="0.43571">
        <ele>94.199996948242</ele>
        <time>2021-07-17T06:56:20.000Z</time>
      </trkpt>
      <trkpt lat="47.41997" lon="0.43535">
        <ele>93.599998474121</ele>
        <time>2021-07-17T06:56:30.000Z</time>
      </trkpt>
      <trkpt lat="47.42043" lon="0.43479">
        <ele>94.599998474121</ele>
        <time>2021-07-17T06:56:40.000Z</time>
      </trkpt>
      <trkpt lat="47.42076" lon="0.43435">
        <ele>93</ele>
        <time>2021-07-17T06:56:47.000Z</time>
      </trkpt>
      <trkpt lat="47.42095" lon="0.43409">
        <ele>92</ele>
        <time>2021-07-17T06:56:51.000Z</time>
      </trkpt>
      <trkpt lat="47.42144" lon="0.43362">
        <ele>92</ele>
        <time>2021-07-17T06:57:00.000Z</time>
      </trkpt>
      <trkpt lat="47.422" lon="0.43337">
        <ele>92.599998474121</ele>
        <time>2021-07-17T06:57:10.000Z</time>
      </trkpt>
      <trkpt lat="47.42211" lon="0.43335">
        <ele>93</ele>
        <time>2021-07-17T06:57:12.000Z</time>
      </trkpt>
      <trkpt lat="47.42221" lon="0.43333">
        <ele>93.199996948242</ele>
        <time>2021-07-17T06:57:14.000Z</time>
      </trkpt>
      <trkpt lat="47.42277" lon="0.43348">
        <ele>93.199996948242</ele>
        <time>2021-07-17T06:57:26.000Z</time>
      </trkpt>
      <trkpt lat="47.42297" lon="0.43359">
        <ele>94.199996948242</ele>
        <time>2021-07-17T06:57:31.000Z</time>
      </trkpt>
      <trkpt lat="47.42323" lon="0.43372">
        <ele>95.199996948242</ele>
        <time>2021-07-17T06:57:37.000Z</time>
      </trkpt>
      <trkpt lat="47.42357" lon="0.43389">
        <ele>96.400001525879</ele>
        <time>2021-07-17T06:57:45.000Z</time>
      </trkpt>
      <trkpt lat="47.42397" lon="0.43411">
        <ele>97.400001525879</ele>
        <time>2021-07-17T06:57:54.000Z</time>
      </trkpt>
      <trkpt lat="47.42438" lon="0.43433">
        <ele>98.599998474121</ele>
        <time>2021-07-17T06:58:04.000Z</time>
      </trkpt>
      <trkpt lat="47.42488" lon="0.43461">
        <ele>99.599998474121</ele>
        <time>2021-07-17T06:58:16.000Z</time>
      </trkpt>
      <trkpt lat="47.42522" lon="0.43482">
        <ele>100.80000305176</ele>
        <time>2021-07-17T06:58:24.000Z</time>
      </trkpt>
      <trkpt lat="47.42561" lon="0.43503">
        <ele>101.80000305176</ele>
        <time>2021-07-17T06:58:33.000Z</time>
      </trkpt>
      <trkpt lat="47.42616" lon="0.43526">
        <ele>102.80000305176</ele>
        <time>2021-07-17T06:58:45.000Z</time>
      </trkpt>
      <trkpt lat="47.4263" lon="0.43531">
        <ele>103</ele>
        <time>2021-07-17T06:58:48.000Z</time>
      </trkpt>
      <trkpt lat="47.42687" lon="0.43547">
        <ele>103.40000152588</ele>
        <time>2021-07-17T06:59:00.000Z</time>
      </trkpt>
      <trkpt lat="47.42744" lon="0.43564">
        <ele>103.80000305176</ele>
        <time>2021-07-17T06:59:12.000Z</time>
      </trkpt>
      <trkpt lat="47.42786" lon="0.43577">
        <ele>104.19999694824</ele>
        <time>2021-07-17T06:59:21.000Z</time>
      </trkpt>
      <trkpt lat="47.4284" lon="0.4359">
        <ele>103.40000152588</ele>
        <time>2021-07-17T06:59:32.000Z</time>
      </trkpt>
      <trkpt lat="47.42895" lon="0.43604">
        <ele>103.40000152588</ele>
        <time>2021-07-17T06:59:43.000Z</time>
      </trkpt>
      <trkpt lat="47.42931" lon="0.43614">
        <ele>103</ele>
        <time>2021-07-17T06:59:50.000Z</time>
      </trkpt>
      <trkpt lat="47.42955" lon="0.43621">
        <ele>104.40000152588</ele>
        <time>2021-07-17T06:59:54.000Z</time>
      </trkpt>
      <trkpt lat="47.43011" lon="0.43636">
        <ele>104</ele>
        <time>2021-07-17T07:00:03.000Z</time>
      </trkpt>
      <trkpt lat="47.43063" lon="0.4365">
        <ele>103.19999694824</ele>
        <time>2021-07-17T07:00:11.000Z</time>
      </trkpt>
      <trkpt lat="47.4307" lon="0.43651">
        <ele>101.80000305176</ele>
        <time>2021-07-17T07:00:12.000Z</time>
      </trkpt>
      <trkpt lat="47.43128" lon="0.43667">
        <ele>101.80000305176</ele>
        <time>2021-07-17T07:00:21.000Z</time>
      </trkpt>
      <trkpt lat="47.43161" lon="0.43676">
        <ele>100.80000305176</ele>
        <time>2021-07-17T07:00:26.000Z</time>
      </trkpt>
      <trkpt lat="47.4319" lon="0.43688">
        <ele>99.800003051758</ele>
        <time>2021-07-17T07:00:31.000Z</time>
      </trkpt>
      <trkpt lat="47.43194" lon="0.43691">
        <ele>99.199996948242</ele>
        <time>2021-07-17T07:00:32.000Z</time>
      </trkpt>
      <trkpt lat="47.432" lon="0.43698">
        <ele>98.599998474121</ele>
        <time>2021-07-17T07:00:34.000Z</time>
      </trkpt>
      <trkpt lat="47.43204" lon="0.43701">
        <ele>98</ele>
        <time>2021-07-17T07:00:35.000Z</time>
      </trkpt>
      <trkpt lat="47.43213" lon="0.43707">
        <ele>98.199996948242</ele>
        <time>2021-07-17T07:00:37.000Z</time>
      </trkpt>
      <trkpt lat="47.43218" lon="0.43711">
        <ele>97.199996948242</ele>
        <time>2021-07-17T07:00:38.000Z</time>
      </trkpt>
      <trkpt lat="47.43234" lon="0.43725">
        <ele>95.800003051758</ele>
        <time>2021-07-17T07:00:41.000Z</time>
      </trkpt>
      <trkpt lat="47.43268" lon="0.43756">
        <ele>94.599998474121</ele>
        <time>2021-07-17T07:00:47.000Z</time>
      </trkpt>
      <trkpt lat="47.43287" lon="0.43773">
        <ele>93.599998474121</ele>
        <time>2021-07-17T07:00:50.000Z</time>
      </trkpt>
      <trkpt lat="47.43322" lon="0.43799">
        <ele>92.400001525879</ele>
        <time>2021-07-17T07:00:56.000Z</time>
      </trkpt>
      <trkpt lat="47.43374" lon="0.43839">
        <ele>91.800003051758</ele>
        <time>2021-07-17T07:01:06.000Z</time>
      </trkpt>
      <trkpt lat="47.43425" lon="0.43868">
        <ele>91.599998474121</ele>
        <time>2021-07-17T07:01:14.000Z</time>
      </trkpt>
      <trkpt lat="47.43461" lon="0.43877">
        <ele>91.400001525879</ele>
        <time>2021-07-17T07:01:19.000Z</time>
      </trkpt>
      <trkpt lat="47.43482" lon="0.43888">
        <ele>91.199996948242</ele>
        <time>2021-07-17T07:01:22.000Z</time>
      </trkpt>
      <trkpt lat="47.43494" lon="0.43899">
        <ele>91.199996948242</ele>
        <time>2021-07-17T07:01:24.000Z</time>
      </trkpt>
      <trkpt lat="47.43504" lon="0.43914">
        <ele>91</ele>
        <time>2021-07-17T07:01:26.000Z</time>
      </trkpt>
      <trkpt lat="47.43536" lon="0.43987">
        <ele>91.199996948242</ele>
        <time>2021-07-17T07:01:35.000Z</time>
      </trkpt>
      <trkpt lat="47.43569" lon="0.44054">
        <ele>91.400001525879</ele>
        <time>2021-07-17T07:01:44.000Z</time>
      </trkpt>
      <trkpt lat="47.43584" lon="0.44079">
        <ele>91</ele>
        <time>2021-07-17T07:01:48.000Z</time>
      </trkpt>
      <trkpt lat="47.43636" lon="0.44116">
        <ele>90.400001525879</ele>
        <time>2021-07-17T07:01:58.000Z</time>
      </trkpt>
      <trkpt lat="47.43657" lon="0.44126">
        <ele>92.199996948242</ele>
        <time>2021-07-17T07:02:02.000Z</time>
      </trkpt>
      <trkpt lat="47.43662" lon="0.44128">
        <ele>93.199996948242</ele>
        <time>2021-07-17T07:02:03.000Z</time>
      </trkpt>
      <trkpt lat="47.4368" lon="0.44135">
        <ele>94.400001525879</ele>
        <time>2021-07-17T07:02:06.000Z</time>
      </trkpt>
      <trkpt lat="47.43731" lon="0.44159">
        <ele>94.199996948242</ele>
        <time>2021-07-17T07:02:16.000Z</time>
      </trkpt>
      <trkpt lat="47.43782" lon="0.44186">
        <ele>93.599998474121</ele>
        <time>2021-07-17T07:02:26.000Z</time>
      </trkpt>
      <trkpt lat="47.43838" lon="0.44217">
        <ele>93.800003051758</ele>
        <time>2021-07-17T07:02:37.000Z</time>
      </trkpt>
      <trkpt lat="47.43891" lon="0.44242">
        <ele>93.400001525879</ele>
        <time>2021-07-17T07:02:47.000Z</time>
      </trkpt>
      <trkpt lat="47.43944" lon="0.44258">
        <ele>93.800003051758</ele>
        <time>2021-07-17T07:02:57.000Z</time>
      </trkpt>
      <trkpt lat="47.43998" lon="0.44273">
        <ele>94</ele>
        <time>2021-07-17T07:03:07.000Z</time>
      </trkpt>
      <trkpt lat="47.44056" lon="0.44292">
        <ele>93.599998474121</ele>
        <time>2021-07-17T07:03:18.000Z</time>
      </trkpt>
      <trkpt lat="47.44111" lon="0.44303">
        <ele>94</ele>
        <time>2021-07-17T07:03:28.000Z</time>
      </trkpt>
      <trkpt lat="47.44162" lon="0.44301">
        <ele>93.199996948242</ele>
        <time>2021-07-17T07:03:37.000Z</time>
      </trkpt>
      <trkpt lat="47.44185" lon="0.44305">
        <ele>92.599998474121</ele>
        <time>2021-07-17T07:03:41.000Z</time>
      </trkpt>
      <trkpt lat="47.44206" lon="0.44319">
        <ele>93.599998474121</ele>
        <time>2021-07-17T07:03:45.000Z</time>
      </trkpt>
      <trkpt lat="47.44252" lon="0.44367">
        <ele>93.599998474121</ele>
        <time>2021-07-17T07:03:55.000Z</time>
      </trkpt>
      <trkpt lat="47.44296" lon="0.44416">
        <ele>93.199996948242</ele>
        <time>2021-07-17T07:04:05.000Z</time>
      </trkpt>
      <trkpt lat="47.44339" lon="0.44464">
        <ele>93.800003051758</ele>
        <time>2021-07-17T07:04:15.000Z</time>
      </trkpt>
      <trkpt lat="47.44357" lon="0.4448">
        <ele>94.199996948242</ele>
        <time>2021-07-17T07:04:19.000Z</time>
      </trkpt>
      <trkpt lat="47.44413" lon="0.44499">
        <ele>94.400001525879</ele>
        <time>2021-07-17T07:04:29.000Z</time>
      </trkpt>
      <trkpt lat="47.44466" lon="0.44518">
        <ele>94.400001525879</ele>
        <time>2021-07-17T07:04:39.000Z</time>
      </trkpt>
      <trkpt lat="47.44519" lon="0.44547">
        <ele>94.199996948242</ele>
        <time>2021-07-17T07:04:49.000Z</time>
      </trkpt>
      <trkpt lat="47.44539" lon="0.44558">
        <ele>92.599998474121</ele>
        <time>2021-07-17T07:04:53.000Z</time>
      </trkpt>
      <trkpt lat="47.44591" lon="0.44577">
        <ele>91.800003051758</ele>
        <time>2021-07-17T07:05:03.000Z</time>
      </trkpt>
      <trkpt lat="47.44613" lon="0.44579">
        <ele>91.599998474121</ele>
        <time>2021-07-17T07:05:07.000Z</time>
      </trkpt>
      <trkpt lat="47.44667" lon="0.44595">
        <ele>91</ele>
        <time>2021-07-17T07:05:17.000Z</time>
      </trkpt>
      <trkpt lat="47.44717" lon="0.4463">
        <ele>91</ele>
        <time>2021-07-17T07:05:27.000Z</time>
      </trkpt>
      <trkpt lat="47.44756" lon="0.44687">
        <ele>90.800003051758</ele>
        <time>2021-07-17T07:05:37.000Z</time>
      </trkpt>
      <trkpt lat="47.44793" lon="0.4475">
        <ele>90.800003051758</ele>
        <time>2021-07-17T07:05:47.000Z</time>
      </trkpt>
      <trkpt lat="47.44816" lon="0.44785">
        <ele>92.599998474121</ele>
        <time>2021-07-17T07:05:53.000Z</time>
      </trkpt>
      <trkpt lat="47.4482" lon="0.44789">
        <ele>92.400001525879</ele>
        <time>2021-07-17T07:05:54.000Z</time>
      </trkpt>
      <trkpt lat="47.44829" lon="0.44792">
        <ele>92.599998474121</ele>
        <time>2021-07-17T07:05:56.000Z</time>
      </trkpt>
      <trkpt lat="47.44839" lon="0.44792">
        <ele>91.400001525879</ele>
        <time>2021-07-17T07:05:58.000Z</time>
      </trkpt>
      <trkpt lat="47.44896" lon="0.44784">
        <ele>91.199996948242</ele>
        <time>2021-07-17T07:06:09.000Z</time>
      </trkpt>
      <trkpt lat="47.44944" lon="0.44739">
        <ele>91</ele>
        <time>2021-07-17T07:06:19.000Z</time>
      </trkpt>
      <trkpt lat="47.44965" lon="0.4471">
        <ele>90.400001525879</ele>
        <time>2021-07-17T07:06:24.000Z</time>
      </trkpt>
      <trkpt lat="47.45001" lon="0.44648">
        <ele>91.599998474121</ele>
        <time>2021-07-17T07:06:34.000Z</time>
      </trkpt>
      <trkpt lat="47.45041" lon="0.44591">
        <ele>91.400001525879</ele>
        <time>2021-07-17T07:06:44.000Z</time>
      </trkpt>
      <trkpt lat="47.4509" lon="0.44548">
        <ele>92.199996948242</ele>
        <time>2021-07-17T07:06:54.000Z</time>
      </trkpt>
      <trkpt lat="47.45138" lon="0.44507">
        <ele>91.800003051758</ele>
        <time>2021-07-17T07:07:04.000Z</time>
      </trkpt>
      <trkpt lat="47.45149" lon="0.44508">
        <ele>92</ele>
        <time>2021-07-17T07:07:06.000Z</time>
      </trkpt>
      <trkpt lat="47.45174" lon="0.44571">
        <ele>90.400001525879</ele>
        <time>2021-07-17T07:07:25.000Z</time>
      </trkpt>
      <trkpt lat="47.45172" lon="0.44567">
        <ele>90.599998474121</ele>
        <time>2021-07-17T07:07:29.000Z</time>
      </trkpt>
      <trkpt lat="47.4517" lon="0.44515">
        <ele>91.199996948242</ele>
        <time>2021-07-17T07:07:39.000Z</time>
      </trkpt>
      <trkpt lat="47.45182" lon="0.44492">
        <ele>91</ele>
        <time>2021-07-17T07:07:43.000Z</time>
      </trkpt>
      <trkpt lat="47.45198" lon="0.44421">
        <ele>89.400001525879</ele>
        <time>2021-07-17T07:07:58.000Z</time>
      </trkpt>
      <trkpt lat="47.45197" lon="0.4442">
        <ele>89.400001525879</ele>
        <time>2021-07-17T07:08:52.000Z</time>
      </trkpt>
      <trkpt lat="47.45218" lon="0.44369">
        <ele>89.199996948242</ele>
        <time>2021-07-17T07:09:08.000Z</time>
      </trkpt>
      <trkpt lat="47.45218" lon="0.44379">
        <ele>89</ele>
        <time>2021-07-17T07:09:12.000Z</time>
      </trkpt>
      <trkpt lat="47.45196" lon="0.44419">
        <ele>90.400001525879</ele>
        <time>2021-07-17T07:09:20.000Z</time>
      </trkpt>
      <trkpt lat="47.45186" lon="0.44468">
        <ele>89.400001525879</ele>
        <time>2021-07-17T07:09:27.000Z</time>
      </trkpt>
      <trkpt lat="47.4518" lon="0.44488">
        <ele>89.599998474121</ele>
        <time>2021-07-17T07:09:30.000Z</time>
      </trkpt>
      <trkpt lat="47.45169" lon="0.44511">
        <ele>89.599998474121</ele>
        <time>2021-07-17T07:09:34.000Z</time>
      </trkpt>
      <trkpt lat="47.45165" lon="0.44524">
        <ele>89.800003051758</ele>
        <time>2021-07-17T07:09:36.000Z</time>
      </trkpt>
      <trkpt lat="47.45165" lon="0.44539">
        <ele>90</ele>
        <time>2021-07-17T07:09:38.000Z</time>
      </trkpt>
      <trkpt lat="47.45169" lon="0.4456">
        <ele>90</ele>
        <time>2021-07-17T07:09:41.000Z</time>
      </trkpt>
      <trkpt lat="47.45185" lon="0.44615">
        <ele>89.800003051758</ele>
        <time>2021-07-17T07:09:49.000Z</time>
      </trkpt>
      <trkpt lat="47.45184" lon="0.44682">
        <ele>90.400001525879</ele>
        <time>2021-07-17T07:09:58.000Z</time>
      </trkpt>
      <trkpt lat="47.45181" lon="0.44696">
        <ele>90.599998474121</ele>
        <time>2021-07-17T07:10:00.000Z</time>
      </trkpt>
      <trkpt lat="47.45174" lon="0.44724">
        <ele>90.800003051758</ele>
        <time>2021-07-17T07:10:04.000Z</time>
      </trkpt>
      <trkpt lat="47.45175" lon="0.44739">
        <ele>90.599998474121</ele>
        <time>2021-07-17T07:10:06.000Z</time>
      </trkpt>
      <trkpt lat="47.45181" lon="0.44751">
        <ele>90.199996948242</ele>
        <time>2021-07-17T07:10:08.000Z</time>
      </trkpt>
      <trkpt lat="47.45219" lon="0.44808">
        <ele>90</ele>
        <time>2021-07-17T07:10:18.000Z</time>
      </trkpt>
      <trkpt lat="47.4523" lon="0.44826">
        <ele>90.800003051758</ele>
        <time>2021-07-17T07:10:21.000Z</time>
      </trkpt>
      <trkpt lat="47.45266" lon="0.44894">
        <ele>89.800003051758</ele>
        <time>2021-07-17T07:10:31.000Z</time>
      </trkpt>
      <trkpt lat="47.45301" lon="0.44959">
        <ele>89.800003051758</ele>
        <time>2021-07-17T07:10:41.000Z</time>
      </trkpt>
      <trkpt lat="47.45337" lon="0.45022">
        <ele>90.199996948242</ele>
        <time>2021-07-17T07:10:51.000Z</time>
      </trkpt>
      <trkpt lat="47.4537" lon="0.45072">
        <ele>90</ele>
        <time>2021-07-17T07:11:00.000Z</time>
      </trkpt>
      <trkpt lat="47.45376" lon="0.45082">
        <ele>90</ele>
        <time>2021-07-17T07:11:02.000Z</time>
      </trkpt>
      <trkpt lat="47.45385" lon="0.45085">
        <ele>90.199996948242</ele>
        <time>2021-07-17T07:11:04.000Z</time>
      </trkpt>
      <trkpt lat="47.45432" lon="0.45098">
        <ele>89.599998474121</ele>
        <time>2021-07-17T07:11:13.000Z</time>
      </trkpt>
      <trkpt lat="47.45487" lon="0.4512">
        <ele>89.400001525879</ele>
        <time>2021-07-17T07:11:23.000Z</time>
      </trkpt>
      <trkpt lat="47.45542" lon="0.45139">
        <ele>89</ele>
        <time>2021-07-17T07:11:33.000Z</time>
      </trkpt>
      <trkpt lat="47.45587" lon="0.45155">
        <ele>88.400001525879</ele>
        <time>2021-07-17T07:11:41.000Z</time>
      </trkpt>
      <trkpt lat="47.45641" lon="0.45181">
        <ele>88.199996948242</ele>
        <time>2021-07-17T07:11:51.000Z</time>
      </trkpt>
      <trkpt lat="47.4569" lon="0.45203">
        <ele>88</ele>
        <time>2021-07-17T07:12:00.000Z</time>
      </trkpt>
      <trkpt lat="47.45746" lon="0.45212">
        <ele>88</ele>
        <time>2021-07-17T07:12:10.000Z</time>
      </trkpt>
      <trkpt lat="47.45805" lon="0.45226">
        <ele>88.199996948242</ele>
        <time>2021-07-17T07:12:20.000Z</time>
      </trkpt>
      <trkpt lat="47.45863" lon="0.45248">
        <ele>87.599998474121</ele>
        <time>2021-07-17T07:12:30.000Z</time>
      </trkpt>
      <trkpt lat="47.4592" lon="0.45267">
        <ele>87.800003051758</ele>
        <time>2021-07-17T07:12:40.000Z</time>
      </trkpt>
      <trkpt lat="47.45974" lon="0.45286">
        <ele>88</ele>
        <time>2021-07-17T07:12:50.000Z</time>
      </trkpt>
      <trkpt lat="47.45989" lon="0.45293">
        <ele>87.400001525879</ele>
        <time>2021-07-17T07:12:53.000Z</time>
      </trkpt>
      <trkpt lat="47.46042" lon="0.45333">
        <ele>87.800003051758</ele>
        <time>2021-07-17T07:13:04.000Z</time>
      </trkpt>
      <trkpt lat="47.46086" lon="0.45384">
        <ele>88</ele>
        <time>2021-07-17T07:13:14.000Z</time>
      </trkpt>
      <trkpt lat="47.46125" lon="0.45444">
        <ele>88</ele>
        <time>2021-07-17T07:13:24.000Z</time>
      </trkpt>
      <trkpt lat="47.46162" lon="0.45509">
        <ele>87.199996948242</ele>
        <time>2021-07-17T07:13:34.000Z</time>
      </trkpt>
      <trkpt lat="47.46196" lon="0.45572">
        <ele>86.400001525879</ele>
        <time>2021-07-17T07:13:43.000Z</time>
      </trkpt>
      <trkpt lat="47.462" lon="0.45578">
        <ele>86.400001525879</ele>
        <time>2021-07-17T07:13:44.000Z</time>
      </trkpt>
      <trkpt lat="47.46229" lon="0.45624">
        <ele>87.400001525879</ele>
        <time>2021-07-17T07:13:51.000Z</time>
      </trkpt>
      <trkpt lat="47.46269" lon="0.45685">
        <ele>86.800003051758</ele>
        <time>2021-07-17T07:14:01.000Z</time>
      </trkpt>
      <trkpt lat="47.46281" lon="0.45705">
        <ele>86.400001525879</ele>
        <time>2021-07-17T07:14:04.000Z</time>
      </trkpt>
      <trkpt lat="47.46308" lon="0.45742">
        <ele>85.199996948242</ele>
        <time>2021-07-17T07:14:10.000Z</time>
      </trkpt>
      <trkpt lat="47.46327" lon="0.45765">
        <ele>84.599998474121</ele>
        <time>2021-07-17T07:14:14.000Z</time>
      </trkpt>
      <trkpt lat="47.46332" lon="0.45772">
        <ele>83.800003051758</ele>
        <time>2021-07-17T07:14:15.000Z</time>
      </trkpt>
      <trkpt lat="47.46351" lon="0.45796">
        <ele>82.800003051758</ele>
        <time>2021-07-17T07:14:19.000Z</time>
      </trkpt>
      <trkpt lat="47.46378" lon="0.45825">
        <ele>81.599998474121</ele>
        <time>2021-07-17T07:14:24.000Z</time>
      </trkpt>
      <trkpt lat="47.46384" lon="0.4583">
        <ele>82.599998474121</ele>
        <time>2021-07-17T07:14:25.000Z</time>
      </trkpt>
      <trkpt lat="47.4639" lon="0.45836">
        <ele>84</ele>
        <time>2021-07-17T07:14:26.000Z</time>
      </trkpt>
      <trkpt lat="47.46436" lon="0.45884">
        <ele>83.199996948242</ele>
        <time>2021-07-17T07:14:34.000Z</time>
      </trkpt>
      <trkpt lat="47.46442" lon="0.4589">
        <ele>83</ele>
        <time>2021-07-17T07:14:35.000Z</time>
      </trkpt>
      <trkpt lat="47.46467" lon="0.4592">
        <ele>81.599998474121</ele>
        <time>2021-07-17T07:14:39.000Z</time>
      </trkpt>
      <trkpt lat="47.46486" lon="0.45945">
        <ele>79.800003051758</ele>
        <time>2021-07-17T07:14:42.000Z</time>
      </trkpt>
      <trkpt lat="47.465" lon="0.45964">
        <ele>78.800003051758</ele>
        <time>2021-07-17T07:14:44.000Z</time>
      </trkpt>
      <trkpt lat="47.4652" lon="0.45994">
        <ele>77.599998474121</ele>
        <time>2021-07-17T07:14:47.000Z</time>
      </trkpt>
      <trkpt lat="47.46539" lon="0.46025">
        <ele>76.199996948242</ele>
        <time>2021-07-17T07:14:50.000Z</time>
      </trkpt>
      <trkpt lat="47.46566" lon="0.46072">
        <ele>75.199996948242</ele>
        <time>2021-07-17T07:14:55.000Z</time>
      </trkpt>
      <trkpt lat="47.46606" lon="0.46136">
        <ele>75.599998474121</ele>
        <time>2021-07-17T07:15:03.000Z</time>
      </trkpt>
      <trkpt lat="47.46631" lon="0.46179">
        <ele>75.800003051758</ele>
        <time>2021-07-17T07:15:10.000Z</time>
      </trkpt>
      <trkpt lat="47.46634" lon="0.46185">
        <ele>76.199996948242</ele>
        <time>2021-07-17T07:15:11.000Z</time>
      </trkpt>
      <trkpt lat="47.46642" lon="0.46201">
        <ele>77.400001525879</ele>
        <time>2021-07-17T07:15:14.000Z</time>
      </trkpt>
      <trkpt lat="47.46663" lon="0.46238">
        <ele>78.400001525879</ele>
        <time>2021-07-17T07:15:21.000Z</time>
      </trkpt>
      <trkpt lat="47.46673" lon="0.46253">
        <ele>80</ele>
        <time>2021-07-17T07:15:24.000Z</time>
      </trkpt>
      <trkpt lat="47.46694" lon="0.46285">
        <ele>81</ele>
        <time>2021-07-17T07:15:31.000Z</time>
      </trkpt>
      <trkpt lat="47.46701" lon="0.46295">
        <ele>81.199996948242</ele>
        <time>2021-07-17T07:15:33.000Z</time>
      </trkpt>
      <trkpt lat="47.4673" lon="0.46339">
        <ele>81.599998474121</ele>
        <time>2021-07-17T07:15:42.000Z</time>
      </trkpt>
      <trkpt lat="47.46746" lon="0.46362">
        <ele>82.400001525879</ele>
        <time>2021-07-17T07:15:47.000Z</time>
      </trkpt>
      <trkpt lat="47.46774" lon="0.46398">
        <ele>83.400001525879</ele>
        <time>2021-07-17T07:15:55.000Z</time>
      </trkpt>
      <trkpt lat="47.46813" lon="0.46448">
        <ele>84.599998474121</ele>
        <time>2021-07-17T07:16:06.000Z</time>
      </trkpt>
      <trkpt lat="47.46857" lon="0.46506">
        <ele>84.800003051758</ele>
        <time>2021-07-17T07:16:18.000Z</time>
      </trkpt>
      <trkpt lat="47.46899" lon="0.46563">
        <ele>85</ele>
        <time>2021-07-17T07:16:29.000Z</time>
      </trkpt>
      <trkpt lat="47.46922" lon="0.46637">
        <ele>83.800003051758</ele>
        <time>2021-07-17T07:16:39.000Z</time>
      </trkpt>
      <trkpt lat="47.46928" lon="0.4669">
        <ele>83.400001525879</ele>
        <time>2021-07-17T07:16:45.000Z</time>
      </trkpt>
      <trkpt lat="47.46931" lon="0.46729">
        <ele>84.400001525879</ele>
        <time>2021-07-17T07:16:50.000Z</time>
      </trkpt>
      <trkpt lat="47.46936" lon="0.46766">
        <ele>85.599998474121</ele>
        <time>2021-07-17T07:16:55.000Z</time>
      </trkpt>
      <trkpt lat="47.46938" lon="0.46781">
        <ele>85.800003051758</ele>
        <time>2021-07-17T07:16:57.000Z</time>
      </trkpt>
      <trkpt lat="47.46942" lon="0.46811">
        <ele>86.800003051758</ele>
        <time>2021-07-17T07:17:01.000Z</time>
      </trkpt>
      <trkpt lat="47.46945" lon="0.46848">
        <ele>87.800003051758</ele>
        <time>2021-07-17T07:17:06.000Z</time>
      </trkpt>
      <trkpt lat="47.46954" lon="0.46929">
        <ele>87.599998474121</ele>
        <time>2021-07-17T07:17:17.000Z</time>
      </trkpt>
      <trkpt lat="47.46963" lon="0.47011">
        <ele>88.400001525879</ele>
        <time>2021-07-17T07:17:28.000Z</time>
      </trkpt>
      <trkpt lat="47.4697" lon="0.47073">
        <ele>88.800003051758</ele>
        <time>2021-07-17T07:17:36.000Z</time>
      </trkpt>
      <trkpt lat="47.46977" lon="0.47153">
        <ele>89.400001525879</ele>
        <time>2021-07-17T07:17:46.000Z</time>
      </trkpt>
      <trkpt lat="47.46987" lon="0.47234">
        <ele>89.199996948242</ele>
        <time>2021-07-17T07:17:56.000Z</time>
      </trkpt>
      <trkpt lat="47.46999" lon="0.47314">
        <ele>89.199996948242</ele>
        <time>2021-07-17T07:18:06.000Z</time>
      </trkpt>
      <trkpt lat="47.4701" lon="0.47394">
        <ele>89.400001525879</ele>
        <time>2021-07-17T07:18:16.000Z</time>
      </trkpt>
      <trkpt lat="47.47023" lon="0.47473">
        <ele>89</ele>
        <time>2021-07-17T07:18:26.000Z</time>
      </trkpt>
      <trkpt lat="47.47035" lon="0.47552">
        <ele>89.400001525879</ele>
        <time>2021-07-17T07:18:36.000Z</time>
      </trkpt>
      <trkpt lat="47.47047" lon="0.4763">
        <ele>89.800003051758</ele>
        <time>2021-07-17T07:18:46.000Z</time>
      </trkpt>
      <trkpt lat="47.47048" lon="0.47637">
        <ele>90</ele>
        <time>2021-07-17T07:18:47.000Z</time>
      </trkpt>
      <trkpt lat="47.4706" lon="0.47723">
        <ele>90.199996948242</ele>
        <time>2021-07-17T07:18:58.000Z</time>
      </trkpt>
      <trkpt lat="47.47072" lon="0.47802">
        <ele>90.800003051758</ele>
        <time>2021-07-17T07:19:08.000Z</time>
      </trkpt>
      <trkpt lat="47.47074" lon="0.47818">
        <ele>91</ele>
        <time>2021-07-17T07:19:10.000Z</time>
      </trkpt>
      <trkpt lat="47.47087" lon="0.47903">
        <ele>91</ele>
        <time>2021-07-17T07:19:21.000Z</time>
      </trkpt>
      <trkpt lat="47.47099" lon="0.47982">
        <ele>91.400001525879</ele>
        <time>2021-07-17T07:19:31.000Z</time>
      </trkpt>
      <trkpt lat="47.47109" lon="0.48032">
        <ele>92.199996948242</ele>
        <time>2021-07-17T07:19:38.000Z</time>
      </trkpt>
      <trkpt lat="47.4711" lon="0.48039">
        <ele>93.199996948242</ele>
        <time>2021-07-17T07:19:39.000Z</time>
      </trkpt>
      <trkpt lat="47.47118" lon="0.48061">
        <ele>92.400001525879</ele>
        <time>2021-07-17T07:19:46.000Z</time>
      </trkpt>
      <trkpt lat="47.47169" lon="0.48023">
        <ele>93.400001525879</ele>
        <time>2021-07-17T07:20:00.000Z</time>
      </trkpt>
      <trkpt lat="47.47218" lon="0.47982">
        <ele>94</ele>
        <time>2021-07-17T07:20:11.000Z</time>
      </trkpt>
      <trkpt lat="47.47264" lon="0.47942">
        <ele>94.199996948242</ele>
        <time>2021-07-17T07:20:21.000Z</time>
      </trkpt>
      <trkpt lat="47.47311" lon="0.47903">
        <ele>95.599998474121</ele>
        <time>2021-07-17T07:20:31.000Z</time>
      </trkpt>
      <trkpt lat="47.47352" lon="0.47873">
        <ele>96.599998474121</ele>
        <time>2021-07-17T07:20:40.000Z</time>
      </trkpt>
      <trkpt lat="47.47404" lon="0.47835">
        <ele>97.400001525879</ele>
        <time>2021-07-17T07:20:52.000Z</time>
      </trkpt>
      <trkpt lat="47.47421" lon="0.47823">
        <ele>97.599998474121</ele>
        <time>2021-07-17T07:20:56.000Z</time>
      </trkpt>
      <trkpt lat="47.47473" lon="0.47784">
        <ele>98.599998474121</ele>
        <time>2021-07-17T07:21:08.000Z</time>
      </trkpt>
      <trkpt lat="47.47495" lon="0.47767">
        <ele>98.599998474121</ele>
        <time>2021-07-17T07:21:13.000Z</time>
      </trkpt>
      <trkpt lat="47.47547" lon="0.47732">
        <ele>99.599998474121</ele>
        <time>2021-07-17T07:21:24.000Z</time>
      </trkpt>
      <trkpt lat="47.47552" lon="0.47729">
        <ele>99.800003051758</ele>
        <time>2021-07-17T07:21:25.000Z</time>
      </trkpt>
      <trkpt lat="47.47608" lon="0.47702">
        <ele>100.19999694824</ele>
        <time>2021-07-17T07:21:36.000Z</time>
      </trkpt>
      <trkpt lat="47.47656" lon="0.47677">
        <ele>100.80000305176</ele>
        <time>2021-07-17T07:21:46.000Z</time>
      </trkpt>
      <trkpt lat="47.47712" lon="0.4765">
        <ele>101.80000305176</ele>
        <time>2021-07-17T07:21:58.000Z</time>
      </trkpt>
      <trkpt lat="47.47755" lon="0.47625">
        <ele>103</ele>
        <time>2021-07-17T07:22:08.000Z</time>
      </trkpt>
      <trkpt lat="47.47797" lon="0.47602">
        <ele>104.19999694824</ele>
        <time>2021-07-17T07:22:17.000Z</time>
      </trkpt>
      <trkpt lat="47.47853" lon="0.47572">
        <ele>103.80000305176</ele>
        <time>2021-07-17T07:22:28.000Z</time>
      </trkpt>
      <trkpt lat="47.47904" lon="0.47544">
        <ele>103.80000305176</ele>
        <time>2021-07-17T07:22:38.000Z</time>
      </trkpt>
      <trkpt lat="47.47958" lon="0.47507">
        <ele>103.59999847412</ele>
        <time>2021-07-17T07:22:48.000Z</time>
      </trkpt>
      <trkpt lat="47.47974" lon="0.47492">
        <ele>103.19999694824</ele>
        <time>2021-07-17T07:22:51.000Z</time>
      </trkpt>
      <trkpt lat="47.48002" lon="0.47459">
        <ele>102</ele>
        <time>2021-07-17T07:22:56.000Z</time>
      </trkpt>
      <trkpt lat="47.48019" lon="0.47439">
        <ele>103.59999847412</ele>
        <time>2021-07-17T07:22:59.000Z</time>
      </trkpt>
      <trkpt lat="47.48047" lon="0.47404">
        <ele>102.19999694824</ele>
        <time>2021-07-17T07:23:04.000Z</time>
      </trkpt>
      <trkpt lat="47.48091" lon="0.47348">
        <ele>101</ele>
        <time>2021-07-17T07:23:12.000Z</time>
      </trkpt>
      <trkpt lat="47.48098" lon="0.47341">
        <ele>99</ele>
        <time>2021-07-17T07:23:13.000Z</time>
      </trkpt>
      <trkpt lat="47.48104" lon="0.47335">
        <ele>98</ele>
        <time>2021-07-17T07:23:14.000Z</time>
      </trkpt>
      <trkpt lat="47.48121" lon="0.47316">
        <ele>97</ele>
        <time>2021-07-17T07:23:17.000Z</time>
      </trkpt>
      <trkpt lat="47.48148" lon="0.47299">
        <ele>95.800003051758</ele>
        <time>2021-07-17T07:23:21.000Z</time>
      </trkpt>
      <trkpt lat="47.48202" lon="0.47275">
        <ele>95.800003051758</ele>
        <time>2021-07-17T07:23:29.000Z</time>
      </trkpt>
      <trkpt lat="47.48256" lon="0.47254">
        <ele>96.599998474121</ele>
        <time>2021-07-17T07:23:38.000Z</time>
      </trkpt>
      <trkpt lat="47.48279" lon="0.47246">
        <ele>97</ele>
        <time>2021-07-17T07:23:42.000Z</time>
      </trkpt>
      <trkpt lat="47.48285" lon="0.47245">
        <ele>98.199996948242</ele>
        <time>2021-07-17T07:23:43.000Z</time>
      </trkpt>
      <trkpt lat="47.4832" lon="0.47236">
        <ele>99.199996948242</ele>
        <time>2021-07-17T07:23:50.000Z</time>
      </trkpt>
      <trkpt lat="47.48375" lon="0.4722">
        <ele>100.19999694824</ele>
        <time>2021-07-17T07:24:02.000Z</time>
      </trkpt>
      <trkpt lat="47.48409" lon="0.47209">
        <ele>101.40000152588</ele>
        <time>2021-07-17T07:24:10.000Z</time>
      </trkpt>
      <trkpt lat="47.48452" lon="0.47194">
        <ele>102.40000152588</ele>
        <time>2021-07-17T07:24:20.000Z</time>
      </trkpt>
      <trkpt lat="47.48482" lon="0.47186">
        <ele>103.59999847412</ele>
        <time>2021-07-17T07:24:27.000Z</time>
      </trkpt>
      <trkpt lat="47.48504" lon="0.47179">
        <ele>104.59999847412</ele>
        <time>2021-07-17T07:24:32.000Z</time>
      </trkpt>
      <trkpt lat="47.48552" lon="0.47162">
        <ele>105.59999847412</ele>
        <time>2021-07-17T07:24:43.000Z</time>
      </trkpt>
      <trkpt lat="47.48584" lon="0.47152">
        <ele>106.59999847412</ele>
        <time>2021-07-17T07:24:50.000Z</time>
      </trkpt>
      <trkpt lat="47.48626" lon="0.47139">
        <ele>107.59999847412</ele>
        <time>2021-07-17T07:25:00.000Z</time>
      </trkpt>
      <trkpt lat="47.48665" lon="0.47126">
        <ele>108.80000305176</ele>
        <time>2021-07-17T07:25:09.000Z</time>
      </trkpt>
      <trkpt lat="47.48687" lon="0.47118">
        <ele>110</ele>
        <time>2021-07-17T07:25:14.000Z</time>
      </trkpt>
      <trkpt lat="47.48741" lon="0.47102">
        <ele>110.19999694824</ele>
        <time>2021-07-17T07:25:26.000Z</time>
      </trkpt>
      <trkpt lat="47.48798" lon="0.47084">
        <ele>110.80000305176</ele>
        <time>2021-07-17T07:25:39.000Z</time>
      </trkpt>
      <trkpt lat="47.48807" lon="0.4708">
        <ele>111.19999694824</ele>
        <time>2021-07-17T07:25:41.000Z</time>
      </trkpt>
      <trkpt lat="47.4882" lon="0.47076">
        <ele>109.80000305176</ele>
        <time>2021-07-17T07:25:44.000Z</time>
      </trkpt>
      <trkpt lat="47.48876" lon="0.47056">
        <ele>110.19999694824</ele>
        <time>2021-07-17T07:25:55.000Z</time>
      </trkpt>
      <trkpt lat="47.48928" lon="0.47032">
        <ele>110.59999847412</ele>
        <time>2021-07-17T07:26:06.000Z</time>
      </trkpt>
      <trkpt lat="47.48983" lon="0.47009">
        <ele>110.59999847412</ele>
        <time>2021-07-17T07:26:17.000Z</time>
      </trkpt>
      <trkpt lat="47.49039" lon="0.46989">
        <ele>110.40000152588</ele>
        <time>2021-07-17T07:26:28.000Z</time>
      </trkpt>
      <trkpt lat="47.49093" lon="0.46969">
        <ele>109.80000305176</ele>
        <time>2021-07-17T07:26:38.000Z</time>
      </trkpt>
      <trkpt lat="47.49145" lon="0.46958">
        <ele>111</ele>
        <time>2021-07-17T07:26:47.000Z</time>
      </trkpt>
      <trkpt lat="47.49201" lon="0.4695">
        <ele>110.59999847412</ele>
        <time>2021-07-17T07:26:57.000Z</time>
      </trkpt>
      <trkpt lat="47.49254" lon="0.46936">
        <ele>111</ele>
        <time>2021-07-17T07:27:07.000Z</time>
      </trkpt>
      <trkpt lat="47.4927" lon="0.46931">
        <ele>110</ele>
        <time>2021-07-17T07:27:10.000Z</time>
      </trkpt>
      <trkpt lat="47.49301" lon="0.46922">
        <ele>108.80000305176</ele>
        <time>2021-07-17T07:27:16.000Z</time>
      </trkpt>
      <trkpt lat="47.49347" lon="0.46904">
        <ele>110</ele>
        <time>2021-07-17T07:27:24.000Z</time>
      </trkpt>
      <trkpt lat="47.4936" lon="0.469">
        <ele>111.19999694824</ele>
        <time>2021-07-17T07:27:26.000Z</time>
      </trkpt>
      <trkpt lat="47.49396" lon="0.4689">
        <ele>110</ele>
        <time>2021-07-17T07:27:32.000Z</time>
      </trkpt>
      <trkpt lat="47.49453" lon="0.46871">
        <ele>109.80000305176</ele>
        <time>2021-07-17T07:27:42.000Z</time>
      </trkpt>
      <trkpt lat="47.49507" lon="0.46852">
        <ele>110.19999694824</ele>
        <time>2021-07-17T07:27:53.000Z</time>
      </trkpt>
      <trkpt lat="47.49564" lon="0.46834">
        <ele>110.59999847412</ele>
        <time>2021-07-17T07:28:04.000Z</time>
      </trkpt>
      <trkpt lat="47.49586" lon="0.46826">
        <ele>111</ele>
        <time>2021-07-17T07:28:08.000Z</time>
      </trkpt>
      <trkpt lat="47.49602" lon="0.46822">
        <ele>112.80000305176</ele>
        <time>2021-07-17T07:28:11.000Z</time>
      </trkpt>
      <trkpt lat="47.49624" lon="0.46816">
        <ele>111.59999847412</ele>
        <time>2021-07-17T07:28:15.000Z</time>
      </trkpt>
      <trkpt lat="47.4965" lon="0.46806">
        <ele>111.80000305176</ele>
        <time>2021-07-17T07:28:20.000Z</time>
      </trkpt>
      <trkpt lat="47.49706" lon="0.46787">
        <ele>111.59999847412</ele>
        <time>2021-07-17T07:28:31.000Z</time>
      </trkpt>
      <trkpt lat="47.49756" lon="0.46771">
        <ele>112.80000305176</ele>
        <time>2021-07-17T07:28:41.000Z</time>
      </trkpt>
      <trkpt lat="47.498" lon="0.46759">
        <ele>113.40000152588</ele>
        <time>2021-07-17T07:28:50.000Z</time>
      </trkpt>
      <trkpt lat="47.49856" lon="0.46734">
        <ele>113.59999847412</ele>
        <time>2021-07-17T07:29:02.000Z</time>
      </trkpt>
      <trkpt lat="47.49886" lon="0.46724">
        <ele>113.80000305176</ele>
        <time>2021-07-17T07:29:08.000Z</time>
      </trkpt>
      <trkpt lat="47.49941" lon="0.46703">
        <ele>114.40000152588</ele>
        <time>2021-07-17T07:29:19.000Z</time>
      </trkpt>
      <trkpt lat="47.49997" lon="0.46683">
        <ele>114.59999847412</ele>
        <time>2021-07-17T07:29:30.000Z</time>
      </trkpt>
      <trkpt lat="47.50051" lon="0.46667">
        <ele>114.59999847412</ele>
        <time>2021-07-17T07:29:40.000Z</time>
      </trkpt>
      <trkpt lat="47.50077" lon="0.46659">
        <ele>115</ele>
        <time>2021-07-17T07:29:45.000Z</time>
      </trkpt>
      <trkpt lat="47.50135" lon="0.46645">
        <ele>115.80000305176</ele>
        <time>2021-07-17T07:29:56.000Z</time>
      </trkpt>
      <trkpt lat="47.5015" lon="0.4664">
        <ele>116.19999694824</ele>
        <time>2021-07-17T07:29:59.000Z</time>
      </trkpt>
      <trkpt lat="47.50203" lon="0.46625">
        <ele>116.19999694824</ele>
        <time>2021-07-17T07:30:09.000Z</time>
      </trkpt>
      <trkpt lat="47.50259" lon="0.46612">
        <ele>117</ele>
        <time>2021-07-17T07:30:20.000Z</time>
      </trkpt>
      <trkpt lat="47.50281" lon="0.46606">
        <ele>117.19999694824</ele>
        <time>2021-07-17T07:30:24.000Z</time>
      </trkpt>
      <trkpt lat="47.50324" lon="0.46588">
        <ele>118.19999694824</ele>
        <time>2021-07-17T07:30:33.000Z</time>
      </trkpt>
      <trkpt lat="47.50353" lon="0.46572">
        <ele>119.80000305176</ele>
        <time>2021-07-17T07:30:41.000Z</time>
      </trkpt>
      <trkpt lat="47.50366" lon="0.46585">
        <ele>119.59999847412</ele>
        <time>2021-07-17T07:31:18.000Z</time>
      </trkpt>
      <trkpt lat="47.50369" lon="0.46588">
        <ele>119.40000152588</ele>
        <time>2021-07-17T07:31:20.000Z</time>
      </trkpt>
      <trkpt lat="47.50379" lon="0.46584">
        <ele>119.80000305176</ele>
        <time>2021-07-17T07:31:23.000Z</time>
      </trkpt>
      <trkpt lat="47.50431" lon="0.46558">
        <ele>120.59999847412</ele>
        <time>2021-07-17T07:31:34.000Z</time>
      </trkpt>
      <trkpt lat="47.50452" lon="0.46551">
        <ele>121.19999694824</ele>
        <time>2021-07-17T07:31:38.000Z</time>
      </trkpt>
      <trkpt lat="47.50509" lon="0.46532">
        <ele>121.40000152588</ele>
        <time>2021-07-17T07:31:48.000Z</time>
      </trkpt>
      <trkpt lat="47.50527" lon="0.46526">
        <ele>120.19999694824</ele>
        <time>2021-07-17T07:31:51.000Z</time>
      </trkpt>
      <trkpt lat="47.50585" lon="0.46508">
        <ele>120.19999694824</ele>
        <time>2021-07-17T07:32:01.000Z</time>
      </trkpt>
      <trkpt lat="47.50624" lon="0.46495">
        <ele>118.59999847412</ele>
        <time>2021-07-17T07:32:07.000Z</time>
      </trkpt>
      <trkpt lat="47.50652" lon="0.46486">
        <ele>117.19999694824</ele>
        <time>2021-07-17T07:32:11.000Z</time>
      </trkpt>
      <trkpt lat="47.50682" lon="0.46476">
        <ele>115.19999694824</ele>
        <time>2021-07-17T07:32:15.000Z</time>
      </trkpt>
      <trkpt lat="47.50727" lon="0.46456">
        <ele>114.19999694824</ele>
        <time>2021-07-17T07:32:21.000Z</time>
      </trkpt>
      <trkpt lat="47.50742" lon="0.46446">
        <ele>113.19999694824</ele>
        <time>2021-07-17T07:32:23.000Z</time>
      </trkpt>
      <trkpt lat="47.50756" lon="0.46436">
        <ele>111.59999847412</ele>
        <time>2021-07-17T07:32:25.000Z</time>
      </trkpt>
      <trkpt lat="47.50772" lon="0.46425">
        <ele>110.59999847412</ele>
        <time>2021-07-17T07:32:27.000Z</time>
      </trkpt>
      <trkpt lat="47.50804" lon="0.46401">
        <ele>109.59999847412</ele>
        <time>2021-07-17T07:32:31.000Z</time>
      </trkpt>
      <trkpt lat="47.50829" lon="0.46381">
        <ele>106</ele>
        <time>2021-07-17T07:32:34.000Z</time>
      </trkpt>
      <trkpt lat="47.50837" lon="0.46373">
        <ele>103.59999847412</ele>
        <time>2021-07-17T07:32:35.000Z</time>
      </trkpt>
      <trkpt lat="47.50845" lon="0.46366">
        <ele>102.19999694824</ele>
        <time>2021-07-17T07:32:36.000Z</time>
      </trkpt>
      <trkpt lat="47.50861" lon="0.46352">
        <ele>101</ele>
        <time>2021-07-17T07:32:38.000Z</time>
      </trkpt>
      <trkpt lat="47.50877" lon="0.46337">
        <ele>99.800003051758</ele>
        <time>2021-07-17T07:32:40.000Z</time>
      </trkpt>
      <trkpt lat="47.50893" lon="0.46322">
        <ele>98.599998474121</ele>
        <time>2021-07-17T07:32:42.000Z</time>
      </trkpt>
      <trkpt lat="47.50919" lon="0.463">
        <ele>97</ele>
        <time>2021-07-17T07:32:45.000Z</time>
      </trkpt>
      <trkpt lat="47.50935" lon="0.46283">
        <ele>96</ele>
        <time>2021-07-17T07:32:47.000Z</time>
      </trkpt>
      <trkpt lat="47.50951" lon="0.46267">
        <ele>95</ele>
        <time>2021-07-17T07:32:49.000Z</time>
      </trkpt>
      <trkpt lat="47.50975" lon="0.46245">
        <ele>93.800003051758</ele>
        <time>2021-07-17T07:32:52.000Z</time>
      </trkpt>
      <trkpt lat="47.50991" lon="0.4623">
        <ele>92.599998474121</ele>
        <time>2021-07-17T07:32:54.000Z</time>
      </trkpt>
      <trkpt lat="47.51042" lon="0.46185">
        <ele>92</ele>
        <time>2021-07-17T07:33:01.000Z</time>
      </trkpt>
      <trkpt lat="47.51063" lon="0.46173">
        <ele>91.400001525879</ele>
        <time>2021-07-17T07:33:04.000Z</time>
      </trkpt>
      <trkpt lat="47.51122" lon="0.46151">
        <ele>91.400001525879</ele>
        <time>2021-07-17T07:33:12.000Z</time>
      </trkpt>
      <trkpt lat="47.51151" lon="0.46146">
        <ele>91</ele>
        <time>2021-07-17T07:33:16.000Z</time>
      </trkpt>
      <trkpt lat="47.51209" lon="0.46155">
        <ele>90.599998474121</ele>
        <time>2021-07-17T07:33:24.000Z</time>
      </trkpt>
      <trkpt lat="47.51216" lon="0.46158">
        <ele>90.199996948242</ele>
        <time>2021-07-17T07:33:25.000Z</time>
      </trkpt>
      <trkpt lat="47.51269" lon="0.46181">
        <ele>90.199996948242</ele>
        <time>2021-07-17T07:33:33.000Z</time>
      </trkpt>
      <trkpt lat="47.51324" lon="0.46209">
        <ele>90.199996948242</ele>
        <time>2021-07-17T07:33:42.000Z</time>
      </trkpt>
      <trkpt lat="47.51383" lon="0.46213">
        <ele>90.800003051758</ele>
        <time>2021-07-17T07:33:52.000Z</time>
      </trkpt>
      <trkpt lat="47.51437" lon="0.4621">
        <ele>90</ele>
        <time>2021-07-17T07:34:01.000Z</time>
      </trkpt>
      <trkpt lat="47.51493" lon="0.46209">
        <ele>90</ele>
        <time>2021-07-17T07:34:10.000Z</time>
      </trkpt>
      <trkpt lat="47.5155" lon="0.46211">
        <ele>89.800003051758</ele>
        <time>2021-07-17T07:34:20.000Z</time>
      </trkpt>
      <trkpt lat="47.51556" lon="0.46212">
        <ele>89.800003051758</ele>
        <time>2021-07-17T07:34:21.000Z</time>
      </trkpt>
      <trkpt lat="47.51614" lon="0.46235">
        <ele>89.800003051758</ele>
        <time>2021-07-17T07:34:31.000Z</time>
      </trkpt>
      <trkpt lat="47.51631" lon="0.46243">
        <ele>89</ele>
        <time>2021-07-17T07:34:34.000Z</time>
      </trkpt>
      <trkpt lat="47.51687" lon="0.46269">
        <ele>89.199996948242</ele>
        <time>2021-07-17T07:34:44.000Z</time>
      </trkpt>
      <trkpt lat="47.51743" lon="0.46291">
        <ele>88.400001525879</ele>
        <time>2021-07-17T07:34:54.000Z</time>
      </trkpt>
      <trkpt lat="47.51801" lon="0.46292">
        <ele>89.400001525879</ele>
        <time>2021-07-17T07:35:04.000Z</time>
      </trkpt>
      <trkpt lat="47.51857" lon="0.46291">
        <ele>89</ele>
        <time>2021-07-17T07:35:14.000Z</time>
      </trkpt>
      <trkpt lat="47.51898" lon="0.46289">
        <ele>90.199996948242</ele>
        <time>2021-07-17T07:35:22.000Z</time>
      </trkpt>
      <trkpt lat="47.51953" lon="0.46288">
        <ele>90.800003051758</ele>
        <time>2021-07-17T07:35:33.000Z</time>
      </trkpt>
      <trkpt lat="47.51963" lon="0.46288">
        <ele>91.400001525879</ele>
        <time>2021-07-17T07:35:35.000Z</time>
      </trkpt>
      <trkpt lat="47.51991" lon="0.46286">
        <ele>92.400001525879</ele>
        <time>2021-07-17T07:35:40.000Z</time>
      </trkpt>
      <trkpt lat="47.52046" lon="0.46285">
        <ele>92.599998474121</ele>
        <time>2021-07-17T07:35:50.000Z</time>
      </trkpt>
      <trkpt lat="47.52103" lon="0.46285">
        <ele>92</ele>
        <time>2021-07-17T07:36:00.000Z</time>
      </trkpt>
      <trkpt lat="47.52155" lon="0.46286">
        <ele>92.199996948242</ele>
        <time>2021-07-17T07:36:09.000Z</time>
      </trkpt>
      <trkpt lat="47.522" lon="0.46294">
        <ele>92.199996948242</ele>
        <time>2021-07-17T07:36:17.000Z</time>
      </trkpt>
      <trkpt lat="47.52217" lon="0.463">
        <ele>92.400001525879</ele>
        <time>2021-07-17T07:36:20.000Z</time>
      </trkpt>
      <trkpt lat="47.52233" lon="0.46303">
        <ele>94</ele>
        <time>2021-07-17T07:36:23.000Z</time>
      </trkpt>
      <trkpt lat="47.52249" lon="0.46306">
        <ele>95</ele>
        <time>2021-07-17T07:36:26.000Z</time>
      </trkpt>
      <trkpt lat="47.52295" lon="0.46316">
        <ele>96.199996948242</ele>
        <time>2021-07-17T07:36:36.000Z</time>
      </trkpt>
      <trkpt lat="47.52325" lon="0.46323">
        <ele>97.199996948242</ele>
        <time>2021-07-17T07:36:43.000Z</time>
      </trkpt>
      <trkpt lat="47.5233" lon="0.46323">
        <ele>97.400001525879</ele>
        <time>2021-07-17T07:36:44.000Z</time>
      </trkpt>
      <trkpt lat="47.52357" lon="0.46327">
        <ele>98.400001525879</ele>
        <time>2021-07-17T07:36:50.000Z</time>
      </trkpt>
      <trkpt lat="47.52379" lon="0.46331">
        <ele>99.400001525879</ele>
        <time>2021-07-17T07:36:55.000Z</time>
      </trkpt>
      <trkpt lat="47.52404" lon="0.46336">
        <ele>100.40000152588</ele>
        <time>2021-07-17T07:37:01.000Z</time>
      </trkpt>
      <trkpt lat="47.52409" lon="0.46337">
        <ele>100.59999847412</ele>
        <time>2021-07-17T07:37:02.000Z</time>
      </trkpt>
      <trkpt lat="47.5245" lon="0.46346">
        <ele>101.40000152588</ele>
        <time>2021-07-17T07:37:11.000Z</time>
      </trkpt>
      <trkpt lat="47.52469" lon="0.46349">
        <ele>101.19999694824</ele>
        <time>2021-07-17T07:37:15.000Z</time>
      </trkpt>
      <trkpt lat="47.52487" lon="0.46344">
        <ele>101.19999694824</ele>
        <time>2021-07-17T07:37:19.000Z</time>
      </trkpt>
      <trkpt lat="47.52538" lon="0.46298">
        <ele>100.59999847412</ele>
        <time>2021-07-17T07:37:30.000Z</time>
      </trkpt>
      <trkpt lat="47.52554" lon="0.46284">
        <ele>100.40000152588</ele>
        <time>2021-07-17T07:37:33.000Z</time>
      </trkpt>
      <trkpt lat="47.52601" lon="0.46243">
        <ele>100</ele>
        <time>2021-07-17T07:37:42.000Z</time>
      </trkpt>
      <trkpt lat="47.52612" lon="0.46234">
        <ele>98.599998474121</ele>
        <time>2021-07-17T07:37:44.000Z</time>
      </trkpt>
      <trkpt lat="47.5264" lon="0.46215">
        <ele>97.400001525879</ele>
        <time>2021-07-17T07:37:49.000Z</time>
      </trkpt>
      <trkpt lat="47.52654" lon="0.46206">
        <ele>96</ele>
        <time>2021-07-17T07:37:52.000Z</time>
      </trkpt>
      <trkpt lat="47.5267" lon="0.46227">
        <ele>95.800003051758</ele>
        <time>2021-07-17T07:38:10.000Z</time>
      </trkpt>
      <trkpt lat="47.52703" lon="0.46294">
        <ele>97.199996948242</ele>
        <time>2021-07-17T07:38:23.000Z</time>
      </trkpt>
      <trkpt lat="47.52706" lon="0.46299">
        <ele>97.199996948242</ele>
        <time>2021-07-17T07:38:24.000Z</time>
      </trkpt>
      <trkpt lat="47.52719" lon="0.46324">
        <ele>97.400001525879</ele>
        <time>2021-07-17T07:38:29.000Z</time>
      </trkpt>
      <trkpt lat="47.52729" lon="0.46348">
        <ele>98.400001525879</ele>
        <time>2021-07-17T07:38:33.000Z</time>
      </trkpt>
      <trkpt lat="47.52739" lon="0.46372">
        <ele>99.599998474121</ele>
        <time>2021-07-17T07:38:37.000Z</time>
      </trkpt>
      <trkpt lat="47.52761" lon="0.46431">
        <ele>101</ele>
        <time>2021-07-17T07:38:48.000Z</time>
      </trkpt>
      <trkpt lat="47.52763" lon="0.46436">
        <ele>102.40000152588</ele>
        <time>2021-07-17T07:38:49.000Z</time>
      </trkpt>
      <trkpt lat="47.52769" lon="0.46451">
        <ele>103.59999847412</ele>
        <time>2021-07-17T07:38:52.000Z</time>
      </trkpt>
      <trkpt lat="47.52786" lon="0.46489">
        <ele>104.80000305176</ele>
        <time>2021-07-17T07:39:00.000Z</time>
      </trkpt>
      <trkpt lat="47.52802" lon="0.46523">
        <ele>105.80000305176</ele>
        <time>2021-07-17T07:39:07.000Z</time>
      </trkpt>
      <trkpt lat="47.52815" lon="0.46551">
        <ele>107</ele>
        <time>2021-07-17T07:39:13.000Z</time>
      </trkpt>
      <trkpt lat="47.52831" lon="0.4659">
        <ele>108</ele>
        <time>2021-07-17T07:39:21.000Z</time>
      </trkpt>
      <trkpt lat="47.52846" lon="0.46626">
        <ele>109.19999694824</ele>
        <time>2021-07-17T07:39:28.000Z</time>
      </trkpt>
      <trkpt lat="47.5286" lon="0.46661">
        <ele>110.40000152588</ele>
        <time>2021-07-17T07:39:35.000Z</time>
      </trkpt>
      <trkpt lat="47.52876" lon="0.46708">
        <ele>111.59999847412</ele>
        <time>2021-07-17T07:39:44.000Z</time>
      </trkpt>
      <trkpt lat="47.52886" lon="0.46739">
        <ele>112.59999847412</ele>
        <time>2021-07-17T07:39:50.000Z</time>
      </trkpt>
      <trkpt lat="47.52889" lon="0.4675">
        <ele>112.40000152588</ele>
        <time>2021-07-17T07:39:52.000Z</time>
      </trkpt>
      <trkpt lat="47.52894" lon="0.46761">
        <ele>111.59999847412</ele>
        <time>2021-07-17T07:39:54.000Z</time>
      </trkpt>
      <trkpt lat="47.52895" lon="0.46767">
        <ele>111.19999694824</ele>
        <time>2021-07-17T07:39:55.000Z</time>
      </trkpt>
      <trkpt lat="47.52915" lon="0.46847">
        <ele>110.40000152588</ele>
        <time>2021-07-17T07:40:07.000Z</time>
      </trkpt>
      <trkpt lat="47.52918" lon="0.46861">
        <ele>110</ele>
        <time>2021-07-17T07:40:09.000Z</time>
      </trkpt>
      <trkpt lat="47.52927" lon="0.46895">
        <ele>112</ele>
        <time>2021-07-17T07:40:14.000Z</time>
      </trkpt>
      <trkpt lat="47.52932" lon="0.46916">
        <ele>111.80000305176</ele>
        <time>2021-07-17T07:40:17.000Z</time>
      </trkpt>
      <trkpt lat="47.52936" lon="0.4693">
        <ele>110.80000305176</ele>
        <time>2021-07-17T07:40:19.000Z</time>
      </trkpt>
      <trkpt lat="47.52953" lon="0.46999">
        <ele>111.80000305176</ele>
        <time>2021-07-17T07:40:29.000Z</time>
      </trkpt>
      <trkpt lat="47.52968" lon="0.47055">
        <ele>112.80000305176</ele>
        <time>2021-07-17T07:40:38.000Z</time>
      </trkpt>
      <trkpt lat="47.52983" lon="0.47115">
        <ele>113.80000305176</ele>
        <time>2021-07-17T07:40:48.000Z</time>
      </trkpt>
      <trkpt lat="47.52992" lon="0.4715">
        <ele>115.19999694824</ele>
        <time>2021-07-17T07:40:54.000Z</time>
      </trkpt>
      <trkpt lat="47.52999" lon="0.4718">
        <ele>116.40000152588</ele>
        <time>2021-07-17T07:40:59.000Z</time>
      </trkpt>
      <trkpt lat="47.53013" lon="0.47233">
        <ele>117.40000152588</ele>
        <time>2021-07-17T07:41:08.000Z</time>
      </trkpt>
      <trkpt lat="47.53034" lon="0.4731">
        <ele>118.40000152588</ele>
        <time>2021-07-17T07:41:20.000Z</time>
      </trkpt>
      <trkpt lat="47.53036" lon="0.47317">
        <ele>118.40000152588</ele>
        <time>2021-07-17T07:41:21.000Z</time>
      </trkpt>
      <trkpt lat="47.53048" lon="0.47365">
        <ele>119.40000152588</ele>
        <time>2021-07-17T07:41:28.000Z</time>
      </trkpt>
      <trkpt lat="47.53052" lon="0.47379">
        <ele>120.80000305176</ele>
        <time>2021-07-17T07:41:30.000Z</time>
      </trkpt>
      <trkpt lat="47.53072" lon="0.47456">
        <ele>120.80000305176</ele>
        <time>2021-07-17T07:41:40.000Z</time>
      </trkpt>
      <trkpt lat="47.53093" lon="0.47532">
        <ele>120.19999694824</ele>
        <time>2021-07-17T07:41:50.000Z</time>
      </trkpt>
      <trkpt lat="47.53114" lon="0.47612">
        <ele>120.40000152588</ele>
        <time>2021-07-17T07:42:00.000Z</time>
      </trkpt>
      <trkpt lat="47.5312" lon="0.47636">
        <ele>119.80000305176</ele>
        <time>2021-07-17T07:42:03.000Z</time>
      </trkpt>
      <trkpt lat="47.5314" lon="0.47711">
        <ele>118.80000305176</ele>
        <time>2021-07-17T07:42:12.000Z</time>
      </trkpt>
      <trkpt lat="47.53142" lon="0.4772">
        <ele>118.59999847412</ele>
        <time>2021-07-17T07:42:13.000Z</time>
      </trkpt>
      <trkpt lat="47.53162" lon="0.47797">
        <ele>117.80000305176</ele>
        <time>2021-07-17T07:42:22.000Z</time>
      </trkpt>
      <trkpt lat="47.53164" lon="0.47805">
        <ele>117.59999847412</ele>
        <time>2021-07-17T07:42:23.000Z</time>
      </trkpt>
      <trkpt lat="47.53184" lon="0.47886">
        <ele>118.19999694824</ele>
        <time>2021-07-17T07:42:33.000Z</time>
      </trkpt>
      <trkpt lat="47.5319" lon="0.47909">
        <ele>118.80000305176</ele>
        <time>2021-07-17T07:42:36.000Z</time>
      </trkpt>
      <trkpt lat="47.53207" lon="0.47986">
        <ele>119.59999847412</ele>
        <time>2021-07-17T07:42:46.000Z</time>
      </trkpt>
      <trkpt lat="47.53208" lon="0.47993">
        <ele>119.80000305176</ele>
        <time>2021-07-17T07:42:47.000Z</time>
      </trkpt>
      <trkpt lat="47.53219" lon="0.48077">
        <ele>120.19999694824</ele>
        <time>2021-07-17T07:42:58.000Z</time>
      </trkpt>
      <trkpt lat="47.53228" lon="0.48156">
        <ele>120.40000152588</ele>
        <time>2021-07-17T07:43:08.000Z</time>
      </trkpt>
      <trkpt lat="47.53237" lon="0.48235">
        <ele>120.40000152588</ele>
        <time>2021-07-17T07:43:18.000Z</time>
      </trkpt>
      <trkpt lat="47.53243" lon="0.48284">
        <ele>120.80000305176</ele>
        <time>2021-07-17T07:43:24.000Z</time>
      </trkpt>
      <trkpt lat="47.53252" lon="0.48366">
        <ele>121.19999694824</ele>
        <time>2021-07-17T07:43:34.000Z</time>
      </trkpt>
      <trkpt lat="47.53262" lon="0.48447">
        <ele>121</ele>
        <time>2021-07-17T07:43:44.000Z</time>
      </trkpt>
      <trkpt lat="47.53271" lon="0.4853">
        <ele>121</ele>
        <time>2021-07-17T07:43:54.000Z</time>
      </trkpt>
      <trkpt lat="47.5328" lon="0.4861">
        <ele>121.40000152588</ele>
        <time>2021-07-17T07:44:04.000Z</time>
      </trkpt>
      <trkpt lat="47.5329" lon="0.48691">
        <ele>121.40000152588</ele>
        <time>2021-07-17T07:44:14.000Z</time>
      </trkpt>
      <trkpt lat="47.53296" lon="0.48749">
        <ele>122</ele>
        <time>2021-07-17T07:44:21.000Z</time>
      </trkpt>
      <trkpt lat="47.53306" lon="0.48831">
        <ele>122.40000152588</ele>
        <time>2021-07-17T07:44:31.000Z</time>
      </trkpt>
      <trkpt lat="47.53316" lon="0.48913">
        <ele>121.80000305176</ele>
        <time>2021-07-17T07:44:41.000Z</time>
      </trkpt>
      <trkpt lat="47.53325" lon="0.48996">
        <ele>121.40000152588</ele>
        <time>2021-07-17T07:44:51.000Z</time>
      </trkpt>
      <trkpt lat="47.53329" lon="0.4903">
        <ele>120.59999847412</ele>
        <time>2021-07-17T07:44:55.000Z</time>
      </trkpt>
      <trkpt lat="47.53339" lon="0.49116">
        <ele>120.19999694824</ele>
        <time>2021-07-17T07:45:05.000Z</time>
      </trkpt>
      <trkpt lat="47.53346" lon="0.49172">
        <ele>119.40000152588</ele>
        <time>2021-07-17T07:45:11.000Z</time>
      </trkpt>
      <trkpt lat="47.53355" lon="0.49257">
        <ele>118.59999847412</ele>
        <time>2021-07-17T07:45:20.000Z</time>
      </trkpt>
      <trkpt lat="47.53357" lon="0.49277">
        <ele>118.19999694824</ele>
        <time>2021-07-17T07:45:22.000Z</time>
      </trkpt>
      <trkpt lat="47.53366" lon="0.49356">
        <ele>118.80000305176</ele>
        <time>2021-07-17T07:45:30.000Z</time>
      </trkpt>
      <trkpt lat="47.53369" lon="0.49385">
        <ele>119.40000152588</ele>
        <time>2021-07-17T07:45:33.000Z</time>
      </trkpt>
      <trkpt lat="47.53371" lon="0.49404">
        <ele>118.19999694824</ele>
        <time>2021-07-17T07:45:35.000Z</time>
      </trkpt>
      <trkpt lat="47.53372" lon="0.49414">
        <ele>117</ele>
        <time>2021-07-17T07:45:36.000Z</time>
      </trkpt>
      <trkpt lat="47.53373" lon="0.49423">
        <ele>115.59999847412</ele>
        <time>2021-07-17T07:45:37.000Z</time>
      </trkpt>
      <trkpt lat="47.53384" lon="0.49506">
        <ele>114.59999847412</ele>
        <time>2021-07-17T07:45:46.000Z</time>
      </trkpt>
      <trkpt lat="47.53391" lon="0.49569">
        <ele>114.40000152588</ele>
        <time>2021-07-17T07:45:53.000Z</time>
      </trkpt>
      <trkpt lat="47.53403" lon="0.49651">
        <ele>114.40000152588</ele>
        <time>2021-07-17T07:46:02.000Z</time>
      </trkpt>
      <trkpt lat="47.53411" lon="0.49733">
        <ele>114.40000152588</ele>
        <time>2021-07-17T07:46:11.000Z</time>
      </trkpt>
      <trkpt lat="47.53417" lon="0.49794">
        <ele>115.59999847412</ele>
        <time>2021-07-17T07:46:18.000Z</time>
      </trkpt>
      <trkpt lat="47.53428" lon="0.49865">
        <ele>116.80000305176</ele>
        <time>2021-07-17T07:46:27.000Z</time>
      </trkpt>
      <trkpt lat="47.5344" lon="0.49945">
        <ele>116.80000305176</ele>
        <time>2021-07-17T07:46:37.000Z</time>
      </trkpt>
      <trkpt lat="47.53451" lon="0.5003">
        <ele>116.59999847412</ele>
        <time>2021-07-17T07:46:47.000Z</time>
      </trkpt>
      <trkpt lat="47.53462" lon="0.50116">
        <ele>116.59999847412</ele>
        <time>2021-07-17T07:46:57.000Z</time>
      </trkpt>
      <trkpt lat="47.53472" lon="0.50199">
        <ele>116.19999694824</ele>
        <time>2021-07-17T07:47:06.000Z</time>
      </trkpt>
      <trkpt lat="47.53474" lon="0.50217">
        <ele>115.59999847412</ele>
        <time>2021-07-17T07:47:08.000Z</time>
      </trkpt>
      <trkpt lat="47.53483" lon="0.50303">
        <ele>115</ele>
        <time>2021-07-17T07:47:17.000Z</time>
      </trkpt>
      <trkpt lat="47.53489" lon="0.5036">
        <ele>114.40000152588</ele>
        <time>2021-07-17T07:47:23.000Z</time>
      </trkpt>
      <trkpt lat="47.53496" lon="0.50447">
        <ele>113.80000305176</ele>
        <time>2021-07-17T07:47:32.000Z</time>
      </trkpt>
      <trkpt lat="47.535" lon="0.50485">
        <ele>113.40000152588</ele>
        <time>2021-07-17T07:47:36.000Z</time>
      </trkpt>
      <trkpt lat="47.53508" lon="0.50566">
        <ele>113.59999847412</ele>
        <time>2021-07-17T07:47:45.000Z</time>
      </trkpt>
      <trkpt lat="47.53518" lon="0.50652">
        <ele>112.80000305176</ele>
        <time>2021-07-17T07:47:54.000Z</time>
      </trkpt>
      <trkpt lat="47.5352" lon="0.50672">
        <ele>112</ele>
        <time>2021-07-17T07:47:56.000Z</time>
      </trkpt>
      <trkpt lat="47.53526" lon="0.5073">
        <ele>111</ele>
        <time>2021-07-17T07:48:02.000Z</time>
      </trkpt>
      <trkpt lat="47.53536" lon="0.50816">
        <ele>111</ele>
        <time>2021-07-17T07:48:11.000Z</time>
      </trkpt>
      <trkpt lat="47.53545" lon="0.50901">
        <ele>110.80000305176</ele>
        <time>2021-07-17T07:48:20.000Z</time>
      </trkpt>
      <trkpt lat="47.53557" lon="0.50984">
        <ele>110.19999694824</ele>
        <time>2021-07-17T07:48:29.000Z</time>
      </trkpt>
      <trkpt lat="47.53578" lon="0.51061">
        <ele>110.80000305176</ele>
        <time>2021-07-17T07:48:38.000Z</time>
      </trkpt>
      <trkpt lat="47.53602" lon="0.51132">
        <ele>109.59999847412</ele>
        <time>2021-07-17T07:48:46.000Z</time>
      </trkpt>
      <trkpt lat="47.53627" lon="0.51211">
        <ele>109</ele>
        <time>2021-07-17T07:48:55.000Z</time>
      </trkpt>
      <trkpt lat="47.53633" lon="0.51229">
        <ele>108.19999694824</ele>
        <time>2021-07-17T07:48:57.000Z</time>
      </trkpt>
      <trkpt lat="47.53662" lon="0.51305">
        <ele>108.19999694824</ele>
        <time>2021-07-17T07:49:06.000Z</time>
      </trkpt>
      <trkpt lat="47.53667" lon="0.51328">
        <ele>109</ele>
        <time>2021-07-17T07:49:09.000Z</time>
      </trkpt>
      <trkpt lat="47.5367" lon="0.51344">
        <ele>109.40000152588</ele>
        <time>2021-07-17T07:49:11.000Z</time>
      </trkpt>
      <trkpt lat="47.53682" lon="0.51403">
        <ele>110.80000305176</ele>
        <time>2021-07-17T07:49:19.000Z</time>
      </trkpt>
      <trkpt lat="47.53687" lon="0.51425">
        <ele>112.19999694824</ele>
        <time>2021-07-17T07:49:22.000Z</time>
      </trkpt>
      <trkpt lat="47.53696" lon="0.51469">
        <ele>113.40000152588</ele>
        <time>2021-07-17T07:49:28.000Z</time>
      </trkpt>
      <trkpt lat="47.53706" lon="0.51511">
        <ele>112.19999694824</ele>
        <time>2021-07-17T07:49:34.000Z</time>
      </trkpt>
      <trkpt lat="47.53718" lon="0.51552">
        <ele>111</ele>
        <time>2021-07-17T07:49:39.000Z</time>
      </trkpt>
      <trkpt lat="47.53732" lon="0.51605">
        <ele>109.80000305176</ele>
        <time>2021-07-17T07:49:45.000Z</time>
      </trkpt>
      <trkpt lat="47.53752" lon="0.51674">
        <ele>108.59999847412</ele>
        <time>2021-07-17T07:49:53.000Z</time>
      </trkpt>
      <trkpt lat="47.53773" lon="0.51753">
        <ele>109</ele>
        <time>2021-07-17T07:50:02.000Z</time>
      </trkpt>
      <trkpt lat="47.53796" lon="0.51826">
        <ele>108.59999847412</ele>
        <time>2021-07-17T07:50:11.000Z</time>
      </trkpt>
      <trkpt lat="47.5382" lon="0.51901">
        <ele>109.19999694824</ele>
        <time>2021-07-17T07:50:20.000Z</time>
      </trkpt>
      <trkpt lat="47.53845" lon="0.51977">
        <ele>108.40000152588</ele>
        <time>2021-07-17T07:50:29.000Z</time>
      </trkpt>
      <trkpt lat="47.53858" lon="0.52025">
        <ele>107.40000152588</ele>
        <time>2021-07-17T07:50:34.000Z</time>
      </trkpt>
      <trkpt lat="47.53872" lon="0.52073">
        <ele>106.19999694824</ele>
        <time>2021-07-17T07:50:39.000Z</time>
      </trkpt>
      <trkpt lat="47.53886" lon="0.52129">
        <ele>105.19999694824</ele>
        <time>2021-07-17T07:50:45.000Z</time>
      </trkpt>
      <trkpt lat="47.53906" lon="0.52204">
        <ele>104.40000152588</ele>
        <time>2021-07-17T07:50:53.000Z</time>
      </trkpt>
      <trkpt lat="47.53912" lon="0.52223">
        <ele>103.80000305176</ele>
        <time>2021-07-17T07:50:55.000Z</time>
      </trkpt>
      <trkpt lat="47.53933" lon="0.52302">
        <ele>103.19999694824</ele>
        <time>2021-07-17T07:51:03.000Z</time>
      </trkpt>
      <trkpt lat="47.53938" lon="0.5232">
        <ele>102.59999847412</ele>
        <time>2021-07-17T07:51:05.000Z</time>
      </trkpt>
      <trkpt lat="47.5396" lon="0.52398">
        <ele>103.80000305176</ele>
        <time>2021-07-17T07:51:14.000Z</time>
      </trkpt>
      <trkpt lat="47.5398" lon="0.52473">
        <ele>104.40000152588</ele>
        <time>2021-07-17T07:51:23.000Z</time>
      </trkpt>
      <trkpt lat="47.53994" lon="0.52521">
        <ele>105</ele>
        <time>2021-07-17T07:51:29.000Z</time>
      </trkpt>
      <trkpt lat="47.54012" lon="0.52587">
        <ele>106</ele>
        <time>2021-07-17T07:51:37.000Z</time>
      </trkpt>
      <trkpt lat="47.54033" lon="0.52663">
        <ele>105.19999694824</ele>
        <time>2021-07-17T07:51:46.000Z</time>
      </trkpt>
      <trkpt lat="47.54057" lon="0.52743">
        <ele>106.59999847412</ele>
        <time>2021-07-17T07:51:56.000Z</time>
      </trkpt>
      <trkpt lat="47.54079" lon="0.52822">
        <ele>107</ele>
        <time>2021-07-17T07:52:06.000Z</time>
      </trkpt>
      <trkpt lat="47.54081" lon="0.5283">
        <ele>107.19999694824</ele>
        <time>2021-07-17T07:52:07.000Z</time>
      </trkpt>
      <trkpt lat="47.54099" lon="0.52892">
        <ele>108.19999694824</ele>
        <time>2021-07-17T07:52:15.000Z</time>
      </trkpt>
      <trkpt lat="47.54116" lon="0.5295">
        <ele>107</ele>
        <time>2021-07-17T07:52:22.000Z</time>
      </trkpt>
      <trkpt lat="47.54139" lon="0.53027">
        <ele>106.59999847412</ele>
        <time>2021-07-17T07:52:31.000Z</time>
      </trkpt>
      <trkpt lat="47.54144" lon="0.53043">
        <ele>105.59999847412</ele>
        <time>2021-07-17T07:52:33.000Z</time>
      </trkpt>
      <trkpt lat="47.54177" lon="0.53118">
        <ele>104.80000305176</ele>
        <time>2021-07-17T07:52:42.000Z</time>
      </trkpt>
      <trkpt lat="47.54181" lon="0.53127">
        <ele>104.59999847412</ele>
        <time>2021-07-17T07:52:43.000Z</time>
      </trkpt>
      <trkpt lat="47.54193" lon="0.53155">
        <ele>103.59999847412</ele>
        <time>2021-07-17T07:52:46.000Z</time>
      </trkpt>
      <trkpt lat="47.54206" lon="0.53182">
        <ele>102.59999847412</ele>
        <time>2021-07-17T07:52:49.000Z</time>
      </trkpt>
      <trkpt lat="47.5421" lon="0.53191">
        <ele>104</ele>
        <time>2021-07-17T07:52:50.000Z</time>
      </trkpt>
      <trkpt lat="47.54214" lon="0.532">
        <ele>104</ele>
        <time>2021-07-17T07:52:51.000Z</time>
      </trkpt>
      <trkpt lat="47.54222" lon="0.53217">
        <ele>102.40000152588</ele>
        <time>2021-07-17T07:52:53.000Z</time>
      </trkpt>
      <trkpt lat="47.54246" lon="0.5327">
        <ele>101.40000152588</ele>
        <time>2021-07-17T07:52:59.000Z</time>
      </trkpt>
      <trkpt lat="47.54276" lon="0.53337">
        <ele>101.40000152588</ele>
        <time>2021-07-17T07:53:07.000Z</time>
      </trkpt>
      <trkpt lat="47.54307" lon="0.53403">
        <ele>101.19999694824</ele>
        <time>2021-07-17T07:53:15.000Z</time>
      </trkpt>
      <trkpt lat="47.54341" lon="0.53476">
        <ele>100.80000305176</ele>
        <time>2021-07-17T07:53:24.000Z</time>
      </trkpt>
      <trkpt lat="47.54352" lon="0.535">
        <ele>100.40000152588</ele>
        <time>2021-07-17T07:53:27.000Z</time>
      </trkpt>
      <trkpt lat="47.54386" lon="0.53563">
        <ele>100</ele>
        <time>2021-07-17T07:53:35.000Z</time>
      </trkpt>
      <trkpt lat="47.54421" lon="0.53635">
        <ele>99.599998474121</ele>
        <time>2021-07-17T07:53:44.000Z</time>
      </trkpt>
      <trkpt lat="47.54425" lon="0.53643">
        <ele>99.400001525879</ele>
        <time>2021-07-17T07:53:45.000Z</time>
      </trkpt>
      <trkpt lat="47.54459" lon="0.53715">
        <ele>99.199996948242</ele>
        <time>2021-07-17T07:53:54.000Z</time>
      </trkpt>
      <trkpt lat="47.54491" lon="0.53785">
        <ele>99</ele>
        <time>2021-07-17T07:54:03.000Z</time>
      </trkpt>
      <trkpt lat="47.54516" lon="0.53837">
        <ele>98.199996948242</ele>
        <time>2021-07-17T07:54:10.000Z</time>
      </trkpt>
      <trkpt lat="47.54546" lon="0.53907">
        <ele>97.800003051758</ele>
        <time>2021-07-17T07:54:19.000Z</time>
      </trkpt>
      <trkpt lat="47.54576" lon="0.53976">
        <ele>98.599998474121</ele>
        <time>2021-07-17T07:54:28.000Z</time>
      </trkpt>
      <trkpt lat="47.54582" lon="0.53983">
        <ele>98.800003051758</ele>
        <time>2021-07-17T07:54:29.000Z</time>
      </trkpt>
      <trkpt lat="47.54612" lon="0.54028">
        <ele>97.199996948242</ele>
        <time>2021-07-17T07:54:35.000Z</time>
      </trkpt>
      <trkpt lat="47.54619" lon="0.54044">
        <ele>97.400001525879</ele>
        <time>2021-07-17T07:54:37.000Z</time>
      </trkpt>
      <trkpt lat="47.54647" lon="0.54117">
        <ele>97.400001525879</ele>
        <time>2021-07-17T07:54:46.000Z</time>
      </trkpt>
      <trkpt lat="47.54657" lon="0.54141">
        <ele>98.400001525879</ele>
        <time>2021-07-17T07:54:50.000Z</time>
      </trkpt>
      <trkpt lat="47.54663" lon="0.54154">
        <ele>99.400001525879</ele>
        <time>2021-07-17T07:54:53.000Z</time>
      </trkpt>
      <trkpt lat="47.54664" lon="0.54176">
        <ele>100.19999694824</ele>
        <time>2021-07-17T07:55:12.000Z</time>
      </trkpt>
      <trkpt lat="47.54668" lon="0.54202">
        <ele>100</ele>
        <time>2021-07-17T07:55:18.000Z</time>
      </trkpt>
      <trkpt lat="47.54671" lon="0.54215">
        <ele>100.40000152588</ele>
        <time>2021-07-17T07:55:20.000Z</time>
      </trkpt>
      <trkpt lat="47.54687" lon="0.54284">
        <ele>101.40000152588</ele>
        <time>2021-07-17T07:55:30.000Z</time>
      </trkpt>
      <trkpt lat="47.5469" lon="0.54317">
        <ele>102.59999847412</ele>
        <time>2021-07-17T07:55:35.000Z</time>
      </trkpt>
      <trkpt lat="47.54695" lon="0.54342">
        <ele>103.59999847412</ele>
        <time>2021-07-17T07:55:39.000Z</time>
      </trkpt>
      <trkpt lat="47.54709" lon="0.54408">
        <ele>104.80000305176</ele>
        <time>2021-07-17T07:55:50.000Z</time>
      </trkpt>
      <trkpt lat="47.54711" lon="0.5442">
        <ele>103.59999847412</ele>
        <time>2021-07-17T07:55:52.000Z</time>
      </trkpt>
      <trkpt lat="47.54717" lon="0.54449">
        <ele>104.80000305176</ele>
        <time>2021-07-17T07:55:58.000Z</time>
      </trkpt>
      <trkpt lat="47.54725" lon="0.54479">
        <ele>105.40000152588</ele>
        <time>2021-07-17T07:56:05.000Z</time>
      </trkpt>
      <trkpt lat="47.54738" lon="0.54549">
        <ele>105.80000305176</ele>
        <time>2021-07-17T07:56:17.000Z</time>
      </trkpt>
      <trkpt lat="47.5475" lon="0.54592">
        <ele>107</ele>
        <time>2021-07-17T07:56:25.000Z</time>
      </trkpt>
      <trkpt lat="47.54758" lon="0.5461">
        <ele>108.19999694824</ele>
        <time>2021-07-17T07:56:29.000Z</time>
      </trkpt>
      <trkpt lat="47.54778" lon="0.54636">
        <ele>108</ele>
        <time>2021-07-17T07:56:36.000Z</time>
      </trkpt>
      <trkpt lat="47.54791" lon="0.5465">
        <ele>107.59999847412</ele>
        <time>2021-07-17T07:56:40.000Z</time>
      </trkpt>
      <trkpt lat="47.54799" lon="0.54653">
        <ele>107.40000152588</ele>
        <time>2021-07-17T07:56:42.000Z</time>
      </trkpt>
      <trkpt lat="47.54803" lon="0.54655">
        <ele>107</ele>
        <time>2021-07-17T07:56:43.000Z</time>
      </trkpt>
      <trkpt lat="47.54808" lon="0.54656">
        <ele>106.80000305176</ele>
        <time>2021-07-17T07:56:44.000Z</time>
      </trkpt>
      <trkpt lat="47.54863" lon="0.5466">
        <ele>106.59999847412</ele>
        <time>2021-07-17T07:56:55.000Z</time>
      </trkpt>
      <trkpt lat="47.54904" lon="0.54663">
        <ele>106</ele>
        <time>2021-07-17T07:57:03.000Z</time>
      </trkpt>
      <trkpt lat="47.5492" lon="0.54663">
        <ele>107.59999847412</ele>
        <time>2021-07-17T07:57:06.000Z</time>
      </trkpt>
      <trkpt lat="47.54925" lon="0.54664">
        <ele>108.19999694824</ele>
        <time>2021-07-17T07:57:07.000Z</time>
      </trkpt>
      <trkpt lat="47.54935" lon="0.54671">
        <ele>108.59999847412</ele>
        <time>2021-07-17T07:57:09.000Z</time>
      </trkpt>
      <trkpt lat="47.54942" lon="0.54682">
        <ele>108.19999694824</ele>
        <time>2021-07-17T07:57:11.000Z</time>
      </trkpt>
      <trkpt lat="47.54948" lon="0.54696">
        <ele>107.59999847412</ele>
        <time>2021-07-17T07:57:13.000Z</time>
      </trkpt>
      <trkpt lat="47.54972" lon="0.54769">
        <ele>107.80000305176</ele>
        <time>2021-07-17T07:57:22.000Z</time>
      </trkpt>
      <trkpt lat="47.54998" lon="0.5484">
        <ele>107.59999847412</ele>
        <time>2021-07-17T07:57:31.000Z</time>
      </trkpt>
      <trkpt lat="47.55027" lon="0.54911">
        <ele>107.59999847412</ele>
        <time>2021-07-17T07:57:41.000Z</time>
      </trkpt>
      <trkpt lat="47.55062" lon="0.54973">
        <ele>108.19999694824</ele>
        <time>2021-07-17T07:57:51.000Z</time>
      </trkpt>
      <trkpt lat="47.55072" lon="0.54989">
        <ele>106.59999847412</ele>
        <time>2021-07-17T07:57:55.000Z</time>
      </trkpt>
      <trkpt lat="47.55072" lon="0.54995">
        <ele>106.19999694824</ele>
        <time>2021-07-17T07:57:58.000Z</time>
      </trkpt>
      <trkpt lat="47.55067" lon="0.55002">
        <ele>106.40000152588</ele>
        <time>2021-07-17T07:58:02.000Z</time>
      </trkpt>
      <trkpt lat="47.55068" lon="0.55006">
        <ele>105.80000305176</ele>
        <time>2021-07-17T07:58:04.000Z</time>
      </trkpt>
      <trkpt lat="47.55079" lon="0.55009">
        <ele>105.59999847412</ele>
        <time>2021-07-17T07:58:07.000Z</time>
      </trkpt>
      <trkpt lat="47.55089" lon="0.55009">
        <ele>105.80000305176</ele>
        <time>2021-07-17T07:58:09.000Z</time>
      </trkpt>
      <trkpt lat="47.551" lon="0.55017">
        <ele>106.40000152588</ele>
        <time>2021-07-17T07:58:11.000Z</time>
      </trkpt>
      <trkpt lat="47.55111" lon="0.55028">
        <ele>104.40000152588</ele>
        <time>2021-07-17T07:58:13.000Z</time>
      </trkpt>
      <trkpt lat="47.55159" lon="0.55073">
        <ele>104.40000152588</ele>
        <time>2021-07-17T07:58:22.000Z</time>
      </trkpt>
      <trkpt lat="47.55193" lon="0.55106">
        <ele>105.80000305176</ele>
        <time>2021-07-17T07:58:29.000Z</time>
      </trkpt>
      <trkpt lat="47.55211" lon="0.55123">
        <ele>107</ele>
        <time>2021-07-17T07:58:33.000Z</time>
      </trkpt>
      <trkpt lat="47.55224" lon="0.55135">
        <ele>107.19999694824</ele>
        <time>2021-07-17T07:58:36.000Z</time>
      </trkpt>
      <trkpt lat="47.55273" lon="0.55182">
        <ele>108</ele>
        <time>2021-07-17T07:58:47.000Z</time>
      </trkpt>
      <trkpt lat="47.55289" lon="0.55198">
        <ele>109</ele>
        <time>2021-07-17T07:58:51.000Z</time>
      </trkpt>
      <trkpt lat="47.55301" lon="0.55211">
        <ele>109.40000152588</ele>
        <time>2021-07-17T07:58:54.000Z</time>
      </trkpt>
      <trkpt lat="47.55321" lon="0.55233">
        <ele>110</ele>
        <time>2021-07-17T07:58:59.000Z</time>
      </trkpt>
      <trkpt lat="47.55358" lon="0.55299">
        <ele>110.59999847412</ele>
        <time>2021-07-17T07:59:10.000Z</time>
      </trkpt>
      <trkpt lat="47.55363" lon="0.55311">
        <ele>111.40000152588</ele>
        <time>2021-07-17T07:59:12.000Z</time>
      </trkpt>
      <trkpt lat="47.55384" lon="0.55361">
        <ele>112.59999847412</ele>
        <time>2021-07-17T07:59:20.000Z</time>
      </trkpt>
      <trkpt lat="47.55413" lon="0.55433">
        <ele>111.59999847412</ele>
        <time>2021-07-17T07:59:31.000Z</time>
      </trkpt>
      <trkpt lat="47.55418" lon="0.55447">
        <ele>114.19999694824</ele>
        <time>2021-07-17T07:59:33.000Z</time>
      </trkpt>
      <trkpt lat="47.55449" lon="0.55518">
        <ele>113.80000305176</ele>
        <time>2021-07-17T07:59:43.000Z</time>
      </trkpt>
      <trkpt lat="47.55479" lon="0.55568">
        <ele>113</ele>
        <time>2021-07-17T07:59:50.000Z</time>
      </trkpt>
      <trkpt lat="47.55505" lon="0.55599">
        <ele>112</ele>
        <time>2021-07-17T07:59:55.000Z</time>
      </trkpt>
      <trkpt lat="47.55537" lon="0.55631">
        <ele>110.40000152588</ele>
        <time>2021-07-17T08:00:01.000Z</time>
      </trkpt>
      <trkpt lat="47.55571" lon="0.55662">
        <ele>109.19999694824</ele>
        <time>2021-07-17T08:00:07.000Z</time>
      </trkpt>
      <trkpt lat="47.55595" lon="0.55682">
        <ele>108</ele>
        <time>2021-07-17T08:00:11.000Z</time>
      </trkpt>
      <trkpt lat="47.55646" lon="0.55727">
        <ele>107</ele>
        <time>2021-07-17T08:00:20.000Z</time>
      </trkpt>
      <trkpt lat="47.55697" lon="0.55771">
        <ele>107.19999694824</ele>
        <time>2021-07-17T08:00:29.000Z</time>
      </trkpt>
      <trkpt lat="47.55745" lon="0.55814">
        <ele>106.19999694824</ele>
        <time>2021-07-17T08:00:38.000Z</time>
      </trkpt>
      <trkpt lat="47.55775" lon="0.55841">
        <ele>106</ele>
        <time>2021-07-17T08:00:44.000Z</time>
      </trkpt>
      <trkpt lat="47.55822" lon="0.55882">
        <ele>105.40000152588</ele>
        <time>2021-07-17T08:00:53.000Z</time>
      </trkpt>
      <trkpt lat="47.55859" lon="0.55914">
        <ele>104.80000305176</ele>
        <time>2021-07-17T08:01:00.000Z</time>
      </trkpt>
      <trkpt lat="47.5589" lon="0.55941">
        <ele>103.80000305176</ele>
        <time>2021-07-17T08:01:06.000Z</time>
      </trkpt>
      <trkpt lat="47.5594" lon="0.55986">
        <ele>102.80000305176</ele>
        <time>2021-07-17T08:01:15.000Z</time>
      </trkpt>
      <trkpt lat="47.55969" lon="0.56012">
        <ele>101.59999847412</ele>
        <time>2021-07-17T08:01:20.000Z</time>
      </trkpt>
      <trkpt lat="47.55986" lon="0.56027">
        <ele>100.59999847412</ele>
        <time>2021-07-17T08:01:23.000Z</time>
      </trkpt>
      <trkpt lat="47.5602" lon="0.56057">
        <ele>99.400001525879</ele>
        <time>2021-07-17T08:01:29.000Z</time>
      </trkpt>
      <trkpt lat="47.56037" lon="0.56073">
        <ele>98.199996948242</ele>
        <time>2021-07-17T08:01:32.000Z</time>
      </trkpt>
      <trkpt lat="47.56054" lon="0.56087">
        <ele>97.199996948242</ele>
        <time>2021-07-17T08:01:35.000Z</time>
      </trkpt>
      <trkpt lat="47.56095" lon="0.56124">
        <ele>96.199996948242</ele>
        <time>2021-07-17T08:01:42.000Z</time>
      </trkpt>
      <trkpt lat="47.56128" lon="0.56153">
        <ele>95.199996948242</ele>
        <time>2021-07-17T08:01:47.000Z</time>
      </trkpt>
      <trkpt lat="47.56147" lon="0.56171">
        <ele>93.400001525879</ele>
        <time>2021-07-17T08:01:50.000Z</time>
      </trkpt>
      <trkpt lat="47.56183" lon="0.56204">
        <ele>92.199996948242</ele>
        <time>2021-07-17T08:01:56.000Z</time>
      </trkpt>
      <trkpt lat="47.5623" lon="0.56248">
        <ele>92.199996948242</ele>
        <time>2021-07-17T08:02:05.000Z</time>
      </trkpt>
      <trkpt lat="47.56278" lon="0.56293">
        <ele>92.400001525879</ele>
        <time>2021-07-17T08:02:14.000Z</time>
      </trkpt>
      <trkpt lat="47.56328" lon="0.56332">
        <ele>92.599998474121</ele>
        <time>2021-07-17T08:02:24.000Z</time>
      </trkpt>
      <trkpt lat="47.56341" lon="0.56342">
        <ele>93.400001525879</ele>
        <time>2021-07-17T08:02:27.000Z</time>
      </trkpt>
      <trkpt lat="47.56369" lon="0.56366">
        <ele>94.400001525879</ele>
        <time>2021-07-17T08:02:34.000Z</time>
      </trkpt>
      <trkpt lat="47.56392" lon="0.56386">
        <ele>95.599998474121</ele>
        <time>2021-07-17T08:02:40.000Z</time>
      </trkpt>
      <trkpt lat="47.5642" lon="0.56411">
        <ele>96.599998474121</ele>
        <time>2021-07-17T08:02:48.000Z</time>
      </trkpt>
      <trkpt lat="47.56452" lon="0.56438">
        <ele>97.599998474121</ele>
        <time>2021-07-17T08:02:57.000Z</time>
      </trkpt>
      <trkpt lat="47.56485" lon="0.56468">
        <ele>98.599998474121</ele>
        <time>2021-07-17T08:03:07.000Z</time>
      </trkpt>
      <trkpt lat="47.56503" lon="0.56483">
        <ele>99.599998474121</ele>
        <time>2021-07-17T08:03:12.000Z</time>
      </trkpt>
      <trkpt lat="47.56551" lon="0.56526">
        <ele>100.59999847412</ele>
        <time>2021-07-17T08:03:26.000Z</time>
      </trkpt>
      <trkpt lat="47.56562" lon="0.56536">
        <ele>100.80000305176</ele>
        <time>2021-07-17T08:03:29.000Z</time>
      </trkpt>
      <trkpt lat="47.56573" lon="0.56547">
        <ele>101.80000305176</ele>
        <time>2021-07-17T08:03:32.000Z</time>
      </trkpt>
      <trkpt lat="47.56615" lon="0.56584">
        <ele>100.59999847412</ele>
        <time>2021-07-17T08:03:42.000Z</time>
      </trkpt>
      <trkpt lat="47.56659" lon="0.56636">
        <ele>100.80000305176</ele>
        <time>2021-07-17T08:03:53.000Z</time>
      </trkpt>
      <trkpt lat="47.56671" lon="0.56651">
        <ele>101.59999847412</ele>
        <time>2021-07-17T08:03:56.000Z</time>
      </trkpt>
      <trkpt lat="47.56699" lon="0.56693">
        <ele>102.59999847412</ele>
        <time>2021-07-17T08:04:04.000Z</time>
      </trkpt>
      <trkpt lat="47.5672" lon="0.56724">
        <ele>103.80000305176</ele>
        <time>2021-07-17T08:04:10.000Z</time>
      </trkpt>
      <trkpt lat="47.56741" lon="0.56759">
        <ele>105</ele>
        <time>2021-07-17T08:04:17.000Z</time>
      </trkpt>
      <trkpt lat="47.56758" lon="0.56793">
        <ele>106.19999694824</ele>
        <time>2021-07-17T08:04:25.000Z</time>
      </trkpt>
      <trkpt lat="47.56774" lon="0.56813">
        <ele>107.19999694824</ele>
        <time>2021-07-17T08:04:30.000Z</time>
      </trkpt>
      <trkpt lat="47.56797" lon="0.56844">
        <ele>108.40000152588</ele>
        <time>2021-07-17T08:04:37.000Z</time>
      </trkpt>
      <trkpt lat="47.56821" lon="0.56881">
        <ele>109.40000152588</ele>
        <time>2021-07-17T08:04:46.000Z</time>
      </trkpt>
      <trkpt lat="47.56862" lon="0.56942">
        <ele>108.59999847412</ele>
        <time>2021-07-17T08:04:58.000Z</time>
      </trkpt>
      <trkpt lat="47.56867" lon="0.56948">
        <ele>108.59999847412</ele>
        <time>2021-07-17T08:04:59.000Z</time>
      </trkpt>
      <trkpt lat="47.56872" lon="0.56958">
        <ele>108.19999694824</ele>
        <time>2021-07-17T08:05:01.000Z</time>
      </trkpt>
      <trkpt lat="47.56892" lon="0.5699">
        <ele>109.19999694824</ele>
        <time>2021-07-17T08:05:08.000Z</time>
      </trkpt>
      <trkpt lat="47.5693" lon="0.57047">
        <ele>109</ele>
        <time>2021-07-17T08:05:18.000Z</time>
      </trkpt>
      <trkpt lat="47.56971" lon="0.57084">
        <ele>108.19999694824</ele>
        <time>2021-07-17T08:05:26.000Z</time>
      </trkpt>
      <trkpt lat="47.56977" lon="0.57087">
        <ele>107</ele>
        <time>2021-07-17T08:05:27.000Z</time>
      </trkpt>
      <trkpt lat="47.56991" lon="0.57091">
        <ele>106.80000305176</ele>
        <time>2021-07-17T08:05:29.000Z</time>
      </trkpt>
      <trkpt lat="47.5704" lon="0.57108">
        <ele>108.19999694824</ele>
        <time>2021-07-17T08:05:36.000Z</time>
      </trkpt>
      <trkpt lat="47.57095" lon="0.57146">
        <ele>109</ele>
        <time>2021-07-17T08:05:45.000Z</time>
      </trkpt>
      <trkpt lat="47.57145" lon="0.57185">
        <ele>108.40000152588</ele>
        <time>2021-07-17T08:05:54.000Z</time>
      </trkpt>
      <trkpt lat="47.57198" lon="0.57222">
        <ele>109.19999694824</ele>
        <time>2021-07-17T08:06:04.000Z</time>
      </trkpt>
      <trkpt lat="47.57203" lon="0.57225">
        <ele>109.19999694824</ele>
        <time>2021-07-17T08:06:05.000Z</time>
      </trkpt>
      <trkpt lat="47.57254" lon="0.57261">
        <ele>110.19999694824</ele>
        <time>2021-07-17T08:06:15.000Z</time>
      </trkpt>
      <trkpt lat="47.57303" lon="0.57295">
        <ele>110.19999694824</ele>
        <time>2021-07-17T08:06:25.000Z</time>
      </trkpt>
      <trkpt lat="47.57355" lon="0.5733">
        <ele>110.59999847412</ele>
        <time>2021-07-17T08:06:36.000Z</time>
      </trkpt>
      <trkpt lat="47.57359" lon="0.57333">
        <ele>110.80000305176</ele>
        <time>2021-07-17T08:06:37.000Z</time>
      </trkpt>
      <trkpt lat="47.57368" lon="0.57339">
        <ele>111</ele>
        <time>2021-07-17T08:06:39.000Z</time>
      </trkpt>
      <trkpt lat="47.57409" lon="0.57367">
        <ele>111.59999847412</ele>
        <time>2021-07-17T08:06:48.000Z</time>
      </trkpt>
      <trkpt lat="47.57461" lon="0.57402">
        <ele>112.19999694824</ele>
        <time>2021-07-17T08:06:59.000Z</time>
      </trkpt>
      <trkpt lat="47.57511" lon="0.57436">
        <ele>111.59999847412</ele>
        <time>2021-07-17T08:07:09.000Z</time>
      </trkpt>
      <trkpt lat="47.57562" lon="0.57471">
        <ele>111.19999694824</ele>
        <time>2021-07-17T08:07:19.000Z</time>
      </trkpt>
      <trkpt lat="47.57614" lon="0.57502">
        <ele>112.19999694824</ele>
        <time>2021-07-17T08:07:29.000Z</time>
      </trkpt>
      <trkpt lat="47.57667" lon="0.57522">
        <ele>111.80000305176</ele>
        <time>2021-07-17T08:07:39.000Z</time>
      </trkpt>
      <trkpt lat="47.57688" lon="0.57529">
        <ele>112.80000305176</ele>
        <time>2021-07-17T08:07:43.000Z</time>
      </trkpt>
      <trkpt lat="47.57703" lon="0.57535">
        <ele>114.19999694824</ele>
        <time>2021-07-17T08:07:46.000Z</time>
      </trkpt>
      <trkpt lat="47.57719" lon="0.57542">
        <ele>115.19999694824</ele>
        <time>2021-07-17T08:07:49.000Z</time>
      </trkpt>
      <trkpt lat="47.57773" lon="0.57572">
        <ele>115.59999847412</ele>
        <time>2021-07-17T08:08:00.000Z</time>
      </trkpt>
      <trkpt lat="47.57823" lon="0.57609">
        <ele>115.19999694824</ele>
        <time>2021-07-17T08:08:10.000Z</time>
      </trkpt>
      <trkpt lat="47.57859" lon="0.57637">
        <ele>114.19999694824</ele>
        <time>2021-07-17T08:08:17.000Z</time>
      </trkpt>
      <trkpt lat="47.57902" lon="0.57672">
        <ele>112.80000305176</ele>
        <time>2021-07-17T08:08:25.000Z</time>
      </trkpt>
      <trkpt lat="47.57913" lon="0.57682">
        <ele>111.59999847412</ele>
        <time>2021-07-17T08:08:27.000Z</time>
      </trkpt>
      <trkpt lat="47.57919" lon="0.57688">
        <ele>110.40000152588</ele>
        <time>2021-07-17T08:08:28.000Z</time>
      </trkpt>
      <trkpt lat="47.57948" lon="0.57713">
        <ele>109.40000152588</ele>
        <time>2021-07-17T08:08:33.000Z</time>
      </trkpt>
      <trkpt lat="47.57994" lon="0.57755">
        <ele>109.80000305176</ele>
        <time>2021-07-17T08:08:42.000Z</time>
      </trkpt>
      <trkpt lat="47.58008" lon="0.57768">
        <ele>110.40000152588</ele>
        <time>2021-07-17T08:08:45.000Z</time>
      </trkpt>
      <trkpt lat="47.58025" lon="0.57784">
        <ele>111.19999694824</ele>
        <time>2021-07-17T08:08:49.000Z</time>
      </trkpt>
      <trkpt lat="47.58033" lon="0.57793">
        <ele>111.59999847412</ele>
        <time>2021-07-17T08:08:51.000Z</time>
      </trkpt>
      <trkpt lat="47.58087" lon="0.5783">
        <ele>110.59999847412</ele>
        <time>2021-07-17T08:09:02.000Z</time>
      </trkpt>
      <trkpt lat="47.5813" lon="0.57854">
        <ele>110.19999694824</ele>
        <time>2021-07-17T08:09:10.000Z</time>
      </trkpt>
      <trkpt lat="47.58172" lon="0.57877">
        <ele>109.59999847412</ele>
        <time>2021-07-17T08:09:18.000Z</time>
      </trkpt>
      <trkpt lat="47.58182" lon="0.57883">
        <ele>109.59999847412</ele>
        <time>2021-07-17T08:09:20.000Z</time>
      </trkpt>
      <trkpt lat="47.58192" lon="0.57889">
        <ele>108.80000305176</ele>
        <time>2021-07-17T08:09:22.000Z</time>
      </trkpt>
      <trkpt lat="47.58219" lon="0.57904">
        <ele>107.59999847412</ele>
        <time>2021-07-17T08:09:27.000Z</time>
      </trkpt>
      <trkpt lat="47.58236" lon="0.57914">
        <ele>106.59999847412</ele>
        <time>2021-07-17T08:09:30.000Z</time>
      </trkpt>
      <trkpt lat="47.58254" lon="0.57924">
        <ele>105.40000152588</ele>
        <time>2021-07-17T08:09:33.000Z</time>
      </trkpt>
      <trkpt lat="47.58274" lon="0.57935">
        <ele>104</ele>
        <time>2021-07-17T08:09:36.000Z</time>
      </trkpt>
      <trkpt lat="47.58287" lon="0.57943">
        <ele>102.80000305176</ele>
        <time>2021-07-17T08:09:38.000Z</time>
      </trkpt>
      <trkpt lat="47.58328" lon="0.57965">
        <ele>101.80000305176</ele>
        <time>2021-07-17T08:09:44.000Z</time>
      </trkpt>
      <trkpt lat="47.58379" lon="0.57995">
        <ele>100.80000305176</ele>
        <time>2021-07-17T08:09:52.000Z</time>
      </trkpt>
      <trkpt lat="47.58385" lon="0.57998">
        <ele>100.59999847412</ele>
        <time>2021-07-17T08:09:53.000Z</time>
      </trkpt>
      <trkpt lat="47.58414" lon="0.58015">
        <ele>99.599998474121</ele>
        <time>2021-07-17T08:09:58.000Z</time>
      </trkpt>
      <trkpt lat="47.58459" lon="0.5804">
        <ele>102</ele>
        <time>2021-07-17T08:10:06.000Z</time>
      </trkpt>
      <trkpt lat="47.58513" lon="0.5807">
        <ele>101.40000152588</ele>
        <time>2021-07-17T08:10:15.000Z</time>
      </trkpt>
      <trkpt lat="47.5852" lon="0.58074">
        <ele>100.80000305176</ele>
        <time>2021-07-17T08:10:16.000Z</time>
      </trkpt>
      <trkpt lat="47.58531" lon="0.5808">
        <ele>99.400001525879</ele>
        <time>2021-07-17T08:10:18.000Z</time>
      </trkpt>
      <trkpt lat="47.58584" lon="0.58096">
        <ele>98.199996948242</ele>
        <time>2021-07-17T08:10:26.000Z</time>
      </trkpt>
      <trkpt lat="47.58636" lon="0.58107">
        <ele>97</ele>
        <time>2021-07-17T08:10:33.000Z</time>
      </trkpt>
      <trkpt lat="47.58676" lon="0.58115">
        <ele>95.800003051758</ele>
        <time>2021-07-17T08:10:38.000Z</time>
      </trkpt>
      <trkpt lat="47.58729" lon="0.58127">
        <ele>95.599998474121</ele>
        <time>2021-07-17T08:10:45.000Z</time>
      </trkpt>
      <trkpt lat="47.58743" lon="0.5813">
        <ele>94.599998474121</ele>
        <time>2021-07-17T08:10:47.000Z</time>
      </trkpt>
      <trkpt lat="47.58799" lon="0.58142">
        <ele>93.599998474121</ele>
        <time>2021-07-17T08:10:56.000Z</time>
      </trkpt>
      <trkpt lat="47.58846" lon="0.58153">
        <ele>92.199996948242</ele>
        <time>2021-07-17T08:11:03.000Z</time>
      </trkpt>
      <trkpt lat="47.58876" lon="0.58159">
        <ele>89</ele>
        <time>2021-07-17T08:11:07.000Z</time>
      </trkpt>
      <trkpt lat="47.58883" lon="0.58161">
        <ele>87.400001525879</ele>
        <time>2021-07-17T08:11:08.000Z</time>
      </trkpt>
      <trkpt lat="47.58922" lon="0.58169">
        <ele>85.400001525879</ele>
        <time>2021-07-17T08:11:13.000Z</time>
      </trkpt>
      <trkpt lat="47.58946" lon="0.58174">
        <ele>84.199996948242</ele>
        <time>2021-07-17T08:11:16.000Z</time>
      </trkpt>
      <trkpt lat="47.58971" lon="0.58179">
        <ele>83</ele>
        <time>2021-07-17T08:11:19.000Z</time>
      </trkpt>
      <trkpt lat="47.58997" lon="0.58186">
        <ele>82</ele>
        <time>2021-07-17T08:11:22.000Z</time>
      </trkpt>
      <trkpt lat="47.59023" lon="0.58194">
        <ele>81</ele>
        <time>2021-07-17T08:11:25.000Z</time>
      </trkpt>
      <trkpt lat="47.59045" lon="0.58215">
        <ele>81</ele>
        <time>2021-07-17T08:11:28.000Z</time>
      </trkpt>
      <trkpt lat="47.5905" lon="0.58223">
        <ele>80.800003051758</ele>
        <time>2021-07-17T08:11:29.000Z</time>
      </trkpt>
      <trkpt lat="47.59081" lon="0.58272">
        <ele>82</ele>
        <time>2021-07-17T08:11:35.000Z</time>
      </trkpt>
      <trkpt lat="47.59098" lon="0.58297">
        <ele>83.199996948242</ele>
        <time>2021-07-17T08:11:39.000Z</time>
      </trkpt>
      <trkpt lat="47.59109" lon="0.58314">
        <ele>84.599998474121</ele>
        <time>2021-07-17T08:11:42.000Z</time>
      </trkpt>
      <trkpt lat="47.59115" lon="0.58324">
        <ele>85.800003051758</ele>
        <time>2021-07-17T08:11:44.000Z</time>
      </trkpt>
      <trkpt lat="47.59133" lon="0.5835">
        <ele>87.199996948242</ele>
        <time>2021-07-17T08:11:49.000Z</time>
      </trkpt>
      <trkpt lat="47.59151" lon="0.58376">
        <ele>88.199996948242</ele>
        <time>2021-07-17T08:11:54.000Z</time>
      </trkpt>
      <trkpt lat="47.5916" lon="0.5839">
        <ele>89.400001525879</ele>
        <time>2021-07-17T08:11:57.000Z</time>
      </trkpt>
      <trkpt lat="47.59168" lon="0.58403">
        <ele>91.199996948242</ele>
        <time>2021-07-17T08:12:00.000Z</time>
      </trkpt>
      <trkpt lat="47.59185" lon="0.58426">
        <ele>92.400001525879</ele>
        <time>2021-07-17T08:12:06.000Z</time>
      </trkpt>
      <trkpt lat="47.59201" lon="0.58455">
        <ele>93.400001525879</ele>
        <time>2021-07-17T08:12:13.000Z</time>
      </trkpt>
      <trkpt lat="47.59215" lon="0.58477">
        <ele>94.400001525879</ele>
        <time>2021-07-17T08:12:19.000Z</time>
      </trkpt>
      <trkpt lat="47.59235" lon="0.58505">
        <ele>95.400001525879</ele>
        <time>2021-07-17T08:12:27.000Z</time>
      </trkpt>
      <trkpt lat="47.59241" lon="0.58517">
        <ele>96.400001525879</ele>
        <time>2021-07-17T08:12:30.000Z</time>
      </trkpt>
      <trkpt lat="47.59271" lon="0.58562">
        <ele>97.599998474121</ele>
        <time>2021-07-17T08:12:41.000Z</time>
      </trkpt>
      <trkpt lat="47.59285" lon="0.58583">
        <ele>98.599998474121</ele>
        <time>2021-07-17T08:12:46.000Z</time>
      </trkpt>
      <trkpt lat="47.59324" lon="0.5864">
        <ele>99.599998474121</ele>
        <time>2021-07-17T08:12:59.000Z</time>
      </trkpt>
      <trkpt lat="47.5933" lon="0.5865">
        <ele>99.599998474121</ele>
        <time>2021-07-17T08:13:01.000Z</time>
      </trkpt>
      <trkpt lat="47.5937" lon="0.5871">
        <ele>100.19999694824</ele>
        <time>2021-07-17T08:13:14.000Z</time>
      </trkpt>
      <trkpt lat="47.59377" lon="0.5872">
        <ele>97.400001525879</ele>
        <time>2021-07-17T08:13:16.000Z</time>
      </trkpt>
      <trkpt lat="47.59415" lon="0.58777">
        <ele>96.800003051758</ele>
        <time>2021-07-17T08:13:27.000Z</time>
      </trkpt>
      <trkpt lat="47.59422" lon="0.58787">
        <ele>96.400001525879</ele>
        <time>2021-07-17T08:13:29.000Z</time>
      </trkpt>
      <trkpt lat="47.5946" lon="0.58844">
        <ele>97.199996948242</ele>
        <time>2021-07-17T08:13:40.000Z</time>
      </trkpt>
      <trkpt lat="47.59484" lon="0.58881">
        <ele>97.800003051758</ele>
        <time>2021-07-17T08:13:47.000Z</time>
      </trkpt>
      <trkpt lat="47.59524" lon="0.58941">
        <ele>97.800003051758</ele>
        <time>2021-07-17T08:13:58.000Z</time>
      </trkpt>
      <trkpt lat="47.59562" lon="0.58998">
        <ele>97.599998474121</ele>
        <time>2021-07-17T08:14:08.000Z</time>
      </trkpt>
      <trkpt lat="47.59601" lon="0.59055">
        <ele>97</ele>
        <time>2021-07-17T08:14:17.000Z</time>
      </trkpt>
      <trkpt lat="47.59615" lon="0.59076">
        <ele>96.599998474121</ele>
        <time>2021-07-17T08:14:20.000Z</time>
      </trkpt>
      <trkpt lat="47.59634" lon="0.59104">
        <ele>95.599998474121</ele>
        <time>2021-07-17T08:14:24.000Z</time>
      </trkpt>
      <trkpt lat="47.59662" lon="0.59146">
        <ele>94.400001525879</ele>
        <time>2021-07-17T08:14:30.000Z</time>
      </trkpt>
      <trkpt lat="47.59691" lon="0.59191">
        <ele>93</ele>
        <time>2021-07-17T08:14:36.000Z</time>
      </trkpt>
      <trkpt lat="47.59733" lon="0.59254">
        <ele>92.199996948242</ele>
        <time>2021-07-17T08:14:45.000Z</time>
      </trkpt>
      <trkpt lat="47.59773" lon="0.59315">
        <ele>93.400001525879</ele>
        <time>2021-07-17T08:14:56.000Z</time>
      </trkpt>
      <trkpt lat="47.59779" lon="0.59325">
        <ele>94.199996948242</ele>
        <time>2021-07-17T08:14:58.000Z</time>
      </trkpt>
      <trkpt lat="47.59794" lon="0.59348">
        <ele>95.199996948242</ele>
        <time>2021-07-17T08:15:03.000Z</time>
      </trkpt>
      <trkpt lat="47.59812" lon="0.59374">
        <ele>96.400001525879</ele>
        <time>2021-07-17T08:15:09.000Z</time>
      </trkpt>
      <trkpt lat="47.59821" lon="0.59387">
        <ele>98.199996948242</ele>
        <time>2021-07-17T08:15:12.000Z</time>
      </trkpt>
      <trkpt lat="47.5983" lon="0.59401">
        <ele>99.400001525879</ele>
        <time>2021-07-17T08:15:15.000Z</time>
      </trkpt>
      <trkpt lat="47.59857" lon="0.59441">
        <ele>100.80000305176</ele>
        <time>2021-07-17T08:15:23.000Z</time>
      </trkpt>
      <trkpt lat="47.59897" lon="0.59502">
        <ele>101.80000305176</ele>
        <time>2021-07-17T08:15:35.000Z</time>
      </trkpt>
      <trkpt lat="47.59907" lon="0.59517">
        <ele>101.80000305176</ele>
        <time>2021-07-17T08:15:38.000Z</time>
      </trkpt>
      <trkpt lat="47.59947" lon="0.59575">
        <ele>102</ele>
        <time>2021-07-17T08:15:49.000Z</time>
      </trkpt>
      <trkpt lat="47.59973" lon="0.59615">
        <ele>100.80000305176</ele>
        <time>2021-07-17T08:15:55.000Z</time>
      </trkpt>
      <trkpt lat="47.5999" lon="0.59639">
        <ele>99.599998474121</ele>
        <time>2021-07-17T08:15:59.000Z</time>
      </trkpt>
      <trkpt lat="47.6" lon="0.59655">
        <ele>98.400001525879</ele>
        <time>2021-07-17T08:16:04.000Z</time>
      </trkpt>
      <trkpt lat="47.60055" lon="0.59651">
        <ele>98.400001525879</ele>
        <time>2021-07-17T08:16:16.000Z</time>
      </trkpt>
      <trkpt lat="47.60096" lon="0.59629">
        <ele>99.400001525879</ele>
        <time>2021-07-17T08:16:25.000Z</time>
      </trkpt>
      <trkpt lat="47.60116" lon="0.59617">
        <ele>100.59999847412</ele>
        <time>2021-07-17T08:16:30.000Z</time>
      </trkpt>
      <trkpt lat="47.60169" lon="0.59583">
        <ele>100.40000152588</ele>
        <time>2021-07-17T08:16:42.000Z</time>
      </trkpt>
      <trkpt lat="47.60186" lon="0.59578">
        <ele>100.19999694824</ele>
        <time>2021-07-17T08:16:45.000Z</time>
      </trkpt>
      <trkpt lat="47.60224" lon="0.59578">
        <ele>101.59999847412</ele>
        <time>2021-07-17T08:16:53.000Z</time>
      </trkpt>
      <trkpt lat="47.6024" lon="0.5958">
        <ele>102.80000305176</ele>
        <time>2021-07-17T08:16:57.000Z</time>
      </trkpt>
      <trkpt lat="47.60255" lon="0.59579">
        <ele>103.80000305176</ele>
        <time>2021-07-17T08:17:01.000Z</time>
      </trkpt>
      <trkpt lat="47.60267" lon="0.59581">
        <ele>104.80000305176</ele>
        <time>2021-07-17T08:17:06.000Z</time>
      </trkpt>
      <trkpt lat="47.60268" lon="0.59585">
        <ele>105</ele>
        <time>2021-07-17T08:17:07.000Z</time>
      </trkpt>
      <trkpt lat="47.60268" lon="0.5963">
        <ele>106.59999847412</ele>
        <time>2021-07-17T08:17:15.000Z</time>
      </trkpt>
      <trkpt lat="47.60262" lon="0.59704">
        <ele>107.59999847412</ele>
        <time>2021-07-17T08:17:26.000Z</time>
      </trkpt>
      <trkpt lat="47.60253" lon="0.59757">
        <ele>107.59999847412</ele>
        <time>2021-07-17T08:17:34.000Z</time>
      </trkpt>
      <trkpt lat="47.60249" lon="0.59769">
        <ele>108</ele>
        <time>2021-07-17T08:17:36.000Z</time>
      </trkpt>
      <trkpt lat="47.60246" lon="0.59781">
        <ele>108.59999847412</ele>
        <time>2021-07-17T08:17:38.000Z</time>
      </trkpt>
      <trkpt lat="47.60243" lon="0.59794">
        <ele>108.59999847412</ele>
        <time>2021-07-17T08:17:40.000Z</time>
      </trkpt>
      <trkpt lat="47.60236" lon="0.59818">
        <ele>109</ele>
        <time>2021-07-17T08:17:44.000Z</time>
      </trkpt>
      <trkpt lat="47.60223" lon="0.59859">
        <ele>109.80000305176</ele>
        <time>2021-07-17T08:17:51.000Z</time>
      </trkpt>
      <trkpt lat="47.60221" lon="0.59865">
        <ele>110</ele>
        <time>2021-07-17T08:17:52.000Z</time>
      </trkpt>
      <trkpt lat="47.60214" lon="0.5991">
        <ele>108.80000305176</ele>
        <time>2021-07-17T08:17:59.000Z</time>
      </trkpt>
      <trkpt lat="47.60218" lon="0.5992">
        <ele>109.40000152588</ele>
        <time>2021-07-17T08:18:01.000Z</time>
      </trkpt>
      <trkpt lat="47.60227" lon="0.59924">
        <ele>110</ele>
        <time>2021-07-17T08:18:03.000Z</time>
      </trkpt>
      <trkpt lat="47.60236" lon="0.59925">
        <ele>110.59999847412</ele>
        <time>2021-07-17T08:18:05.000Z</time>
      </trkpt>
      <trkpt lat="47.60245" lon="0.59928">
        <ele>111.40000152588</ele>
        <time>2021-07-17T08:18:07.000Z</time>
      </trkpt>
      <trkpt lat="47.60277" lon="0.59947">
        <ele>112.40000152588</ele>
        <time>2021-07-17T08:18:14.000Z</time>
      </trkpt>
      <trkpt lat="47.60304" lon="0.59972">
        <ele>113.59999847412</ele>
        <time>2021-07-17T08:18:21.000Z</time>
      </trkpt>
      <trkpt lat="47.60355" lon="0.60002">
        <ele>113.80000305176</ele>
        <time>2021-07-17T08:18:32.000Z</time>
      </trkpt>
      <trkpt lat="47.60385" lon="0.60012">
        <ele>115</ele>
        <time>2021-07-17T08:18:38.000Z</time>
      </trkpt>
      <trkpt lat="47.6043" lon="0.60024">
        <ele>113.40000152588</ele>
        <time>2021-07-17T08:18:46.000Z</time>
      </trkpt>
      <trkpt lat="47.60464" lon="0.60032">
        <ele>112</ele>
        <time>2021-07-17T08:18:51.000Z</time>
      </trkpt>
      <trkpt lat="47.6048" lon="0.60035">
        <ele>110.80000305176</ele>
        <time>2021-07-17T08:18:53.000Z</time>
      </trkpt>
      <trkpt lat="47.60504" lon="0.60041">
        <ele>109.59999847412</ele>
        <time>2021-07-17T08:18:56.000Z</time>
      </trkpt>
      <trkpt lat="47.6053" lon="0.60047">
        <ele>108</ele>
        <time>2021-07-17T08:18:59.000Z</time>
      </trkpt>
      <trkpt lat="47.60547" lon="0.60051">
        <ele>106.40000152588</ele>
        <time>2021-07-17T08:19:01.000Z</time>
      </trkpt>
      <trkpt lat="47.60555" lon="0.60053">
        <ele>105.40000152588</ele>
        <time>2021-07-17T08:19:02.000Z</time>
      </trkpt>
      <trkpt lat="47.60562" lon="0.60054">
        <ele>104.19999694824</ele>
        <time>2021-07-17T08:19:03.000Z</time>
      </trkpt>
      <trkpt lat="47.60569" lon="0.60055">
        <ele>103.19999694824</ele>
        <time>2021-07-17T08:19:04.000Z</time>
      </trkpt>
      <trkpt lat="47.60574" lon="0.60057">
        <ele>102.59999847412</ele>
        <time>2021-07-17T08:19:05.000Z</time>
      </trkpt>
      <trkpt lat="47.60581" lon="0.60066">
        <ele>103.19999694824</ele>
        <time>2021-07-17T08:19:07.000Z</time>
      </trkpt>
      <trkpt lat="47.60584" lon="0.60081">
        <ele>104.40000152588</ele>
        <time>2021-07-17T08:19:09.000Z</time>
      </trkpt>
      <trkpt lat="47.60592" lon="0.60167">
        <ele>103.80000305176</ele>
        <time>2021-07-17T08:19:20.000Z</time>
      </trkpt>
      <trkpt lat="47.60595" lon="0.60191">
        <ele>102</ele>
        <time>2021-07-17T08:19:23.000Z</time>
      </trkpt>
      <trkpt lat="47.60614" lon="0.60267">
        <ele>101.40000152588</ele>
        <time>2021-07-17T08:19:33.000Z</time>
      </trkpt>
      <trkpt lat="47.60623" lon="0.60296">
        <ele>101</ele>
        <time>2021-07-17T08:19:37.000Z</time>
      </trkpt>
      <trkpt lat="47.60647" lon="0.60376">
        <ele>101.40000152588</ele>
        <time>2021-07-17T08:19:48.000Z</time>
      </trkpt>
      <trkpt lat="47.60669" lon="0.6045">
        <ele>101.59999847412</ele>
        <time>2021-07-17T08:19:58.000Z</time>
      </trkpt>
      <trkpt lat="47.60691" lon="0.60523">
        <ele>100.40000152588</ele>
        <time>2021-07-17T08:20:08.000Z</time>
      </trkpt>
      <trkpt lat="47.607" lon="0.60552">
        <ele>103.19999694824</ele>
        <time>2021-07-17T08:20:12.000Z</time>
      </trkpt>
      <trkpt lat="47.60702" lon="0.60559">
        <ele>104.19999694824</ele>
        <time>2021-07-17T08:20:13.000Z</time>
      </trkpt>
      <trkpt lat="47.6072" lon="0.60619">
        <ele>105.40000152588</ele>
        <time>2021-07-17T08:20:22.000Z</time>
      </trkpt>
      <trkpt lat="47.60743" lon="0.60693">
        <ele>106.19999694824</ele>
        <time>2021-07-17T08:20:35.000Z</time>
      </trkpt>
      <trkpt lat="47.60744" lon="0.60699">
        <ele>106.40000152588</ele>
        <time>2021-07-17T08:20:36.000Z</time>
      </trkpt>
      <trkpt lat="47.60765" lon="0.60767">
        <ele>107.40000152588</ele>
        <time>2021-07-17T08:20:49.000Z</time>
      </trkpt>
      <trkpt lat="47.60776" lon="0.60804">
        <ele>108.40000152588</ele>
        <time>2021-07-17T08:20:56.000Z</time>
      </trkpt>
      <trkpt lat="47.6079" lon="0.60851">
        <ele>109.59999847412</ele>
        <time>2021-07-17T08:21:05.000Z</time>
      </trkpt>
      <trkpt lat="47.60806" lon="0.60905">
        <ele>110.80000305176</ele>
        <time>2021-07-17T08:21:15.000Z</time>
      </trkpt>
      <trkpt lat="47.60824" lon="0.60986">
        <ele>111.40000152588</ele>
        <time>2021-07-17T08:21:29.000Z</time>
      </trkpt>
      <trkpt lat="47.60834" lon="0.61049">
        <ele>111.80000305176</ele>
        <time>2021-07-17T08:21:39.000Z</time>
      </trkpt>
      <trkpt lat="47.60847" lon="0.61128">
        <ele>111.40000152588</ele>
        <time>2021-07-17T08:21:51.000Z</time>
      </trkpt>
      <trkpt lat="47.6086" lon="0.61211">
        <ele>111.40000152588</ele>
        <time>2021-07-17T08:22:03.000Z</time>
      </trkpt>
      <trkpt lat="47.60874" lon="0.61293">
        <ele>110.59999847412</ele>
        <time>2021-07-17T08:22:15.000Z</time>
      </trkpt>
      <trkpt lat="47.60875" lon="0.613">
        <ele>109.19999694824</ele>
        <time>2021-07-17T08:22:16.000Z</time>
      </trkpt>
      <trkpt lat="47.60889" lon="0.61385">
        <ele>110</ele>
        <time>2021-07-17T08:22:28.000Z</time>
      </trkpt>
      <trkpt lat="47.60899" lon="0.61443">
        <ele>110.19999694824</ele>
        <time>2021-07-17T08:22:36.000Z</time>
      </trkpt>
      <trkpt lat="47.60906" lon="0.61487">
        <ele>111.40000152588</ele>
        <time>2021-07-17T08:22:42.000Z</time>
      </trkpt>
      <trkpt lat="47.60919" lon="0.61567">
        <ele>111.80000305176</ele>
        <time>2021-07-17T08:22:53.000Z</time>
      </trkpt>
      <trkpt lat="47.60923" lon="0.61589">
        <ele>112.40000152588</ele>
        <time>2021-07-17T08:22:56.000Z</time>
      </trkpt>
      <trkpt lat="47.60936" lon="0.61669">
        <ele>113.19999694824</ele>
        <time>2021-07-17T08:23:07.000Z</time>
      </trkpt>
      <trkpt lat="47.60937" lon="0.61676">
        <ele>113.40000152588</ele>
        <time>2021-07-17T08:23:08.000Z</time>
      </trkpt>
      <trkpt lat="47.60944" lon="0.61718">
        <ele>112.40000152588</ele>
        <time>2021-07-17T08:23:14.000Z</time>
      </trkpt>
      <trkpt lat="47.60947" lon="0.61737">
        <ele>113.59999847412</ele>
        <time>2021-07-17T08:23:17.000Z</time>
      </trkpt>
      <trkpt lat="47.6095" lon="0.6175">
        <ele>114.59999847412</ele>
        <time>2021-07-17T08:23:19.000Z</time>
      </trkpt>
      <trkpt lat="47.60956" lon="0.6179">
        <ele>115.59999847412</ele>
        <time>2021-07-17T08:23:25.000Z</time>
      </trkpt>
      <trkpt lat="47.60959" lon="0.61808">
        <ele>115.59999847412</ele>
        <time>2021-07-17T08:23:28.000Z</time>
      </trkpt>
      <trkpt lat="47.60964" lon="0.61837">
        <ele>115.80000305176</ele>
        <time>2021-07-17T08:23:33.000Z</time>
      </trkpt>
      <trkpt lat="47.60972" lon="0.61896">
        <ele>116.80000305176</ele>
        <time>2021-07-17T08:23:43.000Z</time>
      </trkpt>
      <trkpt lat="47.60978" lon="0.61923">
        <ele>118</ele>
        <time>2021-07-17T08:23:48.000Z</time>
      </trkpt>
      <trkpt lat="47.6099" lon="0.62001">
        <ele>118.19999694824</ele>
        <time>2021-07-17T08:24:01.000Z</time>
      </trkpt>
      <trkpt lat="47.60998" lon="0.62085">
        <ele>118.19999694824</ele>
        <time>2021-07-17T08:24:14.000Z</time>
      </trkpt>
      <trkpt lat="47.61002" lon="0.62168">
        <ele>117.19999694824</ele>
        <time>2021-07-17T08:24:25.000Z</time>
      </trkpt>
      <trkpt lat="47.61002" lon="0.62184">
        <ele>116.80000305176</ele>
        <time>2021-07-17T08:24:27.000Z</time>
      </trkpt>
      <trkpt lat="47.61" lon="0.62259">
        <ele>118.59999847412</ele>
        <time>2021-07-17T08:24:36.000Z</time>
      </trkpt>
      <trkpt lat="47.60992" lon="0.62346">
        <ele>118.19999694824</ele>
        <time>2021-07-17T08:24:46.000Z</time>
      </trkpt>
      <trkpt lat="47.6099" lon="0.62371">
        <ele>117.40000152588</ele>
        <time>2021-07-17T08:24:49.000Z</time>
      </trkpt>
      <trkpt lat="47.60982" lon="0.62458">
        <ele>119.19999694824</ele>
        <time>2021-07-17T08:24:59.000Z</time>
      </trkpt>
      <trkpt lat="47.60981" lon="0.62524">
        <ele>118.19999694824</ele>
        <time>2021-07-17T08:25:06.000Z</time>
      </trkpt>
      <trkpt lat="47.60981" lon="0.62533">
        <ele>116</ele>
        <time>2021-07-17T08:25:07.000Z</time>
      </trkpt>
      <trkpt lat="47.60981" lon="0.62552">
        <ele>114.59999847412</ele>
        <time>2021-07-17T08:25:09.000Z</time>
      </trkpt>
      <trkpt lat="47.6099" lon="0.62634">
        <ele>113.40000152588</ele>
        <time>2021-07-17T08:25:18.000Z</time>
      </trkpt>
      <trkpt lat="47.61008" lon="0.62712">
        <ele>112.59999847412</ele>
        <time>2021-07-17T08:25:27.000Z</time>
      </trkpt>
      <trkpt lat="47.6101" lon="0.62721">
        <ele>112.19999694824</ele>
        <time>2021-07-17T08:25:28.000Z</time>
      </trkpt>
      <trkpt lat="47.61032" lon="0.62779">
        <ele>111.19999694824</ele>
        <time>2021-07-17T08:25:35.000Z</time>
      </trkpt>
      <trkpt lat="47.61065" lon="0.62849">
        <ele>109.19999694824</ele>
        <time>2021-07-17T08:25:44.000Z</time>
      </trkpt>
      <trkpt lat="47.61077" lon="0.62874">
        <ele>108.19999694824</ele>
        <time>2021-07-17T08:25:47.000Z</time>
      </trkpt>
      <trkpt lat="47.61081" lon="0.62883">
        <ele>109.59999847412</ele>
        <time>2021-07-17T08:25:48.000Z</time>
      </trkpt>
      <trkpt lat="47.61094" lon="0.62908">
        <ele>110.59999847412</ele>
        <time>2021-07-17T08:25:51.000Z</time>
      </trkpt>
      <trkpt lat="47.61123" lon="0.62966">
        <ele>108.59999847412</ele>
        <time>2021-07-17T08:25:58.000Z</time>
      </trkpt>
      <trkpt lat="47.6113" lon="0.62981">
        <ele>107.19999694824</ele>
        <time>2021-07-17T08:26:00.000Z</time>
      </trkpt>
      <trkpt lat="47.61154" lon="0.63028">
        <ele>106.19999694824</ele>
        <time>2021-07-17T08:26:06.000Z</time>
      </trkpt>
      <trkpt lat="47.6117" lon="0.6306">
        <ele>104.80000305176</ele>
        <time>2021-07-17T08:26:10.000Z</time>
      </trkpt>
      <trkpt lat="47.612" lon="0.63119">
        <ele>106</ele>
        <time>2021-07-17T08:26:18.000Z</time>
      </trkpt>
      <trkpt lat="47.61214" lon="0.63146">
        <ele>106</ele>
        <time>2021-07-17T08:26:22.000Z</time>
      </trkpt>
      <trkpt lat="47.61249" lon="0.63217">
        <ele>106.19999694824</ele>
        <time>2021-07-17T08:26:32.000Z</time>
      </trkpt>
      <trkpt lat="47.61274" lon="0.63267">
        <ele>107</ele>
        <time>2021-07-17T08:26:39.000Z</time>
      </trkpt>
      <trkpt lat="47.6128" lon="0.6328">
        <ele>109.59999847412</ele>
        <time>2021-07-17T08:26:41.000Z</time>
      </trkpt>
      <trkpt lat="47.613" lon="0.63321">
        <ele>110.80000305176</ele>
        <time>2021-07-17T08:26:47.000Z</time>
      </trkpt>
      <trkpt lat="47.61333" lon="0.63389">
        <ele>110.40000152588</ele>
        <time>2021-07-17T08:26:58.000Z</time>
      </trkpt>
      <trkpt lat="47.61364" lon="0.63454">
        <ele>111.19999694824</ele>
        <time>2021-07-17T08:27:09.000Z</time>
      </trkpt>
      <trkpt lat="47.61393" lon="0.63523">
        <ele>111.40000152588</ele>
        <time>2021-07-17T08:27:20.000Z</time>
      </trkpt>
      <trkpt lat="47.61407" lon="0.63563">
        <ele>111.80000305176</ele>
        <time>2021-07-17T08:27:26.000Z</time>
      </trkpt>
      <trkpt lat="47.6143" lon="0.63639">
        <ele>111.59999847412</ele>
        <time>2021-07-17T08:27:37.000Z</time>
      </trkpt>
      <trkpt lat="47.61443" lon="0.63697">
        <ele>110.80000305176</ele>
        <time>2021-07-17T08:27:45.000Z</time>
      </trkpt>
      <trkpt lat="47.61454" lon="0.63758">
        <ele>108.59999847412</ele>
        <time>2021-07-17T08:27:53.000Z</time>
      </trkpt>
      <trkpt lat="47.61455" lon="0.63766">
        <ele>107.19999694824</ele>
        <time>2021-07-17T08:27:54.000Z</time>
      </trkpt>
      <trkpt lat="47.61457" lon="0.63782">
        <ele>106.19999694824</ele>
        <time>2021-07-17T08:27:56.000Z</time>
      </trkpt>
      <trkpt lat="47.61463" lon="0.63826">
        <ele>105.19999694824</ele>
        <time>2021-07-17T08:28:01.000Z</time>
      </trkpt>
      <trkpt lat="47.61474" lon="0.63907">
        <ele>104.59999847412</ele>
        <time>2021-07-17T08:28:10.000Z</time>
      </trkpt>
      <trkpt lat="47.61476" lon="0.63927">
        <ele>103.59999847412</ele>
        <time>2021-07-17T08:28:12.000Z</time>
      </trkpt>
      <trkpt lat="47.61486" lon="0.64004">
        <ele>102.40000152588</ele>
        <time>2021-07-17T08:28:20.000Z</time>
      </trkpt>
      <trkpt lat="47.6149" lon="0.64033">
        <ele>101</ele>
        <time>2021-07-17T08:28:23.000Z</time>
      </trkpt>
      <trkpt lat="47.61501" lon="0.64121">
        <ele>100.40000152588</ele>
        <time>2021-07-17T08:28:32.000Z</time>
      </trkpt>
      <trkpt lat="47.61505" lon="0.6415">
        <ele>99.800003051758</ele>
        <time>2021-07-17T08:28:35.000Z</time>
      </trkpt>
      <trkpt lat="47.61509" lon="0.64181">
        <ele>98.199996948242</ele>
        <time>2021-07-17T08:28:38.000Z</time>
      </trkpt>
      <trkpt lat="47.61519" lon="0.6425">
        <ele>97</ele>
        <time>2021-07-17T08:28:45.000Z</time>
      </trkpt>
      <trkpt lat="47.61526" lon="0.64308">
        <ele>96</ele>
        <time>2021-07-17T08:28:51.000Z</time>
      </trkpt>
      <trkpt lat="47.61537" lon="0.6439">
        <ele>96.400001525879</ele>
        <time>2021-07-17T08:29:00.000Z</time>
      </trkpt>
      <trkpt lat="47.61548" lon="0.6447">
        <ele>95.599998474121</ele>
        <time>2021-07-17T08:29:09.000Z</time>
      </trkpt>
      <trkpt lat="47.61555" lon="0.64525">
        <ele>94.800003051758</ele>
        <time>2021-07-17T08:29:15.000Z</time>
      </trkpt>
      <trkpt lat="47.61565" lon="0.64601">
        <ele>96</ele>
        <time>2021-07-17T08:29:23.000Z</time>
      </trkpt>
      <trkpt lat="47.61566" lon="0.6461">
        <ele>94.400001525879</ele>
        <time>2021-07-17T08:29:24.000Z</time>
      </trkpt>
      <trkpt lat="47.61581" lon="0.64691">
        <ele>95</ele>
        <time>2021-07-17T08:29:34.000Z</time>
      </trkpt>
      <trkpt lat="47.6159" lon="0.64729">
        <ele>95.599998474121</ele>
        <time>2021-07-17T08:29:39.000Z</time>
      </trkpt>
      <trkpt lat="47.61611" lon="0.6481">
        <ele>95.800003051758</ele>
        <time>2021-07-17T08:29:50.000Z</time>
      </trkpt>
      <trkpt lat="47.61618" lon="0.64837">
        <ele>96.800003051758</ele>
        <time>2021-07-17T08:29:54.000Z</time>
      </trkpt>
      <trkpt lat="47.61622" lon="0.64855">
        <ele>98.199996948242</ele>
        <time>2021-07-17T08:29:57.000Z</time>
      </trkpt>
      <trkpt lat="47.61635" lon="0.6491">
        <ele>99.400001525879</ele>
        <time>2021-07-17T08:30:07.000Z</time>
      </trkpt>
      <trkpt lat="47.61637" lon="0.6492">
        <ele>100.59999847412</ele>
        <time>2021-07-17T08:30:09.000Z</time>
      </trkpt>
      <trkpt lat="47.6165" lon="0.64964">
        <ele>101.59999847412</ele>
        <time>2021-07-17T08:30:17.000Z</time>
      </trkpt>
      <trkpt lat="47.61656" lon="0.64997">
        <ele>103.19999694824</ele>
        <time>2021-07-17T08:30:23.000Z</time>
      </trkpt>
      <trkpt lat="47.61669" lon="0.65053">
        <ele>104.19999694824</ele>
        <time>2021-07-17T08:30:33.000Z</time>
      </trkpt>
      <trkpt lat="47.61686" lon="0.65131">
        <ele>103.80000305176</ele>
        <time>2021-07-17T08:30:45.000Z</time>
      </trkpt>
      <trkpt lat="47.61698" lon="0.65208">
        <ele>103.19999694824</ele>
        <time>2021-07-17T08:30:56.000Z</time>
      </trkpt>
      <trkpt lat="47.61706" lon="0.65293">
        <ele>104.40000152588</ele>
        <time>2021-07-17T08:31:08.000Z</time>
      </trkpt>
      <trkpt lat="47.61706" lon="0.65313">
        <ele>105.80000305176</ele>
        <time>2021-07-17T08:31:11.000Z</time>
      </trkpt>
      <trkpt lat="47.61707" lon="0.6532">
        <ele>107</ele>
        <time>2021-07-17T08:31:12.000Z</time>
      </trkpt>
      <trkpt lat="47.61708" lon="0.65386">
        <ele>108</ele>
        <time>2021-07-17T08:31:23.000Z</time>
      </trkpt>
      <trkpt lat="47.61709" lon="0.65403">
        <ele>109</ele>
        <time>2021-07-17T08:31:26.000Z</time>
      </trkpt>
      <trkpt lat="47.6171" lon="0.65464">
        <ele>110</ele>
        <time>2021-07-17T08:31:37.000Z</time>
      </trkpt>
      <trkpt lat="47.61712" lon="0.65514">
        <ele>111.19999694824</ele>
        <time>2021-07-17T08:31:46.000Z</time>
      </trkpt>
      <trkpt lat="47.61713" lon="0.65536">
        <ele>112.80000305176</ele>
        <time>2021-07-17T08:31:50.000Z</time>
      </trkpt>
      <trkpt lat="47.61714" lon="0.6562">
        <ele>114</ele>
        <time>2021-07-17T08:32:05.000Z</time>
      </trkpt>
      <trkpt lat="47.61717" lon="0.65693">
        <ele>115.19999694824</ele>
        <time>2021-07-17T08:32:18.000Z</time>
      </trkpt>
      <trkpt lat="47.61717" lon="0.65737">
        <ele>116.19999694824</ele>
        <time>2021-07-17T08:32:26.000Z</time>
      </trkpt>
      <trkpt lat="47.6172" lon="0.65804">
        <ele>117.19999694824</ele>
        <time>2021-07-17T08:32:38.000Z</time>
      </trkpt>
      <trkpt lat="47.61724" lon="0.65868">
        <ele>116.19999694824</ele>
        <time>2021-07-17T08:32:53.000Z</time>
      </trkpt>
      <trkpt lat="47.61726" lon="0.6588">
        <ele>116.80000305176</ele>
        <time>2021-07-17T08:32:55.000Z</time>
      </trkpt>
      <trkpt lat="47.61726" lon="0.65886">
        <ele>117.19999694824</ele>
        <time>2021-07-17T08:32:56.000Z</time>
      </trkpt>
      <trkpt lat="47.61725" lon="0.65911">
        <ele>118.59999847412</ele>
        <time>2021-07-17T08:33:00.000Z</time>
      </trkpt>
      <trkpt lat="47.61725" lon="0.65917">
        <ele>119.80000305176</ele>
        <time>2021-07-17T08:33:01.000Z</time>
      </trkpt>
      <trkpt lat="47.61724" lon="0.65962">
        <ele>121.19999694824</ele>
        <time>2021-07-17T08:33:08.000Z</time>
      </trkpt>
      <trkpt lat="47.61727" lon="0.66047">
        <ele>121.80000305176</ele>
        <time>2021-07-17T08:33:21.000Z</time>
      </trkpt>
      <trkpt lat="47.61729" lon="0.66113">
        <ele>122.59999847412</ele>
        <time>2021-07-17T08:33:31.000Z</time>
      </trkpt>
      <trkpt lat="47.61734" lon="0.66196">
        <ele>122.40000152588</ele>
        <time>2021-07-17T08:33:43.000Z</time>
      </trkpt>
      <trkpt lat="47.61744" lon="0.66252">
        <ele>121.40000152588</ele>
        <time>2021-07-17T08:33:51.000Z</time>
      </trkpt>
      <trkpt lat="47.61765" lon="0.66314">
        <ele>120.19999694824</ele>
        <time>2021-07-17T08:33:59.000Z</time>
      </trkpt>
      <trkpt lat="47.61776" lon="0.66337">
        <ele>119.19999694824</ele>
        <time>2021-07-17T08:34:02.000Z</time>
      </trkpt>
      <trkpt lat="47.61794" lon="0.66366">
        <ele>118.19999694824</ele>
        <time>2021-07-17T08:34:06.000Z</time>
      </trkpt>
      <trkpt lat="47.61825" lon="0.66408">
        <ele>116.80000305176</ele>
        <time>2021-07-17T08:34:12.000Z</time>
      </trkpt>
      <trkpt lat="47.61863" lon="0.6645">
        <ele>115.80000305176</ele>
        <time>2021-07-17T08:34:19.000Z</time>
      </trkpt>
      <trkpt lat="47.61885" lon="0.66471">
        <ele>114.40000152588</ele>
        <time>2021-07-17T08:34:23.000Z</time>
      </trkpt>
      <trkpt lat="47.61896" lon="0.66481">
        <ele>113.40000152588</ele>
        <time>2021-07-17T08:34:25.000Z</time>
      </trkpt>
      <trkpt lat="47.61919" lon="0.665">
        <ele>112.40000152588</ele>
        <time>2021-07-17T08:34:29.000Z</time>
      </trkpt>
      <trkpt lat="47.61952" lon="0.66523">
        <ele>109.19999694824</ele>
        <time>2021-07-17T08:34:34.000Z</time>
      </trkpt>
      <trkpt lat="47.61966" lon="0.66531">
        <ele>111</ele>
        <time>2021-07-17T08:34:36.000Z</time>
      </trkpt>
      <trkpt lat="47.61993" lon="0.66548">
        <ele>109.80000305176</ele>
        <time>2021-07-17T08:34:40.000Z</time>
      </trkpt>
      <trkpt lat="47.62001" lon="0.66552">
        <ele>108.80000305176</ele>
        <time>2021-07-17T08:34:41.000Z</time>
      </trkpt>
      <trkpt lat="47.62023" lon="0.66563">
        <ele>107.59999847412</ele>
        <time>2021-07-17T08:34:44.000Z</time>
      </trkpt>
      <trkpt lat="47.62038" lon="0.6657">
        <ele>106</ele>
        <time>2021-07-17T08:34:46.000Z</time>
      </trkpt>
      <trkpt lat="47.6207" lon="0.66581">
        <ele>105</ele>
        <time>2021-07-17T08:34:50.000Z</time>
      </trkpt>
      <trkpt lat="47.62094" lon="0.66588">
        <ele>103.19999694824</ele>
        <time>2021-07-17T08:34:53.000Z</time>
      </trkpt>
      <trkpt lat="47.62145" lon="0.66607">
        <ele>102</ele>
        <time>2021-07-17T08:34:59.000Z</time>
      </trkpt>
      <trkpt lat="47.6217" lon="0.66619">
        <ele>100.80000305176</ele>
        <time>2021-07-17T08:35:02.000Z</time>
      </trkpt>
      <trkpt lat="47.62195" lon="0.66634">
        <ele>99.599998474121</ele>
        <time>2021-07-17T08:35:05.000Z</time>
      </trkpt>
      <trkpt lat="47.6221" lon="0.66646">
        <ele>98</ele>
        <time>2021-07-17T08:35:07.000Z</time>
      </trkpt>
      <trkpt lat="47.62225" lon="0.66659">
        <ele>97</ele>
        <time>2021-07-17T08:35:09.000Z</time>
      </trkpt>
      <trkpt lat="47.62245" lon="0.66681">
        <ele>95.800003051758</ele>
        <time>2021-07-17T08:35:12.000Z</time>
      </trkpt>
      <trkpt lat="47.62257" lon="0.66696">
        <ele>94.400001525879</ele>
        <time>2021-07-17T08:35:14.000Z</time>
      </trkpt>
      <trkpt lat="47.62272" lon="0.66723">
        <ele>93</ele>
        <time>2021-07-17T08:35:17.000Z</time>
      </trkpt>
      <trkpt lat="47.62277" lon="0.66733">
        <ele>89.800003051758</ele>
        <time>2021-07-17T08:35:18.000Z</time>
      </trkpt>
      <trkpt lat="47.62281" lon="0.66743">
        <ele>88.199996948242</ele>
        <time>2021-07-17T08:35:19.000Z</time>
      </trkpt>
      <trkpt lat="47.62295" lon="0.66774">
        <ele>87.199996948242</ele>
        <time>2021-07-17T08:35:22.000Z</time>
      </trkpt>
      <trkpt lat="47.62317" lon="0.66856">
        <ele>87</ele>
        <time>2021-07-17T08:35:30.000Z</time>
      </trkpt>
      <trkpt lat="47.62326" lon="0.66939">
        <ele>87.400001525879</ele>
        <time>2021-07-17T08:35:39.000Z</time>
      </trkpt>
      <trkpt lat="47.62326" lon="0.6701">
        <ele>88.400001525879</ele>
        <time>2021-07-17T08:35:47.000Z</time>
      </trkpt>
      <trkpt lat="47.62325" lon="0.67093">
        <ele>87.800003051758</ele>
        <time>2021-07-17T08:35:56.000Z</time>
      </trkpt>
      <trkpt lat="47.62323" lon="0.67175">
        <ele>87.599998474121</ele>
        <time>2021-07-17T08:36:05.000Z</time>
      </trkpt>
      <trkpt lat="47.62323" lon="0.67202">
        <ele>87.400001525879</ele>
        <time>2021-07-17T08:36:08.000Z</time>
      </trkpt>
      <trkpt lat="47.62322" lon="0.67282">
        <ele>88</ele>
        <time>2021-07-17T08:36:17.000Z</time>
      </trkpt>
      <trkpt lat="47.62315" lon="0.67367">
        <ele>88.199996948242</ele>
        <time>2021-07-17T08:36:27.000Z</time>
      </trkpt>
      <trkpt lat="47.62313" lon="0.67402">
        <ele>88.400001525879</ele>
        <time>2021-07-17T08:36:31.000Z</time>
      </trkpt>
      <trkpt lat="47.62303" lon="0.6749">
        <ele>88.199996948242</ele>
        <time>2021-07-17T08:36:41.000Z</time>
      </trkpt>
      <trkpt lat="47.62294" lon="0.67577">
        <ele>88.199996948242</ele>
        <time>2021-07-17T08:36:51.000Z</time>
      </trkpt>
      <trkpt lat="47.62288" lon="0.67628">
        <ele>89.800003051758</ele>
        <time>2021-07-17T08:36:57.000Z</time>
      </trkpt>
      <trkpt lat="47.62275" lon="0.67706">
        <ele>90.199996948242</ele>
        <time>2021-07-17T08:37:06.000Z</time>
      </trkpt>
      <trkpt lat="47.62258" lon="0.67785">
        <ele>90.199996948242</ele>
        <time>2021-07-17T08:37:16.000Z</time>
      </trkpt>
      <trkpt lat="47.62246" lon="0.67865">
        <ele>90</ele>
        <time>2021-07-17T08:37:27.000Z</time>
      </trkpt>
      <trkpt lat="47.62241" lon="0.67898">
        <ele>91</ele>
        <time>2021-07-17T08:37:32.000Z</time>
      </trkpt>
      <trkpt lat="47.62228" lon="0.67979">
        <ele>91.599998474121</ele>
        <time>2021-07-17T08:37:44.000Z</time>
      </trkpt>
      <trkpt lat="47.62226" lon="0.67992">
        <ele>92.199996948242</ele>
        <time>2021-07-17T08:37:46.000Z</time>
      </trkpt>
      <trkpt lat="47.6222" lon="0.68032">
        <ele>93.199996948242</ele>
        <time>2021-07-17T08:37:52.000Z</time>
      </trkpt>
      <trkpt lat="47.62208" lon="0.68117">
        <ele>93</ele>
        <time>2021-07-17T08:38:04.000Z</time>
      </trkpt>
      <trkpt lat="47.62196" lon="0.68198">
        <ele>92.400001525879</ele>
        <time>2021-07-17T08:38:15.000Z</time>
      </trkpt>
      <trkpt lat="47.62183" lon="0.68282">
        <ele>93.400001525879</ele>
        <time>2021-07-17T08:38:25.000Z</time>
      </trkpt>
      <trkpt lat="47.62171" lon="0.68361">
        <ele>93.199996948242</ele>
        <time>2021-07-17T08:38:34.000Z</time>
      </trkpt>
      <trkpt lat="47.62159" lon="0.6844">
        <ele>92.199996948242</ele>
        <time>2021-07-17T08:38:43.000Z</time>
      </trkpt>
      <trkpt lat="47.62153" lon="0.68474">
        <ele>92.199996948242</ele>
        <time>2021-07-17T08:38:47.000Z</time>
      </trkpt>
      <trkpt lat="47.62142" lon="0.68554">
        <ele>92.800003051758</ele>
        <time>2021-07-17T08:38:57.000Z</time>
      </trkpt>
      <trkpt lat="47.62137" lon="0.68585">
        <ele>93.199996948242</ele>
        <time>2021-07-17T08:39:01.000Z</time>
      </trkpt>
      <trkpt lat="47.62128" lon="0.68663">
        <ele>93.599998474121</ele>
        <time>2021-07-17T08:39:11.000Z</time>
      </trkpt>
      <trkpt lat="47.62124" lon="0.68706">
        <ele>94.400001525879</ele>
        <time>2021-07-17T08:39:16.000Z</time>
      </trkpt>
      <trkpt lat="47.62121" lon="0.68791">
        <ele>95.199996948242</ele>
        <time>2021-07-17T08:39:26.000Z</time>
      </trkpt>
      <trkpt lat="47.62121" lon="0.68799">
        <ele>95.599998474121</ele>
        <time>2021-07-17T08:39:27.000Z</time>
      </trkpt>
      <trkpt lat="47.62122" lon="0.68874">
        <ele>94.199996948242</ele>
        <time>2021-07-17T08:39:36.000Z</time>
      </trkpt>
      <trkpt lat="47.62123" lon="0.68922">
        <ele>95.400001525879</ele>
        <time>2021-07-17T08:39:42.000Z</time>
      </trkpt>
      <trkpt lat="47.62126" lon="0.68984">
        <ele>96.400001525879</ele>
        <time>2021-07-17T08:39:50.000Z</time>
      </trkpt>
      <trkpt lat="47.6213" lon="0.69061">
        <ele>97.599998474121</ele>
        <time>2021-07-17T08:40:00.000Z</time>
      </trkpt>
      <trkpt lat="47.62133" lon="0.69145">
        <ele>98.199996948242</ele>
        <time>2021-07-17T08:40:11.000Z</time>
      </trkpt>
      <trkpt lat="47.62137" lon="0.69228">
        <ele>98.800003051758</ele>
        <time>2021-07-17T08:40:22.000Z</time>
      </trkpt>
      <trkpt lat="47.62141" lon="0.69308">
        <ele>99</ele>
        <time>2021-07-17T08:40:33.000Z</time>
      </trkpt>
      <trkpt lat="47.62145" lon="0.69393">
        <ele>99.199996948242</ele>
        <time>2021-07-17T08:40:45.000Z</time>
      </trkpt>
      <trkpt lat="47.62148" lon="0.6945">
        <ele>99.800003051758</ele>
        <time>2021-07-17T08:40:53.000Z</time>
      </trkpt>
      <trkpt lat="47.6215" lon="0.69491">
        <ele>101</ele>
        <time>2021-07-17T08:40:59.000Z</time>
      </trkpt>
      <trkpt lat="47.6215" lon="0.69509">
        <ele>101.80000305176</ele>
        <time>2021-07-17T08:41:02.000Z</time>
      </trkpt>
      <trkpt lat="47.62151" lon="0.69523">
        <ele>101.59999847412</ele>
        <time>2021-07-17T08:41:04.000Z</time>
      </trkpt>
      <trkpt lat="47.62151" lon="0.69543">
        <ele>102.40000152588</ele>
        <time>2021-07-17T08:41:07.000Z</time>
      </trkpt>
      <trkpt lat="47.62152" lon="0.69557">
        <ele>103.80000305176</ele>
        <time>2021-07-17T08:41:09.000Z</time>
      </trkpt>
      <trkpt lat="47.62153" lon="0.69575">
        <ele>104.80000305176</ele>
        <time>2021-07-17T08:41:12.000Z</time>
      </trkpt>
      <trkpt lat="47.62154" lon="0.69612">
        <ele>105.59999847412</ele>
        <time>2021-07-17T08:41:18.000Z</time>
      </trkpt>
      <trkpt lat="47.62154" lon="0.69618">
        <ele>106.19999694824</ele>
        <time>2021-07-17T08:41:19.000Z</time>
      </trkpt>
      <trkpt lat="47.62155" lon="0.6965">
        <ele>105</ele>
        <time>2021-07-17T08:41:24.000Z</time>
      </trkpt>
      <trkpt lat="47.62155" lon="0.69734">
        <ele>104.40000152588</ele>
        <time>2021-07-17T08:41:36.000Z</time>
      </trkpt>
      <trkpt lat="47.62155" lon="0.69783">
        <ele>106</ele>
        <time>2021-07-17T08:41:42.000Z</time>
      </trkpt>
      <trkpt lat="47.62147" lon="0.69864">
        <ele>105</ele>
        <time>2021-07-17T08:41:51.000Z</time>
      </trkpt>
      <trkpt lat="47.62146" lon="0.69873">
        <ele>104.40000152588</ele>
        <time>2021-07-17T08:41:52.000Z</time>
      </trkpt>
      <trkpt lat="47.62144" lon="0.69908">
        <ele>103.19999694824</ele>
        <time>2021-07-17T08:41:56.000Z</time>
      </trkpt>
      <trkpt lat="47.62146" lon="0.6999">
        <ele>102.80000305176</ele>
        <time>2021-07-17T08:42:06.000Z</time>
      </trkpt>
      <trkpt lat="47.62146" lon="0.69998">
        <ele>102.80000305176</ele>
        <time>2021-07-17T08:42:07.000Z</time>
      </trkpt>
      <trkpt lat="47.62152" lon="0.70049">
        <ele>102.59999847412</ele>
        <time>2021-07-17T08:42:14.000Z</time>
      </trkpt>
      <trkpt lat="47.62157" lon="0.70093">
        <ele>103.59999847412</ele>
        <time>2021-07-17T08:42:20.000Z</time>
      </trkpt>
      <trkpt lat="47.62158" lon="0.70125">
        <ele>104.19999694824</ele>
        <time>2021-07-17T08:42:24.000Z</time>
      </trkpt>
      <trkpt lat="47.62157" lon="0.7021">
        <ele>103.59999847412</ele>
        <time>2021-07-17T08:42:34.000Z</time>
      </trkpt>
      <trkpt lat="47.62143" lon="0.70294">
        <ele>103.40000152588</ele>
        <time>2021-07-17T08:42:44.000Z</time>
      </trkpt>
      <trkpt lat="47.62138" lon="0.7031">
        <ele>103.19999694824</ele>
        <time>2021-07-17T08:42:46.000Z</time>
      </trkpt>
      <trkpt lat="47.6212" lon="0.70368">
        <ele>102.19999694824</ele>
        <time>2021-07-17T08:42:53.000Z</time>
      </trkpt>
      <trkpt lat="47.62102" lon="0.7043">
        <ele>103.19999694824</ele>
        <time>2021-07-17T08:43:01.000Z</time>
      </trkpt>
      <trkpt lat="47.62091" lon="0.70503">
        <ele>102.80000305176</ele>
        <time>2021-07-17T08:43:11.000Z</time>
      </trkpt>
      <trkpt lat="47.62088" lon="0.70518">
        <ele>103.19999694824</ele>
        <time>2021-07-17T08:43:13.000Z</time>
      </trkpt>
      <trkpt lat="47.62069" lon="0.70575">
        <ele>104.40000152588</ele>
        <time>2021-07-17T08:43:21.000Z</time>
      </trkpt>
      <trkpt lat="47.62051" lon="0.70643">
        <ele>105.40000152588</ele>
        <time>2021-07-17T08:43:31.000Z</time>
      </trkpt>
      <trkpt lat="47.62033" lon="0.70726">
        <ele>104.80000305176</ele>
        <time>2021-07-17T08:43:41.000Z</time>
      </trkpt>
      <trkpt lat="47.6202" lon="0.70811">
        <ele>104.59999847412</ele>
        <time>2021-07-17T08:43:51.000Z</time>
      </trkpt>
      <trkpt lat="47.62014" lon="0.70892">
        <ele>105.40000152588</ele>
        <time>2021-07-17T08:44:01.000Z</time>
      </trkpt>
      <trkpt lat="47.62015" lon="0.70906">
        <ele>107.19999694824</ele>
        <time>2021-07-17T08:44:03.000Z</time>
      </trkpt>
      <trkpt lat="47.62015" lon="0.70932">
        <ele>108.19999694824</ele>
        <time>2021-07-17T08:44:07.000Z</time>
      </trkpt>
      <trkpt lat="47.62013" lon="0.70997">
        <ele>109.40000152588</ele>
        <time>2021-07-17T08:44:18.000Z</time>
      </trkpt>
      <trkpt lat="47.62012" lon="0.71031">
        <ele>110.40000152588</ele>
        <time>2021-07-17T08:44:24.000Z</time>
      </trkpt>
      <trkpt lat="47.62012" lon="0.71054">
        <ele>111.40000152588</ele>
        <time>2021-07-17T08:44:28.000Z</time>
      </trkpt>
      <trkpt lat="47.62011" lon="0.71087">
        <ele>112.40000152588</ele>
        <time>2021-07-17T08:44:34.000Z</time>
      </trkpt>
      <trkpt lat="47.6201" lon="0.71139">
        <ele>113.80000305176</ele>
        <time>2021-07-17T08:44:43.000Z</time>
      </trkpt>
      <trkpt lat="47.62008" lon="0.71179">
        <ele>114.80000305176</ele>
        <time>2021-07-17T08:44:50.000Z</time>
      </trkpt>
      <trkpt lat="47.62007" lon="0.7122">
        <ele>116.19999694824</ele>
        <time>2021-07-17T08:44:57.000Z</time>
      </trkpt>
      <trkpt lat="47.62009" lon="0.71306">
        <ele>116.19999694824</ele>
        <time>2021-07-17T08:45:10.000Z</time>
      </trkpt>
      <trkpt lat="47.6201" lon="0.71313">
        <ele>116.19999694824</ele>
        <time>2021-07-17T08:45:11.000Z</time>
      </trkpt>
      <trkpt lat="47.62012" lon="0.714">
        <ele>115.40000152588</ele>
        <time>2021-07-17T08:45:22.000Z</time>
      </trkpt>
      <trkpt lat="47.62012" lon="0.71409">
        <ele>115.19999694824</ele>
        <time>2021-07-17T08:45:23.000Z</time>
      </trkpt>
      <trkpt lat="47.62007" lon="0.71496">
        <ele>114.59999847412</ele>
        <time>2021-07-17T08:45:33.000Z</time>
      </trkpt>
      <trkpt lat="47.62003" lon="0.71531">
        <ele>113.80000305176</ele>
        <time>2021-07-17T08:45:37.000Z</time>
      </trkpt>
      <trkpt lat="47.61995" lon="0.71616">
        <ele>113.40000152588</ele>
        <time>2021-07-17T08:45:47.000Z</time>
      </trkpt>
      <trkpt lat="47.61983" lon="0.717">
        <ele>111.19999694824</ele>
        <time>2021-07-17T08:45:56.000Z</time>
      </trkpt>
      <trkpt lat="47.61982" lon="0.7171">
        <ele>110</ele>
        <time>2021-07-17T08:45:57.000Z</time>
      </trkpt>
      <trkpt lat="47.61982" lon="0.71721">
        <ele>108.80000305176</ele>
        <time>2021-07-17T08:45:58.000Z</time>
      </trkpt>
      <trkpt lat="47.6198" lon="0.7176">
        <ele>110</ele>
        <time>2021-07-17T08:46:02.000Z</time>
      </trkpt>
      <trkpt lat="47.6198" lon="0.71848">
        <ele>110.80000305176</ele>
        <time>2021-07-17T08:46:11.000Z</time>
      </trkpt>
      <trkpt lat="47.61982" lon="0.7188">
        <ele>108.80000305176</ele>
        <time>2021-07-17T08:46:14.000Z</time>
      </trkpt>
      <trkpt lat="47.61986" lon="0.71922">
        <ele>107.80000305176</ele>
        <time>2021-07-17T08:46:18.000Z</time>
      </trkpt>
      <trkpt lat="47.61995" lon="0.71978">
        <ele>109.19999694824</ele>
        <time>2021-07-17T08:46:24.000Z</time>
      </trkpt>
      <trkpt lat="47.62003" lon="0.72016">
        <ele>107.80000305176</ele>
        <time>2021-07-17T08:46:29.000Z</time>
      </trkpt>
      <trkpt lat="47.62013" lon="0.72054">
        <ele>108.80000305176</ele>
        <time>2021-07-17T08:46:35.000Z</time>
      </trkpt>
      <trkpt lat="47.6202" lon="0.7208">
        <ele>110</ele>
        <time>2021-07-17T08:46:39.000Z</time>
      </trkpt>
      <trkpt lat="47.62027" lon="0.72104">
        <ele>111.40000152588</ele>
        <time>2021-07-17T08:46:43.000Z</time>
      </trkpt>
      <trkpt lat="47.62041" lon="0.7215">
        <ele>112.40000152588</ele>
        <time>2021-07-17T08:46:51.000Z</time>
      </trkpt>
      <trkpt lat="47.62049" lon="0.72176">
        <ele>113.40000152588</ele>
        <time>2021-07-17T08:46:56.000Z</time>
      </trkpt>
      <trkpt lat="47.62055" lon="0.72197">
        <ele>114.59999847412</ele>
        <time>2021-07-17T08:47:00.000Z</time>
      </trkpt>
      <trkpt lat="47.6206" lon="0.72211">
        <ele>115.59999847412</ele>
        <time>2021-07-17T08:47:03.000Z</time>
      </trkpt>
      <trkpt lat="47.62072" lon="0.7225">
        <ele>116.80000305176</ele>
        <time>2021-07-17T08:47:11.000Z</time>
      </trkpt>
      <trkpt lat="47.62073" lon="0.72256">
        <ele>118</ele>
        <time>2021-07-17T08:47:12.000Z</time>
      </trkpt>
      <trkpt lat="47.62074" lon="0.72261">
        <ele>119.19999694824</ele>
        <time>2021-07-17T08:47:13.000Z</time>
      </trkpt>
      <trkpt lat="47.62094" lon="0.7232">
        <ele>118.19999694824</ele>
        <time>2021-07-17T08:47:26.000Z</time>
      </trkpt>
      <trkpt lat="47.62112" lon="0.72381">
        <ele>119.40000152588</ele>
        <time>2021-07-17T08:47:38.000Z</time>
      </trkpt>
      <trkpt lat="47.62127" lon="0.72432">
        <ele>121</ele>
        <time>2021-07-17T08:47:48.000Z</time>
      </trkpt>
      <trkpt lat="47.6215" lon="0.72509">
        <ele>122</ele>
        <time>2021-07-17T08:48:03.000Z</time>
      </trkpt>
      <trkpt lat="47.6216" lon="0.72547">
        <ele>123.19999694824</ele>
        <time>2021-07-17T08:48:10.000Z</time>
      </trkpt>
      <trkpt lat="47.62176" lon="0.726">
        <ele>124.40000152588</ele>
        <time>2021-07-17T08:48:20.000Z</time>
      </trkpt>
      <trkpt lat="47.62193" lon="0.7265">
        <ele>125.40000152588</ele>
        <time>2021-07-17T08:48:29.000Z</time>
      </trkpt>
      <trkpt lat="47.62213" lon="0.72725">
        <ele>126</ele>
        <time>2021-07-17T08:48:42.000Z</time>
      </trkpt>
      <trkpt lat="47.62216" lon="0.72737">
        <ele>126.80000305176</ele>
        <time>2021-07-17T08:48:44.000Z</time>
      </trkpt>
      <trkpt lat="47.62235" lon="0.72813">
        <ele>127.59999847412</ele>
        <time>2021-07-17T08:48:57.000Z</time>
      </trkpt>
      <trkpt lat="47.62254" lon="0.72889">
        <ele>127.59999847412</ele>
        <time>2021-07-17T08:49:10.000Z</time>
      </trkpt>
      <trkpt lat="47.62257" lon="0.72901">
        <ele>127.80000305176</ele>
        <time>2021-07-17T08:49:12.000Z</time>
      </trkpt>
      <trkpt lat="47.6227" lon="0.72954">
        <ele>128.19999694824</ele>
        <time>2021-07-17T08:49:21.000Z</time>
      </trkpt>
      <trkpt lat="47.62284" lon="0.73008">
        <ele>128.80000305176</ele>
        <time>2021-07-17T08:49:30.000Z</time>
      </trkpt>
      <trkpt lat="47.62295" lon="0.7306">
        <ele>130.39999389648</ele>
        <time>2021-07-17T08:49:38.000Z</time>
      </trkpt>
      <trkpt lat="47.62318" lon="0.7314">
        <ele>129.80000305176</ele>
        <time>2021-07-17T08:49:50.000Z</time>
      </trkpt>
      <trkpt lat="47.62344" lon="0.73214">
        <ele>130.19999694824</ele>
        <time>2021-07-17T08:50:01.000Z</time>
      </trkpt>
      <trkpt lat="47.62352" lon="0.73235">
        <ele>128.39999389648</ele>
        <time>2021-07-17T08:50:04.000Z</time>
      </trkpt>
      <trkpt lat="47.62364" lon="0.73269">
        <ele>127.40000152588</ele>
        <time>2021-07-17T08:50:09.000Z</time>
      </trkpt>
      <trkpt lat="47.62391" lon="0.73339">
        <ele>127.40000152588</ele>
        <time>2021-07-17T08:50:19.000Z</time>
      </trkpt>
      <trkpt lat="47.6242" lon="0.73413">
        <ele>127.19999694824</ele>
        <time>2021-07-17T08:50:30.000Z</time>
      </trkpt>
      <trkpt lat="47.62434" lon="0.7345">
        <ele>125.80000305176</ele>
        <time>2021-07-17T08:50:35.000Z</time>
      </trkpt>
      <trkpt lat="47.62443" lon="0.73473">
        <ele>127.19999694824</ele>
        <time>2021-07-17T08:50:38.000Z</time>
      </trkpt>
      <trkpt lat="47.62452" lon="0.73494">
        <ele>126.19999694824</ele>
        <time>2021-07-17T08:50:41.000Z</time>
      </trkpt>
      <trkpt lat="47.62468" lon="0.73539">
        <ele>126</ele>
        <time>2021-07-17T08:50:47.000Z</time>
      </trkpt>
      <trkpt lat="47.62487" lon="0.73588">
        <ele>125</ele>
        <time>2021-07-17T08:50:53.000Z</time>
      </trkpt>
      <trkpt lat="47.6251" lon="0.73649">
        <ele>123.80000305176</ele>
        <time>2021-07-17T08:51:00.000Z</time>
      </trkpt>
      <trkpt lat="47.62524" lon="0.73685">
        <ele>125</ele>
        <time>2021-07-17T08:51:04.000Z</time>
      </trkpt>
      <trkpt lat="47.62551" lon="0.73754">
        <ele>125.19999694824</ele>
        <time>2021-07-17T08:51:12.000Z</time>
      </trkpt>
      <trkpt lat="47.62569" lon="0.73803">
        <ele>124</ele>
        <time>2021-07-17T08:51:17.000Z</time>
      </trkpt>
      <trkpt lat="47.62584" lon="0.73842">
        <ele>122.80000305176</ele>
        <time>2021-07-17T08:51:21.000Z</time>
      </trkpt>
      <trkpt lat="47.62603" lon="0.73893">
        <ele>121.80000305176</ele>
        <time>2021-07-17T08:51:26.000Z</time>
      </trkpt>
      <trkpt lat="47.62622" lon="0.73942">
        <ele>120.59999847412</ele>
        <time>2021-07-17T08:51:31.000Z</time>
      </trkpt>
      <trkpt lat="47.62636" lon="0.73979">
        <ele>119.40000152588</ele>
        <time>2021-07-17T08:51:35.000Z</time>
      </trkpt>
      <trkpt lat="47.6266" lon="0.74051">
        <ele>119.40000152588</ele>
        <time>2021-07-17T08:51:43.000Z</time>
      </trkpt>
      <trkpt lat="47.62689" lon="0.74123">
        <ele>120</ele>
        <time>2021-07-17T08:51:52.000Z</time>
      </trkpt>
      <trkpt lat="47.62705" lon="0.74175">
        <ele>120.59999847412</ele>
        <time>2021-07-17T08:51:59.000Z</time>
      </trkpt>
      <trkpt lat="47.62722" lon="0.74252">
        <ele>121.40000152588</ele>
        <time>2021-07-17T08:52:09.000Z</time>
      </trkpt>
      <trkpt lat="47.62734" lon="0.74332">
        <ele>121.59999847412</ele>
        <time>2021-07-17T08:52:20.000Z</time>
      </trkpt>
      <trkpt lat="47.62743" lon="0.74417">
        <ele>122.40000152588</ele>
        <time>2021-07-17T08:52:32.000Z</time>
      </trkpt>
      <trkpt lat="47.62749" lon="0.745">
        <ele>122.40000152588</ele>
        <time>2021-07-17T08:52:46.000Z</time>
      </trkpt>
      <trkpt lat="47.6276" lon="0.74521">
        <ele>122.80000305176</ele>
        <time>2021-07-17T08:52:52.000Z</time>
      </trkpt>
      <trkpt lat="47.62777" lon="0.74542">
        <ele>124</ele>
        <time>2021-07-17T08:52:58.000Z</time>
      </trkpt>
      <trkpt lat="47.62792" lon="0.74556">
        <ele>125</ele>
        <time>2021-07-17T08:53:03.000Z</time>
      </trkpt>
      <trkpt lat="47.62805" lon="0.74563">
        <ele>126</ele>
        <time>2021-07-17T08:53:07.000Z</time>
      </trkpt>
      <trkpt lat="47.62819" lon="0.74569">
        <ele>127.19999694824</ele>
        <time>2021-07-17T08:53:12.000Z</time>
      </trkpt>
      <trkpt lat="47.62833" lon="0.74572">
        <ele>128.60000610352</ele>
        <time>2021-07-17T08:53:16.000Z</time>
      </trkpt>
      <trkpt lat="47.62847" lon="0.74574">
        <ele>129.60000610352</ele>
        <time>2021-07-17T08:53:21.000Z</time>
      </trkpt>
      <trkpt lat="47.62872" lon="0.74583">
        <ele>130.80000305176</ele>
        <time>2021-07-17T08:53:30.000Z</time>
      </trkpt>
      <trkpt lat="47.62884" lon="0.74591">
        <ele>131.80000305176</ele>
        <time>2021-07-17T08:53:34.000Z</time>
      </trkpt>
      <trkpt lat="47.629" lon="0.74602">
        <ele>132.80000305176</ele>
        <time>2021-07-17T08:53:39.000Z</time>
      </trkpt>
      <trkpt lat="47.62916" lon="0.74654">
        <ele>134</ele>
        <time>2021-07-17T08:54:00.000Z</time>
      </trkpt>
      <trkpt lat="47.62917" lon="0.74662">
        <ele>134</ele>
        <time>2021-07-17T08:54:22.000Z</time>
      </trkpt>
      <trkpt lat="47.62924" lon="0.74699">
        <ele>135.19999694824</ele>
        <time>2021-07-17T08:54:30.000Z</time>
      </trkpt>
      <trkpt lat="47.62929" lon="0.74778">
        <ele>136.19999694824</ele>
        <time>2021-07-17T08:54:44.000Z</time>
      </trkpt>
      <trkpt lat="47.62926" lon="0.74809">
        <ele>137.39999389648</ele>
        <time>2021-07-17T08:54:50.000Z</time>
      </trkpt>
      <trkpt lat="47.62921" lon="0.74858">
        <ele>138.60000610352</ele>
        <time>2021-07-17T08:54:59.000Z</time>
      </trkpt>
      <trkpt lat="47.62924" lon="0.7489">
        <ele>139.80000305176</ele>
        <time>2021-07-17T08:55:05.000Z</time>
      </trkpt>
      <trkpt lat="47.62935" lon="0.74909">
        <ele>140.80000305176</ele>
        <time>2021-07-17T08:55:11.000Z</time>
      </trkpt>
      <trkpt lat="47.62944" lon="0.74926">
        <ele>142</ele>
        <time>2021-07-17T08:55:16.000Z</time>
      </trkpt>
      <trkpt lat="47.62962" lon="0.74956">
        <ele>143</ele>
        <time>2021-07-17T08:55:24.000Z</time>
      </trkpt>
      <trkpt lat="47.62983" lon="0.74988">
        <ele>144.19999694824</ele>
        <time>2021-07-17T08:55:33.000Z</time>
      </trkpt>
      <trkpt lat="47.63014" lon="0.75038">
        <ele>145.39999389648</ele>
        <time>2021-07-17T08:55:46.000Z</time>
      </trkpt>
      <trkpt lat="47.6302" lon="0.75047">
        <ele>146.39999389648</ele>
        <time>2021-07-17T08:55:48.000Z</time>
      </trkpt>
      <trkpt lat="47.6306" lon="0.7511">
        <ele>147.39999389648</ele>
        <time>2021-07-17T08:56:01.000Z</time>
      </trkpt>
      <trkpt lat="47.63069" lon="0.75124">
        <ele>147</ele>
        <time>2021-07-17T08:56:04.000Z</time>
      </trkpt>
      <trkpt lat="47.63105" lon="0.75183">
        <ele>147.60000610352</ele>
        <time>2021-07-17T08:56:16.000Z</time>
      </trkpt>
      <trkpt lat="47.6313" lon="0.75226">
        <ele>146.60000610352</ele>
        <time>2021-07-17T08:56:24.000Z</time>
      </trkpt>
      <trkpt lat="47.63133" lon="0.75232">
        <ele>146.39999389648</ele>
        <time>2021-07-17T08:56:25.000Z</time>
      </trkpt>
      <trkpt lat="47.63164" lon="0.75304">
        <ele>147.39999389648</ele>
        <time>2021-07-17T08:56:36.000Z</time>
      </trkpt>
      <trkpt lat="47.63187" lon="0.75385">
        <ele>145</ele>
        <time>2021-07-17T08:56:46.000Z</time>
      </trkpt>
      <trkpt lat="47.63192" lon="0.75411">
        <ele>144</ele>
        <time>2021-07-17T08:56:49.000Z</time>
      </trkpt>
      <trkpt lat="47.63204" lon="0.75493">
        <ele>143.39999389648</ele>
        <time>2021-07-17T08:56:58.000Z</time>
      </trkpt>
      <trkpt lat="47.63212" lon="0.75561">
        <ele>142.80000305176</ele>
        <time>2021-07-17T08:57:05.000Z</time>
      </trkpt>
      <trkpt lat="47.63222" lon="0.75629">
        <ele>141.80000305176</ele>
        <time>2021-07-17T08:57:12.000Z</time>
      </trkpt>
      <trkpt lat="47.63236" lon="0.75699">
        <ele>140.80000305176</ele>
        <time>2021-07-17T08:57:19.000Z</time>
      </trkpt>
      <trkpt lat="47.63241" lon="0.7573">
        <ele>142.39999389648</ele>
        <time>2021-07-17T08:57:22.000Z</time>
      </trkpt>
      <trkpt lat="47.63242" lon="0.75751">
        <ele>140.60000610352</ele>
        <time>2021-07-17T08:57:24.000Z</time>
      </trkpt>
      <trkpt lat="47.63244" lon="0.75771">
        <ele>139</ele>
        <time>2021-07-17T08:57:26.000Z</time>
      </trkpt>
      <trkpt lat="47.63255" lon="0.7585">
        <ele>138.60000610352</ele>
        <time>2021-07-17T08:57:34.000Z</time>
      </trkpt>
      <trkpt lat="47.63263" lon="0.7592">
        <ele>140.19999694824</ele>
        <time>2021-07-17T08:57:42.000Z</time>
      </trkpt>
      <trkpt lat="47.63269" lon="0.75986">
        <ele>141.39999389648</ele>
        <time>2021-07-17T08:57:50.000Z</time>
      </trkpt>
      <trkpt lat="47.63268" lon="0.75993">
        <ele>141.60000610352</ele>
        <time>2021-07-17T08:57:51.000Z</time>
      </trkpt>
      <trkpt lat="47.6327" lon="0.7601">
        <ele>142.39999389648</ele>
        <time>2021-07-17T08:57:53.000Z</time>
      </trkpt>
      <trkpt lat="47.6327" lon="0.76049">
        <ele>143.60000610352</ele>
        <time>2021-07-17T08:57:58.000Z</time>
      </trkpt>
      <trkpt lat="47.63271" lon="0.76088">
        <ele>144.60000610352</ele>
        <time>2021-07-17T08:58:03.000Z</time>
      </trkpt>
      <trkpt lat="47.63271" lon="0.76124">
        <ele>146</ele>
        <time>2021-07-17T08:58:08.000Z</time>
      </trkpt>
      <trkpt lat="47.6327" lon="0.7616">
        <ele>147</ele>
        <time>2021-07-17T08:58:13.000Z</time>
      </trkpt>
      <trkpt lat="47.63268" lon="0.76175">
        <ele>147.39999389648</ele>
        <time>2021-07-17T08:58:15.000Z</time>
      </trkpt>
      <trkpt lat="47.63262" lon="0.76219">
        <ele>148</ele>
        <time>2021-07-17T08:58:21.000Z</time>
      </trkpt>
      <trkpt lat="47.63254" lon="0.76266">
        <ele>148.60000610352</ele>
        <time>2021-07-17T08:58:28.000Z</time>
      </trkpt>
      <trkpt lat="47.63253" lon="0.76279">
        <ele>149</ele>
        <time>2021-07-17T08:58:30.000Z</time>
      </trkpt>
      <trkpt lat="47.63251" lon="0.76305">
        <ele>149.60000610352</ele>
        <time>2021-07-17T08:58:34.000Z</time>
      </trkpt>
      <trkpt lat="47.63239" lon="0.76389">
        <ele>149.80000305176</ele>
        <time>2021-07-17T08:58:46.000Z</time>
      </trkpt>
      <trkpt lat="47.63238" lon="0.76396">
        <ele>150.19999694824</ele>
        <time>2021-07-17T08:58:47.000Z</time>
      </trkpt>
      <trkpt lat="47.63234" lon="0.76439">
        <ele>150.60000610352</ele>
        <time>2021-07-17T08:58:53.000Z</time>
      </trkpt>
      <trkpt lat="47.63221" lon="0.76524">
        <ele>149</ele>
        <time>2021-07-17T08:59:04.000Z</time>
      </trkpt>
      <trkpt lat="47.63206" lon="0.76603">
        <ele>148.19999694824</ele>
        <time>2021-07-17T08:59:13.000Z</time>
      </trkpt>
      <trkpt lat="47.63204" lon="0.76611">
        <ele>148</ele>
        <time>2021-07-17T08:59:14.000Z</time>
      </trkpt>
      <trkpt lat="47.63198" lon="0.76647">
        <ele>146.80000305176</ele>
        <time>2021-07-17T08:59:18.000Z</time>
      </trkpt>
      <trkpt lat="47.63185" lon="0.76732">
        <ele>146.19999694824</ele>
        <time>2021-07-17T08:59:27.000Z</time>
      </trkpt>
      <trkpt lat="47.6318" lon="0.76761">
        <ele>145.80000305176</ele>
        <time>2021-07-17T08:59:30.000Z</time>
      </trkpt>
      <trkpt lat="47.63171" lon="0.76843">
        <ele>146.19999694824</ele>
        <time>2021-07-17T08:59:39.000Z</time>
      </trkpt>
      <trkpt lat="47.63164" lon="0.76886">
        <ele>146.80000305176</ele>
        <time>2021-07-17T08:59:44.000Z</time>
      </trkpt>
      <trkpt lat="47.63159" lon="0.76919">
        <ele>148</ele>
        <time>2021-07-17T08:59:48.000Z</time>
      </trkpt>
      <trkpt lat="47.63156" lon="0.76935">
        <ele>149.19999694824</ele>
        <time>2021-07-17T08:59:50.000Z</time>
      </trkpt>
      <trkpt lat="47.63145" lon="0.76989">
        <ele>150.19999694824</ele>
        <time>2021-07-17T08:59:57.000Z</time>
      </trkpt>
      <trkpt lat="47.63132" lon="0.77047">
        <ele>151.19999694824</ele>
        <time>2021-07-17T09:00:05.000Z</time>
      </trkpt>
      <trkpt lat="47.63118" lon="0.77122">
        <ele>152.39999389648</ele>
        <time>2021-07-17T09:00:15.000Z</time>
      </trkpt>
      <trkpt lat="47.6311" lon="0.77203">
        <ele>153.19999694824</ele>
        <time>2021-07-17T09:00:27.000Z</time>
      </trkpt>
      <trkpt lat="47.6311" lon="0.7721">
        <ele>153.39999389648</ele>
        <time>2021-07-17T09:00:28.000Z</time>
      </trkpt>
      <trkpt lat="47.63095" lon="0.7729">
        <ele>153.60000610352</ele>
        <time>2021-07-17T09:00:39.000Z</time>
      </trkpt>
      <trkpt lat="47.63089" lon="0.77345">
        <ele>153.80000305176</ele>
        <time>2021-07-17T09:00:47.000Z</time>
      </trkpt>
      <trkpt lat="47.63076" lon="0.77424">
        <ele>153.80000305176</ele>
        <time>2021-07-17T09:00:57.000Z</time>
      </trkpt>
      <trkpt lat="47.63062" lon="0.77501">
        <ele>154</ele>
        <time>2021-07-17T09:01:06.000Z</time>
      </trkpt>
      <trkpt lat="47.63049" lon="0.77585">
        <ele>152.80000305176</ele>
        <time>2021-07-17T09:01:16.000Z</time>
      </trkpt>
      <trkpt lat="47.63044" lon="0.77653">
        <ele>152.80000305176</ele>
        <time>2021-07-17T09:01:24.000Z</time>
      </trkpt>
      <trkpt lat="47.63043" lon="0.77686">
        <ele>153</ele>
        <time>2021-07-17T09:01:28.000Z</time>
      </trkpt>
      <trkpt lat="47.63044" lon="0.77768">
        <ele>153.19999694824</ele>
        <time>2021-07-17T09:01:38.000Z</time>
      </trkpt>
      <trkpt lat="47.63041" lon="0.778">
        <ele>153</ele>
        <time>2021-07-17T09:01:42.000Z</time>
      </trkpt>
      <trkpt lat="47.63029" lon="0.77863">
        <ele>153.19999694824</ele>
        <time>2021-07-17T09:01:49.000Z</time>
      </trkpt>
      <trkpt lat="47.6301" lon="0.77945">
        <ele>152.80000305176</ele>
        <time>2021-07-17T09:01:58.000Z</time>
      </trkpt>
      <trkpt lat="47.62993" lon="0.78001">
        <ele>152.19999694824</ele>
        <time>2021-07-17T09:02:05.000Z</time>
      </trkpt>
      <trkpt lat="47.62987" lon="0.78062">
        <ele>151.19999694824</ele>
        <time>2021-07-17T09:02:12.000Z</time>
      </trkpt>
      <trkpt lat="47.62973" lon="0.78144">
        <ele>152.60000610352</ele>
        <time>2021-07-17T09:02:22.000Z</time>
      </trkpt>
      <trkpt lat="47.6296" lon="0.78224">
        <ele>151.60000610352</ele>
        <time>2021-07-17T09:02:32.000Z</time>
      </trkpt>
      <trkpt lat="47.62959" lon="0.78233">
        <ele>151.39999389648</ele>
        <time>2021-07-17T09:02:33.000Z</time>
      </trkpt>
      <trkpt lat="47.62947" lon="0.78318">
        <ele>150.80000305176</ele>
        <time>2021-07-17T09:02:43.000Z</time>
      </trkpt>
      <trkpt lat="47.62944" lon="0.78335">
        <ele>150.39999389648</ele>
        <time>2021-07-17T09:02:45.000Z</time>
      </trkpt>
      <trkpt lat="47.62935" lon="0.78404">
        <ele>149.39999389648</ele>
        <time>2021-07-17T09:02:54.000Z</time>
      </trkpt>
      <trkpt lat="47.62933" lon="0.78411">
        <ele>149.19999694824</ele>
        <time>2021-07-17T09:02:55.000Z</time>
      </trkpt>
      <trkpt lat="47.62922" lon="0.7849">
        <ele>149.19999694824</ele>
        <time>2021-07-17T09:03:05.000Z</time>
      </trkpt>
      <trkpt lat="47.62911" lon="0.78569">
        <ele>149.19999694824</ele>
        <time>2021-07-17T09:03:15.000Z</time>
      </trkpt>
      <trkpt lat="47.62906" lon="0.78601">
        <ele>150.19999694824</ele>
        <time>2021-07-17T09:03:19.000Z</time>
      </trkpt>
      <trkpt lat="47.62902" lon="0.7863">
        <ele>151.39999389648</ele>
        <time>2021-07-17T09:03:23.000Z</time>
      </trkpt>
      <trkpt lat="47.62891" lon="0.78704">
        <ele>152.60000610352</ele>
        <time>2021-07-17T09:03:33.000Z</time>
      </trkpt>
      <trkpt lat="47.62882" lon="0.78784">
        <ele>153.19999694824</ele>
        <time>2021-07-17T09:03:44.000Z</time>
      </trkpt>
      <trkpt lat="47.62878" lon="0.78843">
        <ele>153.60000610352</ele>
        <time>2021-07-17T09:03:52.000Z</time>
      </trkpt>
      <trkpt lat="47.62876" lon="0.78858">
        <ele>153.80000305176</ele>
        <time>2021-07-17T09:03:54.000Z</time>
      </trkpt>
      <trkpt lat="47.62871" lon="0.78882">
        <ele>152.39999389648</ele>
        <time>2021-07-17T09:03:57.000Z</time>
      </trkpt>
      <trkpt lat="47.62857" lon="0.78959">
        <ele>151</ele>
        <time>2021-07-17T09:04:07.000Z</time>
      </trkpt>
      <trkpt lat="47.62856" lon="0.78966">
        <ele>152</ele>
        <time>2021-07-17T09:04:08.000Z</time>
      </trkpt>
      <trkpt lat="47.62842" lon="0.79049">
        <ele>151.19999694824</ele>
        <time>2021-07-17T09:04:19.000Z</time>
      </trkpt>
      <trkpt lat="47.62838" lon="0.79077">
        <ele>153</ele>
        <time>2021-07-17T09:04:23.000Z</time>
      </trkpt>
      <trkpt lat="47.62822" lon="0.79155">
        <ele>152.39999389648</ele>
        <time>2021-07-17T09:04:34.000Z</time>
      </trkpt>
      <trkpt lat="47.62803" lon="0.79235">
        <ele>152.80000305176</ele>
        <time>2021-07-17T09:04:45.000Z</time>
      </trkpt>
      <trkpt lat="47.62783" lon="0.79311">
        <ele>152.60000610352</ele>
        <time>2021-07-17T09:04:55.000Z</time>
      </trkpt>
      <trkpt lat="47.62761" lon="0.79391">
        <ele>153.19999694824</ele>
        <time>2021-07-17T09:05:05.000Z</time>
      </trkpt>
      <trkpt lat="47.6274" lon="0.79467">
        <ele>152.19999694824</ele>
        <time>2021-07-17T09:05:14.000Z</time>
      </trkpt>
      <trkpt lat="47.6272" lon="0.79541">
        <ele>152.39999389648</ele>
        <time>2021-07-17T09:05:23.000Z</time>
      </trkpt>
      <trkpt lat="47.62704" lon="0.796">
        <ele>152</ele>
        <time>2021-07-17T09:05:30.000Z</time>
      </trkpt>
      <trkpt lat="47.62683" lon="0.79681">
        <ele>152</ele>
        <time>2021-07-17T09:05:40.000Z</time>
      </trkpt>
      <trkpt lat="47.62662" lon="0.79761">
        <ele>152</ele>
        <time>2021-07-17T09:05:50.000Z</time>
      </trkpt>
      <trkpt lat="47.62649" lon="0.79809">
        <ele>151</ele>
        <time>2021-07-17T09:05:56.000Z</time>
      </trkpt>
      <trkpt lat="47.62628" lon="0.79887">
        <ele>151.80000305176</ele>
        <time>2021-07-17T09:06:05.000Z</time>
      </trkpt>
      <trkpt lat="47.62621" lon="0.79915">
        <ele>152.60000610352</ele>
        <time>2021-07-17T09:06:08.000Z</time>
      </trkpt>
      <trkpt lat="47.626" lon="0.7999">
        <ele>151.60000610352</ele>
        <time>2021-07-17T09:06:16.000Z</time>
      </trkpt>
      <trkpt lat="47.6259" lon="0.80027">
        <ele>150.60000610352</ele>
        <time>2021-07-17T09:06:20.000Z</time>
      </trkpt>
      <trkpt lat="47.62572" lon="0.80094">
        <ele>149.19999694824</ele>
        <time>2021-07-17T09:06:27.000Z</time>
      </trkpt>
      <trkpt lat="47.62551" lon="0.8017">
        <ele>149</ele>
        <time>2021-07-17T09:06:35.000Z</time>
      </trkpt>
      <trkpt lat="47.62546" lon="0.80189">
        <ele>148</ele>
        <time>2021-07-17T09:06:37.000Z</time>
      </trkpt>
      <trkpt lat="47.62533" lon="0.80236">
        <ele>147</ele>
        <time>2021-07-17T09:06:42.000Z</time>
      </trkpt>
      <trkpt lat="47.62513" lon="0.8031">
        <ele>146.80000305176</ele>
        <time>2021-07-17T09:06:50.000Z</time>
      </trkpt>
      <trkpt lat="47.62497" lon="0.80371">
        <ele>145.80000305176</ele>
        <time>2021-07-17T09:06:57.000Z</time>
      </trkpt>
      <trkpt lat="47.62476" lon="0.80446">
        <ele>145.19999694824</ele>
        <time>2021-07-17T09:07:06.000Z</time>
      </trkpt>
      <trkpt lat="47.6247" lon="0.8047">
        <ele>144.60000610352</ele>
        <time>2021-07-17T09:07:09.000Z</time>
      </trkpt>
      <trkpt lat="47.6245" lon="0.80546">
        <ele>144.39999389648</ele>
        <time>2021-07-17T09:07:19.000Z</time>
      </trkpt>
      <trkpt lat="47.62431" lon="0.80619">
        <ele>145.80000305176</ele>
        <time>2021-07-17T09:07:32.000Z</time>
      </trkpt>
      <trkpt lat="47.62424" lon="0.80648">
        <ele>147</ele>
        <time>2021-07-17T09:07:37.000Z</time>
      </trkpt>
      <trkpt lat="47.62415" lon="0.80678">
        <ele>148.39999389648</ele>
        <time>2021-07-17T09:07:42.000Z</time>
      </trkpt>
      <trkpt lat="47.62389" lon="0.80745">
        <ele>149.60000610352</ele>
        <time>2021-07-17T09:07:55.000Z</time>
      </trkpt>
      <trkpt lat="47.62352" lon="0.80811">
        <ele>150</ele>
        <time>2021-07-17T09:08:08.000Z</time>
      </trkpt>
      <trkpt lat="47.62316" lon="0.8087">
        <ele>148.60000610352</ele>
        <time>2021-07-17T09:08:19.000Z</time>
      </trkpt>
      <trkpt lat="47.62288" lon="0.80913">
        <ele>151</ele>
        <time>2021-07-17T09:08:27.000Z</time>
      </trkpt>
      <trkpt lat="47.62285" lon="0.80919">
        <ele>152.19999694824</ele>
        <time>2021-07-17T09:08:28.000Z</time>
      </trkpt>
      <trkpt lat="47.62244" lon="0.80983">
        <ele>151.80000305176</ele>
        <time>2021-07-17T09:08:39.000Z</time>
      </trkpt>
      <trkpt lat="47.62204" lon="0.81046">
        <ele>151.39999389648</ele>
        <time>2021-07-17T09:08:49.000Z</time>
      </trkpt>
      <trkpt lat="47.62192" lon="0.81066">
        <ele>149.80000305176</ele>
        <time>2021-07-17T09:08:52.000Z</time>
      </trkpt>
      <trkpt lat="47.62188" lon="0.81072">
        <ele>148.19999694824</ele>
        <time>2021-07-17T09:08:53.000Z</time>
      </trkpt>
      <trkpt lat="47.6216" lon="0.81117">
        <ele>147.19999694824</ele>
        <time>2021-07-17T09:09:00.000Z</time>
      </trkpt>
      <trkpt lat="47.62149" lon="0.81136">
        <ele>148.19999694824</ele>
        <time>2021-07-17T09:09:03.000Z</time>
      </trkpt>
      <trkpt lat="47.62109" lon="0.812">
        <ele>148.60000610352</ele>
        <time>2021-07-17T09:09:13.000Z</time>
      </trkpt>
      <trkpt lat="47.62071" lon="0.81262">
        <ele>149.19999694824</ele>
        <time>2021-07-17T09:09:22.000Z</time>
      </trkpt>
      <trkpt lat="47.62055" lon="0.81289">
        <ele>148.19999694824</ele>
        <time>2021-07-17T09:09:26.000Z</time>
      </trkpt>
      <trkpt lat="47.62014" lon="0.81354">
        <ele>147.80000305176</ele>
        <time>2021-07-17T09:09:36.000Z</time>
      </trkpt>
      <trkpt lat="47.61993" lon="0.81388">
        <ele>149.60000610352</ele>
        <time>2021-07-17T09:09:41.000Z</time>
      </trkpt>
      <trkpt lat="47.61955" lon="0.81449">
        <ele>149</ele>
        <time>2021-07-17T09:09:50.000Z</time>
      </trkpt>
      <trkpt lat="47.61934" lon="0.81484">
        <ele>148.39999389648</ele>
        <time>2021-07-17T09:09:55.000Z</time>
      </trkpt>
      <trkpt lat="47.61896" lon="0.81545">
        <ele>147.80000305176</ele>
        <time>2021-07-17T09:10:05.000Z</time>
      </trkpt>
      <trkpt lat="47.61888" lon="0.81557">
        <ele>147</ele>
        <time>2021-07-17T09:10:07.000Z</time>
      </trkpt>
      <trkpt lat="47.61852" lon="0.81616">
        <ele>146.80000305176</ele>
        <time>2021-07-17T09:10:16.000Z</time>
      </trkpt>
      <trkpt lat="47.61815" lon="0.81676">
        <ele>147</ele>
        <time>2021-07-17T09:10:25.000Z</time>
      </trkpt>
      <trkpt lat="47.6179" lon="0.81717">
        <ele>145.39999389648</ele>
        <time>2021-07-17T09:10:31.000Z</time>
      </trkpt>
      <trkpt lat="47.61786" lon="0.81724">
        <ele>144.39999389648</ele>
        <time>2021-07-17T09:10:32.000Z</time>
      </trkpt>
      <trkpt lat="47.61749" lon="0.81783">
        <ele>144.19999694824</ele>
        <time>2021-07-17T09:10:42.000Z</time>
      </trkpt>
      <trkpt lat="47.61742" lon="0.81796">
        <ele>144.60000610352</ele>
        <time>2021-07-17T09:10:44.000Z</time>
      </trkpt>
      <trkpt lat="47.61731" lon="0.81815">
        <ele>145.39999389648</ele>
        <time>2021-07-17T09:10:47.000Z</time>
      </trkpt>
      <trkpt lat="47.61689" lon="0.8188">
        <ele>143.60000610352</ele>
        <time>2021-07-17T09:10:56.000Z</time>
      </trkpt>
      <trkpt lat="47.61674" lon="0.81904">
        <ele>143.19999694824</ele>
        <time>2021-07-17T09:10:59.000Z</time>
      </trkpt>
      <trkpt lat="47.61654" lon="0.81936">
        <ele>144.60000610352</ele>
        <time>2021-07-17T09:11:03.000Z</time>
      </trkpt>
      <trkpt lat="47.61626" lon="0.81984">
        <ele>144.19999694824</ele>
        <time>2021-07-17T09:11:09.000Z</time>
      </trkpt>
      <trkpt lat="47.61616" lon="0.81999">
        <ele>143.39999389648</ele>
        <time>2021-07-17T09:11:11.000Z</time>
      </trkpt>
      <trkpt lat="47.61591" lon="0.82036">
        <ele>142.19999694824</ele>
        <time>2021-07-17T09:11:16.000Z</time>
      </trkpt>
      <trkpt lat="47.61587" lon="0.82043">
        <ele>140.39999389648</ele>
        <time>2021-07-17T09:11:17.000Z</time>
      </trkpt>
      <trkpt lat="47.61566" lon="0.82071">
        <ele>139.19999694824</ele>
        <time>2021-07-17T09:11:21.000Z</time>
      </trkpt>
      <trkpt lat="47.61528" lon="0.82105">
        <ele>137.80000305176</ele>
        <time>2021-07-17T09:11:27.000Z</time>
      </trkpt>
      <trkpt lat="47.61502" lon="0.82127">
        <ele>136.80000305176</ele>
        <time>2021-07-17T09:11:31.000Z</time>
      </trkpt>
      <trkpt lat="47.61491" lon="0.82142">
        <ele>136</ele>
        <time>2021-07-17T09:11:33.000Z</time>
      </trkpt>
      <trkpt lat="47.61486" lon="0.82151">
        <ele>135.19999694824</ele>
        <time>2021-07-17T09:11:34.000Z</time>
      </trkpt>
      <trkpt lat="47.61481" lon="0.82161">
        <ele>134.60000610352</ele>
        <time>2021-07-17T09:11:35.000Z</time>
      </trkpt>
      <trkpt lat="47.61475" lon="0.82182">
        <ele>134.80000305176</ele>
        <time>2021-07-17T09:11:37.000Z</time>
      </trkpt>
      <trkpt lat="47.61473" lon="0.82206">
        <ele>134</ele>
        <time>2021-07-17T09:11:39.000Z</time>
      </trkpt>
      <trkpt lat="47.61475" lon="0.8223">
        <ele>133</ele>
        <time>2021-07-17T09:11:41.000Z</time>
      </trkpt>
      <trkpt lat="47.61481" lon="0.82266">
        <ele>131.60000610352</ele>
        <time>2021-07-17T09:11:44.000Z</time>
      </trkpt>
      <trkpt lat="47.61483" lon="0.82278">
        <ele>131</ele>
        <time>2021-07-17T09:11:45.000Z</time>
      </trkpt>
      <trkpt lat="47.61484" lon="0.82291">
        <ele>130.60000610352</ele>
        <time>2021-07-17T09:11:46.000Z</time>
      </trkpt>
      <trkpt lat="47.61484" lon="0.82303">
        <ele>130</ele>
        <time>2021-07-17T09:11:47.000Z</time>
      </trkpt>
      <trkpt lat="47.61482" lon="0.82316">
        <ele>129.39999389648</ele>
        <time>2021-07-17T09:11:48.000Z</time>
      </trkpt>
      <trkpt lat="47.61478" lon="0.82328">
        <ele>128.60000610352</ele>
        <time>2021-07-17T09:11:49.000Z</time>
      </trkpt>
      <trkpt lat="47.61471" lon="0.82338">
        <ele>128.19999694824</ele>
        <time>2021-07-17T09:11:50.000Z</time>
      </trkpt>
      <trkpt lat="47.61463" lon="0.82345">
        <ele>127.40000152588</ele>
        <time>2021-07-17T09:11:51.000Z</time>
      </trkpt>
      <trkpt lat="47.61454" lon="0.82349">
        <ele>126.59999847412</ele>
        <time>2021-07-17T09:11:52.000Z</time>
      </trkpt>
      <trkpt lat="47.61444" lon="0.82349">
        <ele>126.19999694824</ele>
        <time>2021-07-17T09:11:53.000Z</time>
      </trkpt>
      <trkpt lat="47.61435" lon="0.82346">
        <ele>125.59999847412</ele>
        <time>2021-07-17T09:11:54.000Z</time>
      </trkpt>
      <trkpt lat="47.61426" lon="0.8234">
        <ele>125.19999694824</ele>
        <time>2021-07-17T09:11:55.000Z</time>
      </trkpt>
      <trkpt lat="47.6141" lon="0.82325">
        <ele>124.19999694824</ele>
        <time>2021-07-17T09:11:57.000Z</time>
      </trkpt>
      <trkpt lat="47.61385" lon="0.82304">
        <ele>122.80000305176</ele>
        <time>2021-07-17T09:12:00.000Z</time>
      </trkpt>
      <trkpt lat="47.61367" lon="0.82298">
        <ele>121.80000305176</ele>
        <time>2021-07-17T09:12:02.000Z</time>
      </trkpt>
      <trkpt lat="47.61349" lon="0.823">
        <ele>122.59999847412</ele>
        <time>2021-07-17T09:12:04.000Z</time>
      </trkpt>
      <trkpt lat="47.61333" lon="0.82308">
        <ele>123.40000152588</ele>
        <time>2021-07-17T09:12:06.000Z</time>
      </trkpt>
      <trkpt lat="47.61326" lon="0.82313">
        <ele>123.80000305176</ele>
        <time>2021-07-17T09:12:07.000Z</time>
      </trkpt>
      <trkpt lat="47.6132" lon="0.82318">
        <ele>124.19999694824</ele>
        <time>2021-07-17T09:12:08.000Z</time>
      </trkpt>
      <trkpt lat="47.6131" lon="0.82331">
        <ele>125</ele>
        <time>2021-07-17T09:12:10.000Z</time>
      </trkpt>
      <trkpt lat="47.61299" lon="0.82348">
        <ele>126.80000305176</ele>
        <time>2021-07-17T09:12:13.000Z</time>
      </trkpt>
      <trkpt lat="47.61286" lon="0.82362">
        <ele>126.80000305176</ele>
        <time>2021-07-17T09:12:57.000Z</time>
      </trkpt>
      <trkpt lat="47.61268" lon="0.82356">
        <ele>127.80000305176</ele>
        <time>2021-07-17T09:13:05.000Z</time>
      </trkpt>
      <trkpt lat="47.61255" lon="0.8235">
        <ele>128.80000305176</ele>
        <time>2021-07-17T09:13:09.000Z</time>
      </trkpt>
      <trkpt lat="47.61231" lon="0.82339">
        <ele>130</ele>
        <time>2021-07-17T09:13:15.000Z</time>
      </trkpt>
      <trkpt lat="47.61223" lon="0.82335">
        <ele>130.39999389648</ele>
        <time>2021-07-17T09:13:17.000Z</time>
      </trkpt>
      <trkpt lat="47.61214" lon="0.82332">
        <ele>131.39999389648</ele>
        <time>2021-07-17T09:13:19.000Z</time>
      </trkpt>
      <trkpt lat="47.61201" lon="0.82326">
        <ele>132.60000610352</ele>
        <time>2021-07-17T09:13:22.000Z</time>
      </trkpt>
      <trkpt lat="47.61188" lon="0.8232">
        <ele>133.60000610352</ele>
        <time>2021-07-17T09:13:25.000Z</time>
      </trkpt>
      <trkpt lat="47.61171" lon="0.82313">
        <ele>135</ele>
        <time>2021-07-17T09:13:29.000Z</time>
      </trkpt>
      <trkpt lat="47.61153" lon="0.82308">
        <ele>136</ele>
        <time>2021-07-17T09:13:34.000Z</time>
      </trkpt>
      <trkpt lat="47.61123" lon="0.82298">
        <ele>137</ele>
        <time>2021-07-17T09:13:42.000Z</time>
      </trkpt>
      <trkpt lat="47.61092" lon="0.82293">
        <ele>138.19999694824</ele>
        <time>2021-07-17T09:13:50.000Z</time>
      </trkpt>
      <trkpt lat="47.61066" lon="0.82292">
        <ele>139.19999694824</ele>
        <time>2021-07-17T09:13:56.000Z</time>
      </trkpt>
      <trkpt lat="47.61029" lon="0.82291">
        <ele>140.39999389648</ele>
        <time>2021-07-17T09:14:05.000Z</time>
      </trkpt>
      <trkpt lat="47.60993" lon="0.82293">
        <ele>141.39999389648</ele>
        <time>2021-07-17T09:14:14.000Z</time>
      </trkpt>
      <trkpt lat="47.60974" lon="0.82294">
        <ele>142.39999389648</ele>
        <time>2021-07-17T09:14:19.000Z</time>
      </trkpt>
      <trkpt lat="47.6095" lon="0.82295">
        <ele>143.60000610352</ele>
        <time>2021-07-17T09:14:25.000Z</time>
      </trkpt>
      <trkpt lat="47.60919" lon="0.82298">
        <ele>144.80000305176</ele>
        <time>2021-07-17T09:14:33.000Z</time>
      </trkpt>
      <trkpt lat="47.60895" lon="0.82301">
        <ele>146</ele>
        <time>2021-07-17T09:14:39.000Z</time>
      </trkpt>
      <trkpt lat="47.60883" lon="0.82301">
        <ele>146.39999389648</ele>
        <time>2021-07-17T09:14:42.000Z</time>
      </trkpt>
      <trkpt lat="47.60875" lon="0.82302">
        <ele>146.39999389648</ele>
        <time>2021-07-17T09:14:44.000Z</time>
      </trkpt>
      <trkpt lat="47.60846" lon="0.82304">
        <ele>147.39999389648</ele>
        <time>2021-07-17T09:14:51.000Z</time>
      </trkpt>
      <trkpt lat="47.60817" lon="0.82306">
        <ele>148.19999694824</ele>
        <time>2021-07-17T09:14:58.000Z</time>
      </trkpt>
      <trkpt lat="47.60809" lon="0.82306">
        <ele>148.39999389648</ele>
        <time>2021-07-17T09:15:00.000Z</time>
      </trkpt>
      <trkpt lat="47.60753" lon="0.82322">
        <ele>148.80000305176</ele>
        <time>2021-07-17T09:15:13.000Z</time>
      </trkpt>
      <trkpt lat="47.60726" lon="0.82338">
        <ele>150.60000610352</ele>
        <time>2021-07-17T09:15:19.000Z</time>
      </trkpt>
      <trkpt lat="47.6071" lon="0.82342">
        <ele>150.60000610352</ele>
        <time>2021-07-17T09:15:22.000Z</time>
      </trkpt>
      <trkpt lat="47.60656" lon="0.82344">
        <ele>150.19999694824</ele>
        <time>2021-07-17T09:15:32.000Z</time>
      </trkpt>
      <trkpt lat="47.60639" lon="0.82344">
        <ele>149.39999389648</ele>
        <time>2021-07-17T09:15:35.000Z</time>
      </trkpt>
      <trkpt lat="47.60579" lon="0.82345">
        <ele>148.80000305176</ele>
        <time>2021-07-17T09:15:45.000Z</time>
      </trkpt>
      <trkpt lat="47.6056" lon="0.82346">
        <ele>148.19999694824</ele>
        <time>2021-07-17T09:15:48.000Z</time>
      </trkpt>
      <trkpt lat="47.60519" lon="0.82346">
        <ele>147.19999694824</ele>
        <time>2021-07-17T09:15:54.000Z</time>
      </trkpt>
      <trkpt lat="47.60484" lon="0.82347">
        <ele>146</ele>
        <time>2021-07-17T09:15:59.000Z</time>
      </trkpt>
      <trkpt lat="47.60428" lon="0.82349">
        <ele>145.19999694824</ele>
        <time>2021-07-17T09:16:07.000Z</time>
      </trkpt>
      <trkpt lat="47.60422" lon="0.82349">
        <ele>144.80000305176</ele>
        <time>2021-07-17T09:16:08.000Z</time>
      </trkpt>
      <trkpt lat="47.60368" lon="0.8235">
        <ele>144.80000305176</ele>
        <time>2021-07-17T09:16:18.000Z</time>
      </trkpt>
      <trkpt lat="47.60336" lon="0.8235">
        <ele>143.39999389648</ele>
        <time>2021-07-17T09:16:24.000Z</time>
      </trkpt>
      <trkpt lat="47.60316" lon="0.8235">
        <ele>144.60000610352</ele>
        <time>2021-07-17T09:16:28.000Z</time>
      </trkpt>
      <trkpt lat="47.60257" lon="0.82351">
        <ele>145.39999389648</ele>
        <time>2021-07-17T09:16:39.000Z</time>
      </trkpt>
      <trkpt lat="47.60246" lon="0.82351">
        <ele>144.80000305176</ele>
        <time>2021-07-17T09:16:41.000Z</time>
      </trkpt>
      <trkpt lat="47.60224" lon="0.82351">
        <ele>145.80000305176</ele>
        <time>2021-07-17T09:16:45.000Z</time>
      </trkpt>
      <trkpt lat="47.60166" lon="0.82353">
        <ele>146.80000305176</ele>
        <time>2021-07-17T09:16:55.000Z</time>
      </trkpt>
      <trkpt lat="47.60107" lon="0.82354">
        <ele>145</ele>
        <time>2021-07-17T09:17:04.000Z</time>
      </trkpt>
      <trkpt lat="47.601" lon="0.82354">
        <ele>144.19999694824</ele>
        <time>2021-07-17T09:17:05.000Z</time>
      </trkpt>
      <trkpt lat="47.60057" lon="0.82355">
        <ele>142.80000305176</ele>
        <time>2021-07-17T09:17:11.000Z</time>
      </trkpt>
      <trkpt lat="47.60012" lon="0.82356">
        <ele>141.80000305176</ele>
        <time>2021-07-17T09:17:17.000Z</time>
      </trkpt>
      <trkpt lat="47.59955" lon="0.82356">
        <ele>142</ele>
        <time>2021-07-17T09:17:25.000Z</time>
      </trkpt>
      <trkpt lat="47.599" lon="0.82356">
        <ele>141.80000305176</ele>
        <time>2021-07-17T09:17:33.000Z</time>
      </trkpt>
      <trkpt lat="47.59843" lon="0.82357">
        <ele>143</ele>
        <time>2021-07-17T09:17:42.000Z</time>
      </trkpt>
      <trkpt lat="47.59825" lon="0.82357">
        <ele>145</ele>
        <time>2021-07-17T09:17:45.000Z</time>
      </trkpt>
      <trkpt lat="47.59814" lon="0.82357">
        <ele>146.39999389648</ele>
        <time>2021-07-17T09:17:47.000Z</time>
      </trkpt>
      <trkpt lat="47.59781" lon="0.82358">
        <ele>147.39999389648</ele>
        <time>2021-07-17T09:17:54.000Z</time>
      </trkpt>
      <trkpt lat="47.59768" lon="0.82358">
        <ele>148</ele>
        <time>2021-07-17T09:17:57.000Z</time>
      </trkpt>
      <trkpt lat="47.59744" lon="0.82359">
        <ele>148.60000610352</ele>
        <time>2021-07-17T09:18:03.000Z</time>
      </trkpt>
      <trkpt lat="47.59715" lon="0.8236">
        <ele>149.60000610352</ele>
        <time>2021-07-17T09:18:10.000Z</time>
      </trkpt>
      <trkpt lat="47.59688" lon="0.82361">
        <ele>150.60000610352</ele>
        <time>2021-07-17T09:18:17.000Z</time>
      </trkpt>
      <trkpt lat="47.59648" lon="0.82361">
        <ele>151.80000305176</ele>
        <time>2021-07-17T09:18:27.000Z</time>
      </trkpt>
      <trkpt lat="47.59593" lon="0.82361">
        <ele>151.80000305176</ele>
        <time>2021-07-17T09:18:40.000Z</time>
      </trkpt>
      <trkpt lat="47.59535" lon="0.82362">
        <ele>152.60000610352</ele>
        <time>2021-07-17T09:18:52.000Z</time>
      </trkpt>
      <trkpt lat="47.59479" lon="0.82364">
        <ele>151.19999694824</ele>
        <time>2021-07-17T09:19:03.000Z</time>
      </trkpt>
      <trkpt lat="47.59436" lon="0.82365">
        <ele>153.19999694824</ele>
        <time>2021-07-17T09:19:11.000Z</time>
      </trkpt>
      <trkpt lat="47.59381" lon="0.82366">
        <ele>153.80000305176</ele>
        <time>2021-07-17T09:19:21.000Z</time>
      </trkpt>
      <trkpt lat="47.59324" lon="0.82367">
        <ele>153.60000610352</ele>
        <time>2021-07-17T09:19:31.000Z</time>
      </trkpt>
      <trkpt lat="47.59268" lon="0.82368">
        <ele>153.60000610352</ele>
        <time>2021-07-17T09:19:41.000Z</time>
      </trkpt>
      <trkpt lat="47.59212" lon="0.82372">
        <ele>153.39999389648</ele>
        <time>2021-07-17T09:19:52.000Z</time>
      </trkpt>
      <trkpt lat="47.59191" lon="0.82381">
        <ele>153.80000305176</ele>
        <time>2021-07-17T09:19:56.000Z</time>
      </trkpt>
      <trkpt lat="47.59186" lon="0.82385">
        <ele>154.19999694824</ele>
        <time>2021-07-17T09:19:57.000Z</time>
      </trkpt>
      <trkpt lat="47.59135" lon="0.82419">
        <ele>152.80000305176</ele>
        <time>2021-07-17T09:20:06.000Z</time>
      </trkpt>
      <trkpt lat="47.59129" lon="0.82423">
        <ele>151.39999389648</ele>
        <time>2021-07-17T09:20:07.000Z</time>
      </trkpt>
      <trkpt lat="47.59111" lon="0.82434">
        <ele>150.19999694824</ele>
        <time>2021-07-17T09:20:10.000Z</time>
      </trkpt>
      <trkpt lat="47.5906" lon="0.82466">
        <ele>149.60000610352</ele>
        <time>2021-07-17T09:20:18.000Z</time>
      </trkpt>
      <trkpt lat="47.59032" lon="0.82483">
        <ele>149</ele>
        <time>2021-07-17T09:20:22.000Z</time>
      </trkpt>
      <trkpt lat="47.58984" lon="0.82514">
        <ele>148</ele>
        <time>2021-07-17T09:20:29.000Z</time>
      </trkpt>
      <trkpt lat="47.58943" lon="0.8254">
        <ele>149</ele>
        <time>2021-07-17T09:20:35.000Z</time>
      </trkpt>
      <trkpt lat="47.58888" lon="0.82579">
        <ele>148</ele>
        <time>2021-07-17T09:20:43.000Z</time>
      </trkpt>
      <trkpt lat="47.5888" lon="0.82584">
        <ele>148</ele>
        <time>2021-07-17T09:20:44.000Z</time>
      </trkpt>
      <trkpt lat="47.58845" lon="0.82608">
        <ele>146.39999389648</ele>
        <time>2021-07-17T09:20:49.000Z</time>
      </trkpt>
      <trkpt lat="47.58792" lon="0.82642">
        <ele>145.19999694824</ele>
        <time>2021-07-17T09:20:57.000Z</time>
      </trkpt>
      <trkpt lat="47.58733" lon="0.8266">
        <ele>144.39999389648</ele>
        <time>2021-07-17T09:21:05.000Z</time>
      </trkpt>
      <trkpt lat="47.58725" lon="0.8266">
        <ele>144</ele>
        <time>2021-07-17T09:21:06.000Z</time>
      </trkpt>
      <trkpt lat="47.58701" lon="0.82661">
        <ele>142.80000305176</ele>
        <time>2021-07-17T09:21:09.000Z</time>
      </trkpt>
      <trkpt lat="47.58646" lon="0.82662">
        <ele>142.80000305176</ele>
        <time>2021-07-17T09:21:16.000Z</time>
      </trkpt>
      <trkpt lat="47.58592" lon="0.82665">
        <ele>142.39999389648</ele>
        <time>2021-07-17T09:21:23.000Z</time>
      </trkpt>
      <trkpt lat="47.58553" lon="0.82668">
        <ele>141.80000305176</ele>
        <time>2021-07-17T09:21:28.000Z</time>
      </trkpt>
      <trkpt lat="47.58497" lon="0.82673">
        <ele>141.60000610352</ele>
        <time>2021-07-17T09:21:35.000Z</time>
      </trkpt>
      <trkpt lat="47.58451" lon="0.82676">
        <ele>140.80000305176</ele>
        <time>2021-07-17T09:21:41.000Z</time>
      </trkpt>
      <trkpt lat="47.58396" lon="0.82677">
        <ele>140</ele>
        <time>2021-07-17T09:21:48.000Z</time>
      </trkpt>
      <trkpt lat="47.5838" lon="0.82676">
        <ele>139.60000610352</ele>
        <time>2021-07-17T09:21:50.000Z</time>
      </trkpt>
      <trkpt lat="47.58338" lon="0.82676">
        <ele>138.39999389648</ele>
        <time>2021-07-17T09:21:55.000Z</time>
      </trkpt>
      <trkpt lat="47.58279" lon="0.82681">
        <ele>138.60000610352</ele>
        <time>2021-07-17T09:22:02.000Z</time>
      </trkpt>
      <trkpt lat="47.58219" lon="0.82674">
        <ele>137.80000305176</ele>
        <time>2021-07-17T09:22:10.000Z</time>
      </trkpt>
      <trkpt lat="47.58186" lon="0.8265">
        <ele>137.39999389648</ele>
        <time>2021-07-17T09:22:15.000Z</time>
      </trkpt>
      <trkpt lat="47.58143" lon="0.82597">
        <ele>137.80000305176</ele>
        <time>2021-07-17T09:22:23.000Z</time>
      </trkpt>
      <trkpt lat="47.58131" lon="0.82581">
        <ele>138.19999694824</ele>
        <time>2021-07-17T09:22:27.000Z</time>
      </trkpt>
      <trkpt lat="47.58122" lon="0.82576">
        <ele>138</ele>
        <time>2021-07-17T09:22:29.000Z</time>
      </trkpt>
      <trkpt lat="47.58064" lon="0.8256">
        <ele>136.80000305176</ele>
        <time>2021-07-17T09:22:38.000Z</time>
      </trkpt>
      <trkpt lat="47.58005" lon="0.82557">
        <ele>138.60000610352</ele>
        <time>2021-07-17T09:22:47.000Z</time>
      </trkpt>
      <trkpt lat="47.57968" lon="0.82555">
        <ele>139.60000610352</ele>
        <time>2021-07-17T09:22:53.000Z</time>
      </trkpt>
      <trkpt lat="47.57923" lon="0.82553">
        <ele>140.60000610352</ele>
        <time>2021-07-17T09:23:01.000Z</time>
      </trkpt>
      <trkpt lat="47.5788" lon="0.82546">
        <ele>141.80000305176</ele>
        <time>2021-07-17T09:23:09.000Z</time>
      </trkpt>
      <trkpt lat="47.57833" lon="0.82526">
        <ele>142.80000305176</ele>
        <time>2021-07-17T09:23:18.000Z</time>
      </trkpt>
      <trkpt lat="47.5778" lon="0.82507">
        <ele>142.60000610352</ele>
        <time>2021-07-17T09:23:28.000Z</time>
      </trkpt>
      <trkpt lat="47.57739" lon="0.82499">
        <ele>141.39999389648</ele>
        <time>2021-07-17T09:23:35.000Z</time>
      </trkpt>
      <trkpt lat="47.5771" lon="0.82492">
        <ele>140.39999389648</ele>
        <time>2021-07-17T09:23:40.000Z</time>
      </trkpt>
      <trkpt lat="47.57653" lon="0.82478">
        <ele>139.39999389648</ele>
        <time>2021-07-17T09:23:50.000Z</time>
      </trkpt>
      <trkpt lat="47.57636" lon="0.82474">
        <ele>139.19999694824</ele>
        <time>2021-07-17T09:23:53.000Z</time>
      </trkpt>
      <trkpt lat="47.57577" lon="0.8246">
        <ele>137.80000305176</ele>
        <time>2021-07-17T09:24:03.000Z</time>
      </trkpt>
      <trkpt lat="47.57557" lon="0.82456">
        <ele>136.39999389648</ele>
        <time>2021-07-17T09:24:06.000Z</time>
      </trkpt>
      <trkpt lat="47.57527" lon="0.82449">
        <ele>135</ele>
        <time>2021-07-17T09:24:10.000Z</time>
      </trkpt>
      <trkpt lat="47.57503" lon="0.82444">
        <ele>136.19999694824</ele>
        <time>2021-07-17T09:24:13.000Z</time>
      </trkpt>
      <trkpt lat="47.57449" lon="0.82432">
        <ele>135.80000305176</ele>
        <time>2021-07-17T09:24:20.000Z</time>
      </trkpt>
      <trkpt lat="47.57397" lon="0.82416">
        <ele>135.19999694824</ele>
        <time>2021-07-17T09:24:28.000Z</time>
      </trkpt>
      <trkpt lat="47.57368" lon="0.82403">
        <ele>136.39999389648</ele>
        <time>2021-07-17T09:24:33.000Z</time>
      </trkpt>
      <trkpt lat="47.57347" lon="0.82386">
        <ele>137.60000610352</ele>
        <time>2021-07-17T09:24:37.000Z</time>
      </trkpt>
      <trkpt lat="47.57326" lon="0.82367">
        <ele>138.80000305176</ele>
        <time>2021-07-17T09:24:41.000Z</time>
      </trkpt>
      <trkpt lat="47.57311" lon="0.82353">
        <ele>139.80000305176</ele>
        <time>2021-07-17T09:24:44.000Z</time>
      </trkpt>
      <trkpt lat="47.57291" lon="0.82335">
        <ele>140.80000305176</ele>
        <time>2021-07-17T09:24:48.000Z</time>
      </trkpt>
      <trkpt lat="47.57266" lon="0.82314">
        <ele>142</ele>
        <time>2021-07-17T09:24:53.000Z</time>
      </trkpt>
      <trkpt lat="47.57243" lon="0.82297">
        <ele>143</ele>
        <time>2021-07-17T09:24:58.000Z</time>
      </trkpt>
      <trkpt lat="47.57214" lon="0.82278">
        <ele>142.39999389648</ele>
        <time>2021-07-17T09:25:04.000Z</time>
      </trkpt>
      <trkpt lat="47.57185" lon="0.82271">
        <ele>141.80000305176</ele>
        <time>2021-07-17T09:25:09.000Z</time>
      </trkpt>
      <trkpt lat="47.57153" lon="0.82268">
        <ele>140.80000305176</ele>
        <time>2021-07-17T09:25:14.000Z</time>
      </trkpt>
      <trkpt lat="47.57098" lon="0.82255">
        <ele>141</ele>
        <time>2021-07-17T09:25:23.000Z</time>
      </trkpt>
      <trkpt lat="47.57053" lon="0.8223">
        <ele>142</ele>
        <time>2021-07-17T09:25:31.000Z</time>
      </trkpt>
      <trkpt lat="47.57013" lon="0.82204">
        <ele>143</ele>
        <time>2021-07-17T09:25:39.000Z</time>
      </trkpt>
      <trkpt lat="47.56959" lon="0.82169">
        <ele>144</ele>
        <time>2021-07-17T09:25:50.000Z</time>
      </trkpt>
      <trkpt lat="47.56949" lon="0.82163">
        <ele>144</ele>
        <time>2021-07-17T09:25:52.000Z</time>
      </trkpt>
      <trkpt lat="47.56895" lon="0.82141">
        <ele>145</ele>
        <time>2021-07-17T09:26:02.000Z</time>
      </trkpt>
      <trkpt lat="47.56838" lon="0.82118">
        <ele>144.39999389648</ele>
        <time>2021-07-17T09:26:12.000Z</time>
      </trkpt>
      <trkpt lat="47.56808" lon="0.82107">
        <ele>143</ele>
        <time>2021-07-17T09:26:17.000Z</time>
      </trkpt>
      <trkpt lat="47.56752" lon="0.82082">
        <ele>143.39999389648</ele>
        <time>2021-07-17T09:26:26.000Z</time>
      </trkpt>
      <trkpt lat="47.56705" lon="0.8204">
        <ele>142.80000305176</ele>
        <time>2021-07-17T09:26:34.000Z</time>
      </trkpt>
      <trkpt lat="47.5666" lon="0.81994">
        <ele>143</ele>
        <time>2021-07-17T09:26:42.000Z</time>
      </trkpt>
      <trkpt lat="47.5661" lon="0.81944">
        <ele>142.39999389648</ele>
        <time>2021-07-17T09:26:51.000Z</time>
      </trkpt>
      <trkpt lat="47.56565" lon="0.81898">
        <ele>142.80000305176</ele>
        <time>2021-07-17T09:26:59.000Z</time>
      </trkpt>
      <trkpt lat="47.56514" lon="0.81853">
        <ele>142.39999389648</ele>
        <time>2021-07-17T09:27:08.000Z</time>
      </trkpt>
      <trkpt lat="47.56501" lon="0.81846">
        <ele>142.19999694824</ele>
        <time>2021-07-17T09:27:10.000Z</time>
      </trkpt>
      <trkpt lat="47.56495" lon="0.81844">
        <ele>142</ele>
        <time>2021-07-17T09:27:11.000Z</time>
      </trkpt>
      <trkpt lat="47.56482" lon="0.8184">
        <ele>143</ele>
        <time>2021-07-17T09:27:13.000Z</time>
      </trkpt>
      <trkpt lat="47.56476" lon="0.81839">
        <ele>141.80000305176</ele>
        <time>2021-07-17T09:27:14.000Z</time>
      </trkpt>
      <trkpt lat="47.56444" lon="0.81839">
        <ele>140.80000305176</ele>
        <time>2021-07-17T09:27:19.000Z</time>
      </trkpt>
      <trkpt lat="47.5639" lon="0.81863">
        <ele>140.60000610352</ele>
        <time>2021-07-17T09:27:28.000Z</time>
      </trkpt>
      <trkpt lat="47.56373" lon="0.81874">
        <ele>139.39999389648</ele>
        <time>2021-07-17T09:27:31.000Z</time>
      </trkpt>
      <trkpt lat="47.56327" lon="0.81904">
        <ele>140.60000610352</ele>
        <time>2021-07-17T09:27:39.000Z</time>
      </trkpt>
      <trkpt lat="47.56276" lon="0.81937">
        <ele>140.39999389648</ele>
        <time>2021-07-17T09:27:48.000Z</time>
      </trkpt>
      <trkpt lat="47.56264" lon="0.81945">
        <ele>139.60000610352</ele>
        <time>2021-07-17T09:27:50.000Z</time>
      </trkpt>
      <trkpt lat="47.56253" lon="0.81952">
        <ele>139.60000610352</ele>
        <time>2021-07-17T09:27:52.000Z</time>
      </trkpt>
      <trkpt lat="47.56237" lon="0.81962">
        <ele>139.80000305176</ele>
        <time>2021-07-17T09:27:55.000Z</time>
      </trkpt>
      <trkpt lat="47.56221" lon="0.81972">
        <ele>140.60000610352</ele>
        <time>2021-07-17T09:27:58.000Z</time>
      </trkpt>
      <trkpt lat="47.56206" lon="0.81981">
        <ele>142.19999694824</ele>
        <time>2021-07-17T09:28:01.000Z</time>
      </trkpt>
      <trkpt lat="47.56201" lon="0.81984">
        <ele>142.19999694824</ele>
        <time>2021-07-17T09:28:02.000Z</time>
      </trkpt>
      <trkpt lat="47.56149" lon="0.82018">
        <ele>142.39999389648</ele>
        <time>2021-07-17T09:28:12.000Z</time>
      </trkpt>
      <trkpt lat="47.56116" lon="0.82038">
        <ele>142.80000305176</ele>
        <time>2021-07-17T09:28:18.000Z</time>
      </trkpt>
      <trkpt lat="47.56069" lon="0.82081">
        <ele>142.19999694824</ele>
        <time>2021-07-17T09:28:27.000Z</time>
      </trkpt>
      <trkpt lat="47.5605" lon="0.82104">
        <ele>141.19999694824</ele>
        <time>2021-07-17T09:28:31.000Z</time>
      </trkpt>
      <trkpt lat="47.56008" lon="0.82158">
        <ele>141.19999694824</ele>
        <time>2021-07-17T09:28:40.000Z</time>
      </trkpt>
      <trkpt lat="47.55967" lon="0.82211">
        <ele>141.60000610352</ele>
        <time>2021-07-17T09:28:49.000Z</time>
      </trkpt>
      <trkpt lat="47.55933" lon="0.82252">
        <ele>142.19999694824</ele>
        <time>2021-07-17T09:28:56.000Z</time>
      </trkpt>
      <trkpt lat="47.55891" lon="0.82305">
        <ele>142.39999389648</ele>
        <time>2021-07-17T09:29:05.000Z</time>
      </trkpt>
      <trkpt lat="47.55847" lon="0.82362">
        <ele>141.39999389648</ele>
        <time>2021-07-17T09:29:15.000Z</time>
      </trkpt>
      <trkpt lat="47.55842" lon="0.82367">
        <ele>141</ele>
        <time>2021-07-17T09:29:16.000Z</time>
      </trkpt>
      <trkpt lat="47.55798" lon="0.82423">
        <ele>140.80000305176</ele>
        <time>2021-07-17T09:29:26.000Z</time>
      </trkpt>
      <trkpt lat="47.55755" lon="0.82478">
        <ele>140.19999694824</ele>
        <time>2021-07-17T09:29:36.000Z</time>
      </trkpt>
      <trkpt lat="47.55745" lon="0.82489">
        <ele>140</ele>
        <time>2021-07-17T09:29:38.000Z</time>
      </trkpt>
      <trkpt lat="47.55723" lon="0.82518">
        <ele>141</ele>
        <time>2021-07-17T09:29:43.000Z</time>
      </trkpt>
      <trkpt lat="47.55679" lon="0.82573">
        <ele>140.80000305176</ele>
        <time>2021-07-17T09:29:53.000Z</time>
      </trkpt>
      <trkpt lat="47.55642" lon="0.82621">
        <ele>141.80000305176</ele>
        <time>2021-07-17T09:30:02.000Z</time>
      </trkpt>
      <trkpt lat="47.55598" lon="0.82676">
        <ele>141.39999389648</ele>
        <time>2021-07-17T09:30:12.000Z</time>
      </trkpt>
      <trkpt lat="47.55553" lon="0.82732">
        <ele>141</ele>
        <time>2021-07-17T09:30:22.000Z</time>
      </trkpt>
      <trkpt lat="47.55535" lon="0.82755">
        <ele>139.60000610352</ele>
        <time>2021-07-17T09:30:26.000Z</time>
      </trkpt>
      <trkpt lat="47.55522" lon="0.82773">
        <ele>138.60000610352</ele>
        <time>2021-07-17T09:30:29.000Z</time>
      </trkpt>
      <trkpt lat="47.55479" lon="0.82824">
        <ele>138.60000610352</ele>
        <time>2021-07-17T09:30:38.000Z</time>
      </trkpt>
      <trkpt lat="47.55433" lon="0.82868">
        <ele>138.60000610352</ele>
        <time>2021-07-17T09:30:47.000Z</time>
      </trkpt>
      <trkpt lat="47.55416" lon="0.82881">
        <ele>139.80000305176</ele>
        <time>2021-07-17T09:30:50.000Z</time>
      </trkpt>
      <trkpt lat="47.55362" lon="0.82915">
        <ele>140.19999694824</ele>
        <time>2021-07-17T09:30:59.000Z</time>
      </trkpt>
      <trkpt lat="47.55356" lon="0.82918">
        <ele>140.80000305176</ele>
        <time>2021-07-17T09:31:00.000Z</time>
      </trkpt>
      <trkpt lat="47.55338" lon="0.82928">
        <ele>138.39999389648</ele>
        <time>2021-07-17T09:31:03.000Z</time>
      </trkpt>
      <trkpt lat="47.55313" lon="0.82941">
        <ele>137.19999694824</ele>
        <time>2021-07-17T09:31:07.000Z</time>
      </trkpt>
      <trkpt lat="47.5528" lon="0.82959">
        <ele>138.60000610352</ele>
        <time>2021-07-17T09:31:12.000Z</time>
      </trkpt>
      <trkpt lat="47.5526" lon="0.82969">
        <ele>139.80000305176</ele>
        <time>2021-07-17T09:31:15.000Z</time>
      </trkpt>
      <trkpt lat="47.55205" lon="0.82998">
        <ele>138.80000305176</ele>
        <time>2021-07-17T09:31:23.000Z</time>
      </trkpt>
      <trkpt lat="47.55198" lon="0.83002">
        <ele>138.60000610352</ele>
        <time>2021-07-17T09:31:24.000Z</time>
      </trkpt>
      <trkpt lat="47.55149" lon="0.83046">
        <ele>138.19999694824</ele>
        <time>2021-07-17T09:31:32.000Z</time>
      </trkpt>
      <trkpt lat="47.55134" lon="0.83068">
        <ele>137.60000610352</ele>
        <time>2021-07-17T09:31:35.000Z</time>
      </trkpt>
      <trkpt lat="47.55108" lon="0.83128">
        <ele>138.39999389648</ele>
        <time>2021-07-17T09:31:42.000Z</time>
      </trkpt>
      <trkpt lat="47.55087" lon="0.83201">
        <ele>137.80000305176</ele>
        <time>2021-07-17T09:31:51.000Z</time>
      </trkpt>
      <trkpt lat="47.55062" lon="0.83274">
        <ele>137.80000305176</ele>
        <time>2021-07-17T09:32:01.000Z</time>
      </trkpt>
      <trkpt lat="47.55047" lon="0.83301">
        <ele>137.39999389648</ele>
        <time>2021-07-17T09:32:05.000Z</time>
      </trkpt>
      <trkpt lat="47.55028" lon="0.83324">
        <ele>136.39999389648</ele>
        <time>2021-07-17T09:32:09.000Z</time>
      </trkpt>
      <trkpt lat="47.54976" lon="0.83354">
        <ele>135.39999389648</ele>
        <time>2021-07-17T09:32:18.000Z</time>
      </trkpt>
      <trkpt lat="47.54971" lon="0.83356">
        <ele>134.39999389648</ele>
        <time>2021-07-17T09:32:19.000Z</time>
      </trkpt>
      <trkpt lat="47.54914" lon="0.83377">
        <ele>133.19999694824</ele>
        <time>2021-07-17T09:32:28.000Z</time>
      </trkpt>
      <trkpt lat="47.54889" lon="0.83385">
        <ele>134.60000610352</ele>
        <time>2021-07-17T09:32:32.000Z</time>
      </trkpt>
      <trkpt lat="47.54835" lon="0.83405">
        <ele>134</ele>
        <time>2021-07-17T09:32:40.000Z</time>
      </trkpt>
      <trkpt lat="47.5482" lon="0.8341">
        <ele>133.60000610352</ele>
        <time>2021-07-17T09:32:42.000Z</time>
      </trkpt>
      <trkpt lat="47.54812" lon="0.83413">
        <ele>132.39999389648</ele>
        <time>2021-07-17T09:32:43.000Z</time>
      </trkpt>
      <trkpt lat="47.54796" lon="0.83419">
        <ele>131.19999694824</ele>
        <time>2021-07-17T09:32:45.000Z</time>
      </trkpt>
      <trkpt lat="47.54763" lon="0.83431">
        <ele>129.60000610352</ele>
        <time>2021-07-17T09:32:49.000Z</time>
      </trkpt>
      <trkpt lat="47.54745" lon="0.83438">
        <ele>128.39999389648</ele>
        <time>2021-07-17T09:32:51.000Z</time>
      </trkpt>
      <trkpt lat="47.5469" lon="0.83463">
        <ele>127.19999694824</ele>
        <time>2021-07-17T09:32:57.000Z</time>
      </trkpt>
      <trkpt lat="47.54638" lon="0.83511">
        <ele>126</ele>
        <time>2021-07-17T09:33:03.000Z</time>
      </trkpt>
      <trkpt lat="47.54624" lon="0.83531">
        <ele>124.80000305176</ele>
        <time>2021-07-17T09:33:05.000Z</time>
      </trkpt>
      <trkpt lat="47.5461" lon="0.83553">
        <ele>123.40000152588</ele>
        <time>2021-07-17T09:33:07.000Z</time>
      </trkpt>
      <trkpt lat="47.54596" lon="0.83574">
        <ele>121.59999847412</ele>
        <time>2021-07-17T09:33:09.000Z</time>
      </trkpt>
      <trkpt lat="47.54582" lon="0.83595">
        <ele>120</ele>
        <time>2021-07-17T09:33:11.000Z</time>
      </trkpt>
      <trkpt lat="47.54544" lon="0.83639">
        <ele>119</ele>
        <time>2021-07-17T09:33:16.000Z</time>
      </trkpt>
      <trkpt lat="47.54536" lon="0.83645">
        <ele>118.40000152588</ele>
        <time>2021-07-17T09:33:17.000Z</time>
      </trkpt>
      <trkpt lat="47.54526" lon="0.83648">
        <ele>118</ele>
        <time>2021-07-17T09:33:18.000Z</time>
      </trkpt>
      <trkpt lat="47.54516" lon="0.83649">
        <ele>117</ele>
        <time>2021-07-17T09:33:19.000Z</time>
      </trkpt>
      <trkpt lat="47.54485" lon="0.83651">
        <ele>114.80000305176</ele>
        <time>2021-07-17T09:33:22.000Z</time>
      </trkpt>
      <trkpt lat="47.54475" lon="0.83652">
        <ele>113.40000152588</ele>
        <time>2021-07-17T09:33:23.000Z</time>
      </trkpt>
      <trkpt lat="47.54422" lon="0.83658">
        <ele>111.80000305176</ele>
        <time>2021-07-17T09:33:28.000Z</time>
      </trkpt>
      <trkpt lat="47.54412" lon="0.83661">
        <ele>110.59999847412</ele>
        <time>2021-07-17T09:33:29.000Z</time>
      </trkpt>
      <trkpt lat="47.54402" lon="0.83665">
        <ele>108.59999847412</ele>
        <time>2021-07-17T09:33:30.000Z</time>
      </trkpt>
      <trkpt lat="47.54384" lon="0.83673">
        <ele>107</ele>
        <time>2021-07-17T09:33:32.000Z</time>
      </trkpt>
      <trkpt lat="47.54368" lon="0.83679">
        <ele>105.19999694824</ele>
        <time>2021-07-17T09:33:34.000Z</time>
      </trkpt>
      <trkpt lat="47.54353" lon="0.83686">
        <ele>104.19999694824</ele>
        <time>2021-07-17T09:33:36.000Z</time>
      </trkpt>
      <trkpt lat="47.54331" lon="0.83695">
        <ele>102.80000305176</ele>
        <time>2021-07-17T09:33:39.000Z</time>
      </trkpt>
      <trkpt lat="47.54308" lon="0.83707">
        <ele>101.19999694824</ele>
        <time>2021-07-17T09:33:42.000Z</time>
      </trkpt>
      <trkpt lat="47.54287" lon="0.83719">
        <ele>100</ele>
        <time>2021-07-17T09:33:45.000Z</time>
      </trkpt>
      <trkpt lat="47.54279" lon="0.83725">
        <ele>98.599998474121</ele>
        <time>2021-07-17T09:33:47.000Z</time>
      </trkpt>
      <trkpt lat="47.54272" lon="0.83727">
        <ele>97.400001525879</ele>
        <time>2021-07-17T09:33:50.000Z</time>
      </trkpt>
      <trkpt lat="47.54263" lon="0.83699">
        <ele>97.199996948242</ele>
        <time>2021-07-17T09:33:57.000Z</time>
      </trkpt>
      <trkpt lat="47.54257" lon="0.83624">
        <ele>97.599998474121</ele>
        <time>2021-07-17T09:34:48.000Z</time>
      </trkpt>
      <trkpt lat="47.54256" lon="0.83616">
        <ele>97.800003051758</ele>
        <time>2021-07-17T09:34:51.000Z</time>
      </trkpt>
      <trkpt lat="47.5424" lon="0.83625">
        <ele>98.400001525879</ele>
        <time>2021-07-17T09:34:58.000Z</time>
      </trkpt>
      <trkpt lat="47.54222" lon="0.8364">
        <ele>100</ele>
        <time>2021-07-17T09:35:04.000Z</time>
      </trkpt>
      <trkpt lat="47.54217" lon="0.83646">
        <ele>101</ele>
        <time>2021-07-17T09:35:06.000Z</time>
      </trkpt>
      <trkpt lat="47.54205" lon="0.83658">
        <ele>102.19999694824</ele>
        <time>2021-07-17T09:35:10.000Z</time>
      </trkpt>
      <trkpt lat="47.54193" lon="0.83675">
        <ele>103.40000152588</ele>
        <time>2021-07-17T09:35:15.000Z</time>
      </trkpt>
      <trkpt lat="47.54181" lon="0.83696">
        <ele>104.40000152588</ele>
        <time>2021-07-17T09:35:21.000Z</time>
      </trkpt>
      <trkpt lat="47.5417" lon="0.83712">
        <ele>105.59999847412</ele>
        <time>2021-07-17T09:35:26.000Z</time>
      </trkpt>
      <trkpt lat="47.54161" lon="0.83724">
        <ele>106.59999847412</ele>
        <time>2021-07-17T09:35:30.000Z</time>
      </trkpt>
      <trkpt lat="47.54151" lon="0.83738">
        <ele>107.80000305176</ele>
        <time>2021-07-17T09:35:35.000Z</time>
      </trkpt>
      <trkpt lat="47.5414" lon="0.83752">
        <ele>109</ele>
        <time>2021-07-17T09:35:40.000Z</time>
      </trkpt>
      <trkpt lat="47.54126" lon="0.83768">
        <ele>110</ele>
        <time>2021-07-17T09:35:46.000Z</time>
      </trkpt>
      <trkpt lat="47.54115" lon="0.83782">
        <ele>111.19999694824</ele>
        <time>2021-07-17T09:35:51.000Z</time>
      </trkpt>
      <trkpt lat="47.54101" lon="0.83796">
        <ele>112.40000152588</ele>
        <time>2021-07-17T09:35:57.000Z</time>
      </trkpt>
      <trkpt lat="47.54087" lon="0.8381">
        <ele>113.40000152588</ele>
        <time>2021-07-17T09:36:03.000Z</time>
      </trkpt>
      <trkpt lat="47.54073" lon="0.8382">
        <ele>114.59999847412</ele>
        <time>2021-07-17T09:36:09.000Z</time>
      </trkpt>
      <trkpt lat="47.54054" lon="0.8383">
        <ele>115.59999847412</ele>
        <time>2021-07-17T09:36:16.000Z</time>
      </trkpt>
      <trkpt lat="47.54038" lon="0.83837">
        <ele>116.80000305176</ele>
        <time>2021-07-17T09:36:22.000Z</time>
      </trkpt>
      <trkpt lat="47.54017" lon="0.83843">
        <ele>117.80000305176</ele>
        <time>2021-07-17T09:36:29.000Z</time>
      </trkpt>
      <trkpt lat="47.54003" lon="0.83848">
        <ele>119</ele>
        <time>2021-07-17T09:36:34.000Z</time>
      </trkpt>
      <trkpt lat="47.53989" lon="0.83852">
        <ele>120.19999694824</ele>
        <time>2021-07-17T09:36:39.000Z</time>
      </trkpt>
      <trkpt lat="47.53975" lon="0.83857">
        <ele>121.19999694824</ele>
        <time>2021-07-17T09:36:44.000Z</time>
      </trkpt>
      <trkpt lat="47.53959" lon="0.83863">
        <ele>122.40000152588</ele>
        <time>2021-07-17T09:36:50.000Z</time>
      </trkpt>
      <trkpt lat="47.53944" lon="0.83868">
        <ele>123.40000152588</ele>
        <time>2021-07-17T09:36:55.000Z</time>
      </trkpt>
      <trkpt lat="47.53929" lon="0.83873">
        <ele>124.59999847412</ele>
        <time>2021-07-17T09:37:00.000Z</time>
      </trkpt>
      <trkpt lat="47.53914" lon="0.83878">
        <ele>125.59999847412</ele>
        <time>2021-07-17T09:37:05.000Z</time>
      </trkpt>
      <trkpt lat="47.53879" lon="0.83889">
        <ele>126.59999847412</ele>
        <time>2021-07-17T09:37:15.000Z</time>
      </trkpt>
      <trkpt lat="47.53843" lon="0.83898">
        <ele>127.80000305176</ele>
        <time>2021-07-17T09:37:24.000Z</time>
      </trkpt>
      <trkpt lat="47.53818" lon="0.83906">
        <ele>128.80000305176</ele>
        <time>2021-07-17T09:37:30.000Z</time>
      </trkpt>
      <trkpt lat="47.53772" lon="0.83952">
        <ele>128.39999389648</ele>
        <time>2021-07-17T09:37:42.000Z</time>
      </trkpt>
      <trkpt lat="47.53754" lon="0.83973">
        <ele>128</ele>
        <time>2021-07-17T09:37:46.000Z</time>
      </trkpt>
      <trkpt lat="47.53744" lon="0.83981">
        <ele>128</ele>
        <time>2021-07-17T09:37:48.000Z</time>
      </trkpt>
      <trkpt lat="47.53738" lon="0.83984">
        <ele>127.59999847412</ele>
        <time>2021-07-17T09:37:49.000Z</time>
      </trkpt>
      <trkpt lat="47.53683" lon="0.83992">
        <ele>127.19999694824</ele>
        <time>2021-07-17T09:37:59.000Z</time>
      </trkpt>
      <trkpt lat="47.53632" lon="0.84002">
        <ele>128.60000610352</ele>
        <time>2021-07-17T09:38:09.000Z</time>
      </trkpt>
      <trkpt lat="47.53578" lon="0.84014">
        <ele>128.60000610352</ele>
        <time>2021-07-17T09:38:20.000Z</time>
      </trkpt>
      <trkpt lat="47.53534" lon="0.84019">
        <ele>129.80000305176</ele>
        <time>2021-07-17T09:38:29.000Z</time>
      </trkpt>
      <trkpt lat="47.53492" lon="0.84032">
        <ele>130.80000305176</ele>
        <time>2021-07-17T09:38:38.000Z</time>
      </trkpt>
      <trkpt lat="47.53448" lon="0.84078">
        <ele>132</ele>
        <time>2021-07-17T09:38:49.000Z</time>
      </trkpt>
      <trkpt lat="47.53434" lon="0.84112">
        <ele>133</ele>
        <time>2021-07-17T09:38:54.000Z</time>
      </trkpt>
      <trkpt lat="47.53408" lon="0.84188">
        <ele>132.60000610352</ele>
        <time>2021-07-17T09:39:05.000Z</time>
      </trkpt>
      <trkpt lat="47.53404" lon="0.84202">
        <ele>132</ele>
        <time>2021-07-17T09:39:07.000Z</time>
      </trkpt>
      <trkpt lat="47.53399" lon="0.84213">
        <ele>130.80000305176</ele>
        <time>2021-07-17T09:39:09.000Z</time>
      </trkpt>
      <trkpt lat="47.53394" lon="0.84221">
        <ele>130.19999694824</ele>
        <time>2021-07-17T09:39:12.000Z</time>
      </trkpt>
      <trkpt lat="47.53392" lon="0.8422">
        <ele>130</ele>
        <time>2021-07-17T09:39:14.000Z</time>
      </trkpt>
      <trkpt lat="47.53387" lon="0.84218">
        <ele>129.80000305176</ele>
        <time>2021-07-17T09:39:17.000Z</time>
      </trkpt>
      <trkpt lat="47.53384" lon="0.84222">
        <ele>130.60000610352</ele>
        <time>2021-07-17T09:39:19.000Z</time>
      </trkpt>
      <trkpt lat="47.53383" lon="0.84233">
        <ele>131.80000305176</ele>
        <time>2021-07-17T09:39:21.000Z</time>
      </trkpt>
      <trkpt lat="47.53384" lon="0.84247">
        <ele>130.39999389648</ele>
        <time>2021-07-17T09:39:23.000Z</time>
      </trkpt>
      <trkpt lat="47.53379" lon="0.84259">
        <ele>130.19999694824</ele>
        <time>2021-07-17T09:39:25.000Z</time>
      </trkpt>
      <trkpt lat="47.53368" lon="0.84275">
        <ele>129.60000610352</ele>
        <time>2021-07-17T09:39:28.000Z</time>
      </trkpt>
      <trkpt lat="47.53354" lon="0.84291">
        <ele>130</ele>
        <time>2021-07-17T09:39:31.000Z</time>
      </trkpt>
      <trkpt lat="47.53336" lon="0.84302">
        <ele>129.80000305176</ele>
        <time>2021-07-17T09:39:34.000Z</time>
      </trkpt>
      <trkpt lat="47.53276" lon="0.84302">
        <ele>129</ele>
        <time>2021-07-17T09:39:43.000Z</time>
      </trkpt>
      <trkpt lat="47.53263" lon="0.843">
        <ele>128.39999389648</ele>
        <time>2021-07-17T09:39:45.000Z</time>
      </trkpt>
      <trkpt lat="47.5323" lon="0.84298">
        <ele>127.19999694824</ele>
        <time>2021-07-17T09:39:50.000Z</time>
      </trkpt>
      <trkpt lat="47.53173" lon="0.84314">
        <ele>127.80000305176</ele>
        <time>2021-07-17T09:39:58.000Z</time>
      </trkpt>
      <trkpt lat="47.53158" lon="0.8432">
        <ele>124.80000305176</ele>
        <time>2021-07-17T09:40:00.000Z</time>
      </trkpt>
      <trkpt lat="47.53151" lon="0.84323">
        <ele>123.40000152588</ele>
        <time>2021-07-17T09:40:01.000Z</time>
      </trkpt>
      <trkpt lat="47.53098" lon="0.84344">
        <ele>123.19999694824</ele>
        <time>2021-07-17T09:40:09.000Z</time>
      </trkpt>
      <trkpt lat="47.53085" lon="0.8435">
        <ele>121.59999847412</ele>
        <time>2021-07-17T09:40:11.000Z</time>
      </trkpt>
      <trkpt lat="47.53029" lon="0.84373">
        <ele>122.19999694824</ele>
        <time>2021-07-17T09:40:20.000Z</time>
      </trkpt>
      <trkpt lat="47.53005" lon="0.84384">
        <ele>122.80000305176</ele>
        <time>2021-07-17T09:40:24.000Z</time>
      </trkpt>
      <trkpt lat="47.52951" lon="0.84406">
        <ele>123.40000152588</ele>
        <time>2021-07-17T09:40:33.000Z</time>
      </trkpt>
      <trkpt lat="47.52894" lon="0.8442">
        <ele>124.80000305176</ele>
        <time>2021-07-17T09:40:42.000Z</time>
      </trkpt>
      <trkpt lat="47.52836" lon="0.84424">
        <ele>124.59999847412</ele>
        <time>2021-07-17T09:40:51.000Z</time>
      </trkpt>
      <trkpt lat="47.52776" lon="0.84428">
        <ele>124.19999694824</ele>
        <time>2021-07-17T09:41:00.000Z</time>
      </trkpt>
      <trkpt lat="47.52763" lon="0.84428">
        <ele>123.59999847412</ele>
        <time>2021-07-17T09:41:02.000Z</time>
      </trkpt>
      <trkpt lat="47.52706" lon="0.84432">
        <ele>123.40000152588</ele>
        <time>2021-07-17T09:41:11.000Z</time>
      </trkpt>
      <trkpt lat="47.5265" lon="0.84435">
        <ele>123.40000152588</ele>
        <time>2021-07-17T09:41:20.000Z</time>
      </trkpt>
      <trkpt lat="47.52594" lon="0.84438">
        <ele>124.19999694824</ele>
        <time>2021-07-17T09:41:29.000Z</time>
      </trkpt>
      <trkpt lat="47.5254" lon="0.84442">
        <ele>124.19999694824</ele>
        <time>2021-07-17T09:41:38.000Z</time>
      </trkpt>
      <trkpt lat="47.52485" lon="0.84448">
        <ele>122</ele>
        <time>2021-07-17T09:41:47.000Z</time>
      </trkpt>
      <trkpt lat="47.52473" lon="0.8445">
        <ele>120.80000305176</ele>
        <time>2021-07-17T09:41:49.000Z</time>
      </trkpt>
      <trkpt lat="47.52419" lon="0.84463">
        <ele>119.80000305176</ele>
        <time>2021-07-17T09:41:58.000Z</time>
      </trkpt>
      <trkpt lat="47.52384" lon="0.84472">
        <ele>119.59999847412</ele>
        <time>2021-07-17T09:42:04.000Z</time>
      </trkpt>
      <trkpt lat="47.52328" lon="0.84488">
        <ele>119.59999847412</ele>
        <time>2021-07-17T09:42:14.000Z</time>
      </trkpt>
      <trkpt lat="47.52276" lon="0.84511">
        <ele>120.19999694824</ele>
        <time>2021-07-17T09:42:23.000Z</time>
      </trkpt>
      <trkpt lat="47.5222" lon="0.84531">
        <ele>121.40000152588</ele>
        <time>2021-07-17T09:42:32.000Z</time>
      </trkpt>
      <trkpt lat="47.52207" lon="0.84534">
        <ele>120.19999694824</ele>
        <time>2021-07-17T09:42:34.000Z</time>
      </trkpt>
      <trkpt lat="47.52153" lon="0.84545">
        <ele>121.19999694824</ele>
        <time>2021-07-17T09:42:43.000Z</time>
      </trkpt>
      <trkpt lat="47.52147" lon="0.84547">
        <ele>121.40000152588</ele>
        <time>2021-07-17T09:42:44.000Z</time>
      </trkpt>
      <trkpt lat="47.52101" lon="0.84579">
        <ele>122.59999847412</ele>
        <time>2021-07-17T09:42:53.000Z</time>
      </trkpt>
      <trkpt lat="47.52092" lon="0.84587">
        <ele>123.80000305176</ele>
        <time>2021-07-17T09:42:55.000Z</time>
      </trkpt>
      <trkpt lat="47.52069" lon="0.84603">
        <ele>123.59999847412</ele>
        <time>2021-07-17T09:43:03.000Z</time>
      </trkpt>
      <trkpt lat="47.52068" lon="0.84602">
        <ele>122.59999847412</ele>
        <time>2021-07-17T09:43:30.000Z</time>
      </trkpt>
      <trkpt lat="47.52068" lon="0.84602">
        <ele>122.80000305176</ele>
        <time>2021-07-17T09:43:40.000Z</time>
      </trkpt>
      <trkpt lat="47.52067" lon="0.84606">
        <ele>122.59999847412</ele>
        <time>2021-07-17T09:43:42.000Z</time>
      </trkpt>
      <trkpt lat="47.52064" lon="0.84613">
        <ele>122.59999847412</ele>
        <time>2021-07-17T09:43:44.000Z</time>
      </trkpt>
      <trkpt lat="47.52058" lon="0.84619">
        <ele>122.40000152588</ele>
        <time>2021-07-17T09:43:46.000Z</time>
      </trkpt>
      <trkpt lat="47.52024" lon="0.84646">
        <ele>121.59999847412</ele>
        <time>2021-07-17T09:43:53.000Z</time>
      </trkpt>
      <trkpt lat="47.51972" lon="0.84681">
        <ele>121.40000152588</ele>
        <time>2021-07-17T09:44:02.000Z</time>
      </trkpt>
      <trkpt lat="47.51918" lon="0.84701">
        <ele>121</ele>
        <time>2021-07-17T09:44:10.000Z</time>
      </trkpt>
      <trkpt lat="47.51864" lon="0.84703">
        <ele>121.19999694824</ele>
        <time>2021-07-17T09:44:18.000Z</time>
      </trkpt>
      <trkpt lat="47.51805" lon="0.84704">
        <ele>121.19999694824</ele>
        <time>2021-07-17T09:44:27.000Z</time>
      </trkpt>
      <trkpt lat="47.51745" lon="0.84708">
        <ele>120.80000305176</ele>
        <time>2021-07-17T09:44:36.000Z</time>
      </trkpt>
      <trkpt lat="47.51738" lon="0.84712">
        <ele>120.40000152588</ele>
        <time>2021-07-17T09:44:37.000Z</time>
      </trkpt>
      <trkpt lat="47.51732" lon="0.84717">
        <ele>120</ele>
        <time>2021-07-17T09:44:38.000Z</time>
      </trkpt>
      <trkpt lat="47.51723" lon="0.84733">
        <ele>119</ele>
        <time>2021-07-17T09:44:40.000Z</time>
      </trkpt>
      <trkpt lat="47.51717" lon="0.84752">
        <ele>121.80000305176</ele>
        <time>2021-07-17T09:44:42.000Z</time>
      </trkpt>
      <trkpt lat="47.51709" lon="0.84832">
        <ele>121.40000152588</ele>
        <time>2021-07-17T09:44:50.000Z</time>
      </trkpt>
      <trkpt lat="47.51708" lon="0.84841">
        <ele>120.40000152588</ele>
        <time>2021-07-17T09:44:51.000Z</time>
      </trkpt>
      <trkpt lat="47.517" lon="0.84924">
        <ele>120</ele>
        <time>2021-07-17T09:45:00.000Z</time>
      </trkpt>
      <trkpt lat="47.51693" lon="0.84996">
        <ele>119</ele>
        <time>2021-07-17T09:45:08.000Z</time>
      </trkpt>
      <trkpt lat="47.51682" lon="0.85079">
        <ele>118.59999847412</ele>
        <time>2021-07-17T09:45:18.000Z</time>
      </trkpt>
      <trkpt lat="47.5168" lon="0.85087">
        <ele>118</ele>
        <time>2021-07-17T09:45:19.000Z</time>
      </trkpt>
      <trkpt lat="47.51661" lon="0.85166">
        <ele>117.80000305176</ele>
        <time>2021-07-17T09:45:29.000Z</time>
      </trkpt>
      <trkpt lat="47.51647" lon="0.85201">
        <ele>116</ele>
        <time>2021-07-17T09:45:34.000Z</time>
      </trkpt>
      <trkpt lat="47.5161" lon="0.85266">
        <ele>116</ele>
        <time>2021-07-17T09:45:44.000Z</time>
      </trkpt>
      <trkpt lat="47.51569" lon="0.85322">
        <ele>116.19999694824</ele>
        <time>2021-07-17T09:45:54.000Z</time>
      </trkpt>
      <trkpt lat="47.51553" lon="0.85341">
        <ele>117.19999694824</ele>
        <time>2021-07-17T09:45:58.000Z</time>
      </trkpt>
      <trkpt lat="47.51516" lon="0.85383">
        <ele>118.19999694824</ele>
        <time>2021-07-17T09:46:07.000Z</time>
      </trkpt>
      <trkpt lat="47.51483" lon="0.85419">
        <ele>119.40000152588</ele>
        <time>2021-07-17T09:46:15.000Z</time>
      </trkpt>
      <trkpt lat="47.51434" lon="0.85461">
        <ele>119</ele>
        <time>2021-07-17T09:46:26.000Z</time>
      </trkpt>
      <trkpt lat="47.51384" lon="0.85501">
        <ele>119.80000305176</ele>
        <time>2021-07-17T09:46:37.000Z</time>
      </trkpt>
      <trkpt lat="47.51374" lon="0.85508">
        <ele>120.59999847412</ele>
        <time>2021-07-17T09:46:39.000Z</time>
      </trkpt>
      <trkpt lat="47.5137" lon="0.85511">
        <ele>120.59999847412</ele>
        <time>2021-07-17T09:46:40.000Z</time>
      </trkpt>
      <trkpt lat="47.51338" lon="0.85536">
        <ele>119.40000152588</ele>
        <time>2021-07-17T09:46:47.000Z</time>
      </trkpt>
      <trkpt lat="47.51323" lon="0.85548">
        <ele>121</ele>
        <time>2021-07-17T09:46:50.000Z</time>
      </trkpt>
      <trkpt lat="47.51308" lon="0.8556">
        <ele>119.80000305176</ele>
        <time>2021-07-17T09:46:53.000Z</time>
      </trkpt>
      <trkpt lat="47.51293" lon="0.85572">
        <ele>120.80000305176</ele>
        <time>2021-07-17T09:46:56.000Z</time>
      </trkpt>
      <trkpt lat="47.51242" lon="0.85612">
        <ele>121.19999694824</ele>
        <time>2021-07-17T09:47:06.000Z</time>
      </trkpt>
      <trkpt lat="47.51225" lon="0.85625">
        <ele>119.80000305176</ele>
        <time>2021-07-17T09:47:09.000Z</time>
      </trkpt>
      <trkpt lat="47.51197" lon="0.85647">
        <ele>121.19999694824</ele>
        <time>2021-07-17T09:47:14.000Z</time>
      </trkpt>
      <trkpt lat="47.51186" lon="0.85656">
        <ele>120</ele>
        <time>2021-07-17T09:47:16.000Z</time>
      </trkpt>
      <trkpt lat="47.51181" lon="0.8566">
        <ele>119.19999694824</ele>
        <time>2021-07-17T09:47:17.000Z</time>
      </trkpt>
      <trkpt lat="47.51176" lon="0.85664">
        <ele>118.59999847412</ele>
        <time>2021-07-17T09:47:18.000Z</time>
      </trkpt>
      <trkpt lat="47.51137" lon="0.85693">
        <ele>119.80000305176</ele>
        <time>2021-07-17T09:47:25.000Z</time>
      </trkpt>
      <trkpt lat="47.51126" lon="0.85702">
        <ele>122.80000305176</ele>
        <time>2021-07-17T09:47:27.000Z</time>
      </trkpt>
      <trkpt lat="47.51116" lon="0.8571">
        <ele>124</ele>
        <time>2021-07-17T09:47:29.000Z</time>
      </trkpt>
      <trkpt lat="47.51066" lon="0.85749">
        <ele>123.59999847412</ele>
        <time>2021-07-17T09:47:39.000Z</time>
      </trkpt>
      <trkpt lat="47.51018" lon="0.85788">
        <ele>121</ele>
        <time>2021-07-17T09:47:49.000Z</time>
      </trkpt>
      <trkpt lat="47.50969" lon="0.85827">
        <ele>122.40000152588</ele>
        <time>2021-07-17T09:47:59.000Z</time>
      </trkpt>
      <trkpt lat="47.50964" lon="0.8583">
        <ele>121.40000152588</ele>
        <time>2021-07-17T09:48:00.000Z</time>
      </trkpt>
      <trkpt lat="47.50954" lon="0.85838">
        <ele>120.40000152588</ele>
        <time>2021-07-17T09:48:02.000Z</time>
      </trkpt>
      <trkpt lat="47.50904" lon="0.85877">
        <ele>121</ele>
        <time>2021-07-17T09:48:12.000Z</time>
      </trkpt>
      <trkpt lat="47.50855" lon="0.85917">
        <ele>120.40000152588</ele>
        <time>2021-07-17T09:48:22.000Z</time>
      </trkpt>
      <trkpt lat="47.50806" lon="0.85956">
        <ele>121</ele>
        <time>2021-07-17T09:48:32.000Z</time>
      </trkpt>
      <trkpt lat="47.50754" lon="0.85997">
        <ele>120</ele>
        <time>2021-07-17T09:48:42.000Z</time>
      </trkpt>
      <trkpt lat="47.50713" lon="0.86029">
        <ele>122</ele>
        <time>2021-07-17T09:48:49.000Z</time>
      </trkpt>
      <trkpt lat="47.50663" lon="0.8607">
        <ele>121.19999694824</ele>
        <time>2021-07-17T09:48:58.000Z</time>
      </trkpt>
      <trkpt lat="47.50652" lon="0.86078">
        <ele>120.80000305176</ele>
        <time>2021-07-17T09:49:00.000Z</time>
      </trkpt>
      <trkpt lat="47.50604" lon="0.86117">
        <ele>119.19999694824</ele>
        <time>2021-07-17T09:49:09.000Z</time>
      </trkpt>
      <trkpt lat="47.50598" lon="0.86121">
        <ele>118</ele>
        <time>2021-07-17T09:49:10.000Z</time>
      </trkpt>
      <trkpt lat="47.50556" lon="0.86154">
        <ele>117</ele>
        <time>2021-07-17T09:49:17.000Z</time>
      </trkpt>
      <trkpt lat="47.50513" lon="0.86188">
        <ele>115.80000305176</ele>
        <time>2021-07-17T09:49:24.000Z</time>
      </trkpt>
      <trkpt lat="47.50501" lon="0.86197">
        <ele>117</ele>
        <time>2021-07-17T09:49:26.000Z</time>
      </trkpt>
      <trkpt lat="47.50462" lon="0.86227">
        <ele>118.19999694824</ele>
        <time>2021-07-17T09:49:33.000Z</time>
      </trkpt>
      <trkpt lat="47.50429" lon="0.86249">
        <ele>119.40000152588</ele>
        <time>2021-07-17T09:49:39.000Z</time>
      </trkpt>
      <trkpt lat="47.50403" lon="0.86266">
        <ele>121</ele>
        <time>2021-07-17T09:49:44.000Z</time>
      </trkpt>
      <trkpt lat="47.50384" lon="0.86277">
        <ele>122</ele>
        <time>2021-07-17T09:49:48.000Z</time>
      </trkpt>
      <trkpt lat="47.50359" lon="0.8629">
        <ele>123.19999694824</ele>
        <time>2021-07-17T09:49:53.000Z</time>
      </trkpt>
      <trkpt lat="47.50332" lon="0.86308">
        <ele>124.40000152588</ele>
        <time>2021-07-17T09:49:59.000Z</time>
      </trkpt>
      <trkpt lat="47.5028" lon="0.8634">
        <ele>123.59999847412</ele>
        <time>2021-07-17T09:50:11.000Z</time>
      </trkpt>
      <trkpt lat="47.50244" lon="0.86377">
        <ele>123.19999694824</ele>
        <time>2021-07-17T09:50:19.000Z</time>
      </trkpt>
      <trkpt lat="47.50227" lon="0.86404">
        <ele>122</ele>
        <time>2021-07-17T09:50:23.000Z</time>
      </trkpt>
      <trkpt lat="47.50219" lon="0.8642">
        <ele>120.59999847412</ele>
        <time>2021-07-17T09:50:25.000Z</time>
      </trkpt>
      <trkpt lat="47.50209" lon="0.86444">
        <ele>119.19999694824</ele>
        <time>2021-07-17T09:50:28.000Z</time>
      </trkpt>
      <trkpt lat="47.50206" lon="0.86453">
        <ele>118</ele>
        <time>2021-07-17T09:50:29.000Z</time>
      </trkpt>
      <trkpt lat="47.50192" lon="0.86488">
        <ele>117</ele>
        <time>2021-07-17T09:50:33.000Z</time>
      </trkpt>
      <trkpt lat="47.50154" lon="0.86552">
        <ele>117.40000152588</ele>
        <time>2021-07-17T09:50:42.000Z</time>
      </trkpt>
      <trkpt lat="47.50144" lon="0.86566">
        <ele>118.19999694824</ele>
        <time>2021-07-17T09:50:44.000Z</time>
      </trkpt>
      <trkpt lat="47.50106" lon="0.86614">
        <ele>118.80000305176</ele>
        <time>2021-07-17T09:50:51.000Z</time>
      </trkpt>
      <trkpt lat="47.50078" lon="0.86631">
        <ele>117</ele>
        <time>2021-07-17T09:50:55.000Z</time>
      </trkpt>
      <trkpt lat="47.50049" lon="0.86644">
        <ele>116</ele>
        <time>2021-07-17T09:50:59.000Z</time>
      </trkpt>
      <trkpt lat="47.50028" lon="0.86655">
        <ele>114.80000305176</ele>
        <time>2021-07-17T09:51:02.000Z</time>
      </trkpt>
      <trkpt lat="47.49971" lon="0.86681">
        <ele>114.59999847412</ele>
        <time>2021-07-17T09:51:10.000Z</time>
      </trkpt>
      <trkpt lat="47.49922" lon="0.86708">
        <ele>114.19999694824</ele>
        <time>2021-07-17T09:51:18.000Z</time>
      </trkpt>
      <trkpt lat="47.49877" lon="0.86765">
        <ele>114.40000152588</ele>
        <time>2021-07-17T09:51:27.000Z</time>
      </trkpt>
      <trkpt lat="47.49835" lon="0.86817">
        <ele>115.40000152588</ele>
        <time>2021-07-17T09:51:36.000Z</time>
      </trkpt>
      <trkpt lat="47.49785" lon="0.86858">
        <ele>114.19999694824</ele>
        <time>2021-07-17T09:51:45.000Z</time>
      </trkpt>
      <trkpt lat="47.49733" lon="0.8689">
        <ele>114</ele>
        <time>2021-07-17T09:51:53.000Z</time>
      </trkpt>
      <trkpt lat="47.49727" lon="0.86894">
        <ele>113.80000305176</ele>
        <time>2021-07-17T09:51:54.000Z</time>
      </trkpt>
      <trkpt lat="47.49677" lon="0.86934">
        <ele>112.80000305176</ele>
        <time>2021-07-17T09:52:02.000Z</time>
      </trkpt>
      <trkpt lat="47.4967" lon="0.86939">
        <ele>112.40000152588</ele>
        <time>2021-07-17T09:52:03.000Z</time>
      </trkpt>
      <trkpt lat="47.49634" lon="0.86971">
        <ele>113.19999694824</ele>
        <time>2021-07-17T09:52:09.000Z</time>
      </trkpt>
      <trkpt lat="47.49628" lon="0.86976">
        <ele>113.40000152588</ele>
        <time>2021-07-17T09:52:10.000Z</time>
      </trkpt>
      <trkpt lat="47.49616" lon="0.86987">
        <ele>112</ele>
        <time>2021-07-17T09:52:12.000Z</time>
      </trkpt>
      <trkpt lat="47.49605" lon="0.86997">
        <ele>111</ele>
        <time>2021-07-17T09:52:14.000Z</time>
      </trkpt>
      <trkpt lat="47.49559" lon="0.87037">
        <ele>110</ele>
        <time>2021-07-17T09:52:22.000Z</time>
      </trkpt>
      <trkpt lat="47.49509" lon="0.87076">
        <ele>109</ele>
        <time>2021-07-17T09:52:30.000Z</time>
      </trkpt>
      <trkpt lat="47.49502" lon="0.8708">
        <ele>109</ele>
        <time>2021-07-17T09:52:31.000Z</time>
      </trkpt>
      <trkpt lat="47.49453" lon="0.87113">
        <ele>109.59999847412</ele>
        <time>2021-07-17T09:52:39.000Z</time>
      </trkpt>
      <trkpt lat="47.49436" lon="0.87127">
        <ele>110</ele>
        <time>2021-07-17T09:52:42.000Z</time>
      </trkpt>
      <trkpt lat="47.49386" lon="0.8717">
        <ele>110.59999847412</ele>
        <time>2021-07-17T09:52:51.000Z</time>
      </trkpt>
      <trkpt lat="47.49347" lon="0.87199">
        <ele>111</ele>
        <time>2021-07-17T09:52:58.000Z</time>
      </trkpt>
      <trkpt lat="47.49294" lon="0.87234">
        <ele>111</ele>
        <time>2021-07-17T09:53:07.000Z</time>
      </trkpt>
      <trkpt lat="47.49244" lon="0.87274">
        <ele>110.59999847412</ele>
        <time>2021-07-17T09:53:16.000Z</time>
      </trkpt>
      <trkpt lat="47.49233" lon="0.87285">
        <ele>109.19999694824</ele>
        <time>2021-07-17T09:53:18.000Z</time>
      </trkpt>
      <trkpt lat="47.49224" lon="0.87297">
        <ele>110.40000152588</ele>
        <time>2021-07-17T09:53:20.000Z</time>
      </trkpt>
      <trkpt lat="47.49185" lon="0.87353">
        <ele>109.80000305176</ele>
        <time>2021-07-17T09:53:29.000Z</time>
      </trkpt>
      <trkpt lat="47.49146" lon="0.87412">
        <ele>109.80000305176</ele>
        <time>2021-07-17T09:53:38.000Z</time>
      </trkpt>
      <trkpt lat="47.49116" lon="0.87461">
        <ele>109.19999694824</ele>
        <time>2021-07-17T09:53:45.000Z</time>
      </trkpt>
      <trkpt lat="47.49082" lon="0.87526">
        <ele>109</ele>
        <time>2021-07-17T09:53:53.000Z</time>
      </trkpt>
      <trkpt lat="47.49046" lon="0.87589">
        <ele>109.40000152588</ele>
        <time>2021-07-17T09:54:02.000Z</time>
      </trkpt>
      <trkpt lat="47.49035" lon="0.8761">
        <ele>110.19999694824</ele>
        <time>2021-07-17T09:54:05.000Z</time>
      </trkpt>
      <trkpt lat="47.49027" lon="0.87622">
        <ele>110.40000152588</ele>
        <time>2021-07-17T09:54:07.000Z</time>
      </trkpt>
      <trkpt lat="47.49017" lon="0.87628">
        <ele>110.80000305176</ele>
        <time>2021-07-17T09:54:09.000Z</time>
      </trkpt>
      <trkpt lat="47.49005" lon="0.87626">
        <ele>111.40000152588</ele>
        <time>2021-07-17T09:54:11.000Z</time>
      </trkpt>
      <trkpt lat="47.48954" lon="0.876">
        <ele>111.59999847412</ele>
        <time>2021-07-17T09:54:20.000Z</time>
      </trkpt>
      <trkpt lat="47.48902" lon="0.87576">
        <ele>111.80000305176</ele>
        <time>2021-07-17T09:54:29.000Z</time>
      </trkpt>
      <trkpt lat="47.48847" lon="0.87549">
        <ele>111.19999694824</ele>
        <time>2021-07-17T09:54:38.000Z</time>
      </trkpt>
      <trkpt lat="47.48793" lon="0.87525">
        <ele>110.40000152588</ele>
        <time>2021-07-17T09:54:46.000Z</time>
      </trkpt>
      <trkpt lat="47.48737" lon="0.87499">
        <ele>109.59999847412</ele>
        <time>2021-07-17T09:54:54.000Z</time>
      </trkpt>
      <trkpt lat="47.4873" lon="0.87496">
        <ele>109</ele>
        <time>2021-07-17T09:54:55.000Z</time>
      </trkpt>
      <trkpt lat="47.48676" lon="0.87472">
        <ele>108.19999694824</ele>
        <time>2021-07-17T09:55:03.000Z</time>
      </trkpt>
      <trkpt lat="47.48624" lon="0.87448">
        <ele>108.40000152588</ele>
        <time>2021-07-17T09:55:11.000Z</time>
      </trkpt>
      <trkpt lat="47.48599" lon="0.87436">
        <ele>109.19999694824</ele>
        <time>2021-07-17T09:55:15.000Z</time>
      </trkpt>
      <trkpt lat="47.48587" lon="0.87438">
        <ele>109.19999694824</ele>
        <time>2021-07-17T09:55:17.000Z</time>
      </trkpt>
      <trkpt lat="47.4858" lon="0.87453">
        <ele>109.80000305176</ele>
        <time>2021-07-17T09:55:19.000Z</time>
      </trkpt>
      <trkpt lat="47.48573" lon="0.87491">
        <ele>109.19999694824</ele>
        <time>2021-07-17T09:55:23.000Z</time>
      </trkpt>
      <trkpt lat="47.48555" lon="0.87569">
        <ele>107.80000305176</ele>
        <time>2021-07-17T09:55:31.000Z</time>
      </trkpt>
      <trkpt lat="47.48538" lon="0.87617">
        <ele>106.80000305176</ele>
        <time>2021-07-17T09:55:36.000Z</time>
      </trkpt>
      <trkpt lat="47.48535" lon="0.87627">
        <ele>105.40000152588</ele>
        <time>2021-07-17T09:55:37.000Z</time>
      </trkpt>
      <trkpt lat="47.48521" lon="0.87696">
        <ele>104.19999694824</ele>
        <time>2021-07-17T09:55:43.000Z</time>
      </trkpt>
      <trkpt lat="47.48512" lon="0.87733">
        <ele>102.80000305176</ele>
        <time>2021-07-17T09:55:46.000Z</time>
      </trkpt>
      <trkpt lat="47.48508" lon="0.87745">
        <ele>101.59999847412</ele>
        <time>2021-07-17T09:55:47.000Z</time>
      </trkpt>
      <trkpt lat="47.48497" lon="0.87767">
        <ele>100.80000305176</ele>
        <time>2021-07-17T09:55:49.000Z</time>
      </trkpt>
      <trkpt lat="47.48491" lon="0.87777">
        <ele>99.599998474121</ele>
        <time>2021-07-17T09:55:50.000Z</time>
      </trkpt>
      <trkpt lat="47.48477" lon="0.87796">
        <ele>98.599998474121</ele>
        <time>2021-07-17T09:55:52.000Z</time>
      </trkpt>
      <trkpt lat="47.48455" lon="0.87823">
        <ele>97.199996948242</ele>
        <time>2021-07-17T09:55:55.000Z</time>
      </trkpt>
      <trkpt lat="47.48433" lon="0.87851">
        <ele>95.800003051758</ele>
        <time>2021-07-17T09:55:58.000Z</time>
      </trkpt>
      <trkpt lat="47.48419" lon="0.87873">
        <ele>93.599998474121</ele>
        <time>2021-07-17T09:56:00.000Z</time>
      </trkpt>
      <trkpt lat="47.48413" lon="0.87884">
        <ele>92.400001525879</ele>
        <time>2021-07-17T09:56:01.000Z</time>
      </trkpt>
      <trkpt lat="47.484" lon="0.87907">
        <ele>90.599998474121</ele>
        <time>2021-07-17T09:56:03.000Z</time>
      </trkpt>
      <trkpt lat="47.48388" lon="0.87931">
        <ele>89.400001525879</ele>
        <time>2021-07-17T09:56:05.000Z</time>
      </trkpt>
      <trkpt lat="47.48373" lon="0.87972">
        <ele>88</ele>
        <time>2021-07-17T09:56:08.000Z</time>
      </trkpt>
      <trkpt lat="47.48367" lon="0.88003">
        <ele>86.800003051758</ele>
        <time>2021-07-17T09:56:10.000Z</time>
      </trkpt>
      <trkpt lat="47.48366" lon="0.88039">
        <ele>85.400001525879</ele>
        <time>2021-07-17T09:56:12.000Z</time>
      </trkpt>
      <trkpt lat="47.48367" lon="0.88056">
        <ele>84.199996948242</ele>
        <time>2021-07-17T09:56:13.000Z</time>
      </trkpt>
      <trkpt lat="47.48367" lon="0.88072">
        <ele>82.800003051758</ele>
        <time>2021-07-17T09:56:14.000Z</time>
      </trkpt>
      <trkpt lat="47.48367" lon="0.88086">
        <ele>81.199996948242</ele>
        <time>2021-07-17T09:56:15.000Z</time>
      </trkpt>
      <trkpt lat="47.48363" lon="0.88112">
        <ele>79.599998474121</ele>
        <time>2021-07-17T09:56:17.000Z</time>
      </trkpt>
      <trkpt lat="47.48358" lon="0.88124">
        <ele>78.599998474121</ele>
        <time>2021-07-17T09:56:18.000Z</time>
      </trkpt>
      <trkpt lat="47.48353" lon="0.88135">
        <ele>77.400001525879</ele>
        <time>2021-07-17T09:56:19.000Z</time>
      </trkpt>
      <trkpt lat="47.48349" lon="0.88146">
        <ele>76.400001525879</ele>
        <time>2021-07-17T09:56:20.000Z</time>
      </trkpt>
      <trkpt lat="47.48345" lon="0.88155">
        <ele>75.199996948242</ele>
        <time>2021-07-17T09:56:21.000Z</time>
      </trkpt>
      <trkpt lat="47.48342" lon="0.88164">
        <ele>73.800003051758</ele>
        <time>2021-07-17T09:56:22.000Z</time>
      </trkpt>
      <trkpt lat="47.48339" lon="0.88172">
        <ele>73</ele>
        <time>2021-07-17T09:56:23.000Z</time>
      </trkpt>
      <trkpt lat="47.48333" lon="0.88178">
        <ele>72.599998474121</ele>
        <time>2021-07-17T09:56:24.000Z</time>
      </trkpt>
      <trkpt lat="47.48327" lon="0.88183">
        <ele>71.800003051758</ele>
        <time>2021-07-17T09:56:25.000Z</time>
      </trkpt>
      <trkpt lat="47.48321" lon="0.8819">
        <ele>71.400001525879</ele>
        <time>2021-07-17T09:56:26.000Z</time>
      </trkpt>
      <trkpt lat="47.4831" lon="0.88206">
        <ele>70.599998474121</ele>
        <time>2021-07-17T09:56:28.000Z</time>
      </trkpt>
      <trkpt lat="47.48302" lon="0.88226">
        <ele>70</ele>
        <time>2021-07-17T09:56:30.000Z</time>
      </trkpt>
      <trkpt lat="47.48287" lon="0.8826">
        <ele>69</ele>
        <time>2021-07-17T09:56:34.000Z</time>
      </trkpt>
      <trkpt lat="47.48282" lon="0.88267">
        <ele>68.400001525879</ele>
        <time>2021-07-17T09:56:35.000Z</time>
      </trkpt>
      <trkpt lat="47.48258" lon="0.883">
        <ele>67.400001525879</ele>
        <time>2021-07-17T09:56:41.000Z</time>
      </trkpt>
      <trkpt lat="47.48254" lon="0.88305">
        <ele>67.199996948242</ele>
        <time>2021-07-17T09:56:42.000Z</time>
      </trkpt>
      <trkpt lat="47.48215" lon="0.88363">
        <ele>66.199996948242</ele>
        <time>2021-07-17T09:56:55.000Z</time>
      </trkpt>
      <trkpt lat="47.48211" lon="0.88363">
        <ele>66</ele>
        <time>2021-07-17T09:56:57.000Z</time>
      </trkpt>
      <trkpt lat="47.48205" lon="0.88366">
        <ele>66</ele>
        <time>2021-07-17T09:57:01.000Z</time>
      </trkpt>
      <trkpt lat="47.48188" lon="0.88418">
        <ele>66.400001525879</ele>
        <time>2021-07-17T09:57:14.000Z</time>
      </trkpt>
      <trkpt lat="47.48204" lon="0.8844">
        <ele>66.599998474121</ele>
        <time>2021-07-17T09:57:22.000Z</time>
      </trkpt>
      <trkpt lat="47.4826" lon="0.88492">
        <ele>69.599998474121</ele>
        <time>2021-07-17T10:40:59.000Z</time>
      </trkpt>
      <trkpt lat="47.48266" lon="0.88495">
        <ele>70</ele>
        <time>2021-07-17T10:41:01.000Z</time>
      </trkpt>
      <trkpt lat="47.48318" lon="0.88531">
        <ele>69.599998474121</ele>
        <time>2021-07-17T10:41:14.000Z</time>
      </trkpt>
      <trkpt lat="47.48353" lon="0.88543">
        <ele>68.800003051758</ele>
        <time>2021-07-17T10:41:21.000Z</time>
      </trkpt>
      <trkpt lat="47.48407" lon="0.88563">
        <ele>68.599998474121</ele>
        <time>2021-07-17T10:41:32.000Z</time>
      </trkpt>
      <trkpt lat="47.48461" lon="0.8859">
        <ele>69.199996948242</ele>
        <time>2021-07-17T10:41:44.000Z</time>
      </trkpt>
      <trkpt lat="47.48479" lon="0.88603">
        <ele>69</ele>
        <time>2021-07-17T10:41:48.000Z</time>
      </trkpt>
      <trkpt lat="47.48531" lon="0.88636">
        <ele>68.599998474121</ele>
        <time>2021-07-17T10:41:59.000Z</time>
      </trkpt>
      <trkpt lat="47.48584" lon="0.88667">
        <ele>70</ele>
        <time>2021-07-17T10:42:10.000Z</time>
      </trkpt>
      <trkpt lat="47.4861" lon="0.88684">
        <ele>71</ele>
        <time>2021-07-17T10:42:16.000Z</time>
      </trkpt>
      <trkpt lat="47.4866" lon="0.88724">
        <ele>70.800003051758</ele>
        <time>2021-07-17T10:42:30.000Z</time>
      </trkpt>
      <trkpt lat="47.48705" lon="0.88773">
        <ele>70.800003051758</ele>
        <time>2021-07-17T10:42:42.000Z</time>
      </trkpt>
      <trkpt lat="47.48717" lon="0.88787">
        <ele>69.800003051758</ele>
        <time>2021-07-17T10:42:45.000Z</time>
      </trkpt>
      <trkpt lat="47.48743" lon="0.88816">
        <ele>69.599998474121</ele>
        <time>2021-07-17T10:42:52.000Z</time>
      </trkpt>
      <trkpt lat="47.48793" lon="0.88855">
        <ele>69.199996948242</ele>
        <time>2021-07-17T10:43:04.000Z</time>
      </trkpt>
      <trkpt lat="47.48842" lon="0.8889">
        <ele>69.199996948242</ele>
        <time>2021-07-17T10:43:16.000Z</time>
      </trkpt>
      <trkpt lat="47.48878" lon="0.88937">
        <ele>68.800003051758</ele>
        <time>2021-07-17T10:43:26.000Z</time>
      </trkpt>
      <trkpt lat="47.48914" lon="0.88998">
        <ele>68.400001525879</ele>
        <time>2021-07-17T10:43:37.000Z</time>
      </trkpt>
      <trkpt lat="47.48952" lon="0.89062">
        <ele>69</ele>
        <time>2021-07-17T10:43:49.000Z</time>
      </trkpt>
      <trkpt lat="47.4899" lon="0.89118">
        <ele>69.400001525879</ele>
        <time>2021-07-17T10:44:00.000Z</time>
      </trkpt>
      <trkpt lat="47.49033" lon="0.89168">
        <ele>69.599998474121</ele>
        <time>2021-07-17T10:44:11.000Z</time>
      </trkpt>
      <trkpt lat="47.49068" lon="0.892">
        <ele>70</ele>
        <time>2021-07-17T10:44:19.000Z</time>
      </trkpt>
      <trkpt lat="47.49114" lon="0.89242">
        <ele>70.199996948242</ele>
        <time>2021-07-17T10:44:30.000Z</time>
      </trkpt>
      <trkpt lat="47.49138" lon="0.89261">
        <ele>71</ele>
        <time>2021-07-17T10:44:36.000Z</time>
      </trkpt>
      <trkpt lat="47.49188" lon="0.89297">
        <ele>71.800003051758</ele>
        <time>2021-07-17T10:44:48.000Z</time>
      </trkpt>
      <trkpt lat="47.49205" lon="0.89309">
        <ele>72</ele>
        <time>2021-07-17T10:44:52.000Z</time>
      </trkpt>
      <trkpt lat="47.49254" lon="0.89343">
        <ele>73</ele>
        <time>2021-07-17T10:45:04.000Z</time>
      </trkpt>
      <trkpt lat="47.49258" lon="0.89346">
        <ele>73.199996948242</ele>
        <time>2021-07-17T10:45:05.000Z</time>
      </trkpt>
      <trkpt lat="47.49314" lon="0.89373">
        <ele>73.199996948242</ele>
        <time>2021-07-17T10:45:16.000Z</time>
      </trkpt>
      <trkpt lat="47.49369" lon="0.89393">
        <ele>73.400001525879</ele>
        <time>2021-07-17T10:45:27.000Z</time>
      </trkpt>
      <trkpt lat="47.49409" lon="0.89411">
        <ele>74.400001525879</ele>
        <time>2021-07-17T10:45:36.000Z</time>
      </trkpt>
      <trkpt lat="47.49418" lon="0.89416">
        <ele>75.800003051758</ele>
        <time>2021-07-17T10:45:38.000Z</time>
      </trkpt>
      <trkpt lat="47.49471" lon="0.89444">
        <ele>76.800003051758</ele>
        <time>2021-07-17T10:45:51.000Z</time>
      </trkpt>
      <trkpt lat="47.495" lon="0.8946">
        <ele>75.599998474121</ele>
        <time>2021-07-17T10:45:57.000Z</time>
      </trkpt>
      <trkpt lat="47.49537" lon="0.89482">
        <ele>74.400001525879</ele>
        <time>2021-07-17T10:46:04.000Z</time>
      </trkpt>
      <trkpt lat="47.49589" lon="0.89514">
        <ele>73.400001525879</ele>
        <time>2021-07-17T10:46:13.000Z</time>
      </trkpt>
      <trkpt lat="47.4964" lon="0.89549">
        <ele>73.800003051758</ele>
        <time>2021-07-17T10:46:22.000Z</time>
      </trkpt>
      <trkpt lat="47.4965" lon="0.89557">
        <ele>74.599998474121</ele>
        <time>2021-07-17T10:46:24.000Z</time>
      </trkpt>
      <trkpt lat="47.49699" lon="0.89598">
        <ele>74</ele>
        <time>2021-07-17T10:46:34.000Z</time>
      </trkpt>
      <trkpt lat="47.49733" lon="0.89632">
        <ele>72.800003051758</ele>
        <time>2021-07-17T10:46:42.000Z</time>
      </trkpt>
      <trkpt lat="47.49772" lon="0.89669">
        <ele>71.800003051758</ele>
        <time>2021-07-17T10:46:51.000Z</time>
      </trkpt>
      <trkpt lat="47.49819" lon="0.89715">
        <ele>72</ele>
        <time>2021-07-17T10:47:02.000Z</time>
      </trkpt>
      <trkpt lat="47.49836" lon="0.89731">
        <ele>70.599998474121</ele>
        <time>2021-07-17T10:47:06.000Z</time>
      </trkpt>
      <trkpt lat="47.49848" lon="0.89743">
        <ele>69.400001525879</ele>
        <time>2021-07-17T10:47:09.000Z</time>
      </trkpt>
      <trkpt lat="47.49899" lon="0.89785">
        <ele>68.599998474121</ele>
        <time>2021-07-17T10:47:20.000Z</time>
      </trkpt>
      <trkpt lat="47.49951" lon="0.89815">
        <ele>69</ele>
        <time>2021-07-17T10:47:31.000Z</time>
      </trkpt>
      <trkpt lat="47.50007" lon="0.89833">
        <ele>69.199996948242</ele>
        <time>2021-07-17T10:47:43.000Z</time>
      </trkpt>
      <trkpt lat="47.50059" lon="0.89855">
        <ele>70.400001525879</ele>
        <time>2021-07-17T10:47:55.000Z</time>
      </trkpt>
      <trkpt lat="47.50063" lon="0.89857">
        <ele>70.599998474121</ele>
        <time>2021-07-17T10:47:56.000Z</time>
      </trkpt>
      <trkpt lat="47.50082" lon="0.89871">
        <ele>71.199996948242</ele>
        <time>2021-07-17T10:48:01.000Z</time>
      </trkpt>
      <trkpt lat="47.5012" lon="0.89902">
        <ele>71.800003051758</ele>
        <time>2021-07-17T10:48:11.000Z</time>
      </trkpt>
      <trkpt lat="47.50168" lon="0.89943">
        <ele>72.199996948242</ele>
        <time>2021-07-17T10:48:23.000Z</time>
      </trkpt>
      <trkpt lat="47.50197" lon="0.8997">
        <ele>72.800003051758</ele>
        <time>2021-07-17T10:48:30.000Z</time>
      </trkpt>
      <trkpt lat="47.50245" lon="0.90012">
        <ele>72.800003051758</ele>
        <time>2021-07-17T10:48:41.000Z</time>
      </trkpt>
      <trkpt lat="47.50295" lon="0.90051">
        <ele>72</ele>
        <time>2021-07-17T10:48:51.000Z</time>
      </trkpt>
      <trkpt lat="47.50301" lon="0.90055">
        <ele>71.599998474121</ele>
        <time>2021-07-17T10:48:52.000Z</time>
      </trkpt>
      <trkpt lat="47.5035" lon="0.90087">
        <ele>70.800003051758</ele>
        <time>2021-07-17T10:49:01.000Z</time>
      </trkpt>
      <trkpt lat="47.50356" lon="0.9009">
        <ele>70.599998474121</ele>
        <time>2021-07-17T10:49:02.000Z</time>
      </trkpt>
      <trkpt lat="47.5041" lon="0.9011">
        <ele>69.800003051758</ele>
        <time>2021-07-17T10:49:12.000Z</time>
      </trkpt>
      <trkpt lat="47.50415" lon="0.90111">
        <ele>69.599998474121</ele>
        <time>2021-07-17T10:49:13.000Z</time>
      </trkpt>
      <trkpt lat="47.50419" lon="0.90114">
        <ele>69.400001525879</ele>
        <time>2021-07-17T10:49:14.000Z</time>
      </trkpt>
      <trkpt lat="47.50472" lon="0.90139">
        <ele>69</ele>
        <time>2021-07-17T10:49:25.000Z</time>
      </trkpt>
      <trkpt lat="47.50526" lon="0.90172">
        <ele>69.199996948242</ele>
        <time>2021-07-17T10:49:35.000Z</time>
      </trkpt>
      <trkpt lat="47.5058" lon="0.90194">
        <ele>70.400001525879</ele>
        <time>2021-07-17T10:49:45.000Z</time>
      </trkpt>
      <trkpt lat="47.506" lon="0.90201">
        <ele>70.599998474121</ele>
        <time>2021-07-17T10:49:49.000Z</time>
      </trkpt>
      <trkpt lat="47.50651" lon="0.90229">
        <ele>70.199996948242</ele>
        <time>2021-07-17T10:49:58.000Z</time>
      </trkpt>
      <trkpt lat="47.50674" lon="0.90241">
        <ele>69.599998474121</ele>
        <time>2021-07-17T10:50:02.000Z</time>
      </trkpt>
      <trkpt lat="47.50695" lon="0.90255">
        <ele>68.400001525879</ele>
        <time>2021-07-17T10:50:06.000Z</time>
      </trkpt>
      <trkpt lat="47.50718" lon="0.90274">
        <ele>69.400001525879</ele>
        <time>2021-07-17T10:50:11.000Z</time>
      </trkpt>
      <trkpt lat="47.50748" lon="0.90301">
        <ele>70.599998474121</ele>
        <time>2021-07-17T10:50:18.000Z</time>
      </trkpt>
      <trkpt lat="47.50783" lon="0.90338">
        <ele>71.800003051758</ele>
        <time>2021-07-17T10:50:27.000Z</time>
      </trkpt>
      <trkpt lat="47.508" lon="0.90362">
        <ele>72.800003051758</ele>
        <time>2021-07-17T10:50:32.000Z</time>
      </trkpt>
      <trkpt lat="47.50828" lon="0.90412">
        <ele>71.599998474121</ele>
        <time>2021-07-17T10:50:42.000Z</time>
      </trkpt>
      <trkpt lat="47.50861" lon="0.90481">
        <ele>71.199996948242</ele>
        <time>2021-07-17T10:50:53.000Z</time>
      </trkpt>
      <trkpt lat="47.50886" lon="0.90533">
        <ele>70.599998474121</ele>
        <time>2021-07-17T10:51:01.000Z</time>
      </trkpt>
      <trkpt lat="47.5092" lon="0.90604">
        <ele>70.199996948242</ele>
        <time>2021-07-17T10:51:12.000Z</time>
      </trkpt>
      <trkpt lat="47.50948" lon="0.90675">
        <ele>71</ele>
        <time>2021-07-17T10:51:23.000Z</time>
      </trkpt>
      <trkpt lat="47.5096" lon="0.90706">
        <ele>71.800003051758</ele>
        <time>2021-07-17T10:51:28.000Z</time>
      </trkpt>
      <trkpt lat="47.50978" lon="0.90741">
        <ele>71.800003051758</ele>
        <time>2021-07-17T10:51:34.000Z</time>
      </trkpt>
      <trkpt lat="47.50993" lon="0.90769">
        <ele>72.800003051758</ele>
        <time>2021-07-17T10:51:39.000Z</time>
      </trkpt>
      <trkpt lat="47.5103" lon="0.90835">
        <ele>72.400001525879</ele>
        <time>2021-07-17T10:51:51.000Z</time>
      </trkpt>
      <trkpt lat="47.51042" lon="0.90857">
        <ele>74.199996948242</ele>
        <time>2021-07-17T10:51:55.000Z</time>
      </trkpt>
      <trkpt lat="47.51078" lon="0.90902">
        <ele>75.400001525879</ele>
        <time>2021-07-17T10:52:06.000Z</time>
      </trkpt>
      <trkpt lat="47.51103" lon="0.9093">
        <ele>76.599998474121</ele>
        <time>2021-07-17T10:52:15.000Z</time>
      </trkpt>
      <trkpt lat="47.51112" lon="0.90939">
        <ele>77.599998474121</ele>
        <time>2021-07-17T10:52:19.000Z</time>
      </trkpt>
      <trkpt lat="47.51127" lon="0.90959">
        <ele>78.599998474121</ele>
        <time>2021-07-17T10:52:26.000Z</time>
      </trkpt>
      <trkpt lat="47.51118" lon="0.91012">
        <ele>78.599998474121</ele>
        <time>2021-07-17T10:52:39.000Z</time>
      </trkpt>
      <trkpt lat="47.51119" lon="0.91027">
        <ele>78.400001525879</ele>
        <time>2021-07-17T10:52:41.000Z</time>
      </trkpt>
      <trkpt lat="47.51125" lon="0.91044">
        <ele>78.199996948242</ele>
        <time>2021-07-17T10:52:43.000Z</time>
      </trkpt>
      <trkpt lat="47.51141" lon="0.91075">
        <ele>77.599998474121</ele>
        <time>2021-07-17T10:52:47.000Z</time>
      </trkpt>
      <trkpt lat="47.51158" lon="0.91113">
        <ele>76.800003051758</ele>
        <time>2021-07-17T10:52:51.000Z</time>
      </trkpt>
      <trkpt lat="47.5116" lon="0.91124">
        <ele>76.400001525879</ele>
        <time>2021-07-17T10:52:52.000Z</time>
      </trkpt>
      <trkpt lat="47.51162" lon="0.91135">
        <ele>76.199996948242</ele>
        <time>2021-07-17T10:52:53.000Z</time>
      </trkpt>
      <trkpt lat="47.51162" lon="0.91156">
        <ele>74.800003051758</ele>
        <time>2021-07-17T10:52:55.000Z</time>
      </trkpt>
      <trkpt lat="47.51161" lon="0.91185">
        <ele>75.800003051758</ele>
        <time>2021-07-17T10:52:58.000Z</time>
      </trkpt>
      <trkpt lat="47.5116" lon="0.91201">
        <ele>74.599998474121</ele>
        <time>2021-07-17T10:53:00.000Z</time>
      </trkpt>
      <trkpt lat="47.51157" lon="0.91242">
        <ele>73</ele>
        <time>2021-07-17T10:53:05.000Z</time>
      </trkpt>
      <trkpt lat="47.51156" lon="0.91251">
        <ele>71.199996948242</ele>
        <time>2021-07-17T10:53:06.000Z</time>
      </trkpt>
      <trkpt lat="47.51153" lon="0.91278">
        <ele>70.199996948242</ele>
        <time>2021-07-17T10:53:09.000Z</time>
      </trkpt>
      <trkpt lat="47.51148" lon="0.91364">
        <ele>70.599998474121</ele>
        <time>2021-07-17T10:53:19.000Z</time>
      </trkpt>
      <trkpt lat="47.51142" lon="0.91447">
        <ele>70.800003051758</ele>
        <time>2021-07-17T10:53:30.000Z</time>
      </trkpt>
      <trkpt lat="47.5114" lon="0.91469">
        <ele>71.400001525879</ele>
        <time>2021-07-17T10:53:33.000Z</time>
      </trkpt>
      <trkpt lat="47.51127" lon="0.91552">
        <ele>72.199996948242</ele>
        <time>2021-07-17T10:53:45.000Z</time>
      </trkpt>
      <trkpt lat="47.5112" lon="0.91569">
        <ele>72</ele>
        <time>2021-07-17T10:53:48.000Z</time>
      </trkpt>
      <trkpt lat="47.51094" lon="0.91615">
        <ele>72.400001525879</ele>
        <time>2021-07-17T10:53:57.000Z</time>
      </trkpt>
      <trkpt lat="47.51055" lon="0.91663">
        <ele>73.400001525879</ele>
        <time>2021-07-17T10:54:08.000Z</time>
      </trkpt>
      <trkpt lat="47.51043" lon="0.91678">
        <ele>74.599998474121</ele>
        <time>2021-07-17T10:54:12.000Z</time>
      </trkpt>
      <trkpt lat="47.51022" lon="0.91713">
        <ele>75.599998474121</ele>
        <time>2021-07-17T10:54:20.000Z</time>
      </trkpt>
      <trkpt lat="47.51011" lon="0.91734">
        <ele>77</ele>
        <time>2021-07-17T10:54:25.000Z</time>
      </trkpt>
      <trkpt lat="47.51001" lon="0.91755">
        <ele>78</ele>
        <time>2021-07-17T10:54:30.000Z</time>
      </trkpt>
      <trkpt lat="47.50993" lon="0.91771">
        <ele>79.199996948242</ele>
        <time>2021-07-17T10:54:34.000Z</time>
      </trkpt>
      <trkpt lat="47.50982" lon="0.91795">
        <ele>80.400001525879</ele>
        <time>2021-07-17T10:54:40.000Z</time>
      </trkpt>
      <trkpt lat="47.50976" lon="0.91808">
        <ele>81.400001525879</ele>
        <time>2021-07-17T10:54:44.000Z</time>
      </trkpt>
      <trkpt lat="47.5097" lon="0.91821">
        <ele>82.599998474121</ele>
        <time>2021-07-17T10:54:48.000Z</time>
      </trkpt>
      <trkpt lat="47.5096" lon="0.91843">
        <ele>83.800003051758</ele>
        <time>2021-07-17T10:54:55.000Z</time>
      </trkpt>
      <trkpt lat="47.50951" lon="0.91862">
        <ele>84.800003051758</ele>
        <time>2021-07-17T10:55:01.000Z</time>
      </trkpt>
      <trkpt lat="47.50943" lon="0.91876">
        <ele>86</ele>
        <time>2021-07-17T10:55:06.000Z</time>
      </trkpt>
      <trkpt lat="47.50942" lon="0.9188">
        <ele>87.199996948242</ele>
        <time>2021-07-17T10:55:07.000Z</time>
      </trkpt>
      <trkpt lat="47.50912" lon="0.91939">
        <ele>88.400001525879</ele>
        <time>2021-07-17T10:55:24.000Z</time>
      </trkpt>
      <trkpt lat="47.50877" lon="0.92005">
        <ele>88.199996948242</ele>
        <time>2021-07-17T10:55:38.000Z</time>
      </trkpt>
      <trkpt lat="47.50838" lon="0.9207">
        <ele>87.400001525879</ele>
        <time>2021-07-17T10:55:50.000Z</time>
      </trkpt>
      <trkpt lat="47.50801" lon="0.92129">
        <ele>89.400001525879</ele>
        <time>2021-07-17T10:56:02.000Z</time>
      </trkpt>
      <trkpt lat="47.50798" lon="0.92134">
        <ele>89.400001525879</ele>
        <time>2021-07-17T10:56:03.000Z</time>
      </trkpt>
      <trkpt lat="47.50774" lon="0.92171">
        <ele>90.800003051758</ele>
        <time>2021-07-17T10:56:11.000Z</time>
      </trkpt>
      <trkpt lat="47.50739" lon="0.92222">
        <ele>92</ele>
        <time>2021-07-17T10:56:22.000Z</time>
      </trkpt>
      <trkpt lat="47.50718" lon="0.92245">
        <ele>93.599998474121</ele>
        <time>2021-07-17T10:56:28.000Z</time>
      </trkpt>
      <trkpt lat="47.50703" lon="0.92259">
        <ele>94.800003051758</ele>
        <time>2021-07-17T10:56:32.000Z</time>
      </trkpt>
      <trkpt lat="47.50692" lon="0.92269">
        <ele>93.400001525879</ele>
        <time>2021-07-17T10:56:35.000Z</time>
      </trkpt>
      <trkpt lat="47.50679" lon="0.9228">
        <ele>91.400001525879</ele>
        <time>2021-07-17T10:56:38.000Z</time>
      </trkpt>
      <trkpt lat="47.50675" lon="0.92284">
        <ele>90.400001525879</ele>
        <time>2021-07-17T10:56:39.000Z</time>
      </trkpt>
      <trkpt lat="47.50671" lon="0.92288">
        <ele>90.800003051758</ele>
        <time>2021-07-17T10:56:40.000Z</time>
      </trkpt>
      <trkpt lat="47.50667" lon="0.92291">
        <ele>91.800003051758</ele>
        <time>2021-07-17T10:56:41.000Z</time>
      </trkpt>
      <trkpt lat="47.50663" lon="0.92295">
        <ele>92.400001525879</ele>
        <time>2021-07-17T10:56:42.000Z</time>
      </trkpt>
      <trkpt lat="47.50617" lon="0.92338">
        <ele>91.599998474121</ele>
        <time>2021-07-17T10:56:52.000Z</time>
      </trkpt>
      <trkpt lat="47.50578" lon="0.92395">
        <ele>91.400001525879</ele>
        <time>2021-07-17T10:57:02.000Z</time>
      </trkpt>
      <trkpt lat="47.50569" lon="0.92415">
        <ele>90.599998474121</ele>
        <time>2021-07-17T10:57:05.000Z</time>
      </trkpt>
      <trkpt lat="47.50555" lon="0.92449">
        <ele>90.599998474121</ele>
        <time>2021-07-17T10:57:10.000Z</time>
      </trkpt>
      <trkpt lat="47.50547" lon="0.92461">
        <ele>90.599998474121</ele>
        <time>2021-07-17T10:57:12.000Z</time>
      </trkpt>
      <trkpt lat="47.50537" lon="0.9247">
        <ele>90</ele>
        <time>2021-07-17T10:57:14.000Z</time>
      </trkpt>
      <trkpt lat="47.50531" lon="0.92473">
        <ele>89.599998474121</ele>
        <time>2021-07-17T10:57:15.000Z</time>
      </trkpt>
      <trkpt lat="47.50489" lon="0.92487">
        <ele>87</ele>
        <time>2021-07-17T10:57:22.000Z</time>
      </trkpt>
      <trkpt lat="47.50478" lon="0.92491">
        <ele>86.800003051758</ele>
        <time>2021-07-17T10:57:24.000Z</time>
      </trkpt>
      <trkpt lat="47.50421" lon="0.92516">
        <ele>86.800003051758</ele>
        <time>2021-07-17T10:57:34.000Z</time>
      </trkpt>
      <trkpt lat="47.50367" lon="0.92543">
        <ele>86.199996948242</ele>
        <time>2021-07-17T10:57:43.000Z</time>
      </trkpt>
      <trkpt lat="47.50361" lon="0.92547">
        <ele>86</ele>
        <time>2021-07-17T10:57:44.000Z</time>
      </trkpt>
      <trkpt lat="47.50343" lon="0.92558">
        <ele>85</ele>
        <time>2021-07-17T10:57:47.000Z</time>
      </trkpt>
      <trkpt lat="47.50299" lon="0.92584">
        <ele>84</ele>
        <time>2021-07-17T10:57:54.000Z</time>
      </trkpt>
      <trkpt lat="47.50266" lon="0.92609">
        <ele>85.599998474121</ele>
        <time>2021-07-17T10:58:01.000Z</time>
      </trkpt>
      <trkpt lat="47.50257" lon="0.92616">
        <ele>86.800003051758</ele>
        <time>2021-07-17T10:58:03.000Z</time>
      </trkpt>
      <trkpt lat="47.50231" lon="0.92635">
        <ele>88</ele>
        <time>2021-07-17T10:58:09.000Z</time>
      </trkpt>
      <trkpt lat="47.50192" lon="0.92664">
        <ele>89</ele>
        <time>2021-07-17T10:58:18.000Z</time>
      </trkpt>
      <trkpt lat="47.50167" lon="0.92683">
        <ele>90.400001525879</ele>
        <time>2021-07-17T10:58:24.000Z</time>
      </trkpt>
      <trkpt lat="47.5014" lon="0.92703">
        <ele>91.400001525879</ele>
        <time>2021-07-17T10:58:31.000Z</time>
      </trkpt>
      <trkpt lat="47.50092" lon="0.92745">
        <ele>91.599998474121</ele>
        <time>2021-07-17T10:58:44.000Z</time>
      </trkpt>
      <trkpt lat="47.50088" lon="0.92749">
        <ele>92</ele>
        <time>2021-07-17T10:58:45.000Z</time>
      </trkpt>
      <trkpt lat="47.50077" lon="0.9276">
        <ele>92.599998474121</ele>
        <time>2021-07-17T10:58:48.000Z</time>
      </trkpt>
      <trkpt lat="47.50057" lon="0.92782">
        <ele>93.599998474121</ele>
        <time>2021-07-17T10:58:54.000Z</time>
      </trkpt>
      <trkpt lat="47.50043" lon="0.92797">
        <ele>95</ele>
        <time>2021-07-17T10:58:58.000Z</time>
      </trkpt>
      <trkpt lat="47.50023" lon="0.92818">
        <ele>96</ele>
        <time>2021-07-17T10:59:04.000Z</time>
      </trkpt>
      <trkpt lat="47.49976" lon="0.92862">
        <ele>96.199996948242</ele>
        <time>2021-07-17T10:59:17.000Z</time>
      </trkpt>
      <trkpt lat="47.4994" lon="0.92887">
        <ele>97</ele>
        <time>2021-07-17T10:59:26.000Z</time>
      </trkpt>
      <trkpt lat="47.49905" lon="0.9291">
        <ele>98.199996948242</ele>
        <time>2021-07-17T10:59:35.000Z</time>
      </trkpt>
      <trkpt lat="47.4987" lon="0.92932">
        <ele>99.599998474121</ele>
        <time>2021-07-17T10:59:44.000Z</time>
      </trkpt>
      <trkpt lat="47.49843" lon="0.92947">
        <ele>100.59999847412</ele>
        <time>2021-07-17T10:59:51.000Z</time>
      </trkpt>
      <trkpt lat="47.49821" lon="0.92959">
        <ele>101.59999847412</ele>
        <time>2021-07-17T10:59:57.000Z</time>
      </trkpt>
      <trkpt lat="47.49796" lon="0.92973">
        <ele>102.80000305176</ele>
        <time>2021-07-17T11:00:04.000Z</time>
      </trkpt>
      <trkpt lat="47.49775" lon="0.92988">
        <ele>104</ele>
        <time>2021-07-17T11:00:10.000Z</time>
      </trkpt>
      <trkpt lat="47.49751" lon="0.93009">
        <ele>105.19999694824</ele>
        <time>2021-07-17T11:00:17.000Z</time>
      </trkpt>
      <trkpt lat="47.49732" lon="0.93025">
        <ele>106.40000152588</ele>
        <time>2021-07-17T11:00:23.000Z</time>
      </trkpt>
      <trkpt lat="47.49721" lon="0.93038">
        <ele>107.40000152588</ele>
        <time>2021-07-17T11:00:27.000Z</time>
      </trkpt>
      <trkpt lat="47.49681" lon="0.93094">
        <ele>108.19999694824</ele>
        <time>2021-07-17T11:00:41.000Z</time>
      </trkpt>
      <trkpt lat="47.49678" lon="0.93099">
        <ele>108.80000305176</ele>
        <time>2021-07-17T11:00:42.000Z</time>
      </trkpt>
      <trkpt lat="47.49634" lon="0.93149">
        <ele>107.80000305176</ele>
        <time>2021-07-17T11:00:52.000Z</time>
      </trkpt>
      <trkpt lat="47.49594" lon="0.93208">
        <ele>107</ele>
        <time>2021-07-17T11:01:02.000Z</time>
      </trkpt>
      <trkpt lat="47.49589" lon="0.93215">
        <ele>106.80000305176</ele>
        <time>2021-07-17T11:01:03.000Z</time>
      </trkpt>
      <trkpt lat="47.49553" lon="0.9326">
        <ele>106.19999694824</ele>
        <time>2021-07-17T11:01:11.000Z</time>
      </trkpt>
      <trkpt lat="47.49505" lon="0.93304">
        <ele>106</ele>
        <time>2021-07-17T11:01:21.000Z</time>
      </trkpt>
      <trkpt lat="47.49458" lon="0.93348">
        <ele>106.80000305176</ele>
        <time>2021-07-17T11:01:31.000Z</time>
      </trkpt>
      <trkpt lat="47.4942" lon="0.93404">
        <ele>107.40000152588</ele>
        <time>2021-07-17T11:01:41.000Z</time>
      </trkpt>
      <trkpt lat="47.49401" lon="0.93435">
        <ele>107.80000305176</ele>
        <time>2021-07-17T11:01:46.000Z</time>
      </trkpt>
      <trkpt lat="47.49384" lon="0.93465">
        <ele>106.59999847412</ele>
        <time>2021-07-17T11:01:51.000Z</time>
      </trkpt>
      <trkpt lat="47.49368" lon="0.93493">
        <ele>107.80000305176</ele>
        <time>2021-07-17T11:01:56.000Z</time>
      </trkpt>
      <trkpt lat="47.49357" lon="0.93512">
        <ele>109</ele>
        <time>2021-07-17T11:02:00.000Z</time>
      </trkpt>
      <trkpt lat="47.49344" lon="0.93536">
        <ele>110.19999694824</ele>
        <time>2021-07-17T11:02:05.000Z</time>
      </trkpt>
      <trkpt lat="47.49331" lon="0.9356">
        <ele>111.59999847412</ele>
        <time>2021-07-17T11:02:10.000Z</time>
      </trkpt>
      <trkpt lat="47.49323" lon="0.93575">
        <ele>112.59999847412</ele>
        <time>2021-07-17T11:02:13.000Z</time>
      </trkpt>
      <trkpt lat="47.49307" lon="0.93603">
        <ele>114</ele>
        <time>2021-07-17T11:02:19.000Z</time>
      </trkpt>
      <trkpt lat="47.49283" lon="0.93647">
        <ele>115.19999694824</ele>
        <time>2021-07-17T11:02:29.000Z</time>
      </trkpt>
      <trkpt lat="47.49271" lon="0.9367">
        <ele>116.19999694824</ele>
        <time>2021-07-17T11:02:34.000Z</time>
      </trkpt>
      <trkpt lat="47.49236" lon="0.93738">
        <ele>117.59999847412</ele>
        <time>2021-07-17T11:02:48.000Z</time>
      </trkpt>
      <trkpt lat="47.49233" lon="0.93744">
        <ele>116.80000305176</ele>
        <time>2021-07-17T11:02:49.000Z</time>
      </trkpt>
      <trkpt lat="47.49231" lon="0.93749">
        <ele>116</ele>
        <time>2021-07-17T11:02:50.000Z</time>
      </trkpt>
      <trkpt lat="47.49219" lon="0.93771">
        <ele>117.40000152588</ele>
        <time>2021-07-17T11:02:54.000Z</time>
      </trkpt>
      <trkpt lat="47.49195" lon="0.93818">
        <ele>116.19999694824</ele>
        <time>2021-07-17T11:03:02.000Z</time>
      </trkpt>
      <trkpt lat="47.49159" lon="0.93887">
        <ele>115.19999694824</ele>
        <time>2021-07-17T11:03:13.000Z</time>
      </trkpt>
      <trkpt lat="47.49156" lon="0.93894">
        <ele>114.59999847412</ele>
        <time>2021-07-17T11:03:14.000Z</time>
      </trkpt>
      <trkpt lat="47.49126" lon="0.93951">
        <ele>113</ele>
        <time>2021-07-17T11:03:22.000Z</time>
      </trkpt>
      <trkpt lat="47.4911" lon="0.9398">
        <ele>111.59999847412</ele>
        <time>2021-07-17T11:03:26.000Z</time>
      </trkpt>
      <trkpt lat="47.49079" lon="0.94035">
        <ele>111.59999847412</ele>
        <time>2021-07-17T11:03:33.000Z</time>
      </trkpt>
      <trkpt lat="47.49075" lon="0.94044">
        <ele>110.19999694824</ele>
        <time>2021-07-17T11:03:34.000Z</time>
      </trkpt>
      <trkpt lat="47.4907" lon="0.94053">
        <ele>108.80000305176</ele>
        <time>2021-07-17T11:03:35.000Z</time>
      </trkpt>
      <trkpt lat="47.4906" lon="0.94072">
        <ele>107.80000305176</ele>
        <time>2021-07-17T11:03:37.000Z</time>
      </trkpt>
      <trkpt lat="47.49049" lon="0.94091">
        <ele>106.19999694824</ele>
        <time>2021-07-17T11:03:39.000Z</time>
      </trkpt>
      <trkpt lat="47.49013" lon="0.94157">
        <ele>106.40000152588</ele>
        <time>2021-07-17T11:03:46.000Z</time>
      </trkpt>
      <trkpt lat="47.48975" lon="0.94224">
        <ele>106.40000152588</ele>
        <time>2021-07-17T11:03:54.000Z</time>
      </trkpt>
      <trkpt lat="47.48946" lon="0.94279">
        <ele>105.19999694824</ele>
        <time>2021-07-17T11:04:01.000Z</time>
      </trkpt>
      <trkpt lat="47.48908" lon="0.94346">
        <ele>104.40000152588</ele>
        <time>2021-07-17T11:04:10.000Z</time>
      </trkpt>
      <trkpt lat="47.48885" lon="0.94392">
        <ele>104.19999694824</ele>
        <time>2021-07-17T11:04:16.000Z</time>
      </trkpt>
      <trkpt lat="47.48878" lon="0.94407">
        <ele>103</ele>
        <time>2021-07-17T11:04:18.000Z</time>
      </trkpt>
      <trkpt lat="47.48847" lon="0.94472">
        <ele>104.19999694824</ele>
        <time>2021-07-17T11:04:27.000Z</time>
      </trkpt>
      <trkpt lat="47.48826" lon="0.94509">
        <ele>105.40000152588</ele>
        <time>2021-07-17T11:04:33.000Z</time>
      </trkpt>
      <trkpt lat="47.48812" lon="0.94531">
        <ele>106.40000152588</ele>
        <time>2021-07-17T11:04:37.000Z</time>
      </trkpt>
      <trkpt lat="47.48772" lon="0.94587">
        <ele>106.40000152588</ele>
        <time>2021-07-17T11:04:48.000Z</time>
      </trkpt>
      <trkpt lat="47.48718" lon="0.94622">
        <ele>106.59999847412</ele>
        <time>2021-07-17T11:04:59.000Z</time>
      </trkpt>
      <trkpt lat="47.48669" lon="0.94646">
        <ele>105.40000152588</ele>
        <time>2021-07-17T11:05:08.000Z</time>
      </trkpt>
      <trkpt lat="47.48651" lon="0.94646">
        <ele>104.59999847412</ele>
        <time>2021-07-17T11:05:16.000Z</time>
      </trkpt>
      <trkpt lat="47.48645" lon="0.94649">
        <ele>104.40000152588</ele>
        <time>2021-07-17T11:05:18.000Z</time>
      </trkpt>
      <trkpt lat="47.4863" lon="0.94656">
        <ele>104</ele>
        <time>2021-07-17T11:05:21.000Z</time>
      </trkpt>
      <trkpt lat="47.48612" lon="0.94662">
        <ele>103.19999694824</ele>
        <time>2021-07-17T11:05:24.000Z</time>
      </trkpt>
      <trkpt lat="47.48606" lon="0.94664">
        <ele>102.19999694824</ele>
        <time>2021-07-17T11:05:25.000Z</time>
      </trkpt>
      <trkpt lat="47.48557" lon="0.94696">
        <ele>101</ele>
        <time>2021-07-17T11:05:33.000Z</time>
      </trkpt>
      <trkpt lat="47.48545" lon="0.94707">
        <ele>102.59999847412</ele>
        <time>2021-07-17T11:05:35.000Z</time>
      </trkpt>
      <trkpt lat="47.48495" lon="0.94753">
        <ele>102.19999694824</ele>
        <time>2021-07-17T11:05:44.000Z</time>
      </trkpt>
      <trkpt lat="47.48446" lon="0.94797">
        <ele>101.80000305176</ele>
        <time>2021-07-17T11:05:53.000Z</time>
      </trkpt>
      <trkpt lat="47.48396" lon="0.94836">
        <ele>103</ele>
        <time>2021-07-17T11:06:03.000Z</time>
      </trkpt>
      <trkpt lat="47.48391" lon="0.9484">
        <ele>103.19999694824</ele>
        <time>2021-07-17T11:06:04.000Z</time>
      </trkpt>
      <trkpt lat="47.48348" lon="0.94873">
        <ele>103.59999847412</ele>
        <time>2021-07-17T11:06:13.000Z</time>
      </trkpt>
      <trkpt lat="47.48305" lon="0.94906">
        <ele>104.80000305176</ele>
        <time>2021-07-17T11:06:22.000Z</time>
      </trkpt>
      <trkpt lat="47.48257" lon="0.94943">
        <ele>105.80000305176</ele>
        <time>2021-07-17T11:06:32.000Z</time>
      </trkpt>
      <trkpt lat="47.48252" lon="0.94947">
        <ele>105.80000305176</ele>
        <time>2021-07-17T11:06:33.000Z</time>
      </trkpt>
      <trkpt lat="47.482" lon="0.94986">
        <ele>105.59999847412</ele>
        <time>2021-07-17T11:06:44.000Z</time>
      </trkpt>
      <trkpt lat="47.48176" lon="0.95001">
        <ele>104.80000305176</ele>
        <time>2021-07-17T11:06:49.000Z</time>
      </trkpt>
      <trkpt lat="47.48157" lon="0.95011">
        <ele>106</ele>
        <time>2021-07-17T11:06:53.000Z</time>
      </trkpt>
      <trkpt lat="47.48124" lon="0.95028">
        <ele>107</ele>
        <time>2021-07-17T11:07:00.000Z</time>
      </trkpt>
      <trkpt lat="47.48104" lon="0.95038">
        <ele>108.19999694824</ele>
        <time>2021-07-17T11:07:04.000Z</time>
      </trkpt>
      <trkpt lat="47.48089" lon="0.95046">
        <ele>109.19999694824</ele>
        <time>2021-07-17T11:07:07.000Z</time>
      </trkpt>
      <trkpt lat="47.48034" lon="0.95074">
        <ele>108.40000152588</ele>
        <time>2021-07-17T11:07:17.000Z</time>
      </trkpt>
      <trkpt lat="47.47982" lon="0.95101">
        <ele>109.19999694824</ele>
        <time>2021-07-17T11:07:27.000Z</time>
      </trkpt>
      <trkpt lat="47.47929" lon="0.95127">
        <ele>109.19999694824</ele>
        <time>2021-07-17T11:07:37.000Z</time>
      </trkpt>
      <trkpt lat="47.47875" lon="0.95148">
        <ele>108.19999694824</ele>
        <time>2021-07-17T11:07:47.000Z</time>
      </trkpt>
      <trkpt lat="47.47827" lon="0.95161">
        <ele>109.19999694824</ele>
        <time>2021-07-17T11:07:55.000Z</time>
      </trkpt>
      <trkpt lat="47.47783" lon="0.95173">
        <ele>108</ele>
        <time>2021-07-17T11:08:02.000Z</time>
      </trkpt>
      <trkpt lat="47.47729" lon="0.95187">
        <ele>107.80000305176</ele>
        <time>2021-07-17T11:08:11.000Z</time>
      </trkpt>
      <trkpt lat="47.47689" lon="0.95197">
        <ele>107</ele>
        <time>2021-07-17T11:08:18.000Z</time>
      </trkpt>
      <trkpt lat="47.4763" lon="0.95216">
        <ele>106.40000152588</ele>
        <time>2021-07-17T11:08:28.000Z</time>
      </trkpt>
      <trkpt lat="47.476" lon="0.95232">
        <ele>105.80000305176</ele>
        <time>2021-07-17T11:08:33.000Z</time>
      </trkpt>
      <trkpt lat="47.47583" lon="0.95243">
        <ele>104.80000305176</ele>
        <time>2021-07-17T11:08:36.000Z</time>
      </trkpt>
      <trkpt lat="47.47548" lon="0.95264">
        <ele>103.40000152588</ele>
        <time>2021-07-17T11:08:42.000Z</time>
      </trkpt>
      <trkpt lat="47.47493" lon="0.95299">
        <ele>102.19999694824</ele>
        <time>2021-07-17T11:08:52.000Z</time>
      </trkpt>
      <trkpt lat="47.47464" lon="0.95317">
        <ele>101.19999694824</ele>
        <time>2021-07-17T11:08:57.000Z</time>
      </trkpt>
      <trkpt lat="47.47438" lon="0.95334">
        <ele>100</ele>
        <time>2021-07-17T11:09:01.000Z</time>
      </trkpt>
      <trkpt lat="47.47419" lon="0.95346">
        <ele>98.199996948242</ele>
        <time>2021-07-17T11:09:04.000Z</time>
      </trkpt>
      <trkpt lat="47.47393" lon="0.95362">
        <ele>96.800003051758</ele>
        <time>2021-07-17T11:09:08.000Z</time>
      </trkpt>
      <trkpt lat="47.47339" lon="0.95392">
        <ele>97.800003051758</ele>
        <time>2021-07-17T11:09:17.000Z</time>
      </trkpt>
      <trkpt lat="47.47326" lon="0.95397">
        <ele>98.400001525879</ele>
        <time>2021-07-17T11:09:19.000Z</time>
      </trkpt>
      <trkpt lat="47.47271" lon="0.95397">
        <ele>99.599998474121</ele>
        <time>2021-07-17T11:09:28.000Z</time>
      </trkpt>
      <trkpt lat="47.47217" lon="0.95387">
        <ele>100.59999847412</ele>
        <time>2021-07-17T11:09:37.000Z</time>
      </trkpt>
      <trkpt lat="47.47188" lon="0.95381">
        <ele>101.80000305176</ele>
        <time>2021-07-17T11:09:42.000Z</time>
      </trkpt>
      <trkpt lat="47.47129" lon="0.95373">
        <ele>102</ele>
        <time>2021-07-17T11:09:52.000Z</time>
      </trkpt>
      <trkpt lat="47.47096" lon="0.95378">
        <ele>103</ele>
        <time>2021-07-17T11:09:58.000Z</time>
      </trkpt>
      <trkpt lat="47.47044" lon="0.95401">
        <ele>103.59999847412</ele>
        <time>2021-07-17T11:10:08.000Z</time>
      </trkpt>
      <trkpt lat="47.47015" lon="0.95415">
        <ele>104.19999694824</ele>
        <time>2021-07-17T11:10:14.000Z</time>
      </trkpt>
      <trkpt lat="47.46983" lon="0.95429">
        <ele>103</ele>
        <time>2021-07-17T11:10:21.000Z</time>
      </trkpt>
      <trkpt lat="47.46957" lon="0.95442">
        <ele>104.19999694824</ele>
        <time>2021-07-17T11:10:27.000Z</time>
      </trkpt>
      <trkpt lat="47.46917" lon="0.95461">
        <ele>105.40000152588</ele>
        <time>2021-07-17T11:10:36.000Z</time>
      </trkpt>
      <trkpt lat="47.46863" lon="0.95485">
        <ele>104.59999847412</ele>
        <time>2021-07-17T11:10:48.000Z</time>
      </trkpt>
      <trkpt lat="47.46859" lon="0.95487">
        <ele>103.80000305176</ele>
        <time>2021-07-17T11:10:49.000Z</time>
      </trkpt>
      <trkpt lat="47.46845" lon="0.95493">
        <ele>104.80000305176</ele>
        <time>2021-07-17T11:10:52.000Z</time>
      </trkpt>
      <trkpt lat="47.4679" lon="0.95519">
        <ele>106</ele>
        <time>2021-07-17T11:11:04.000Z</time>
      </trkpt>
      <trkpt lat="47.46735" lon="0.95533">
        <ele>106.59999847412</ele>
        <time>2021-07-17T11:11:15.000Z</time>
      </trkpt>
      <trkpt lat="47.46684" lon="0.9554">
        <ele>107</ele>
        <time>2021-07-17T11:11:25.000Z</time>
      </trkpt>
      <trkpt lat="47.46659" lon="0.95543">
        <ele>108.19999694824</ele>
        <time>2021-07-17T11:11:30.000Z</time>
      </trkpt>
      <trkpt lat="47.46604" lon="0.9555">
        <ele>109</ele>
        <time>2021-07-17T11:11:41.000Z</time>
      </trkpt>
      <trkpt lat="47.46574" lon="0.95551">
        <ele>109.40000152588</ele>
        <time>2021-07-17T11:11:47.000Z</time>
      </trkpt>
      <trkpt lat="47.46519" lon="0.9555">
        <ele>110.19999694824</ele>
        <time>2021-07-17T11:11:58.000Z</time>
      </trkpt>
      <trkpt lat="47.46495" lon="0.95547">
        <ele>110.59999847412</ele>
        <time>2021-07-17T11:12:03.000Z</time>
      </trkpt>
      <trkpt lat="47.46481" lon="0.95544">
        <ele>111</ele>
        <time>2021-07-17T11:12:06.000Z</time>
      </trkpt>
      <trkpt lat="47.4646" lon="0.9554">
        <ele>111.59999847412</ele>
        <time>2021-07-17T11:12:11.000Z</time>
      </trkpt>
      <trkpt lat="47.46404" lon="0.95527">
        <ele>112</ele>
        <time>2021-07-17T11:12:23.000Z</time>
      </trkpt>
      <trkpt lat="47.46357" lon="0.95512">
        <ele>112.59999847412</ele>
        <time>2021-07-17T11:12:32.000Z</time>
      </trkpt>
      <trkpt lat="47.46303" lon="0.95486">
        <ele>113.59999847412</ele>
        <time>2021-07-17T11:12:43.000Z</time>
      </trkpt>
      <trkpt lat="47.46299" lon="0.95485">
        <ele>113.80000305176</ele>
        <time>2021-07-17T11:12:44.000Z</time>
      </trkpt>
      <trkpt lat="47.46242" lon="0.95469">
        <ele>113.59999847412</ele>
        <time>2021-07-17T11:12:56.000Z</time>
      </trkpt>
      <trkpt lat="47.46183" lon="0.95463">
        <ele>114.40000152588</ele>
        <time>2021-07-17T11:13:07.000Z</time>
      </trkpt>
      <trkpt lat="47.46126" lon="0.95463">
        <ele>114</ele>
        <time>2021-07-17T11:13:17.000Z</time>
      </trkpt>
      <trkpt lat="47.46073" lon="0.95465">
        <ele>112.40000152588</ele>
        <time>2021-07-17T11:13:25.000Z</time>
      </trkpt>
      <trkpt lat="47.46032" lon="0.95467">
        <ele>111.40000152588</ele>
        <time>2021-07-17T11:13:31.000Z</time>
      </trkpt>
      <trkpt lat="47.46018" lon="0.95466">
        <ele>109.19999694824</ele>
        <time>2021-07-17T11:13:33.000Z</time>
      </trkpt>
      <trkpt lat="47.45991" lon="0.95465">
        <ele>108</ele>
        <time>2021-07-17T11:13:37.000Z</time>
      </trkpt>
      <trkpt lat="47.45956" lon="0.95467">
        <ele>107</ele>
        <time>2021-07-17T11:13:42.000Z</time>
      </trkpt>
      <trkpt lat="47.45912" lon="0.9547">
        <ele>105.80000305176</ele>
        <time>2021-07-17T11:13:48.000Z</time>
      </trkpt>
      <trkpt lat="47.45858" lon="0.9546">
        <ele>105</ele>
        <time>2021-07-17T11:13:55.000Z</time>
      </trkpt>
      <trkpt lat="47.45843" lon="0.95455">
        <ele>104.80000305176</ele>
        <time>2021-07-17T11:13:57.000Z</time>
      </trkpt>
      <trkpt lat="47.45784" lon="0.95432">
        <ele>103.59999847412</ele>
        <time>2021-07-17T11:14:05.000Z</time>
      </trkpt>
      <trkpt lat="47.45741" lon="0.95414">
        <ele>106.19999694824</ele>
        <time>2021-07-17T11:14:11.000Z</time>
      </trkpt>
      <trkpt lat="47.45688" lon="0.95399">
        <ele>106.59999847412</ele>
        <time>2021-07-17T11:14:19.000Z</time>
      </trkpt>
      <trkpt lat="47.45629" lon="0.954">
        <ele>107.19999694824</ele>
        <time>2021-07-17T11:14:29.000Z</time>
      </trkpt>
      <trkpt lat="47.45613" lon="0.95403">
        <ele>107.19999694824</ele>
        <time>2021-07-17T11:14:32.000Z</time>
      </trkpt>
      <trkpt lat="47.45574" lon="0.9542">
        <ele>106.19999694824</ele>
        <time>2021-07-17T11:14:40.000Z</time>
      </trkpt>
      <trkpt lat="47.45524" lon="0.95458">
        <ele>107</ele>
        <time>2021-07-17T11:14:53.000Z</time>
      </trkpt>
      <trkpt lat="47.45519" lon="0.95462">
        <ele>107.19999694824</ele>
        <time>2021-07-17T11:14:54.000Z</time>
      </trkpt>
      <trkpt lat="47.4547" lon="0.95494">
        <ele>108</ele>
        <time>2021-07-17T11:15:05.000Z</time>
      </trkpt>
      <trkpt lat="47.45465" lon="0.95496">
        <ele>108.40000152588</ele>
        <time>2021-07-17T11:15:06.000Z</time>
      </trkpt>
      <trkpt lat="47.45442" lon="0.95504">
        <ele>109.40000152588</ele>
        <time>2021-07-17T11:15:10.000Z</time>
      </trkpt>
      <trkpt lat="47.45388" lon="0.9552">
        <ele>110.19999694824</ele>
        <time>2021-07-17T11:15:20.000Z</time>
      </trkpt>
      <trkpt lat="47.45372" lon="0.95525">
        <ele>110.40000152588</ele>
        <time>2021-07-17T11:15:23.000Z</time>
      </trkpt>
      <trkpt lat="47.45315" lon="0.95543">
        <ele>110.80000305176</ele>
        <time>2021-07-17T11:15:34.000Z</time>
      </trkpt>
      <trkpt lat="47.45262" lon="0.95562">
        <ele>110.40000152588</ele>
        <time>2021-07-17T11:15:44.000Z</time>
      </trkpt>
      <trkpt lat="47.45205" lon="0.95581">
        <ele>109.80000305176</ele>
        <time>2021-07-17T11:15:54.000Z</time>
      </trkpt>
      <trkpt lat="47.45169" lon="0.95591">
        <ele>109.40000152588</ele>
        <time>2021-07-17T11:16:00.000Z</time>
      </trkpt>
      <trkpt lat="47.45114" lon="0.95594">
        <ele>109.19999694824</ele>
        <time>2021-07-17T11:16:09.000Z</time>
      </trkpt>
      <trkpt lat="47.45066" lon="0.95595">
        <ele>110.40000152588</ele>
        <time>2021-07-17T11:16:17.000Z</time>
      </trkpt>
      <trkpt lat="47.45006" lon="0.95596">
        <ele>110.80000305176</ele>
        <time>2021-07-17T11:16:27.000Z</time>
      </trkpt>
      <trkpt lat="47.44959" lon="0.95596">
        <ele>111.59999847412</ele>
        <time>2021-07-17T11:16:35.000Z</time>
      </trkpt>
      <trkpt lat="47.44913" lon="0.95597">
        <ele>112.59999847412</ele>
        <time>2021-07-17T11:16:43.000Z</time>
      </trkpt>
      <trkpt lat="47.44857" lon="0.95597">
        <ele>113.80000305176</ele>
        <time>2021-07-17T11:16:53.000Z</time>
      </trkpt>
      <trkpt lat="47.44802" lon="0.95602">
        <ele>114.40000152588</ele>
        <time>2021-07-17T11:17:03.000Z</time>
      </trkpt>
      <trkpt lat="47.44796" lon="0.95603">
        <ele>115</ele>
        <time>2021-07-17T11:17:04.000Z</time>
      </trkpt>
      <trkpt lat="47.44771" lon="0.95605">
        <ele>113.80000305176</ele>
        <time>2021-07-17T11:17:08.000Z</time>
      </trkpt>
      <trkpt lat="47.44738" lon="0.95606">
        <ele>112.80000305176</ele>
        <time>2021-07-17T11:17:13.000Z</time>
      </trkpt>
      <trkpt lat="47.44681" lon="0.95603">
        <ele>112.19999694824</ele>
        <time>2021-07-17T11:17:22.000Z</time>
      </trkpt>
      <trkpt lat="47.44625" lon="0.95595">
        <ele>112</ele>
        <time>2021-07-17T11:17:31.000Z</time>
      </trkpt>
      <trkpt lat="47.44567" lon="0.95587">
        <ele>112.80000305176</ele>
        <time>2021-07-17T11:17:41.000Z</time>
      </trkpt>
      <trkpt lat="47.4451" lon="0.95568">
        <ele>113</ele>
        <time>2021-07-17T11:17:51.000Z</time>
      </trkpt>
      <trkpt lat="47.44454" lon="0.95536">
        <ele>113</ele>
        <time>2021-07-17T11:18:01.000Z</time>
      </trkpt>
      <trkpt lat="47.4441" lon="0.9551">
        <ele>114</ele>
        <time>2021-07-17T11:18:10.000Z</time>
      </trkpt>
      <trkpt lat="47.444" lon="0.95504">
        <ele>113.59999847412</ele>
        <time>2021-07-17T11:18:12.000Z</time>
      </trkpt>
      <trkpt lat="47.44347" lon="0.95479">
        <ele>113.19999694824</ele>
        <time>2021-07-17T11:18:22.000Z</time>
      </trkpt>
      <trkpt lat="47.44331" lon="0.95472">
        <ele>112.80000305176</ele>
        <time>2021-07-17T11:18:25.000Z</time>
      </trkpt>
      <trkpt lat="47.44326" lon="0.9547">
        <ele>112.59999847412</ele>
        <time>2021-07-17T11:18:26.000Z</time>
      </trkpt>
      <trkpt lat="47.44316" lon="0.95468">
        <ele>112.80000305176</ele>
        <time>2021-07-17T11:18:28.000Z</time>
      </trkpt>
      <trkpt lat="47.44296" lon="0.95459">
        <ele>114.19999694824</ele>
        <time>2021-07-17T11:18:32.000Z</time>
      </trkpt>
      <trkpt lat="47.44254" lon="0.95449">
        <ele>113</ele>
        <time>2021-07-17T11:18:40.000Z</time>
      </trkpt>
      <trkpt lat="47.44215" lon="0.95439">
        <ele>112</ele>
        <time>2021-07-17T11:18:47.000Z</time>
      </trkpt>
      <trkpt lat="47.44204" lon="0.95438">
        <ele>112</ele>
        <time>2021-07-17T11:18:49.000Z</time>
      </trkpt>
      <trkpt lat="47.44188" lon="0.95434">
        <ele>111.40000152588</ele>
        <time>2021-07-17T11:18:52.000Z</time>
      </trkpt>
      <trkpt lat="47.44171" lon="0.95432">
        <ele>111</ele>
        <time>2021-07-17T11:18:55.000Z</time>
      </trkpt>
      <trkpt lat="47.44116" lon="0.95425">
        <ele>109.19999694824</ele>
        <time>2021-07-17T11:19:03.000Z</time>
      </trkpt>
      <trkpt lat="47.44109" lon="0.95424">
        <ele>107.80000305176</ele>
        <time>2021-07-17T11:19:04.000Z</time>
      </trkpt>
      <trkpt lat="47.44073" lon="0.95419">
        <ele>106.40000152588</ele>
        <time>2021-07-17T11:19:09.000Z</time>
      </trkpt>
      <trkpt lat="47.44045" lon="0.95412">
        <ele>105.40000152588</ele>
        <time>2021-07-17T11:19:13.000Z</time>
      </trkpt>
      <trkpt lat="47.44031" lon="0.95404">
        <ele>105.80000305176</ele>
        <time>2021-07-17T11:19:15.000Z</time>
      </trkpt>
      <trkpt lat="47.44018" lon="0.95393">
        <ele>105.80000305176</ele>
        <time>2021-07-17T11:19:17.000Z</time>
      </trkpt>
      <trkpt lat="47.44" lon="0.95371">
        <ele>106.59999847412</ele>
        <time>2021-07-17T11:19:20.000Z</time>
      </trkpt>
      <trkpt lat="47.43961" lon="0.95311">
        <ele>107</ele>
        <time>2021-07-17T11:19:28.000Z</time>
      </trkpt>
      <trkpt lat="47.43952" lon="0.95298">
        <ele>107.59999847412</ele>
        <time>2021-07-17T11:19:30.000Z</time>
      </trkpt>
      <trkpt lat="47.43918" lon="0.95262">
        <ele>108.19999694824</ele>
        <time>2021-07-17T11:19:37.000Z</time>
      </trkpt>
      <trkpt lat="47.43913" lon="0.95258">
        <ele>108.59999847412</ele>
        <time>2021-07-17T11:19:38.000Z</time>
      </trkpt>
      <trkpt lat="47.43864" lon="0.9521">
        <ele>109.40000152588</ele>
        <time>2021-07-17T11:19:48.000Z</time>
      </trkpt>
      <trkpt lat="47.43854" lon="0.95202">
        <ele>109.80000305176</ele>
        <time>2021-07-17T11:19:50.000Z</time>
      </trkpt>
      <trkpt lat="47.43845" lon="0.95194">
        <ele>110.19999694824</ele>
        <time>2021-07-17T11:19:52.000Z</time>
      </trkpt>
      <trkpt lat="47.43829" lon="0.95186">
        <ele>110.80000305176</ele>
        <time>2021-07-17T11:19:55.000Z</time>
      </trkpt>
      <trkpt lat="47.43824" lon="0.95185">
        <ele>111</ele>
        <time>2021-07-17T11:19:56.000Z</time>
      </trkpt>
      <trkpt lat="47.43813" lon="0.95186">
        <ele>111</ele>
        <time>2021-07-17T11:19:58.000Z</time>
      </trkpt>
      <trkpt lat="47.43802" lon="0.95191">
        <ele>110.40000152588</ele>
        <time>2021-07-17T11:20:00.000Z</time>
      </trkpt>
      <trkpt lat="47.43787" lon="0.952">
        <ele>110</ele>
        <time>2021-07-17T11:20:03.000Z</time>
      </trkpt>
      <trkpt lat="47.43782" lon="0.95204">
        <ele>109.80000305176</ele>
        <time>2021-07-17T11:20:04.000Z</time>
      </trkpt>
      <trkpt lat="47.43737" lon="0.95236">
        <ele>111.59999847412</ele>
        <time>2021-07-17T11:20:13.000Z</time>
      </trkpt>
      <trkpt lat="47.43704" lon="0.95253">
        <ele>110.40000152588</ele>
        <time>2021-07-17T11:20:19.000Z</time>
      </trkpt>
      <trkpt lat="47.43691" lon="0.95257">
        <ele>109.40000152588</ele>
        <time>2021-07-17T11:20:21.000Z</time>
      </trkpt>
      <trkpt lat="47.43668" lon="0.95265">
        <ele>108</ele>
        <time>2021-07-17T11:20:24.000Z</time>
      </trkpt>
      <trkpt lat="47.4366" lon="0.95268">
        <ele>107</ele>
        <time>2021-07-17T11:20:25.000Z</time>
      </trkpt>
      <trkpt lat="47.43643" lon="0.95274">
        <ele>105.59999847412</ele>
        <time>2021-07-17T11:20:27.000Z</time>
      </trkpt>
      <trkpt lat="47.43625" lon="0.9528">
        <ele>103.80000305176</ele>
        <time>2021-07-17T11:20:29.000Z</time>
      </trkpt>
      <trkpt lat="47.43608" lon="0.95287">
        <ele>102</ele>
        <time>2021-07-17T11:20:31.000Z</time>
      </trkpt>
      <trkpt lat="47.43599" lon="0.9529">
        <ele>100.80000305176</ele>
        <time>2021-07-17T11:20:32.000Z</time>
      </trkpt>
      <trkpt lat="47.43581" lon="0.95302">
        <ele>100</ele>
        <time>2021-07-17T11:20:34.000Z</time>
      </trkpt>
      <trkpt lat="47.43573" lon="0.95311">
        <ele>99.400001525879</ele>
        <time>2021-07-17T11:20:35.000Z</time>
      </trkpt>
      <trkpt lat="47.43566" lon="0.95323">
        <ele>99.199996948242</ele>
        <time>2021-07-17T11:20:36.000Z</time>
      </trkpt>
      <trkpt lat="47.43559" lon="0.95336">
        <ele>98.400001525879</ele>
        <time>2021-07-17T11:20:37.000Z</time>
      </trkpt>
      <trkpt lat="47.43545" lon="0.95362">
        <ele>96.599998474121</ele>
        <time>2021-07-17T11:20:39.000Z</time>
      </trkpt>
      <trkpt lat="47.43538" lon="0.95374">
        <ele>95.199996948242</ele>
        <time>2021-07-17T11:20:40.000Z</time>
      </trkpt>
      <trkpt lat="47.4353" lon="0.95384">
        <ele>93.800003051758</ele>
        <time>2021-07-17T11:20:41.000Z</time>
      </trkpt>
      <trkpt lat="47.43511" lon="0.95402">
        <ele>91.199996948242</ele>
        <time>2021-07-17T11:20:43.000Z</time>
      </trkpt>
      <trkpt lat="47.435" lon="0.95407">
        <ele>90.199996948242</ele>
        <time>2021-07-17T11:20:44.000Z</time>
      </trkpt>
      <trkpt lat="47.43487" lon="0.9541">
        <ele>89.199996948242</ele>
        <time>2021-07-17T11:20:45.000Z</time>
      </trkpt>
      <trkpt lat="47.43475" lon="0.95409">
        <ele>89</ele>
        <time>2021-07-17T11:20:46.000Z</time>
      </trkpt>
      <trkpt lat="47.43463" lon="0.95406">
        <ele>89.599998474121</ele>
        <time>2021-07-17T11:20:47.000Z</time>
      </trkpt>
      <trkpt lat="47.4344" lon="0.95391">
        <ele>88.599998474121</ele>
        <time>2021-07-17T11:20:49.000Z</time>
      </trkpt>
      <trkpt lat="47.43428" lon="0.95381">
        <ele>87.199996948242</ele>
        <time>2021-07-17T11:20:50.000Z</time>
      </trkpt>
      <trkpt lat="47.43416" lon="0.95372">
        <ele>85.199996948242</ele>
        <time>2021-07-17T11:20:51.000Z</time>
      </trkpt>
      <trkpt lat="47.43393" lon="0.95353">
        <ele>83.599998474121</ele>
        <time>2021-07-17T11:20:53.000Z</time>
      </trkpt>
      <trkpt lat="47.43383" lon="0.95345">
        <ele>81.800003051758</ele>
        <time>2021-07-17T11:20:54.000Z</time>
      </trkpt>
      <trkpt lat="47.43373" lon="0.95337">
        <ele>80.599998474121</ele>
        <time>2021-07-17T11:20:55.000Z</time>
      </trkpt>
      <trkpt lat="47.43365" lon="0.95331">
        <ele>79.400001525879</ele>
        <time>2021-07-17T11:20:56.000Z</time>
      </trkpt>
      <trkpt lat="47.43346" lon="0.95321">
        <ele>77.400001525879</ele>
        <time>2021-07-17T11:20:58.000Z</time>
      </trkpt>
      <trkpt lat="47.43337" lon="0.95316">
        <ele>75.800003051758</ele>
        <time>2021-07-17T11:20:59.000Z</time>
      </trkpt>
      <trkpt lat="47.43328" lon="0.95313">
        <ele>73.199996948242</ele>
        <time>2021-07-17T11:21:00.000Z</time>
      </trkpt>
      <trkpt lat="47.43321" lon="0.95309">
        <ele>71.199996948242</ele>
        <time>2021-07-17T11:21:01.000Z</time>
      </trkpt>
      <trkpt lat="47.43314" lon="0.95307">
        <ele>70</ele>
        <time>2021-07-17T11:21:02.000Z</time>
      </trkpt>
      <trkpt lat="47.43304" lon="0.95304">
        <ele>68.800003051758</ele>
        <time>2021-07-17T11:21:04.000Z</time>
      </trkpt>
      <trkpt lat="47.43294" lon="0.95301">
        <ele>67.400001525879</ele>
        <time>2021-07-17T11:21:06.000Z</time>
      </trkpt>
      <trkpt lat="47.43288" lon="0.95301">
        <ele>66.800003051758</ele>
        <time>2021-07-17T11:21:07.000Z</time>
      </trkpt>
      <trkpt lat="47.43283" lon="0.95301">
        <ele>66.199996948242</ele>
        <time>2021-07-17T11:21:08.000Z</time>
      </trkpt>
      <trkpt lat="47.43274" lon="0.95301">
        <ele>64.599998474121</ele>
        <time>2021-07-17T11:21:10.000Z</time>
      </trkpt>
      <trkpt lat="47.43268" lon="0.95303">
        <ele>63.400001525879</ele>
        <time>2021-07-17T11:21:15.000Z</time>
      </trkpt>
      <trkpt lat="47.43265" lon="0.95304">
        <ele>63.200000762939</ele>
        <time>2021-07-17T11:21:16.000Z</time>
      </trkpt>
      <trkpt lat="47.43254" lon="0.95309">
        <ele>62.799999237061</ele>
        <time>2021-07-17T11:21:19.000Z</time>
      </trkpt>
      <trkpt lat="47.43237" lon="0.95324">
        <ele>62.200000762939</ele>
        <time>2021-07-17T11:21:23.000Z</time>
      </trkpt>
      <trkpt lat="47.43233" lon="0.95327">
        <ele>61.799999237061</ele>
        <time>2021-07-17T11:21:24.000Z</time>
      </trkpt>
      <trkpt lat="47.4323" lon="0.95329">
        <ele>61</ele>
        <time>2021-07-17T11:21:25.000Z</time>
      </trkpt>
      <trkpt lat="47.43224" lon="0.95335">
        <ele>60</ele>
        <time>2021-07-17T11:21:30.000Z</time>
      </trkpt>
      <trkpt lat="47.43219" lon="0.95336">
        <ele>60</ele>
        <time>2021-07-17T11:22:30.000Z</time>
      </trkpt>
      <trkpt lat="47.43204" lon="0.95284">
        <ele>60</ele>
        <time>2021-07-17T11:22:40.000Z</time>
      </trkpt>
      <trkpt lat="47.43178" lon="0.9521">
        <ele>59</ele>
        <time>2021-07-17T11:22:49.000Z</time>
      </trkpt>
      <trkpt lat="47.43168" lon="0.95184">
        <ele>58.799999237061</ele>
        <time>2021-07-17T11:22:52.000Z</time>
      </trkpt>
      <trkpt lat="47.43161" lon="0.95167">
        <ele>57.599998474121</ele>
        <time>2021-07-17T11:22:54.000Z</time>
      </trkpt>
      <trkpt lat="47.43135" lon="0.95097">
        <ele>57.599998474121</ele>
        <time>2021-07-17T11:23:02.000Z</time>
      </trkpt>
      <trkpt lat="47.43133" lon="0.95088">
        <ele>57.799999237061</ele>
        <time>2021-07-17T11:23:03.000Z</time>
      </trkpt>
      <trkpt lat="47.43113" lon="0.95004">
        <ele>57.799999237061</ele>
        <time>2021-07-17T11:23:12.000Z</time>
      </trkpt>
      <trkpt lat="47.43096" lon="0.9492">
        <ele>58</ele>
        <time>2021-07-17T11:23:21.000Z</time>
      </trkpt>
      <trkpt lat="47.43084" lon="0.94839">
        <ele>58</ele>
        <time>2021-07-17T11:23:30.000Z</time>
      </trkpt>
      <trkpt lat="47.4308" lon="0.94822">
        <ele>58.200000762939</ele>
        <time>2021-07-17T11:23:32.000Z</time>
      </trkpt>
      <trkpt lat="47.43071" lon="0.9479">
        <ele>58.200000762939</ele>
        <time>2021-07-17T11:23:36.000Z</time>
      </trkpt>
      <trkpt lat="47.43054" lon="0.94721">
        <ele>58.599998474121</ele>
        <time>2021-07-17T11:23:44.000Z</time>
      </trkpt>
      <trkpt lat="47.43035" lon="0.94642">
        <ele>58.599998474121</ele>
        <time>2021-07-17T11:23:53.000Z</time>
      </trkpt>
      <trkpt lat="47.43015" lon="0.94565">
        <ele>58</ele>
        <time>2021-07-17T11:24:02.000Z</time>
      </trkpt>
      <trkpt lat="47.42992" lon="0.94491">
        <ele>58.200000762939</ele>
        <time>2021-07-17T11:24:12.000Z</time>
      </trkpt>
      <trkpt lat="47.4299" lon="0.94484">
        <ele>58.200000762939</ele>
        <time>2021-07-17T11:24:13.000Z</time>
      </trkpt>
      <trkpt lat="47.42979" lon="0.94459">
        <ele>58.400001525879</ele>
        <time>2021-07-17T11:24:17.000Z</time>
      </trkpt>
      <trkpt lat="47.42973" lon="0.94443">
        <ele>58.400001525879</ele>
        <time>2021-07-17T11:24:19.000Z</time>
      </trkpt>
      <trkpt lat="47.42956" lon="0.94361">
        <ele>57.799999237061</ele>
        <time>2021-07-17T11:24:28.000Z</time>
      </trkpt>
      <trkpt lat="47.42952" lon="0.94341">
        <ele>57.599998474121</ele>
        <time>2021-07-17T11:24:30.000Z</time>
      </trkpt>
      <trkpt lat="47.42944" lon="0.94294">
        <ele>57.400001525879</ele>
        <time>2021-07-17T11:24:35.000Z</time>
      </trkpt>
      <trkpt lat="47.42934" lon="0.94213">
        <ele>58</ele>
        <time>2021-07-17T11:24:44.000Z</time>
      </trkpt>
      <trkpt lat="47.42928" lon="0.94146">
        <ele>58.599998474121</ele>
        <time>2021-07-17T11:24:52.000Z</time>
      </trkpt>
      <trkpt lat="47.42922" lon="0.94085">
        <ele>59</ele>
        <time>2021-07-17T11:25:00.000Z</time>
      </trkpt>
      <trkpt lat="47.42908" lon="0.94023">
        <ele>59.599998474121</ele>
        <time>2021-07-17T11:25:08.000Z</time>
      </trkpt>
      <trkpt lat="47.42893" lon="0.93974">
        <ele>60.599998474121</ele>
        <time>2021-07-17T11:25:15.000Z</time>
      </trkpt>
      <trkpt lat="47.42891" lon="0.93967">
        <ele>60.799999237061</ele>
        <time>2021-07-17T11:25:16.000Z</time>
      </trkpt>
      <trkpt lat="47.42883" lon="0.93954">
        <ele>60.400001525879</ele>
        <time>2021-07-17T11:25:18.000Z</time>
      </trkpt>
      <trkpt lat="47.42874" lon="0.93941">
        <ele>59.599998474121</ele>
        <time>2021-07-17T11:25:20.000Z</time>
      </trkpt>
      <trkpt lat="47.42869" lon="0.93935">
        <ele>59.400001525879</ele>
        <time>2021-07-17T11:25:21.000Z</time>
      </trkpt>
      <trkpt lat="47.42822" lon="0.93892">
        <ele>59.799999237061</ele>
        <time>2021-07-17T11:25:29.000Z</time>
      </trkpt>
      <trkpt lat="47.42774" lon="0.93845">
        <ele>59.200000762939</ele>
        <time>2021-07-17T11:25:37.000Z</time>
      </trkpt>
      <trkpt lat="47.4276" lon="0.93822">
        <ele>58.599998474121</ele>
        <time>2021-07-17T11:25:40.000Z</time>
      </trkpt>
      <trkpt lat="47.4273" lon="0.9375">
        <ele>57.400001525879</ele>
        <time>2021-07-17T11:25:48.000Z</time>
      </trkpt>
      <trkpt lat="47.42711" lon="0.93672">
        <ele>57</ele>
        <time>2021-07-17T11:25:56.000Z</time>
      </trkpt>
      <trkpt lat="47.42705" lon="0.93644">
        <ele>56.400001525879</ele>
        <time>2021-07-17T11:25:59.000Z</time>
      </trkpt>
      <trkpt lat="47.42687" lon="0.93567">
        <ele>55.799999237061</ele>
        <time>2021-07-17T11:26:07.000Z</time>
      </trkpt>
      <trkpt lat="47.42665" lon="0.9349">
        <ele>56.599998474121</ele>
        <time>2021-07-17T11:26:15.000Z</time>
      </trkpt>
      <trkpt lat="47.42644" lon="0.93415">
        <ele>56.799999237061</ele>
        <time>2021-07-17T11:26:23.000Z</time>
      </trkpt>
      <trkpt lat="47.42624" lon="0.93341">
        <ele>56.799999237061</ele>
        <time>2021-07-17T11:26:31.000Z</time>
      </trkpt>
      <trkpt lat="47.42619" lon="0.93322">
        <ele>57.799999237061</ele>
        <time>2021-07-17T11:26:33.000Z</time>
      </trkpt>
      <trkpt lat="47.42606" lon="0.93269">
        <ele>56.799999237061</ele>
        <time>2021-07-17T11:26:39.000Z</time>
      </trkpt>
      <trkpt lat="47.42598" lon="0.93191">
        <ele>56.599998474121</ele>
        <time>2021-07-17T11:26:48.000Z</time>
      </trkpt>
      <trkpt lat="47.42597" lon="0.93173">
        <ele>55.599998474121</ele>
        <time>2021-07-17T11:26:50.000Z</time>
      </trkpt>
      <trkpt lat="47.42586" lon="0.93088">
        <ele>55.599998474121</ele>
        <time>2021-07-17T11:26:59.000Z</time>
      </trkpt>
      <trkpt lat="47.42573" lon="0.93003">
        <ele>55.799999237061</ele>
        <time>2021-07-17T11:27:08.000Z</time>
      </trkpt>
      <trkpt lat="47.42562" lon="0.92917">
        <ele>56.599998474121</ele>
        <time>2021-07-17T11:27:17.000Z</time>
      </trkpt>
      <trkpt lat="47.42561" lon="0.92908">
        <ele>56.599998474121</ele>
        <time>2021-07-17T11:27:18.000Z</time>
      </trkpt>
      <trkpt lat="47.42551" lon="0.92825">
        <ele>57.599998474121</ele>
        <time>2021-07-17T11:27:27.000Z</time>
      </trkpt>
      <trkpt lat="47.42547" lon="0.92796">
        <ele>57.799999237061</ele>
        <time>2021-07-17T11:27:30.000Z</time>
      </trkpt>
      <trkpt lat="47.42531" lon="0.92716">
        <ele>58</ele>
        <time>2021-07-17T11:27:39.000Z</time>
      </trkpt>
      <trkpt lat="47.42511" lon="0.9264">
        <ele>57.799999237061</ele>
        <time>2021-07-17T11:27:48.000Z</time>
      </trkpt>
      <trkpt lat="47.42494" lon="0.92561">
        <ele>58</ele>
        <time>2021-07-17T11:27:57.000Z</time>
      </trkpt>
      <trkpt lat="47.42477" lon="0.92479">
        <ele>57.200000762939</ele>
        <time>2021-07-17T11:28:06.000Z</time>
      </trkpt>
      <trkpt lat="47.42464" lon="0.92396">
        <ele>57.400001525879</ele>
        <time>2021-07-17T11:28:15.000Z</time>
      </trkpt>
      <trkpt lat="47.42457" lon="0.92309">
        <ele>57.200000762939</ele>
        <time>2021-07-17T11:28:24.000Z</time>
      </trkpt>
      <trkpt lat="47.42452" lon="0.92222">
        <ele>57.400001525879</ele>
        <time>2021-07-17T11:28:33.000Z</time>
      </trkpt>
      <trkpt lat="47.42449" lon="0.92136">
        <ele>57.599998474121</ele>
        <time>2021-07-17T11:28:42.000Z</time>
      </trkpt>
      <trkpt lat="47.42447" lon="0.92049">
        <ele>57.200000762939</ele>
        <time>2021-07-17T11:28:51.000Z</time>
      </trkpt>
      <trkpt lat="47.42443" lon="0.92021">
        <ele>56.799999237061</ele>
        <time>2021-07-17T11:28:54.000Z</time>
      </trkpt>
      <trkpt lat="47.42431" lon="0.91935">
        <ele>56.400001525879</ele>
        <time>2021-07-17T11:29:03.000Z</time>
      </trkpt>
      <trkpt lat="47.42426" lon="0.9185">
        <ele>56.599998474121</ele>
        <time>2021-07-17T11:29:12.000Z</time>
      </trkpt>
      <trkpt lat="47.42426" lon="0.9176">
        <ele>56</ele>
        <time>2021-07-17T11:29:21.000Z</time>
      </trkpt>
      <trkpt lat="47.42433" lon="0.91672">
        <ele>56.200000762939</ele>
        <time>2021-07-17T11:29:30.000Z</time>
      </trkpt>
      <trkpt lat="47.42446" lon="0.9159">
        <ele>56.599998474121</ele>
        <time>2021-07-17T11:29:39.000Z</time>
      </trkpt>
      <trkpt lat="47.42448" lon="0.91505">
        <ele>56</ele>
        <time>2021-07-17T11:29:48.000Z</time>
      </trkpt>
      <trkpt lat="47.42439" lon="0.91441">
        <ele>55.799999237061</ele>
        <time>2021-07-17T11:29:55.000Z</time>
      </trkpt>
      <trkpt lat="47.42424" lon="0.91356">
        <ele>56</ele>
        <time>2021-07-17T11:30:04.000Z</time>
      </trkpt>
      <trkpt lat="47.42421" lon="0.91337">
        <ele>57</ele>
        <time>2021-07-17T11:30:06.000Z</time>
      </trkpt>
      <trkpt lat="47.42414" lon="0.91301">
        <ele>55.799999237061</ele>
        <time>2021-07-17T11:30:10.000Z</time>
      </trkpt>
      <trkpt lat="47.42399" lon="0.91215">
        <ele>55.400001525879</ele>
        <time>2021-07-17T11:30:19.000Z</time>
      </trkpt>
      <trkpt lat="47.42394" lon="0.91197">
        <ele>55.799999237061</ele>
        <time>2021-07-17T11:30:21.000Z</time>
      </trkpt>
      <trkpt lat="47.42373" lon="0.91159">
        <ele>57</ele>
        <time>2021-07-17T11:30:26.000Z</time>
      </trkpt>
      <trkpt lat="47.4236" lon="0.91137">
        <ele>55.400001525879</ele>
        <time>2021-07-17T11:30:29.000Z</time>
      </trkpt>
      <trkpt lat="47.42322" lon="0.91073">
        <ele>55.400001525879</ele>
        <time>2021-07-17T11:30:37.000Z</time>
      </trkpt>
      <trkpt lat="47.42306" lon="0.91038">
        <ele>55.200000762939</ele>
        <time>2021-07-17T11:30:41.000Z</time>
      </trkpt>
      <trkpt lat="47.42289" lon="0.90958">
        <ele>55.799999237061</ele>
        <time>2021-07-17T11:30:49.000Z</time>
      </trkpt>
      <trkpt lat="47.42276" lon="0.90875">
        <ele>55</ele>
        <time>2021-07-17T11:30:58.000Z</time>
      </trkpt>
      <trkpt lat="47.42269" lon="0.90846">
        <ele>55.200000762939</ele>
        <time>2021-07-17T11:31:02.000Z</time>
      </trkpt>
      <trkpt lat="47.42264" lon="0.90841">
        <ele>55.200000762939</ele>
        <time>2021-07-17T11:31:04.000Z</time>
      </trkpt>
      <trkpt lat="47.42258" lon="0.90762">
        <ele>55.799999237061</ele>
        <time>2021-07-17T11:31:18.000Z</time>
      </trkpt>
      <trkpt lat="47.42256" lon="0.90733">
        <ele>55.400001525879</ele>
        <time>2021-07-17T11:31:23.000Z</time>
      </trkpt>
      <trkpt lat="47.42261" lon="0.90731">
        <ele>54.599998474121</ele>
        <time>2021-07-17T11:31:58.000Z</time>
      </trkpt>
      <trkpt lat="47.42258" lon="0.90733">
        <ele>54.400001525879</ele>
        <time>2021-07-17T11:32:00.000Z</time>
      </trkpt>
      <trkpt lat="47.42254" lon="0.90731">
        <ele>54.599998474121</ele>
        <time>2021-07-17T11:32:02.000Z</time>
      </trkpt>
      <trkpt lat="47.4225" lon="0.90717">
        <ele>54.599998474121</ele>
        <time>2021-07-17T11:32:05.000Z</time>
      </trkpt>
      <trkpt lat="47.42247" lon="0.90695">
        <ele>54.799999237061</ele>
        <time>2021-07-17T11:32:08.000Z</time>
      </trkpt>
      <trkpt lat="47.42228" lon="0.90615">
        <ele>54.599998474121</ele>
        <time>2021-07-17T11:32:19.000Z</time>
      </trkpt>
      <trkpt lat="47.42211" lon="0.90537">
        <ele>53.599998474121</ele>
        <time>2021-07-17T11:32:29.000Z</time>
      </trkpt>
      <trkpt lat="47.42188" lon="0.90456">
        <ele>53.400001525879</ele>
        <time>2021-07-17T11:32:39.000Z</time>
      </trkpt>
      <trkpt lat="47.42186" lon="0.90448">
        <ele>53.400001525879</ele>
        <time>2021-07-17T11:32:40.000Z</time>
      </trkpt>
      <trkpt lat="47.42165" lon="0.90372">
        <ele>53.599998474121</ele>
        <time>2021-07-17T11:32:49.000Z</time>
      </trkpt>
      <trkpt lat="47.42146" lon="0.90294">
        <ele>54.200000762939</ele>
        <time>2021-07-17T11:32:58.000Z</time>
      </trkpt>
      <trkpt lat="47.42144" lon="0.90267">
        <ele>54.400001525879</ele>
        <time>2021-07-17T11:33:01.000Z</time>
      </trkpt>
      <trkpt lat="47.42144" lon="0.90185">
        <ele>54.400001525879</ele>
        <time>2021-07-17T11:33:10.000Z</time>
      </trkpt>
      <trkpt lat="47.42144" lon="0.90138">
        <ele>54.200000762939</ele>
        <time>2021-07-17T11:33:15.000Z</time>
      </trkpt>
      <trkpt lat="47.42138" lon="0.90053">
        <ele>54.200000762939</ele>
        <time>2021-07-17T11:33:24.000Z</time>
      </trkpt>
      <trkpt lat="47.42131" lon="0.89968">
        <ele>54</ele>
        <time>2021-07-17T11:33:33.000Z</time>
      </trkpt>
      <trkpt lat="47.42134" lon="0.89879">
        <ele>54.200000762939</ele>
        <time>2021-07-17T11:33:42.000Z</time>
      </trkpt>
      <trkpt lat="47.4214" lon="0.89795">
        <ele>55</ele>
        <time>2021-07-17T11:33:51.000Z</time>
      </trkpt>
      <trkpt lat="47.42144" lon="0.89713">
        <ele>55.200000762939</ele>
        <time>2021-07-17T11:34:00.000Z</time>
      </trkpt>
      <trkpt lat="47.42145" lon="0.89629">
        <ele>55</ele>
        <time>2021-07-17T11:34:09.000Z</time>
      </trkpt>
      <trkpt lat="47.42149" lon="0.89541">
        <ele>55.200000762939</ele>
        <time>2021-07-17T11:34:18.000Z</time>
      </trkpt>
      <trkpt lat="47.4215" lon="0.89522">
        <ele>55.400001525879</ele>
        <time>2021-07-17T11:34:20.000Z</time>
      </trkpt>
      <trkpt lat="47.42156" lon="0.89433">
        <ele>55.599998474121</ele>
        <time>2021-07-17T11:34:29.000Z</time>
      </trkpt>
      <trkpt lat="47.42166" lon="0.89353">
        <ele>56</ele>
        <time>2021-07-17T11:34:37.000Z</time>
      </trkpt>
      <trkpt lat="47.42166" lon="0.89313">
        <ele>56.599998474121</ele>
        <time>2021-07-17T11:34:41.000Z</time>
      </trkpt>
      <trkpt lat="47.42164" lon="0.89295">
        <ele>57.200000762939</ele>
        <time>2021-07-17T11:34:43.000Z</time>
      </trkpt>
      <trkpt lat="47.42142" lon="0.89221">
        <ele>58.200000762939</ele>
        <time>2021-07-17T11:34:51.000Z</time>
      </trkpt>
      <trkpt lat="47.4213" lon="0.8918">
        <ele>57.200000762939</ele>
        <time>2021-07-17T11:34:58.000Z</time>
      </trkpt>
      <trkpt lat="47.42123" lon="0.89136">
        <ele>57.799999237061</ele>
        <time>2021-07-17T11:35:07.000Z</time>
      </trkpt>
      <trkpt lat="47.42119" lon="0.89121">
        <ele>56.799999237061</ele>
        <time>2021-07-17T11:35:09.000Z</time>
      </trkpt>
      <trkpt lat="47.42095" lon="0.89039">
        <ele>56</ele>
        <time>2021-07-17T11:35:19.000Z</time>
      </trkpt>
      <trkpt lat="47.42079" lon="0.88993">
        <ele>55.599998474121</ele>
        <time>2021-07-17T11:35:24.000Z</time>
      </trkpt>
      <trkpt lat="47.42059" lon="0.8891">
        <ele>55.799999237061</ele>
        <time>2021-07-17T11:35:33.000Z</time>
      </trkpt>
      <trkpt lat="47.42052" lon="0.88823">
        <ele>56.599998474121</ele>
        <time>2021-07-17T11:35:42.000Z</time>
      </trkpt>
      <trkpt lat="47.42052" lon="0.88804">
        <ele>56.799999237061</ele>
        <time>2021-07-17T11:35:44.000Z</time>
      </trkpt>
      <trkpt lat="47.42051" lon="0.88719">
        <ele>57.200000762939</ele>
        <time>2021-07-17T11:35:53.000Z</time>
      </trkpt>
      <trkpt lat="47.42038" lon="0.88633">
        <ele>57.200000762939</ele>
        <time>2021-07-17T11:36:02.000Z</time>
      </trkpt>
      <trkpt lat="47.42021" lon="0.88555">
        <ele>57</ele>
        <time>2021-07-17T11:36:10.000Z</time>
      </trkpt>
      <trkpt lat="47.42017" lon="0.88547">
        <ele>57.200000762939</ele>
        <time>2021-07-17T11:36:11.000Z</time>
      </trkpt>
      <trkpt lat="47.41982" lon="0.88474">
        <ele>57</ele>
        <time>2021-07-17T11:36:20.000Z</time>
      </trkpt>
      <trkpt lat="47.41976" lon="0.88456">
        <ele>57.200000762939</ele>
        <time>2021-07-17T11:36:22.000Z</time>
      </trkpt>
      <trkpt lat="47.41969" lon="0.88416">
        <ele>57</ele>
        <time>2021-07-17T11:36:26.000Z</time>
      </trkpt>
      <trkpt lat="47.4198" lon="0.88328">
        <ele>56.799999237061</ele>
        <time>2021-07-17T11:36:35.000Z</time>
      </trkpt>
      <trkpt lat="47.41986" lon="0.8829">
        <ele>57.200000762939</ele>
        <time>2021-07-17T11:36:39.000Z</time>
      </trkpt>
      <trkpt lat="47.41987" lon="0.88269">
        <ele>57.400001525879</ele>
        <time>2021-07-17T11:36:41.000Z</time>
      </trkpt>
      <trkpt lat="47.41978" lon="0.88188">
        <ele>57</ele>
        <time>2021-07-17T11:36:49.000Z</time>
      </trkpt>
      <trkpt lat="47.41967" lon="0.881">
        <ele>57</ele>
        <time>2021-07-17T11:36:58.000Z</time>
      </trkpt>
      <trkpt lat="47.41961" lon="0.88011">
        <ele>57</ele>
        <time>2021-07-17T11:37:07.000Z</time>
      </trkpt>
      <trkpt lat="47.4196" lon="0.88002">
        <ele>57</ele>
        <time>2021-07-17T11:37:08.000Z</time>
      </trkpt>
      <trkpt lat="47.41947" lon="0.87926">
        <ele>57.799999237061</ele>
        <time>2021-07-17T11:37:16.000Z</time>
      </trkpt>
      <trkpt lat="47.41933" lon="0.8784">
        <ele>57.599998474121</ele>
        <time>2021-07-17T11:37:25.000Z</time>
      </trkpt>
      <trkpt lat="47.41922" lon="0.87754">
        <ele>58.200000762939</ele>
        <time>2021-07-17T11:37:34.000Z</time>
      </trkpt>
      <trkpt lat="47.41902" lon="0.87673">
        <ele>57.200000762939</ele>
        <time>2021-07-17T11:37:42.000Z</time>
      </trkpt>
      <trkpt lat="47.41889" lon="0.87622">
        <ele>56.400001525879</ele>
        <time>2021-07-17T11:37:47.000Z</time>
      </trkpt>
      <trkpt lat="47.41876" lon="0.87574">
        <ele>55.400001525879</ele>
        <time>2021-07-17T11:37:52.000Z</time>
      </trkpt>
      <trkpt lat="47.41861" lon="0.87526">
        <ele>56.599998474121</ele>
        <time>2021-07-17T11:37:57.000Z</time>
      </trkpt>
      <trkpt lat="47.41832" lon="0.87458">
        <ele>57.400001525879</ele>
        <time>2021-07-17T11:38:05.000Z</time>
      </trkpt>
      <trkpt lat="47.41807" lon="0.87377">
        <ele>56.799999237061</ele>
        <time>2021-07-17T11:38:14.000Z</time>
      </trkpt>
      <trkpt lat="47.41798" lon="0.87295">
        <ele>56.599998474121</ele>
        <time>2021-07-17T11:38:22.000Z</time>
      </trkpt>
      <trkpt lat="47.41791" lon="0.87213">
        <ele>56.599998474121</ele>
        <time>2021-07-17T11:38:30.000Z</time>
      </trkpt>
      <trkpt lat="47.4178" lon="0.87132">
        <ele>56.400001525879</ele>
        <time>2021-07-17T11:38:38.000Z</time>
      </trkpt>
      <trkpt lat="47.41762" lon="0.87053">
        <ele>55.799999237061</ele>
        <time>2021-07-17T11:38:46.000Z</time>
      </trkpt>
      <trkpt lat="47.41758" lon="0.87033">
        <ele>55.400001525879</ele>
        <time>2021-07-17T11:38:48.000Z</time>
      </trkpt>
      <trkpt lat="47.41741" lon="0.8695">
        <ele>56</ele>
        <time>2021-07-17T11:38:57.000Z</time>
      </trkpt>
      <trkpt lat="47.41732" lon="0.86915">
        <ele>56.599998474121</ele>
        <time>2021-07-17T11:39:01.000Z</time>
      </trkpt>
      <trkpt lat="47.41713" lon="0.86833">
        <ele>57</ele>
        <time>2021-07-17T11:39:11.000Z</time>
      </trkpt>
      <trkpt lat="47.41691" lon="0.86755">
        <ele>57</ele>
        <time>2021-07-17T11:39:21.000Z</time>
      </trkpt>
      <trkpt lat="47.41673" lon="0.86673">
        <ele>57.400001525879</ele>
        <time>2021-07-17T11:39:30.000Z</time>
      </trkpt>
      <trkpt lat="47.41661" lon="0.86592">
        <ele>56.799999237061</ele>
        <time>2021-07-17T11:39:39.000Z</time>
      </trkpt>
      <trkpt lat="47.4165" lon="0.86507">
        <ele>57.200000762939</ele>
        <time>2021-07-17T11:39:49.000Z</time>
      </trkpt>
      <trkpt lat="47.41639" lon="0.86431">
        <ele>57.599998474121</ele>
        <time>2021-07-17T11:39:58.000Z</time>
      </trkpt>
      <trkpt lat="47.41624" lon="0.86348">
        <ele>58.400001525879</ele>
        <time>2021-07-17T11:40:08.000Z</time>
      </trkpt>
      <trkpt lat="47.41618" lon="0.86316">
        <ele>58.799999237061</ele>
        <time>2021-07-17T11:40:12.000Z</time>
      </trkpt>
      <trkpt lat="47.41609" lon="0.86284">
        <ele>57.599998474121</ele>
        <time>2021-07-17T11:40:16.000Z</time>
      </trkpt>
      <trkpt lat="47.41595" lon="0.86228">
        <ele>56.799999237061</ele>
        <time>2021-07-17T11:40:23.000Z</time>
      </trkpt>
      <trkpt lat="47.4159" lon="0.86212">
        <ele>56.599998474121</ele>
        <time>2021-07-17T11:40:25.000Z</time>
      </trkpt>
      <trkpt lat="47.41571" lon="0.86137">
        <ele>56.599998474121</ele>
        <time>2021-07-17T11:40:34.000Z</time>
      </trkpt>
      <trkpt lat="47.41562" lon="0.86103">
        <ele>58.599998474121</ele>
        <time>2021-07-17T11:40:38.000Z</time>
      </trkpt>
      <trkpt lat="47.41543" lon="0.86025">
        <ele>58.599998474121</ele>
        <time>2021-07-17T11:40:48.000Z</time>
      </trkpt>
      <trkpt lat="47.41524" lon="0.85943">
        <ele>58.400001525879</ele>
        <time>2021-07-17T11:40:58.000Z</time>
      </trkpt>
      <trkpt lat="47.4152" lon="0.85926">
        <ele>57.599998474121</ele>
        <time>2021-07-17T11:41:00.000Z</time>
      </trkpt>
      <trkpt lat="47.41502" lon="0.85847">
        <ele>57.799999237061</ele>
        <time>2021-07-17T11:41:09.000Z</time>
      </trkpt>
      <trkpt lat="47.41498" lon="0.85828">
        <ele>57.799999237061</ele>
        <time>2021-07-17T11:41:11.000Z</time>
      </trkpt>
      <trkpt lat="47.41478" lon="0.8575">
        <ele>57.400001525879</ele>
        <time>2021-07-17T11:41:20.000Z</time>
      </trkpt>
      <trkpt lat="47.41456" lon="0.85671">
        <ele>57.599998474121</ele>
        <time>2021-07-17T11:41:29.000Z</time>
      </trkpt>
      <trkpt lat="47.41432" lon="0.85591">
        <ele>57.200000762939</ele>
        <time>2021-07-17T11:41:38.000Z</time>
      </trkpt>
      <trkpt lat="47.41427" lon="0.85574">
        <ele>56.200000762939</ele>
        <time>2021-07-17T11:41:40.000Z</time>
      </trkpt>
      <trkpt lat="47.41407" lon="0.85493">
        <ele>56.200000762939</ele>
        <time>2021-07-17T11:41:49.000Z</time>
      </trkpt>
      <trkpt lat="47.41398" lon="0.85447">
        <ele>56.599998474121</ele>
        <time>2021-07-17T11:41:54.000Z</time>
      </trkpt>
      <trkpt lat="47.41396" lon="0.85427">
        <ele>56.799999237061</ele>
        <time>2021-07-17T11:41:56.000Z</time>
      </trkpt>
      <trkpt lat="47.41386" lon="0.85343">
        <ele>57</ele>
        <time>2021-07-17T11:42:05.000Z</time>
      </trkpt>
      <trkpt lat="47.41385" lon="0.85333">
        <ele>57.200000762939</ele>
        <time>2021-07-17T11:42:06.000Z</time>
      </trkpt>
      <trkpt lat="47.41385" lon="0.85324">
        <ele>57.400001525879</ele>
        <time>2021-07-17T11:42:07.000Z</time>
      </trkpt>
      <trkpt lat="47.41373" lon="0.85243">
        <ele>57.599998474121</ele>
        <time>2021-07-17T11:42:16.000Z</time>
      </trkpt>
      <trkpt lat="47.41366" lon="0.85195">
        <ele>57.400001525879</ele>
        <time>2021-07-17T11:42:21.000Z</time>
      </trkpt>
      <trkpt lat="47.41369" lon="0.85111">
        <ele>57.200000762939</ele>
        <time>2021-07-17T11:42:29.000Z</time>
      </trkpt>
      <trkpt lat="47.41377" lon="0.85052">
        <ele>56.799999237061</ele>
        <time>2021-07-17T11:42:35.000Z</time>
      </trkpt>
      <trkpt lat="47.414" lon="0.8497">
        <ele>57</ele>
        <time>2021-07-17T11:42:44.000Z</time>
      </trkpt>
      <trkpt lat="47.41437" lon="0.84903">
        <ele>57.599998474121</ele>
        <time>2021-07-17T11:42:53.000Z</time>
      </trkpt>
      <trkpt lat="47.41488" lon="0.84861">
        <ele>57.799999237061</ele>
        <time>2021-07-17T11:43:02.000Z</time>
      </trkpt>
      <trkpt lat="47.41542" lon="0.84832">
        <ele>58.400001525879</ele>
        <time>2021-07-17T11:43:11.000Z</time>
      </trkpt>
      <trkpt lat="47.41595" lon="0.84803">
        <ele>58.400001525879</ele>
        <time>2021-07-17T11:43:20.000Z</time>
      </trkpt>
      <trkpt lat="47.41649" lon="0.84777">
        <ele>59.200000762939</ele>
        <time>2021-07-17T11:43:29.000Z</time>
      </trkpt>
      <trkpt lat="47.41677" lon="0.84767">
        <ele>59.599998474121</ele>
        <time>2021-07-17T11:43:34.000Z</time>
      </trkpt>
      <trkpt lat="47.41714" lon="0.84755">
        <ele>60.599998474121</ele>
        <time>2021-07-17T11:43:41.000Z</time>
      </trkpt>
      <trkpt lat="47.41745" lon="0.84743">
        <ele>61.799999237061</ele>
        <time>2021-07-17T11:43:47.000Z</time>
      </trkpt>
      <trkpt lat="47.41754" lon="0.84735">
        <ele>61.799999237061</ele>
        <time>2021-07-17T11:43:49.000Z</time>
      </trkpt>
      <trkpt lat="47.41762" lon="0.84724">
        <ele>61.599998474121</ele>
        <time>2021-07-17T11:43:51.000Z</time>
      </trkpt>
      <trkpt lat="47.41792" lon="0.84655">
        <ele>61.400001525879</ele>
        <time>2021-07-17T11:44:00.000Z</time>
      </trkpt>
      <trkpt lat="47.418" lon="0.8464">
        <ele>60.799999237061</ele>
        <time>2021-07-17T11:44:02.000Z</time>
      </trkpt>
      <trkpt lat="47.41804" lon="0.84633">
        <ele>60.400001525879</ele>
        <time>2021-07-17T11:44:03.000Z</time>
      </trkpt>
      <trkpt lat="47.41842" lon="0.84596">
        <ele>59.400001525879</ele>
        <time>2021-07-17T11:44:12.000Z</time>
      </trkpt>
      <trkpt lat="47.41841" lon="0.8459">
        <ele>59.400001525879</ele>
        <time>2021-07-17T11:44:14.000Z</time>
      </trkpt>
      <trkpt lat="47.41835" lon="0.84577">
        <ele>58.799999237061</ele>
        <time>2021-07-17T11:44:17.000Z</time>
      </trkpt>
      <trkpt lat="47.41824" lon="0.84549">
        <ele>58.799999237061</ele>
        <time>2021-07-17T11:44:21.000Z</time>
      </trkpt>
      <trkpt lat="47.41796" lon="0.84477">
        <ele>60</ele>
        <time>2021-07-17T11:44:30.000Z</time>
      </trkpt>
      <trkpt lat="47.41791" lon="0.84463">
        <ele>60.200000762939</ele>
        <time>2021-07-17T11:44:32.000Z</time>
      </trkpt>
      <trkpt lat="47.41787" lon="0.8445">
        <ele>60.200000762939</ele>
        <time>2021-07-17T11:44:34.000Z</time>
      </trkpt>
      <trkpt lat="47.41779" lon="0.84422">
        <ele>60.400001525879</ele>
        <time>2021-07-17T11:44:38.000Z</time>
      </trkpt>
      <trkpt lat="47.41764" lon="0.84379">
        <ele>61.599998474121</ele>
        <time>2021-07-17T11:44:44.000Z</time>
      </trkpt>
      <trkpt lat="47.41739" lon="0.84307">
        <ele>60.799999237061</ele>
        <time>2021-07-17T11:44:52.000Z</time>
      </trkpt>
      <trkpt lat="47.41736" lon="0.84297">
        <ele>60.400001525879</ele>
        <time>2021-07-17T11:44:53.000Z</time>
      </trkpt>
      <trkpt lat="47.41717" lon="0.84241">
        <ele>59.599998474121</ele>
        <time>2021-07-17T11:45:00.000Z</time>
      </trkpt>
      <trkpt lat="47.417" lon="0.84225">
        <ele>59.599998474121</ele>
        <time>2021-07-17T11:45:07.000Z</time>
      </trkpt>
      <trkpt lat="47.4169" lon="0.84229">
        <ele>59.799999237061</ele>
        <time>2021-07-17T11:45:09.000Z</time>
      </trkpt>
      <trkpt lat="47.41654" lon="0.84247">
        <ele>57.599998474121</ele>
        <time>2021-07-17T11:45:15.000Z</time>
      </trkpt>
      <trkpt lat="47.41602" lon="0.84272">
        <ele>57</ele>
        <time>2021-07-17T11:45:23.000Z</time>
      </trkpt>
      <trkpt lat="47.41548" lon="0.84299">
        <ele>57</ele>
        <time>2021-07-17T11:45:31.000Z</time>
      </trkpt>
      <trkpt lat="47.41495" lon="0.84322">
        <ele>57.200000762939</ele>
        <time>2021-07-17T11:45:39.000Z</time>
      </trkpt>
      <trkpt lat="47.41441" lon="0.84335">
        <ele>57.799999237061</ele>
        <time>2021-07-17T11:45:47.000Z</time>
      </trkpt>
      <trkpt lat="47.41398" lon="0.84335">
        <ele>58.599998474121</ele>
        <time>2021-07-17T11:45:54.000Z</time>
      </trkpt>
      <trkpt lat="47.41392" lon="0.84333">
        <ele>58.799999237061</ele>
        <time>2021-07-17T11:45:55.000Z</time>
      </trkpt>
      <trkpt lat="47.41375" lon="0.84323">
        <ele>60</ele>
        <time>2021-07-17T11:45:58.000Z</time>
      </trkpt>
      <trkpt lat="47.41356" lon="0.84295">
        <ele>59.799999237061</ele>
        <time>2021-07-17T11:46:02.000Z</time>
      </trkpt>
      <trkpt lat="47.41343" lon="0.84255">
        <ele>59</ele>
        <time>2021-07-17T11:46:06.000Z</time>
      </trkpt>
      <trkpt lat="47.41323" lon="0.84179">
        <ele>58.799999237061</ele>
        <time>2021-07-17T11:46:13.000Z</time>
      </trkpt>
      <trkpt lat="47.41297" lon="0.84101">
        <ele>58.799999237061</ele>
        <time>2021-07-17T11:46:21.000Z</time>
      </trkpt>
      <trkpt lat="47.41285" lon="0.84065">
        <ele>60.200000762939</ele>
        <time>2021-07-17T11:46:25.000Z</time>
      </trkpt>
      <trkpt lat="47.41283" lon="0.84057">
        <ele>59.400001525879</ele>
        <time>2021-07-17T11:46:26.000Z</time>
      </trkpt>
      <trkpt lat="47.4128" lon="0.84049">
        <ele>58.799999237061</ele>
        <time>2021-07-17T11:46:27.000Z</time>
      </trkpt>
      <trkpt lat="47.41255" lon="0.83972">
        <ele>58.599998474121</ele>
        <time>2021-07-17T11:46:36.000Z</time>
      </trkpt>
      <trkpt lat="47.41232" lon="0.83895">
        <ele>59.400001525879</ele>
        <time>2021-07-17T11:46:45.000Z</time>
      </trkpt>
      <trkpt lat="47.41217" lon="0.83816">
        <ele>58.599998474121</ele>
        <time>2021-07-17T11:46:53.000Z</time>
      </trkpt>
      <trkpt lat="47.41203" lon="0.83735">
        <ele>58.400001525879</ele>
        <time>2021-07-17T11:47:01.000Z</time>
      </trkpt>
      <trkpt lat="47.41193" lon="0.83685">
        <ele>59.400001525879</ele>
        <time>2021-07-17T11:47:06.000Z</time>
      </trkpt>
      <trkpt lat="47.4117" lon="0.83604">
        <ele>59.400001525879</ele>
        <time>2021-07-17T11:47:14.000Z</time>
      </trkpt>
      <trkpt lat="47.4115" lon="0.83536">
        <ele>59.799999237061</ele>
        <time>2021-07-17T11:47:21.000Z</time>
      </trkpt>
      <trkpt lat="47.41139" lon="0.83454">
        <ele>58.799999237061</ele>
        <time>2021-07-17T11:47:29.000Z</time>
      </trkpt>
      <trkpt lat="47.41139" lon="0.83444">
        <ele>58.799999237061</ele>
        <time>2021-07-17T11:47:30.000Z</time>
      </trkpt>
      <trkpt lat="47.41145" lon="0.83365">
        <ele>59</ele>
        <time>2021-07-17T11:47:38.000Z</time>
      </trkpt>
      <trkpt lat="47.41154" lon="0.83286">
        <ele>58.200000762939</ele>
        <time>2021-07-17T11:47:46.000Z</time>
      </trkpt>
      <trkpt lat="47.41168" lon="0.83208">
        <ele>58.400001525879</ele>
        <time>2021-07-17T11:47:54.000Z</time>
      </trkpt>
      <trkpt lat="47.41183" lon="0.8313">
        <ele>58.400001525879</ele>
        <time>2021-07-17T11:48:02.000Z</time>
      </trkpt>
      <trkpt lat="47.41189" lon="0.8308">
        <ele>57.799999237061</ele>
        <time>2021-07-17T11:48:07.000Z</time>
      </trkpt>
      <trkpt lat="47.41197" lon="0.83">
        <ele>57.200000762939</ele>
        <time>2021-07-17T11:48:15.000Z</time>
      </trkpt>
      <trkpt lat="47.41202" lon="0.8292">
        <ele>57.400001525879</ele>
        <time>2021-07-17T11:48:23.000Z</time>
      </trkpt>
      <trkpt lat="47.41206" lon="0.82835">
        <ele>57</ele>
        <time>2021-07-17T11:48:32.000Z</time>
      </trkpt>
      <trkpt lat="47.41211" lon="0.82755">
        <ele>57</ele>
        <time>2021-07-17T11:48:40.000Z</time>
      </trkpt>
      <trkpt lat="47.41213" lon="0.8267">
        <ele>57.599998474121</ele>
        <time>2021-07-17T11:48:48.000Z</time>
      </trkpt>
      <trkpt lat="47.41214" lon="0.82586">
        <ele>57.200000762939</ele>
        <time>2021-07-17T11:48:56.000Z</time>
      </trkpt>
      <trkpt lat="47.4121" lon="0.82503">
        <ele>57.599998474121</ele>
        <time>2021-07-17T11:49:04.000Z</time>
      </trkpt>
      <trkpt lat="47.41205" lon="0.82418">
        <ele>57.200000762939</ele>
        <time>2021-07-17T11:49:12.000Z</time>
      </trkpt>
      <trkpt lat="47.41197" lon="0.82335">
        <ele>56.599998474121</ele>
        <time>2021-07-17T11:49:20.000Z</time>
      </trkpt>
      <trkpt lat="47.41195" lon="0.82324">
        <ele>57.200000762939</ele>
        <time>2021-07-17T11:49:21.000Z</time>
      </trkpt>
      <trkpt lat="47.41193" lon="0.82303">
        <ele>57.400001525879</ele>
        <time>2021-07-17T11:49:23.000Z</time>
      </trkpt>
      <trkpt lat="47.41184" lon="0.82291">
        <ele>57.400001525879</ele>
        <time>2021-07-17T11:49:25.000Z</time>
      </trkpt>
      <trkpt lat="47.41178" lon="0.82293">
        <ele>57.799999237061</ele>
        <time>2021-07-17T11:49:26.000Z</time>
      </trkpt>
      <trkpt lat="47.41173" lon="0.823">
        <ele>58.200000762939</ele>
        <time>2021-07-17T11:49:27.000Z</time>
      </trkpt>
      <trkpt lat="47.41169" lon="0.82307">
        <ele>59</ele>
        <time>2021-07-17T11:49:28.000Z</time>
      </trkpt>
      <trkpt lat="47.41164" lon="0.82315">
        <ele>58.799999237061</ele>
        <time>2021-07-17T11:49:29.000Z</time>
      </trkpt>
      <trkpt lat="47.41119" lon="0.82351">
        <ele>60.599998474121</ele>
        <time>2021-07-17T11:49:36.000Z</time>
      </trkpt>
      <trkpt lat="47.41112" lon="0.82353">
        <ele>60.799999237061</ele>
        <time>2021-07-17T11:49:37.000Z</time>
      </trkpt>
      <trkpt lat="47.41083" lon="0.82356">
        <ele>58.799999237061</ele>
        <time>2021-07-17T11:49:41.000Z</time>
      </trkpt>
      <trkpt lat="47.41025" lon="0.82351">
        <ele>59.400001525879</ele>
        <time>2021-07-17T11:49:49.000Z</time>
      </trkpt>
      <trkpt lat="47.40967" lon="0.8235">
        <ele>58.200000762939</ele>
        <time>2021-07-17T11:49:57.000Z</time>
      </trkpt>
      <trkpt lat="47.40912" lon="0.82343">
        <ele>57.799999237061</ele>
        <time>2021-07-17T11:50:04.000Z</time>
      </trkpt>
      <trkpt lat="47.40856" lon="0.82322">
        <ele>57.799999237061</ele>
        <time>2021-07-17T11:50:12.000Z</time>
      </trkpt>
      <trkpt lat="47.40835" lon="0.82313">
        <ele>56.799999237061</ele>
        <time>2021-07-17T11:50:15.000Z</time>
      </trkpt>
      <trkpt lat="47.40788" lon="0.82289">
        <ele>55.599998474121</ele>
        <time>2021-07-17T11:50:22.000Z</time>
      </trkpt>
      <trkpt lat="47.40762" lon="0.82273">
        <ele>56.799999237061</ele>
        <time>2021-07-17T11:50:26.000Z</time>
      </trkpt>
      <trkpt lat="47.40707" lon="0.82249">
        <ele>56.200000762939</ele>
        <time>2021-07-17T11:50:34.000Z</time>
      </trkpt>
      <trkpt lat="47.40692" lon="0.82245">
        <ele>55.200000762939</ele>
        <time>2021-07-17T11:50:36.000Z</time>
      </trkpt>
      <trkpt lat="47.40652" lon="0.82236">
        <ele>54.200000762939</ele>
        <time>2021-07-17T11:50:41.000Z</time>
      </trkpt>
      <trkpt lat="47.40597" lon="0.82222">
        <ele>54</ele>
        <time>2021-07-17T11:50:48.000Z</time>
      </trkpt>
      <trkpt lat="47.40548" lon="0.82188">
        <ele>54.200000762939</ele>
        <time>2021-07-17T11:50:55.000Z</time>
      </trkpt>
      <trkpt lat="47.4051" lon="0.82131">
        <ele>54.400001525879</ele>
        <time>2021-07-17T11:51:02.000Z</time>
      </trkpt>
      <trkpt lat="47.40484" lon="0.8206">
        <ele>54.599998474121</ele>
        <time>2021-07-17T11:51:09.000Z</time>
      </trkpt>
      <trkpt lat="47.4046" lon="0.81983">
        <ele>54.599998474121</ele>
        <time>2021-07-17T11:51:16.000Z</time>
      </trkpt>
      <trkpt lat="47.40446" lon="0.81913">
        <ele>55.200000762939</ele>
        <time>2021-07-17T11:51:22.000Z</time>
      </trkpt>
      <trkpt lat="47.40437" lon="0.81831">
        <ele>55.799999237061</ele>
        <time>2021-07-17T11:51:29.000Z</time>
      </trkpt>
      <trkpt lat="47.40437" lon="0.81749">
        <ele>56.400001525879</ele>
        <time>2021-07-17T11:51:36.000Z</time>
      </trkpt>
      <trkpt lat="47.40445" lon="0.81666">
        <ele>56.599998474121</ele>
        <time>2021-07-17T11:51:43.000Z</time>
      </trkpt>
      <trkpt lat="47.40457" lon="0.81581">
        <ele>56.599998474121</ele>
        <time>2021-07-17T11:51:50.000Z</time>
      </trkpt>
      <trkpt lat="47.4047" lon="0.81498">
        <ele>56.799999237061</ele>
        <time>2021-07-17T11:51:57.000Z</time>
      </trkpt>
      <trkpt lat="47.40481" lon="0.81417">
        <ele>57</ele>
        <time>2021-07-17T11:52:04.000Z</time>
      </trkpt>
      <trkpt lat="47.40489" lon="0.81337">
        <ele>57.400001525879</ele>
        <time>2021-07-17T11:52:11.000Z</time>
      </trkpt>
      <trkpt lat="47.40487" lon="0.81256">
        <ele>57.599998474121</ele>
        <time>2021-07-17T11:52:18.000Z</time>
      </trkpt>
      <trkpt lat="47.40482" lon="0.81166">
        <ele>57.599998474121</ele>
        <time>2021-07-17T11:52:26.000Z</time>
      </trkpt>
      <trkpt lat="47.4048" lon="0.81087">
        <ele>57.400001525879</ele>
        <time>2021-07-17T11:52:33.000Z</time>
      </trkpt>
      <trkpt lat="47.40476" lon="0.81001">
        <ele>56.799999237061</ele>
        <time>2021-07-17T11:52:41.000Z</time>
      </trkpt>
      <trkpt lat="47.40474" lon="0.80927">
        <ele>57.599998474121</ele>
        <time>2021-07-17T11:52:48.000Z</time>
      </trkpt>
      <trkpt lat="47.40457" lon="0.8086">
        <ele>58.400001525879</ele>
        <time>2021-07-17T11:52:55.000Z</time>
      </trkpt>
      <trkpt lat="47.40442" lon="0.80828">
        <ele>59.400001525879</ele>
        <time>2021-07-17T11:52:59.000Z</time>
      </trkpt>
      <trkpt lat="47.40431" lon="0.80805">
        <ele>60.400001525879</ele>
        <time>2021-07-17T11:53:02.000Z</time>
      </trkpt>
      <trkpt lat="47.40418" lon="0.80772">
        <ele>61.599998474121</ele>
        <time>2021-07-17T11:53:06.000Z</time>
      </trkpt>
      <trkpt lat="47.40411" lon="0.80745">
        <ele>61.799999237061</ele>
        <time>2021-07-17T11:53:09.000Z</time>
      </trkpt>
      <trkpt lat="47.40414" lon="0.80727">
        <ele>61.599998474121</ele>
        <time>2021-07-17T11:53:11.000Z</time>
      </trkpt>
      <trkpt lat="47.40426" lon="0.80718">
        <ele>60.599998474121</ele>
        <time>2021-07-17T11:53:13.000Z</time>
      </trkpt>
      <trkpt lat="47.40433" lon="0.80717">
        <ele>60.200000762939</ele>
        <time>2021-07-17T11:53:14.000Z</time>
      </trkpt>
      <trkpt lat="47.4044" lon="0.80718">
        <ele>60</ele>
        <time>2021-07-17T11:53:15.000Z</time>
      </trkpt>
      <trkpt lat="47.40489" lon="0.80722">
        <ele>61.400001525879</ele>
        <time>2021-07-17T11:53:22.000Z</time>
      </trkpt>
      <trkpt lat="47.40496" lon="0.8072">
        <ele>61.599998474121</ele>
        <time>2021-07-17T11:53:23.000Z</time>
      </trkpt>
      <trkpt lat="47.40538" lon="0.80685">
        <ele>62.200000762939</ele>
        <time>2021-07-17T11:53:30.000Z</time>
      </trkpt>
      <trkpt lat="47.4055" lon="0.80661">
        <ele>62.400001525879</ele>
        <time>2021-07-17T11:53:33.000Z</time>
      </trkpt>
      <trkpt lat="47.40556" lon="0.80644">
        <ele>63.599998474121</ele>
        <time>2021-07-17T11:53:35.000Z</time>
      </trkpt>
      <trkpt lat="47.4056" lon="0.80625">
        <ele>64</ele>
        <time>2021-07-17T11:53:37.000Z</time>
      </trkpt>
      <trkpt lat="47.40562" lon="0.80607">
        <ele>64.599998474121</ele>
        <time>2021-07-17T11:53:39.000Z</time>
      </trkpt>
      <trkpt lat="47.40563" lon="0.80597">
        <ele>64.800003051758</ele>
        <time>2021-07-17T11:53:40.000Z</time>
      </trkpt>
      <trkpt lat="47.40559" lon="0.80553">
        <ele>66.199996948242</ele>
        <time>2021-07-17T11:53:45.000Z</time>
      </trkpt>
      <trkpt lat="47.4054" lon="0.80491">
        <ele>67.199996948242</ele>
        <time>2021-07-17T11:53:53.000Z</time>
      </trkpt>
      <trkpt lat="47.4051" lon="0.8043">
        <ele>68.199996948242</ele>
        <time>2021-07-17T11:54:02.000Z</time>
      </trkpt>
      <trkpt lat="47.40486" lon="0.80383">
        <ele>69.599998474121</ele>
        <time>2021-07-17T11:54:09.000Z</time>
      </trkpt>
      <trkpt lat="47.40483" lon="0.80377">
        <ele>69.400001525879</ele>
        <time>2021-07-17T11:54:10.000Z</time>
      </trkpt>
      <trkpt lat="47.40447" lon="0.80308">
        <ele>69.199996948242</ele>
        <time>2021-07-17T11:54:20.000Z</time>
      </trkpt>
      <trkpt lat="47.40413" lon="0.80241">
        <ele>70.400001525879</ele>
        <time>2021-07-17T11:54:30.000Z</time>
      </trkpt>
      <trkpt lat="47.40387" lon="0.8019">
        <ele>70.800003051758</ele>
        <time>2021-07-17T11:54:37.000Z</time>
      </trkpt>
      <trkpt lat="47.40363" lon="0.80142">
        <ele>69.800003051758</ele>
        <time>2021-07-17T11:54:43.000Z</time>
      </trkpt>
      <trkpt lat="47.40328" lon="0.80072">
        <ele>68.800003051758</ele>
        <time>2021-07-17T11:54:51.000Z</time>
      </trkpt>
      <trkpt lat="47.40323" lon="0.80063">
        <ele>68.599998474121</ele>
        <time>2021-07-17T11:54:52.000Z</time>
      </trkpt>
      <trkpt lat="47.40304" lon="0.80025">
        <ele>67.400001525879</ele>
        <time>2021-07-17T11:54:56.000Z</time>
      </trkpt>
      <trkpt lat="47.40269" lon="0.79957">
        <ele>67.199996948242</ele>
        <time>2021-07-17T11:55:03.000Z</time>
      </trkpt>
      <trkpt lat="47.40233" lon="0.79886">
        <ele>67.199996948242</ele>
        <time>2021-07-17T11:55:10.000Z</time>
      </trkpt>
      <trkpt lat="47.40223" lon="0.79865">
        <ele>66.400001525879</ele>
        <time>2021-07-17T11:55:12.000Z</time>
      </trkpt>
      <trkpt lat="47.40212" lon="0.79844">
        <ele>65.400001525879</ele>
        <time>2021-07-17T11:55:14.000Z</time>
      </trkpt>
      <trkpt lat="47.40176" lon="0.79771">
        <ele>65.800003051758</ele>
        <time>2021-07-17T11:55:21.000Z</time>
      </trkpt>
      <trkpt lat="47.40138" lon="0.79697">
        <ele>65</ele>
        <time>2021-07-17T11:55:28.000Z</time>
      </trkpt>
      <trkpt lat="47.40102" lon="0.79625">
        <ele>64.599998474121</ele>
        <time>2021-07-17T11:55:35.000Z</time>
      </trkpt>
      <trkpt lat="47.40092" lon="0.79606">
        <ele>64.199996948242</ele>
        <time>2021-07-17T11:55:37.000Z</time>
      </trkpt>
      <trkpt lat="47.40058" lon="0.79539">
        <ele>64.400001525879</ele>
        <time>2021-07-17T11:55:44.000Z</time>
      </trkpt>
      <trkpt lat="47.40035" lon="0.79493">
        <ele>63</ele>
        <time>2021-07-17T11:55:49.000Z</time>
      </trkpt>
      <trkpt lat="47.40017" lon="0.79453">
        <ele>61.799999237061</ele>
        <time>2021-07-17T11:55:53.000Z</time>
      </trkpt>
      <trkpt lat="47.40007" lon="0.79418">
        <ele>61</ele>
        <time>2021-07-17T11:55:56.000Z</time>
      </trkpt>
      <trkpt lat="47.40005" lon="0.79405">
        <ele>60.799999237061</ele>
        <time>2021-07-17T11:55:57.000Z</time>
      </trkpt>
      <trkpt lat="47.40004" lon="0.79392">
        <ele>60</ele>
        <time>2021-07-17T11:55:58.000Z</time>
      </trkpt>
      <trkpt lat="47.40005" lon="0.7938">
        <ele>59.200000762939</ele>
        <time>2021-07-17T11:55:59.000Z</time>
      </trkpt>
      <trkpt lat="47.40007" lon="0.79367">
        <ele>58.799999237061</ele>
        <time>2021-07-17T11:56:00.000Z</time>
      </trkpt>
      <trkpt lat="47.40014" lon="0.79343">
        <ele>60</ele>
        <time>2021-07-17T11:56:02.000Z</time>
      </trkpt>
      <trkpt lat="47.40019" lon="0.79332">
        <ele>60.799999237061</ele>
        <time>2021-07-17T11:56:03.000Z</time>
      </trkpt>
      <trkpt lat="47.40024" lon="0.79323">
        <ele>60.799999237061</ele>
        <time>2021-07-17T11:56:04.000Z</time>
      </trkpt>
      <trkpt lat="47.40038" lon="0.79307">
        <ele>61</ele>
        <time>2021-07-17T11:56:06.000Z</time>
      </trkpt>
      <trkpt lat="47.40055" lon="0.79301">
        <ele>60.200000762939</ele>
        <time>2021-07-17T11:56:08.000Z</time>
      </trkpt>
      <trkpt lat="47.40063" lon="0.79301">
        <ele>59.400001525879</ele>
        <time>2021-07-17T11:56:09.000Z</time>
      </trkpt>
      <trkpt lat="47.40072" lon="0.793">
        <ele>57.400001525879</ele>
        <time>2021-07-17T11:56:10.000Z</time>
      </trkpt>
      <trkpt lat="47.40089" lon="0.79293">
        <ele>56.599998474121</ele>
        <time>2021-07-17T11:56:12.000Z</time>
      </trkpt>
      <trkpt lat="47.40102" lon="0.79275">
        <ele>57</ele>
        <time>2021-07-17T11:56:14.000Z</time>
      </trkpt>
      <trkpt lat="47.4011" lon="0.79251">
        <ele>57.400001525879</ele>
        <time>2021-07-17T11:56:16.000Z</time>
      </trkpt>
      <trkpt lat="47.40104" lon="0.79224">
        <ele>57.200000762939</ele>
        <time>2021-07-17T11:56:18.000Z</time>
      </trkpt>
      <trkpt lat="47.40088" lon="0.79201">
        <ele>56.799999237061</ele>
        <time>2021-07-17T11:56:20.000Z</time>
      </trkpt>
      <trkpt lat="47.4008" lon="0.7919">
        <ele>56.200000762939</ele>
        <time>2021-07-17T11:56:21.000Z</time>
      </trkpt>
      <trkpt lat="47.40075" lon="0.79177">
        <ele>56.200000762939</ele>
        <time>2021-07-17T11:56:22.000Z</time>
      </trkpt>
      <trkpt lat="47.4007" lon="0.79148">
        <ele>56</ele>
        <time>2021-07-17T11:56:24.000Z</time>
      </trkpt>
      <trkpt lat="47.40054" lon="0.79069">
        <ele>56.599998474121</ele>
        <time>2021-07-17T11:56:30.000Z</time>
      </trkpt>
      <trkpt lat="47.40028" lon="0.79005">
        <ele>57.599998474121</ele>
        <time>2021-07-17T11:56:36.000Z</time>
      </trkpt>
      <trkpt lat="47.39984" lon="0.78947">
        <ele>58</ele>
        <time>2021-07-17T11:56:44.000Z</time>
      </trkpt>
      <trkpt lat="47.39932" lon="0.78913">
        <ele>58.200000762939</ele>
        <time>2021-07-17T11:56:52.000Z</time>
      </trkpt>
      <trkpt lat="47.39912" lon="0.78904">
        <ele>57.799999237061</ele>
        <time>2021-07-17T11:56:55.000Z</time>
      </trkpt>
      <trkpt lat="47.39877" lon="0.789">
        <ele>58.599998474121</ele>
        <time>2021-07-17T11:57:00.000Z</time>
      </trkpt>
      <trkpt lat="47.39819" lon="0.78897">
        <ele>58.599998474121</ele>
        <time>2021-07-17T11:57:08.000Z</time>
      </trkpt>
      <trkpt lat="47.39759" lon="0.78896">
        <ele>58.200000762939</ele>
        <time>2021-07-17T11:57:16.000Z</time>
      </trkpt>
      <trkpt lat="47.39738" lon="0.78895">
        <ele>57.599998474121</ele>
        <time>2021-07-17T11:57:19.000Z</time>
      </trkpt>
      <trkpt lat="47.39681" lon="0.78893">
        <ele>57.599998474121</ele>
        <time>2021-07-17T11:57:27.000Z</time>
      </trkpt>
      <trkpt lat="47.39645" lon="0.78891">
        <ele>56.599998474121</ele>
        <time>2021-07-17T11:57:32.000Z</time>
      </trkpt>
      <trkpt lat="47.39591" lon="0.78889">
        <ele>56</ele>
        <time>2021-07-17T11:57:40.000Z</time>
      </trkpt>
      <trkpt lat="47.39536" lon="0.78883">
        <ele>56.200000762939</ele>
        <time>2021-07-17T11:57:48.000Z</time>
      </trkpt>
      <trkpt lat="47.39489" lon="0.7887">
        <ele>55.400001525879</ele>
        <time>2021-07-17T11:57:55.000Z</time>
      </trkpt>
      <trkpt lat="47.39433" lon="0.7884">
        <ele>56.400001525879</ele>
        <time>2021-07-17T11:58:04.000Z</time>
      </trkpt>
      <trkpt lat="47.39415" lon="0.78826">
        <ele>56.599998474121</ele>
        <time>2021-07-17T11:58:07.000Z</time>
      </trkpt>
      <trkpt lat="47.39409" lon="0.7882">
        <ele>56.799999237061</ele>
        <time>2021-07-17T11:58:08.000Z</time>
      </trkpt>
      <trkpt lat="47.39398" lon="0.78795">
        <ele>57.400001525879</ele>
        <time>2021-07-17T11:58:11.000Z</time>
      </trkpt>
      <trkpt lat="47.39387" lon="0.78782">
        <ele>56.200000762939</ele>
        <time>2021-07-17T11:58:13.000Z</time>
      </trkpt>
      <trkpt lat="47.39373" lon="0.78775">
        <ele>55.599998474121</ele>
        <time>2021-07-17T11:58:15.000Z</time>
      </trkpt>
      <trkpt lat="47.39358" lon="0.78779">
        <ele>55.200000762939</ele>
        <time>2021-07-17T11:58:17.000Z</time>
      </trkpt>
      <trkpt lat="47.39347" lon="0.7879">
        <ele>55.200000762939</ele>
        <time>2021-07-17T11:58:19.000Z</time>
      </trkpt>
      <trkpt lat="47.39331" lon="0.78812">
        <ele>55.200000762939</ele>
        <time>2021-07-17T11:58:22.000Z</time>
      </trkpt>
      <trkpt lat="47.39317" lon="0.78819">
        <ele>55.599998474121</ele>
        <time>2021-07-17T11:58:24.000Z</time>
      </trkpt>
      <trkpt lat="47.39297" lon="0.78821">
        <ele>57.799999237061</ele>
        <time>2021-07-17T11:58:27.000Z</time>
      </trkpt>
      <trkpt lat="47.3929" lon="0.78822">
        <ele>59.200000762939</ele>
        <time>2021-07-17T11:58:28.000Z</time>
      </trkpt>
      <trkpt lat="47.39265" lon="0.78822">
        <ele>60.400001525879</ele>
        <time>2021-07-17T11:58:32.000Z</time>
      </trkpt>
      <trkpt lat="47.39209" lon="0.78818">
        <ele>60.799999237061</ele>
        <time>2021-07-17T11:58:43.000Z</time>
      </trkpt>
      <trkpt lat="47.39195" lon="0.78815">
        <ele>61.400001525879</ele>
        <time>2021-07-17T11:58:46.000Z</time>
      </trkpt>
      <trkpt lat="47.39141" lon="0.78799">
        <ele>62.400001525879</ele>
        <time>2021-07-17T11:58:58.000Z</time>
      </trkpt>
      <trkpt lat="47.39137" lon="0.78798">
        <ele>62.599998474121</ele>
        <time>2021-07-17T11:58:59.000Z</time>
      </trkpt>
      <trkpt lat="47.39107" lon="0.78784">
        <ele>63.799999237061</ele>
        <time>2021-07-17T11:59:06.000Z</time>
      </trkpt>
      <trkpt lat="47.39089" lon="0.78776">
        <ele>64.800003051758</ele>
        <time>2021-07-17T11:59:10.000Z</time>
      </trkpt>
      <trkpt lat="47.39034" lon="0.78749">
        <ele>65</ele>
        <time>2021-07-17T11:59:22.000Z</time>
      </trkpt>
      <trkpt lat="47.39015" lon="0.7874">
        <ele>66.199996948242</ele>
        <time>2021-07-17T11:59:26.000Z</time>
      </trkpt>
      <trkpt lat="47.38963" lon="0.78715">
        <ele>65.400001525879</ele>
        <time>2021-07-17T11:59:36.000Z</time>
      </trkpt>
      <trkpt lat="47.38942" lon="0.78705">
        <ele>65.199996948242</ele>
        <time>2021-07-17T11:59:40.000Z</time>
      </trkpt>
      <trkpt lat="47.38903" lon="0.78687">
        <ele>66.400001525879</ele>
        <time>2021-07-17T11:59:47.000Z</time>
      </trkpt>
      <trkpt lat="47.38856" lon="0.78666">
        <ele>65.199996948242</ele>
        <time>2021-07-17T11:59:55.000Z</time>
      </trkpt>
      <trkpt lat="47.38824" lon="0.78651">
        <ele>64</ele>
        <time>2021-07-17T12:00:00.000Z</time>
      </trkpt>
      <trkpt lat="47.38766" lon="0.78624">
        <ele>63.400001525879</ele>
        <time>2021-07-17T12:00:08.000Z</time>
      </trkpt>
      <trkpt lat="47.38758" lon="0.78621">
        <ele>62.799999237061</ele>
        <time>2021-07-17T12:00:09.000Z</time>
      </trkpt>
      <trkpt lat="47.3871" lon="0.78598">
        <ele>61.400001525879</ele>
        <time>2021-07-17T12:00:15.000Z</time>
      </trkpt>
      <trkpt lat="47.38654" lon="0.78571">
        <ele>61</ele>
        <time>2021-07-17T12:00:22.000Z</time>
      </trkpt>
      <trkpt lat="47.38632" lon="0.78561">
        <ele>60</ele>
        <time>2021-07-17T12:00:25.000Z</time>
      </trkpt>
      <trkpt lat="47.38617" lon="0.78555">
        <ele>58.799999237061</ele>
        <time>2021-07-17T12:00:27.000Z</time>
      </trkpt>
      <trkpt lat="47.38588" lon="0.78541">
        <ele>57.799999237061</ele>
        <time>2021-07-17T12:00:31.000Z</time>
      </trkpt>
      <trkpt lat="47.38536" lon="0.78516">
        <ele>57.599998474121</ele>
        <time>2021-07-17T12:00:38.000Z</time>
      </trkpt>
      <trkpt lat="47.38479" lon="0.78489">
        <ele>57</ele>
        <time>2021-07-17T12:00:46.000Z</time>
      </trkpt>
      <trkpt lat="47.38436" lon="0.78469">
        <ele>56.799999237061</ele>
        <time>2021-07-17T12:00:52.000Z</time>
      </trkpt>
      <trkpt lat="47.38381" lon="0.78444">
        <ele>56.799999237061</ele>
        <time>2021-07-17T12:01:00.000Z</time>
      </trkpt>
      <trkpt lat="47.38336" lon="0.78424">
        <ele>58</ele>
        <time>2021-07-17T12:01:07.000Z</time>
      </trkpt>
      <trkpt lat="47.38278" lon="0.78404">
        <ele>58.599998474121</ele>
        <time>2021-07-17T12:01:16.000Z</time>
      </trkpt>
      <trkpt lat="47.38222" lon="0.78392">
        <ele>57.599998474121</ele>
        <time>2021-07-17T12:01:25.000Z</time>
      </trkpt>
      <trkpt lat="47.38166" lon="0.7839">
        <ele>57</ele>
        <time>2021-07-17T12:01:36.000Z</time>
      </trkpt>
      <trkpt lat="47.38154" lon="0.78379">
        <ele>57.200000762939</ele>
        <time>2021-07-17T12:01:40.000Z</time>
      </trkpt>
      <trkpt lat="47.3814" lon="0.78367">
        <ele>57.400001525879</ele>
        <time>2021-07-17T12:01:43.000Z</time>
      </trkpt>
      <trkpt lat="47.38135" lon="0.78352">
        <ele>57.799999237061</ele>
        <time>2021-07-17T12:01:45.000Z</time>
      </trkpt>
      <trkpt lat="47.38127" lon="0.78268">
        <ele>58.200000762939</ele>
        <time>2021-07-17T12:01:54.000Z</time>
      </trkpt>
      <trkpt lat="47.38125" lon="0.78186">
        <ele>57.400001525879</ele>
        <time>2021-07-17T12:02:02.000Z</time>
      </trkpt>
      <trkpt lat="47.38124" lon="0.78102">
        <ele>57.599998474121</ele>
        <time>2021-07-17T12:02:10.000Z</time>
      </trkpt>
      <trkpt lat="47.38123" lon="0.78022">
        <ele>58</ele>
        <time>2021-07-17T12:02:18.000Z</time>
      </trkpt>
      <trkpt lat="47.38124" lon="0.77939">
        <ele>58.200000762939</ele>
        <time>2021-07-17T12:02:26.000Z</time>
      </trkpt>
      <trkpt lat="47.38124" lon="0.77857">
        <ele>58.400001525879</ele>
        <time>2021-07-17T12:02:34.000Z</time>
      </trkpt>
      <trkpt lat="47.38124" lon="0.77774">
        <ele>58.200000762939</ele>
        <time>2021-07-17T12:02:42.000Z</time>
      </trkpt>
      <trkpt lat="47.38123" lon="0.7769">
        <ele>57.799999237061</ele>
        <time>2021-07-17T12:02:50.000Z</time>
      </trkpt>
      <trkpt lat="47.38124" lon="0.77607">
        <ele>58</ele>
        <time>2021-07-17T12:02:58.000Z</time>
      </trkpt>
      <trkpt lat="47.38124" lon="0.77522">
        <ele>57.799999237061</ele>
        <time>2021-07-17T12:03:06.000Z</time>
      </trkpt>
      <trkpt lat="47.38124" lon="0.77439">
        <ele>57.599998474121</ele>
        <time>2021-07-17T12:03:14.000Z</time>
      </trkpt>
      <trkpt lat="47.38123" lon="0.7736">
        <ele>58.599998474121</ele>
        <time>2021-07-17T12:03:22.000Z</time>
      </trkpt>
      <trkpt lat="47.38123" lon="0.77351">
        <ele>59.200000762939</ele>
        <time>2021-07-17T12:03:23.000Z</time>
      </trkpt>
      <trkpt lat="47.38123" lon="0.77265">
        <ele>59</ele>
        <time>2021-07-17T12:03:33.000Z</time>
      </trkpt>
      <trkpt lat="47.38122" lon="0.77242">
        <ele>58.400001525879</ele>
        <time>2021-07-17T12:03:36.000Z</time>
      </trkpt>
      <trkpt lat="47.38117" lon="0.77275">
        <ele>58</ele>
        <time>2021-07-17T12:03:45.000Z</time>
      </trkpt>
      <trkpt lat="47.3811" lon="0.77261">
        <ele>57</ele>
        <time>2021-07-17T12:03:49.000Z</time>
      </trkpt>
      <trkpt lat="47.3811" lon="0.77255">
        <ele>57.200000762939</ele>
        <time>2021-07-17T12:03:50.000Z</time>
      </trkpt>
      <trkpt lat="47.38107" lon="0.7724">
        <ele>57</ele>
        <time>2021-07-17T12:03:52.000Z</time>
      </trkpt>
      <trkpt lat="47.38101" lon="0.77226">
        <ele>56.200000762939</ele>
        <time>2021-07-17T12:03:54.000Z</time>
      </trkpt>
      <trkpt lat="47.38096" lon="0.7722">
        <ele>55.799999237061</ele>
        <time>2021-07-17T12:03:55.000Z</time>
      </trkpt>
      <trkpt lat="47.38091" lon="0.77216">
        <ele>55.599998474121</ele>
        <time>2021-07-17T12:03:56.000Z</time>
      </trkpt>
      <trkpt lat="47.38079" lon="0.77213">
        <ele>55.599998474121</ele>
        <time>2021-07-17T12:03:58.000Z</time>
      </trkpt>
      <trkpt lat="47.38034" lon="0.77216">
        <ele>55.400001525879</ele>
        <time>2021-07-17T12:04:06.000Z</time>
      </trkpt>
      <trkpt lat="47.38022" lon="0.77222">
        <ele>54</ele>
        <time>2021-07-17T12:04:08.000Z</time>
      </trkpt>
      <trkpt lat="47.37989" lon="0.77245">
        <ele>52.799999237061</ele>
        <time>2021-07-17T12:04:14.000Z</time>
      </trkpt>
      <trkpt lat="47.37941" lon="0.77287">
        <ele>52.599998474121</ele>
        <time>2021-07-17T12:04:23.000Z</time>
      </trkpt>
      <trkpt lat="47.37932" lon="0.77298">
        <ele>52.599998474121</ele>
        <time>2021-07-17T12:04:25.000Z</time>
      </trkpt>
      <trkpt lat="47.37882" lon="0.77339">
        <ele>52.400001525879</ele>
        <time>2021-07-17T12:04:35.000Z</time>
      </trkpt>
      <trkpt lat="47.3787" lon="0.77342">
        <ele>52.599998474121</ele>
        <time>2021-07-17T12:04:37.000Z</time>
      </trkpt>
      <trkpt lat="47.37823" lon="0.77345">
        <ele>54.400001525879</ele>
        <time>2021-07-17T12:04:45.000Z</time>
      </trkpt>
      <trkpt lat="47.37811" lon="0.77346">
        <ele>53.200000762939</ele>
        <time>2021-07-17T12:04:47.000Z</time>
      </trkpt>
      <trkpt lat="47.37754" lon="0.77349">
        <ele>53.799999237061</ele>
        <time>2021-07-17T12:04:57.000Z</time>
      </trkpt>
      <trkpt lat="47.37697" lon="0.77356">
        <ele>53.400001525879</ele>
        <time>2021-07-17T12:05:07.000Z</time>
      </trkpt>
      <trkpt lat="47.37641" lon="0.77362">
        <ele>53.599998474121</ele>
        <time>2021-07-17T12:05:17.000Z</time>
      </trkpt>
      <trkpt lat="47.37613" lon="0.77366">
        <ele>54.200000762939</ele>
        <time>2021-07-17T12:05:22.000Z</time>
      </trkpt>
      <trkpt lat="47.3759" lon="0.7737">
        <ele>53.799999237061</ele>
        <time>2021-07-17T12:05:26.000Z</time>
      </trkpt>
      <trkpt lat="47.37532" lon="0.77385">
        <ele>54.200000762939</ele>
        <time>2021-07-17T12:05:37.000Z</time>
      </trkpt>
      <trkpt lat="47.37476" lon="0.77398">
        <ele>54</ele>
        <time>2021-07-17T12:05:47.000Z</time>
      </trkpt>
      <trkpt lat="47.37419" lon="0.77405">
        <ele>53.799999237061</ele>
        <time>2021-07-17T12:05:57.000Z</time>
      </trkpt>
      <trkpt lat="47.37402" lon="0.77408">
        <ele>53.200000762939</ele>
        <time>2021-07-17T12:06:00.000Z</time>
      </trkpt>
      <trkpt lat="47.37374" lon="0.77414">
        <ele>53.200000762939</ele>
        <time>2021-07-17T12:06:05.000Z</time>
      </trkpt>
      <trkpt lat="47.37363" lon="0.77415">
        <ele>53.599998474121</ele>
        <time>2021-07-17T12:06:07.000Z</time>
      </trkpt>
      <trkpt lat="47.37309" lon="0.77427">
        <ele>54</ele>
        <time>2021-07-17T12:06:17.000Z</time>
      </trkpt>
      <trkpt lat="47.37298" lon="0.77429">
        <ele>54.400001525879</ele>
        <time>2021-07-17T12:06:19.000Z</time>
      </trkpt>
      <trkpt lat="47.37242" lon="0.77427">
        <ele>54.200000762939</ele>
        <time>2021-07-17T12:06:29.000Z</time>
      </trkpt>
      <trkpt lat="47.37232" lon="0.77425">
        <ele>56</ele>
        <time>2021-07-17T12:06:31.000Z</time>
      </trkpt>
      <trkpt lat="47.37178" lon="0.7742">
        <ele>56.200000762939</ele>
        <time>2021-07-17T12:06:41.000Z</time>
      </trkpt>
      <trkpt lat="47.37142" lon="0.77416">
        <ele>56.200000762939</ele>
        <time>2021-07-17T12:06:48.000Z</time>
      </trkpt>
      <trkpt lat="47.37137" lon="0.77408">
        <ele>56</ele>
        <time>2021-07-17T12:06:50.000Z</time>
      </trkpt>
      <trkpt lat="47.37145" lon="0.77385">
        <ele>56</ele>
        <time>2021-07-17T12:06:54.000Z</time>
      </trkpt>
      <trkpt lat="47.37166" lon="0.77307">
        <ele>56</ele>
        <time>2021-07-17T12:07:04.000Z</time>
      </trkpt>
      <trkpt lat="47.37169" lon="0.7729">
        <ele>56.200000762939</ele>
        <time>2021-07-17T12:07:06.000Z</time>
      </trkpt>
      <trkpt lat="47.37168" lon="0.77207">
        <ele>56.400001525879</ele>
        <time>2021-07-17T12:07:15.000Z</time>
      </trkpt>
      <trkpt lat="47.37157" lon="0.77124">
        <ele>56.400001525879</ele>
        <time>2021-07-17T12:07:24.000Z</time>
      </trkpt>
      <trkpt lat="47.37151" lon="0.77038">
        <ele>56.599998474121</ele>
        <time>2021-07-17T12:07:33.000Z</time>
      </trkpt>
      <trkpt lat="47.37153" lon="0.76954">
        <ele>56.599998474121</ele>
        <time>2021-07-17T12:07:42.000Z</time>
      </trkpt>
      <trkpt lat="47.37139" lon="0.76874">
        <ele>56</ele>
        <time>2021-07-17T12:07:51.000Z</time>
      </trkpt>
      <trkpt lat="47.37125" lon="0.76795">
        <ele>56.400001525879</ele>
        <time>2021-07-17T12:08:00.000Z</time>
      </trkpt>
      <trkpt lat="47.37107" lon="0.76718">
        <ele>57</ele>
        <time>2021-07-17T12:08:09.000Z</time>
      </trkpt>
      <trkpt lat="47.37094" lon="0.76658">
        <ele>57</ele>
        <time>2021-07-17T12:08:16.000Z</time>
      </trkpt>
      <trkpt lat="47.37078" lon="0.76581">
        <ele>56.799999237061</ele>
        <time>2021-07-17T12:08:25.000Z</time>
      </trkpt>
      <trkpt lat="47.37069" lon="0.7652">
        <ele>55.799999237061</ele>
        <time>2021-07-17T12:08:32.000Z</time>
      </trkpt>
      <trkpt lat="47.37064" lon="0.76438">
        <ele>55.599998474121</ele>
        <time>2021-07-17T12:08:41.000Z</time>
      </trkpt>
      <trkpt lat="47.37064" lon="0.7642">
        <ele>55</ele>
        <time>2021-07-17T12:08:43.000Z</time>
      </trkpt>
      <trkpt lat="47.37067" lon="0.76402">
        <ele>55</ele>
        <time>2021-07-17T12:08:45.000Z</time>
      </trkpt>
      <trkpt lat="47.37091" lon="0.76328">
        <ele>55.200000762939</ele>
        <time>2021-07-17T12:08:54.000Z</time>
      </trkpt>
      <trkpt lat="47.37115" lon="0.76256">
        <ele>56</ele>
        <time>2021-07-17T12:09:03.000Z</time>
      </trkpt>
      <trkpt lat="47.37144" lon="0.76188">
        <ele>56.400001525879</ele>
        <time>2021-07-17T12:09:12.000Z</time>
      </trkpt>
      <trkpt lat="47.37157" lon="0.76159">
        <ele>55.799999237061</ele>
        <time>2021-07-17T12:09:16.000Z</time>
      </trkpt>
      <trkpt lat="47.37163" lon="0.76145">
        <ele>55.799999237061</ele>
        <time>2021-07-17T12:09:18.000Z</time>
      </trkpt>
      <trkpt lat="47.37197" lon="0.76077">
        <ele>55.799999237061</ele>
        <time>2021-07-17T12:09:28.000Z</time>
      </trkpt>
      <trkpt lat="47.3723" lon="0.76005">
        <ele>55.799999237061</ele>
        <time>2021-07-17T12:09:38.000Z</time>
      </trkpt>
      <trkpt lat="47.37261" lon="0.75934">
        <ele>55.799999237061</ele>
        <time>2021-07-17T12:09:48.000Z</time>
      </trkpt>
      <trkpt lat="47.37291" lon="0.75861">
        <ele>55.200000762939</ele>
        <time>2021-07-17T12:09:58.000Z</time>
      </trkpt>
      <trkpt lat="47.37297" lon="0.75846">
        <ele>54.599998474121</ele>
        <time>2021-07-17T12:10:00.000Z</time>
      </trkpt>
      <trkpt lat="47.37328" lon="0.75773">
        <ele>53.599998474121</ele>
        <time>2021-07-17T12:10:10.000Z</time>
      </trkpt>
      <trkpt lat="47.37359" lon="0.75698">
        <ele>54.200000762939</ele>
        <time>2021-07-17T12:10:20.000Z</time>
      </trkpt>
      <trkpt lat="47.37385" lon="0.75641">
        <ele>53.799999237061</ele>
        <time>2021-07-17T12:10:28.000Z</time>
      </trkpt>
      <trkpt lat="47.37399" lon="0.75623">
        <ele>54</ele>
        <time>2021-07-17T12:10:31.000Z</time>
      </trkpt>
      <trkpt lat="47.37443" lon="0.75577">
        <ele>54.200000762939</ele>
        <time>2021-07-17T12:10:40.000Z</time>
      </trkpt>
      <trkpt lat="47.37452" lon="0.75566">
        <ele>54.400001525879</ele>
        <time>2021-07-17T12:10:42.000Z</time>
      </trkpt>
      <trkpt lat="47.37483" lon="0.75497">
        <ele>54.799999237061</ele>
        <time>2021-07-17T12:10:52.000Z</time>
      </trkpt>
      <trkpt lat="47.37491" lon="0.75479">
        <ele>55.599998474121</ele>
        <time>2021-07-17T12:10:55.000Z</time>
      </trkpt>
      <trkpt lat="47.37523" lon="0.75406">
        <ele>55.599998474121</ele>
        <time>2021-07-17T12:11:05.000Z</time>
      </trkpt>
      <trkpt lat="47.37542" lon="0.75328">
        <ele>54.799999237061</ele>
        <time>2021-07-17T12:11:14.000Z</time>
      </trkpt>
      <trkpt lat="47.37553" lon="0.75243">
        <ele>56.200000762939</ele>
        <time>2021-07-17T12:11:23.000Z</time>
      </trkpt>
      <trkpt lat="47.37559" lon="0.75158">
        <ele>55.799999237061</ele>
        <time>2021-07-17T12:11:32.000Z</time>
      </trkpt>
      <trkpt lat="47.37561" lon="0.75072">
        <ele>56.200000762939</ele>
        <time>2021-07-17T12:11:41.000Z</time>
      </trkpt>
      <trkpt lat="47.37555" lon="0.74989">
        <ele>55.799999237061</ele>
        <time>2021-07-17T12:11:50.000Z</time>
      </trkpt>
      <trkpt lat="47.37537" lon="0.74906">
        <ele>55.799999237061</ele>
        <time>2021-07-17T12:12:00.000Z</time>
      </trkpt>
      <trkpt lat="47.37514" lon="0.74825">
        <ele>56.200000762939</ele>
        <time>2021-07-17T12:12:10.000Z</time>
      </trkpt>
      <trkpt lat="47.37488" lon="0.74755">
        <ele>56.400001525879</ele>
        <time>2021-07-17T12:12:19.000Z</time>
      </trkpt>
      <trkpt lat="47.37465" lon="0.74702">
        <ele>54.400001525879</ele>
        <time>2021-07-17T12:12:26.000Z</time>
      </trkpt>
      <trkpt lat="47.37428" lon="0.74635">
        <ele>54.599998474121</ele>
        <time>2021-07-17T12:12:36.000Z</time>
      </trkpt>
      <trkpt lat="47.3739" lon="0.74575">
        <ele>54.400001525879</ele>
        <time>2021-07-17T12:12:45.000Z</time>
      </trkpt>
      <trkpt lat="47.37349" lon="0.74521">
        <ele>54.799999237061</ele>
        <time>2021-07-17T12:12:54.000Z</time>
      </trkpt>
      <trkpt lat="47.37326" lon="0.74495">
        <ele>55.599998474121</ele>
        <time>2021-07-17T12:12:59.000Z</time>
      </trkpt>
      <trkpt lat="47.37316" lon="0.74485">
        <ele>56</ele>
        <time>2021-07-17T12:13:01.000Z</time>
      </trkpt>
      <trkpt lat="47.37271" lon="0.7444">
        <ele>55</ele>
        <time>2021-07-17T12:13:10.000Z</time>
      </trkpt>
      <trkpt lat="47.37228" lon="0.74395">
        <ele>54.400001525879</ele>
        <time>2021-07-17T12:13:19.000Z</time>
      </trkpt>
      <trkpt lat="47.37178" lon="0.7435">
        <ele>55</ele>
        <time>2021-07-17T12:13:29.000Z</time>
      </trkpt>
      <trkpt lat="47.37151" lon="0.74319">
        <ele>55.599998474121</ele>
        <time>2021-07-17T12:13:35.000Z</time>
      </trkpt>
      <trkpt lat="47.37116" lon="0.74252">
        <ele>55.400001525879</ele>
        <time>2021-07-17T12:13:45.000Z</time>
      </trkpt>
      <trkpt lat="47.37093" lon="0.74175">
        <ele>55.400001525879</ele>
        <time>2021-07-17T12:13:55.000Z</time>
      </trkpt>
      <trkpt lat="47.37082" lon="0.74091">
        <ele>55.200000762939</ele>
        <time>2021-07-17T12:14:05.000Z</time>
      </trkpt>
      <trkpt lat="47.37083" lon="0.74004">
        <ele>54.799999237061</ele>
        <time>2021-07-17T12:14:15.000Z</time>
      </trkpt>
      <trkpt lat="47.37093" lon="0.73922">
        <ele>55.200000762939</ele>
        <time>2021-07-17T12:14:25.000Z</time>
      </trkpt>
      <trkpt lat="47.37109" lon="0.73843">
        <ele>55.400001525879</ele>
        <time>2021-07-17T12:14:35.000Z</time>
      </trkpt>
      <trkpt lat="47.37111" lon="0.73828">
        <ele>55.599998474121</ele>
        <time>2021-07-17T12:14:37.000Z</time>
      </trkpt>
      <trkpt lat="47.37124" lon="0.73747">
        <ele>55.400001525879</ele>
        <time>2021-07-17T12:14:47.000Z</time>
      </trkpt>
      <trkpt lat="47.37135" lon="0.73667">
        <ele>56</ele>
        <time>2021-07-17T12:14:56.000Z</time>
      </trkpt>
      <trkpt lat="47.37146" lon="0.73588">
        <ele>55</ele>
        <time>2021-07-17T12:15:06.000Z</time>
      </trkpt>
      <trkpt lat="47.37162" lon="0.73504">
        <ele>55.200000762939</ele>
        <time>2021-07-17T12:15:16.000Z</time>
      </trkpt>
      <trkpt lat="47.37176" lon="0.73429">
        <ele>54.200000762939</ele>
        <time>2021-07-17T12:15:25.000Z</time>
      </trkpt>
      <trkpt lat="47.37193" lon="0.73351">
        <ele>54</ele>
        <time>2021-07-17T12:15:35.000Z</time>
      </trkpt>
      <trkpt lat="47.37212" lon="0.73271">
        <ele>54.200000762939</ele>
        <time>2021-07-17T12:15:45.000Z</time>
      </trkpt>
      <trkpt lat="47.37231" lon="0.73191">
        <ele>53.599998474121</ele>
        <time>2021-07-17T12:15:55.000Z</time>
      </trkpt>
      <trkpt lat="47.3725" lon="0.73112">
        <ele>53.200000762939</ele>
        <time>2021-07-17T12:16:05.000Z</time>
      </trkpt>
      <trkpt lat="47.37267" lon="0.73035">
        <ele>53.599998474121</ele>
        <time>2021-07-17T12:16:15.000Z</time>
      </trkpt>
      <trkpt lat="47.37285" lon="0.72952">
        <ele>53.200000762939</ele>
        <time>2021-07-17T12:16:26.000Z</time>
      </trkpt>
      <trkpt lat="47.37287" lon="0.72944">
        <ele>53.200000762939</ele>
        <time>2021-07-17T12:16:27.000Z</time>
      </trkpt>
      <trkpt lat="47.37301" lon="0.72867">
        <ele>53.599998474121</ele>
        <time>2021-07-17T12:16:37.000Z</time>
      </trkpt>
      <trkpt lat="47.37316" lon="0.7279">
        <ele>53.599998474121</ele>
        <time>2021-07-17T12:16:47.000Z</time>
      </trkpt>
      <trkpt lat="47.37329" lon="0.72706">
        <ele>53</ele>
        <time>2021-07-17T12:16:57.000Z</time>
      </trkpt>
      <trkpt lat="47.37343" lon="0.72624">
        <ele>52.799999237061</ele>
        <time>2021-07-17T12:17:07.000Z</time>
      </trkpt>
      <trkpt lat="47.37353" lon="0.72576">
        <ele>52.200000762939</ele>
        <time>2021-07-17T12:17:13.000Z</time>
      </trkpt>
      <trkpt lat="47.37366" lon="0.72495">
        <ele>52.599998474121</ele>
        <time>2021-07-17T12:17:23.000Z</time>
      </trkpt>
      <trkpt lat="47.37371" lon="0.72466">
        <ele>53.200000762939</ele>
        <time>2021-07-17T12:17:27.000Z</time>
      </trkpt>
      <trkpt lat="47.37372" lon="0.72452">
        <ele>53</ele>
        <time>2021-07-17T12:17:29.000Z</time>
      </trkpt>
      <trkpt lat="47.37374" lon="0.72438">
        <ele>53.200000762939</ele>
        <time>2021-07-17T12:17:31.000Z</time>
      </trkpt>
      <trkpt lat="47.37381" lon="0.72392">
        <ele>53</ele>
        <time>2021-07-17T12:17:37.000Z</time>
      </trkpt>
      <trkpt lat="47.37387" lon="0.72336">
        <ele>54.799999237061</ele>
        <time>2021-07-17T12:17:44.000Z</time>
      </trkpt>
      <trkpt lat="47.37394" lon="0.72272">
        <ele>53.799999237061</ele>
        <time>2021-07-17T12:17:52.000Z</time>
      </trkpt>
      <trkpt lat="47.374" lon="0.72191">
        <ele>53.400001525879</ele>
        <time>2021-07-17T12:18:03.000Z</time>
      </trkpt>
      <trkpt lat="47.37403" lon="0.72148">
        <ele>53.200000762939</ele>
        <time>2021-07-17T12:18:09.000Z</time>
      </trkpt>
      <trkpt lat="47.3741" lon="0.721">
        <ele>53.200000762939</ele>
        <time>2021-07-17T12:18:18.000Z</time>
      </trkpt>
      <trkpt lat="47.37412" lon="0.72021">
        <ele>53.200000762939</ele>
        <time>2021-07-17T12:18:30.000Z</time>
      </trkpt>
      <trkpt lat="47.37413" lon="0.72007">
        <ele>52</ele>
        <time>2021-07-17T12:18:32.000Z</time>
      </trkpt>
      <trkpt lat="47.37413" lon="0.71923">
        <ele>52.200000762939</ele>
        <time>2021-07-17T12:18:43.000Z</time>
      </trkpt>
      <trkpt lat="47.37412" lon="0.71843">
        <ele>52.599998474121</ele>
        <time>2021-07-17T12:18:53.000Z</time>
      </trkpt>
      <trkpt lat="47.37412" lon="0.71828">
        <ele>52.799999237061</ele>
        <time>2021-07-17T12:18:55.000Z</time>
      </trkpt>
      <trkpt lat="47.37412" lon="0.71812">
        <ele>53</ele>
        <time>2021-07-17T12:18:57.000Z</time>
      </trkpt>
      <trkpt lat="47.37412" lon="0.71805">
        <ele>53</ele>
        <time>2021-07-17T12:18:58.000Z</time>
      </trkpt>
      <trkpt lat="47.37411" lon="0.7173">
        <ele>53.200000762939</ele>
        <time>2021-07-17T12:19:08.000Z</time>
      </trkpt>
      <trkpt lat="47.37408" lon="0.71649">
        <ele>53</ele>
        <time>2021-07-17T12:19:18.000Z</time>
      </trkpt>
      <trkpt lat="47.37408" lon="0.71605">
        <ele>51.799999237061</ele>
        <time>2021-07-17T12:19:23.000Z</time>
      </trkpt>
      <trkpt lat="47.37412" lon="0.71518">
        <ele>52.599998474121</ele>
        <time>2021-07-17T12:19:34.000Z</time>
      </trkpt>
      <trkpt lat="47.37412" lon="0.7151">
        <ele>52.400001525879</ele>
        <time>2021-07-17T12:19:35.000Z</time>
      </trkpt>
      <trkpt lat="47.37411" lon="0.71474">
        <ele>53</ele>
        <time>2021-07-17T12:19:39.000Z</time>
      </trkpt>
      <trkpt lat="47.37409" lon="0.7139">
        <ele>53.200000762939</ele>
        <time>2021-07-17T12:19:49.000Z</time>
      </trkpt>
      <trkpt lat="47.37408" lon="0.71349">
        <ele>52.799999237061</ele>
        <time>2021-07-17T12:19:54.000Z</time>
      </trkpt>
      <trkpt lat="47.37405" lon="0.71265">
        <ele>53.200000762939</ele>
        <time>2021-07-17T12:20:04.000Z</time>
      </trkpt>
      <trkpt lat="47.37405" lon="0.71234">
        <ele>54.200000762939</ele>
        <time>2021-07-17T12:20:08.000Z</time>
      </trkpt>
      <trkpt lat="47.37405" lon="0.71173">
        <ele>53.400001525879</ele>
        <time>2021-07-17T12:20:15.000Z</time>
      </trkpt>
      <trkpt lat="47.37402" lon="0.71092">
        <ele>54</ele>
        <time>2021-07-17T12:20:25.000Z</time>
      </trkpt>
      <trkpt lat="47.37401" lon="0.71008">
        <ele>54.799999237061</ele>
        <time>2021-07-17T12:20:36.000Z</time>
      </trkpt>
      <trkpt lat="47.374" lon="0.70924">
        <ele>54.400001525879</ele>
        <time>2021-07-17T12:20:48.000Z</time>
      </trkpt>
      <trkpt lat="47.374" lon="0.70917">
        <ele>54.400001525879</ele>
        <time>2021-07-17T12:20:49.000Z</time>
      </trkpt>
      <trkpt lat="47.37399" lon="0.70834">
        <ele>54.599998474121</ele>
        <time>2021-07-17T12:21:00.000Z</time>
      </trkpt>
      <trkpt lat="47.37397" lon="0.70749">
        <ele>55</ele>
        <time>2021-07-17T12:21:11.000Z</time>
      </trkpt>
      <trkpt lat="47.37397" lon="0.70741">
        <ele>55.200000762939</ele>
        <time>2021-07-17T12:21:12.000Z</time>
      </trkpt>
      <trkpt lat="47.37396" lon="0.70657">
        <ele>55.400001525879</ele>
        <time>2021-07-17T12:21:23.000Z</time>
      </trkpt>
      <trkpt lat="47.37395" lon="0.70572">
        <ele>55.599998474121</ele>
        <time>2021-07-17T12:21:33.000Z</time>
      </trkpt>
      <trkpt lat="47.37395" lon="0.70515">
        <ele>56.400001525879</ele>
        <time>2021-07-17T12:21:40.000Z</time>
      </trkpt>
      <trkpt lat="47.37395" lon="0.70437">
        <ele>57.599998474121</ele>
        <time>2021-07-17T12:21:50.000Z</time>
      </trkpt>
      <trkpt lat="47.37396" lon="0.70423">
        <ele>57.799999237061</ele>
        <time>2021-07-17T12:21:52.000Z</time>
      </trkpt>
      <trkpt lat="47.37395" lon="0.70409">
        <ele>57.799999237061</ele>
        <time>2021-07-17T12:21:54.000Z</time>
      </trkpt>
      <trkpt lat="47.37389" lon="0.70323">
        <ele>56.599998474121</ele>
        <time>2021-07-17T12:22:06.000Z</time>
      </trkpt>
      <trkpt lat="47.37389" lon="0.70314">
        <ele>56.400001525879</ele>
        <time>2021-07-17T12:22:07.000Z</time>
      </trkpt>
      <trkpt lat="47.37387" lon="0.70287">
        <ele>54.799999237061</ele>
        <time>2021-07-17T12:22:10.000Z</time>
      </trkpt>
      <trkpt lat="47.37385" lon="0.70223">
        <ele>56</ele>
        <time>2021-07-17T12:22:18.000Z</time>
      </trkpt>
      <trkpt lat="47.37392" lon="0.7021">
        <ele>56.599998474121</ele>
        <time>2021-07-17T12:22:21.000Z</time>
      </trkpt>
      <trkpt lat="47.37395" lon="0.70209">
        <ele>57.200000762939</ele>
        <time>2021-07-17T12:22:22.000Z</time>
      </trkpt>
      <trkpt lat="47.37413" lon="0.70204">
        <ele>58.400001525879</ele>
        <time>2021-07-17T12:22:27.000Z</time>
      </trkpt>
      <trkpt lat="47.37415" lon="0.70194">
        <ele>58.400001525879</ele>
        <time>2021-07-17T12:22:29.000Z</time>
      </trkpt>
      <trkpt lat="47.37415" lon="0.70114">
        <ele>59.200000762939</ele>
        <time>2021-07-17T12:22:43.000Z</time>
      </trkpt>
      <trkpt lat="47.37418" lon="0.701">
        <ele>59.599998474121</ele>
        <time>2021-07-17T12:22:46.000Z</time>
      </trkpt>
      <trkpt lat="47.37418" lon="0.70093">
        <ele>59.599998474121</ele>
        <time>2021-07-17T12:22:47.000Z</time>
      </trkpt>
      <trkpt lat="47.37412" lon="0.70013">
        <ele>60.200000762939</ele>
        <time>2021-07-17T12:22:59.000Z</time>
      </trkpt>
      <trkpt lat="47.37408" lon="0.69932">
        <ele>59.799999237061</ele>
        <time>2021-07-17T12:23:10.000Z</time>
      </trkpt>
      <trkpt lat="47.37405" lon="0.69852">
        <ele>59.599998474121</ele>
        <time>2021-07-17T12:23:21.000Z</time>
      </trkpt>
      <trkpt lat="47.37401" lon="0.69832">
        <ele>59.599998474121</ele>
        <time>2021-07-17T12:23:24.000Z</time>
      </trkpt>
      <trkpt lat="47.37387" lon="0.69749">
        <ele>58.799999237061</ele>
        <time>2021-07-17T12:23:35.000Z</time>
      </trkpt>
      <trkpt lat="47.37388" lon="0.69717">
        <ele>58.400001525879</ele>
        <time>2021-07-17T12:23:39.000Z</time>
      </trkpt>
      <trkpt lat="47.37389" lon="0.69695">
        <ele>59.599998474121</ele>
        <time>2021-07-17T12:23:42.000Z</time>
      </trkpt>
      <trkpt lat="47.37389" lon="0.69689">
        <ele>60.599998474121</ele>
        <time>2021-07-17T12:23:43.000Z</time>
      </trkpt>
      <trkpt lat="47.3739" lon="0.69621">
        <ele>60.599998474121</ele>
        <time>2021-07-17T12:23:55.000Z</time>
      </trkpt>
      <trkpt lat="47.37391" lon="0.69605">
        <ele>60.799999237061</ele>
        <time>2021-07-17T12:23:57.000Z</time>
      </trkpt>
      <trkpt lat="47.37385" lon="0.69573">
        <ele>60.599998474121</ele>
        <time>2021-07-17T12:24:06.000Z</time>
      </trkpt>
      <trkpt lat="47.37378" lon="0.69494">
        <ele>61.200000762939</ele>
        <time>2021-07-17T12:24:24.000Z</time>
      </trkpt>
      <trkpt lat="47.37379" lon="0.69481">
        <ele>60.799999237061</ele>
        <time>2021-07-17T12:24:26.000Z</time>
      </trkpt>
      <trkpt lat="47.3738" lon="0.69468">
        <ele>60.799999237061</ele>
        <time>2021-07-17T12:24:28.000Z</time>
      </trkpt>
      <trkpt lat="47.37379" lon="0.69455">
        <ele>60.599998474121</ele>
        <time>2021-07-17T12:24:30.000Z</time>
      </trkpt>
      <trkpt lat="47.37382" lon="0.69383">
        <ele>59.599998474121</ele>
        <time>2021-07-17T12:24:40.000Z</time>
      </trkpt>
      <trkpt lat="47.37382" lon="0.69376">
        <ele>59.599998474121</ele>
        <time>2021-07-17T12:24:41.000Z</time>
      </trkpt>
      <trkpt lat="47.37367" lon="0.69298">
        <ele>59.200000762939</ele>
        <time>2021-07-17T12:24:52.000Z</time>
      </trkpt>
      <trkpt lat="47.3736" lon="0.69276">
        <ele>59.200000762939</ele>
        <time>2021-07-17T12:24:55.000Z</time>
      </trkpt>
      <trkpt lat="47.37347" lon="0.69253">
        <ele>59.200000762939</ele>
        <time>2021-07-17T12:24:59.000Z</time>
      </trkpt>
      <trkpt lat="47.37336" lon="0.69245">
        <ele>58.400001525879</ele>
        <time>2021-07-17T12:25:02.000Z</time>
      </trkpt>
      <trkpt lat="47.37335" lon="0.69229">
        <ele>58.400001525879</ele>
        <time>2021-07-17T12:25:05.000Z</time>
      </trkpt>
      <trkpt lat="47.37329" lon="0.6919">
        <ele>58</ele>
        <time>2021-07-17T12:25:10.000Z</time>
      </trkpt>
      <trkpt lat="47.37324" lon="0.69168">
        <ele>58.599998474121</ele>
        <time>2021-07-17T12:25:13.000Z</time>
      </trkpt>
      <trkpt lat="47.373" lon="0.69159">
        <ele>58.200000762939</ele>
        <time>2021-07-17T12:25:22.000Z</time>
      </trkpt>
    </trkseg>
  </trk>
</gpx>